<?xml version="1.0" encoding="UTF-8" standalone="no" ?>
<gpx xmlns="http://www.topografix.com/GPX/1/1" xmlns:xsi="http://www.w3.org/2001/XMLSchema-instance" xsi:schemaLocation="http://www.topografix.com/GPX/1/1 http://www.topografix.com/GPX/1/1/gpx.xsd" version="1.1" creator="VisuGPX - https://www.visugpx.com">
  <metadata>
    <name>étang_2015</name>
  </metadata>
  <wpt lat="47.79277" lon="6.53574">
    <ele>457.8</ele>
    <name><![CDATA[3 Rue du Château D'eau (départ)]]></name>
  </wpt>
  <wpt lat="47.80054" lon="6.54139">
    <ele>483.7</ele>
    <name><![CDATA[3 Rue du Château D'eau (fin)]]></name>
    <desc><![CDATA[Créé par Mes parcours sur Android  Nom : 3 Rue du Château D'eau Type d'activité : cyclisme Description : - Distance totale : 34,09 km (21,2 mi) Durée totale : 2:05:56 Durée du déplacement : 2:01:40 Vitesse moyenne : 16,24 km/h (10,1 mi/h) Vitesse moyenne de déplacement : 16,81 km/h (10,4 mi/h) Vitesse max. : 54,90 km/h (34,1 mi/h) Vitesse moyenne : 3:42 min/km (5:57 min/mi) Allure moyenne : 3:34 min/km (5:45 min/mi) Vitesse maximale : 1:06 min/km (1:46 min/mi) Élévation max. : 544 m (1783 pi) Élévation min. : 385 m (1263 pi) Dénivelé : 874 m (2868 pi) Inclinaison max. : 39 % Inclinaison min. : -26 % Date d'enregistrement : 13/6/2015 14:14]]></desc>
  </wpt>
  <trk>
    <name><![CDATA[3 Rue du Château D'eau]]></name>
    <trkseg>
      <trkpt lat="47.79277" lon="6.53574">
        <ele>457.834</ele>
        <time>2015-06-13T12:14:08.757Z</time>
      </trkpt>
      <trkpt lat="47.79289" lon="6.536">
        <ele>463.995</ele>
        <time>2015-06-13T12:14:35.908Z</time>
      </trkpt>
      <trkpt lat="47.79277" lon="6.53584">
        <ele>459.125</ele>
        <time>2015-06-13T12:14:36.907Z</time>
      </trkpt>
      <trkpt lat="47.79274" lon="6.53591">
        <ele>459.848</ele>
        <time>2015-06-13T12:14:37.941Z</time>
      </trkpt>
      <trkpt lat="47.79273" lon="6.53597">
        <ele>460.834</ele>
        <time>2015-06-13T12:14:38.945Z</time>
      </trkpt>
      <trkpt lat="47.79277" lon="6.53608">
        <ele>463.291</ele>
        <time>2015-06-13T12:14:44.967Z</time>
      </trkpt>
      <trkpt lat="47.79279" lon="6.53606">
        <ele>463.363</ele>
        <time>2015-06-13T12:14:45.881Z</time>
      </trkpt>
      <trkpt lat="47.79285" lon="6.53612">
        <ele>464.84</ele>
        <time>2015-06-13T12:14:48.942Z</time>
      </trkpt>
      <trkpt lat="47.79288" lon="6.53614">
        <ele>465.191</ele>
        <time>2015-06-13T12:14:49.94Z</time>
      </trkpt>
      <trkpt lat="47.79296" lon="6.53619">
        <ele>465.946</ele>
        <time>2015-06-13T12:14:52.928Z</time>
      </trkpt>
      <trkpt lat="47.79298" lon="6.53621">
        <ele>466.143</ele>
        <time>2015-06-13T12:14:53.938Z</time>
      </trkpt>
      <trkpt lat="47.79305" lon="6.53624">
        <ele>466.489</ele>
        <time>2015-06-13T12:14:55.956Z</time>
      </trkpt>
      <trkpt lat="47.79308" lon="6.53625">
        <ele>466.582</ele>
        <time>2015-06-13T12:14:56.964Z</time>
      </trkpt>
      <trkpt lat="47.79315" lon="6.53629">
        <ele>466.633</ele>
        <time>2015-06-13T12:14:58.951Z</time>
      </trkpt>
      <trkpt lat="47.79319" lon="6.53631">
        <ele>466.559</ele>
        <time>2015-06-13T12:14:59.94Z</time>
      </trkpt>
      <trkpt lat="47.79327" lon="6.53635">
        <ele>466.356</ele>
        <time>2015-06-13T12:15:02.143Z</time>
      </trkpt>
      <trkpt lat="47.79331" lon="6.53637">
        <ele>466.174</ele>
        <time>2015-06-13T12:15:02.994Z</time>
      </trkpt>
      <trkpt lat="47.79339" lon="6.53641">
        <ele>466.251</ele>
        <time>2015-06-13T12:15:04.939Z</time>
      </trkpt>
      <trkpt lat="47.79343" lon="6.53643">
        <ele>466.41</ele>
        <time>2015-06-13T12:15:05.94Z</time>
      </trkpt>
      <trkpt lat="47.7935" lon="6.53648">
        <ele>466.809</ele>
        <time>2015-06-13T12:15:07.877Z</time>
      </trkpt>
      <trkpt lat="47.79353" lon="6.53649">
        <ele>467.139</ele>
        <time>2015-06-13T12:15:08.92Z</time>
      </trkpt>
      <trkpt lat="47.79359" lon="6.53653">
        <ele>467.755</ele>
        <time>2015-06-13T12:15:10.962Z</time>
      </trkpt>
      <trkpt lat="47.79363" lon="6.53656">
        <ele>467.978</ele>
        <time>2015-06-13T12:15:11.972Z</time>
      </trkpt>
      <trkpt lat="47.79371" lon="6.5366">
        <ele>467.92</ele>
        <time>2015-06-13T12:15:13.899Z</time>
      </trkpt>
      <trkpt lat="47.79375" lon="6.53662">
        <ele>467.924</ele>
        <time>2015-06-13T12:15:14.905Z</time>
      </trkpt>
      <trkpt lat="47.79382" lon="6.53669">
        <ele>467.95</ele>
        <time>2015-06-13T12:15:16.942Z</time>
      </trkpt>
      <trkpt lat="47.79387" lon="6.5367">
        <ele>467.975</ele>
        <time>2015-06-13T12:15:17.903Z</time>
      </trkpt>
      <trkpt lat="47.79392" lon="6.53673">
        <ele>467.81</ele>
        <time>2015-06-13T12:15:18.965Z</time>
      </trkpt>
      <trkpt lat="47.79398" lon="6.53677">
        <ele>467.298</ele>
        <time>2015-06-13T12:15:19.933Z</time>
      </trkpt>
      <trkpt lat="47.79403" lon="6.5368">
        <ele>466.812</ele>
        <time>2015-06-13T12:15:20.943Z</time>
      </trkpt>
      <trkpt lat="47.79408" lon="6.53683">
        <ele>466.109</ele>
        <time>2015-06-13T12:15:21.941Z</time>
      </trkpt>
      <trkpt lat="47.79412" lon="6.53687">
        <ele>465.316</ele>
        <time>2015-06-13T12:15:22.927Z</time>
      </trkpt>
      <trkpt lat="47.79417" lon="6.5369">
        <ele>464.555</ele>
        <time>2015-06-13T12:15:22.532Z</time>
      </trkpt>
      <trkpt lat="47.79422" lon="6.53694">
        <ele>463.355</ele>
        <time>2015-06-13T12:15:23.553Z</time>
      </trkpt>
      <trkpt lat="47.79427" lon="6.53695">
        <ele>462.554</ele>
        <time>2015-06-13T12:15:24.616Z</time>
      </trkpt>
      <trkpt lat="47.79432" lon="6.53699">
        <ele>461.977</ele>
        <time>2015-06-13T12:15:25.605Z</time>
      </trkpt>
      <trkpt lat="47.79437" lon="6.53702">
        <ele>461.484</ele>
        <time>2015-06-13T12:15:26.606Z</time>
      </trkpt>
      <trkpt lat="47.79442" lon="6.53706">
        <ele>461.121</ele>
        <time>2015-06-13T12:15:27.601Z</time>
      </trkpt>
      <trkpt lat="47.79447" lon="6.53711">
        <ele>461.135</ele>
        <time>2015-06-13T12:15:28.601Z</time>
      </trkpt>
      <trkpt lat="47.79449" lon="6.53717">
        <ele>461.52</ele>
        <time>2015-06-13T12:15:29.618Z</time>
      </trkpt>
      <trkpt lat="47.79451" lon="6.53725">
        <ele>461.847</ele>
        <time>2015-06-13T12:15:30.615Z</time>
      </trkpt>
      <trkpt lat="47.79453" lon="6.53734">
        <ele>462.076</ele>
        <time>2015-06-13T12:15:31.617Z</time>
      </trkpt>
      <trkpt lat="47.79454" lon="6.53742">
        <ele>462.388</ele>
        <time>2015-06-13T12:15:32.598Z</time>
      </trkpt>
      <trkpt lat="47.79456" lon="6.53753">
        <ele>462.572</ele>
        <time>2015-06-13T12:15:33.628Z</time>
      </trkpt>
      <trkpt lat="47.79457" lon="6.53763">
        <ele>461.73</ele>
        <time>2015-06-13T12:15:34.609Z</time>
      </trkpt>
      <trkpt lat="47.79458" lon="6.53774">
        <ele>460.807</ele>
        <time>2015-06-13T12:15:35.605Z</time>
      </trkpt>
      <trkpt lat="47.79461" lon="6.53785">
        <ele>461.335</ele>
        <time>2015-06-13T12:15:36.599Z</time>
      </trkpt>
      <trkpt lat="47.79464" lon="6.53795">
        <ele>462.054</ele>
        <time>2015-06-13T12:15:37.606Z</time>
      </trkpt>
      <trkpt lat="47.79466" lon="6.53805">
        <ele>462.47</ele>
        <time>2015-06-13T12:15:38.598Z</time>
      </trkpt>
      <trkpt lat="47.7947" lon="6.53816">
        <ele>461.816</ele>
        <time>2015-06-13T12:15:39.6Z</time>
      </trkpt>
      <trkpt lat="47.79472" lon="6.53824">
        <ele>461.359</ele>
        <time>2015-06-13T12:15:40.598Z</time>
      </trkpt>
      <trkpt lat="47.79478" lon="6.53833">
        <ele>460.405</ele>
        <time>2015-06-13T12:15:41.618Z</time>
      </trkpt>
      <trkpt lat="47.79482" lon="6.53842">
        <ele>457.91</ele>
        <time>2015-06-13T12:15:42.603Z</time>
      </trkpt>
      <trkpt lat="47.79487" lon="6.5385">
        <ele>455.921</ele>
        <time>2015-06-13T12:15:43.584Z</time>
      </trkpt>
      <trkpt lat="47.79494" lon="6.53856">
        <ele>455.156</ele>
        <time>2015-06-13T12:15:44.625Z</time>
      </trkpt>
      <trkpt lat="47.79501" lon="6.5386">
        <ele>454.912</ele>
        <time>2015-06-13T12:15:45.611Z</time>
      </trkpt>
      <trkpt lat="47.79509" lon="6.53864">
        <ele>453.603</ele>
        <time>2015-06-13T12:15:46.587Z</time>
      </trkpt>
      <trkpt lat="47.79517" lon="6.53866">
        <ele>452.405</ele>
        <time>2015-06-13T12:15:47.597Z</time>
      </trkpt>
      <trkpt lat="47.79527" lon="6.53868">
        <ele>451.047</ele>
        <time>2015-06-13T12:15:48.605Z</time>
      </trkpt>
      <trkpt lat="47.79537" lon="6.53871">
        <ele>450.047</ele>
        <time>2015-06-13T12:15:49.631Z</time>
      </trkpt>
      <trkpt lat="47.79543" lon="6.53872">
        <ele>449.313</ele>
        <time>2015-06-13T12:15:50.615Z</time>
      </trkpt>
      <trkpt lat="47.79551" lon="6.53875">
        <ele>448.492</ele>
        <time>2015-06-13T12:15:51.625Z</time>
      </trkpt>
      <trkpt lat="47.79562" lon="6.53877">
        <ele>447.207</ele>
        <time>2015-06-13T12:15:52.605Z</time>
      </trkpt>
      <trkpt lat="47.79569" lon="6.53878">
        <ele>446.35</ele>
        <time>2015-06-13T12:15:53.598Z</time>
      </trkpt>
      <trkpt lat="47.79579" lon="6.53882">
        <ele>445.302</ele>
        <time>2015-06-13T12:15:54.598Z</time>
      </trkpt>
      <trkpt lat="47.79585" lon="6.53883">
        <ele>444.97</ele>
        <time>2015-06-13T12:15:55.612Z</time>
      </trkpt>
      <trkpt lat="47.79594" lon="6.53885">
        <ele>446.341</ele>
        <time>2015-06-13T12:15:56.597Z</time>
      </trkpt>
      <trkpt lat="47.79602" lon="6.53886">
        <ele>447.477</ele>
        <time>2015-06-13T12:15:57.597Z</time>
      </trkpt>
      <trkpt lat="47.7961" lon="6.5389">
        <ele>448.853</ele>
        <time>2015-06-13T12:15:58.597Z</time>
      </trkpt>
      <trkpt lat="47.79618" lon="6.53892">
        <ele>448.754</ele>
        <time>2015-06-13T12:15:59.598Z</time>
      </trkpt>
      <trkpt lat="47.79625" lon="6.53894">
        <ele>448.411</ele>
        <time>2015-06-13T12:16:00.59Z</time>
      </trkpt>
      <trkpt lat="47.79634" lon="6.53894">
        <ele>447.851</ele>
        <time>2015-06-13T12:16:01.6Z</time>
      </trkpt>
      <trkpt lat="47.79643" lon="6.53896">
        <ele>447.813</ele>
        <time>2015-06-13T12:16:02.537Z</time>
      </trkpt>
      <trkpt lat="47.7965" lon="6.53897">
        <ele>448.019</ele>
        <time>2015-06-13T12:16:03.547Z</time>
      </trkpt>
      <trkpt lat="47.79659" lon="6.539">
        <ele>448.504</ele>
        <time>2015-06-13T12:16:04.535Z</time>
      </trkpt>
      <trkpt lat="47.79667" lon="6.53903">
        <ele>449.015</ele>
        <time>2015-06-13T12:16:05.611Z</time>
      </trkpt>
      <trkpt lat="47.79668" lon="6.5391">
        <ele>450.082</ele>
        <time>2015-06-13T12:16:06.608Z</time>
      </trkpt>
      <trkpt lat="47.79672" lon="6.53916">
        <ele>450.9</ele>
        <time>2015-06-13T12:16:07.561Z</time>
      </trkpt>
      <trkpt lat="47.79671" lon="6.53923">
        <ele>451.644</ele>
        <time>2015-06-13T12:16:08.596Z</time>
      </trkpt>
      <trkpt lat="47.79673" lon="6.53936">
        <ele>453.237</ele>
        <time>2015-06-13T12:16:10.621Z</time>
      </trkpt>
      <trkpt lat="47.79674" lon="6.53939">
        <ele>453.864</ele>
        <time>2015-06-13T12:16:11.597Z</time>
      </trkpt>
      <trkpt lat="47.79676" lon="6.53949">
        <ele>455.706</ele>
        <time>2015-06-13T12:16:14.602Z</time>
      </trkpt>
      <trkpt lat="47.79678" lon="6.53952">
        <ele>456.303</ele>
        <time>2015-06-13T12:16:15.604Z</time>
      </trkpt>
      <trkpt lat="47.79682" lon="6.53959">
        <ele>457.361</ele>
        <time>2015-06-13T12:16:17.631Z</time>
      </trkpt>
      <trkpt lat="47.79683" lon="6.53963">
        <ele>457.669</ele>
        <time>2015-06-13T12:16:18.61Z</time>
      </trkpt>
      <trkpt lat="47.79686" lon="6.53975">
        <ele>458.32</ele>
        <time>2015-06-13T12:16:21.614Z</time>
      </trkpt>
      <trkpt lat="47.79687" lon="6.53977">
        <ele>458.697</ele>
        <time>2015-06-13T12:16:22.619Z</time>
      </trkpt>
      <trkpt lat="47.7969" lon="6.53986">
        <ele>460.143</ele>
        <time>2015-06-13T12:16:25.635Z</time>
      </trkpt>
      <trkpt lat="47.79692" lon="6.5399">
        <ele>460.924</ele>
        <time>2015-06-13T12:16:26.647Z</time>
      </trkpt>
      <trkpt lat="47.79694" lon="6.53999">
        <ele>462.785</ele>
        <time>2015-06-13T12:16:28.627Z</time>
      </trkpt>
      <trkpt lat="47.79695" lon="6.54004">
        <ele>463.207</ele>
        <time>2015-06-13T12:16:29.614Z</time>
      </trkpt>
      <trkpt lat="47.79698" lon="6.54012">
        <ele>463.582</ele>
        <time>2015-06-13T12:16:31.551Z</time>
      </trkpt>
      <trkpt lat="47.79699" lon="6.54016">
        <ele>463.836</ele>
        <time>2015-06-13T12:16:32.627Z</time>
      </trkpt>
      <trkpt lat="47.79701" lon="6.54027">
        <ele>464.689</ele>
        <time>2015-06-13T12:16:36.635Z</time>
      </trkpt>
      <trkpt lat="47.79702" lon="6.54029">
        <ele>464.883</ele>
        <time>2015-06-13T12:16:37.641Z</time>
      </trkpt>
      <trkpt lat="47.797" lon="6.54042">
        <ele>466.02</ele>
        <time>2015-06-13T12:16:40.612Z</time>
      </trkpt>
      <trkpt lat="47.79699" lon="6.54046">
        <ele>466.381</ele>
        <time>2015-06-13T12:16:41.572Z</time>
      </trkpt>
      <trkpt lat="47.79695" lon="6.54055">
        <ele>466.994</ele>
        <time>2015-06-13T12:16:43.617Z</time>
      </trkpt>
      <trkpt lat="47.79693" lon="6.54059">
        <ele>467.011</ele>
        <time>2015-06-13T12:16:44.604Z</time>
      </trkpt>
      <trkpt lat="47.79691" lon="6.54071">
        <ele>467.166</ele>
        <time>2015-06-13T12:16:47.613Z</time>
      </trkpt>
      <trkpt lat="47.7969" lon="6.54075">
        <ele>467.234</ele>
        <time>2015-06-13T12:16:48.621Z</time>
      </trkpt>
      <trkpt lat="47.79692" lon="6.54087">
        <ele>467.657</ele>
        <time>2015-06-13T12:16:51.615Z</time>
      </trkpt>
      <trkpt lat="47.79694" lon="6.54092">
        <ele>467.636</ele>
        <time>2015-06-13T12:16:52.579Z</time>
      </trkpt>
      <trkpt lat="47.79698" lon="6.54101">
        <ele>467.966</ele>
        <time>2015-06-13T12:16:54.619Z</time>
      </trkpt>
      <trkpt lat="47.797" lon="6.54105">
        <ele>468.276</ele>
        <time>2015-06-13T12:16:55.621Z</time>
      </trkpt>
      <trkpt lat="47.79705" lon="6.54111">
        <ele>469.154</ele>
        <time>2015-06-13T12:16:57.618Z</time>
      </trkpt>
      <trkpt lat="47.79707" lon="6.54115">
        <ele>469.542</ele>
        <time>2015-06-13T12:16:58.648Z</time>
      </trkpt>
      <trkpt lat="47.79713" lon="6.54121">
        <ele>470.144</ele>
        <time>2015-06-13T12:17:00.611Z</time>
      </trkpt>
      <trkpt lat="47.79716" lon="6.54124">
        <ele>470.426</ele>
        <time>2015-06-13T12:17:01.633Z</time>
      </trkpt>
      <trkpt lat="47.79722" lon="6.5413">
        <ele>470.932</ele>
        <time>2015-06-13T12:17:03.611Z</time>
      </trkpt>
      <trkpt lat="47.79725" lon="6.54133">
        <ele>470.629</ele>
        <time>2015-06-13T12:17:04.636Z</time>
      </trkpt>
      <trkpt lat="47.7973" lon="6.54137">
        <ele>470.345</ele>
        <time>2015-06-13T12:17:06.565Z</time>
      </trkpt>
      <trkpt lat="47.79734" lon="6.5414">
        <ele>470.416</ele>
        <time>2015-06-13T12:17:07.578Z</time>
      </trkpt>
      <trkpt lat="47.7974" lon="6.54146">
        <ele>470.562</ele>
        <time>2015-06-13T12:17:09.64Z</time>
      </trkpt>
      <trkpt lat="47.79742" lon="6.5415">
        <ele>470.541</ele>
        <time>2015-06-13T12:17:10.607Z</time>
      </trkpt>
      <trkpt lat="47.79748" lon="6.54158">
        <ele>470.322</ele>
        <time>2015-06-13T12:17:12.607Z</time>
      </trkpt>
      <trkpt lat="47.79751" lon="6.54162">
        <ele>469.968</ele>
        <time>2015-06-13T12:17:13.595Z</time>
      </trkpt>
      <trkpt lat="47.79755" lon="6.54167">
        <ele>469.325</ele>
        <time>2015-06-13T12:17:14.634Z</time>
      </trkpt>
      <trkpt lat="47.79757" lon="6.54172">
        <ele>468.895</ele>
        <time>2015-06-13T12:17:15.612Z</time>
      </trkpt>
      <trkpt lat="47.79762" lon="6.54182">
        <ele>468.461</ele>
        <time>2015-06-13T12:17:17.608Z</time>
      </trkpt>
      <trkpt lat="47.79764" lon="6.54187">
        <ele>468.351</ele>
        <time>2015-06-13T12:17:18.615Z</time>
      </trkpt>
      <trkpt lat="47.79768" lon="6.54196">
        <ele>468.326</ele>
        <time>2015-06-13T12:17:20.642Z</time>
      </trkpt>
      <trkpt lat="47.7977" lon="6.542">
        <ele>468.226</ele>
        <time>2015-06-13T12:17:21.622Z</time>
      </trkpt>
      <trkpt lat="47.79773" lon="6.54208">
        <ele>468.087</ele>
        <time>2015-06-13T12:17:23.621Z</time>
      </trkpt>
      <trkpt lat="47.79774" lon="6.54213">
        <ele>468.048</ele>
        <time>2015-06-13T12:17:24.631Z</time>
      </trkpt>
      <trkpt lat="47.79775" lon="6.54222">
        <ele>468.001</ele>
        <time>2015-06-13T12:17:26.614Z</time>
      </trkpt>
      <trkpt lat="47.79777" lon="6.54226">
        <ele>467.875</ele>
        <time>2015-06-13T12:17:27.636Z</time>
      </trkpt>
      <trkpt lat="47.79779" lon="6.54235">
        <ele>467.63</ele>
        <time>2015-06-13T12:17:29.614Z</time>
      </trkpt>
      <trkpt lat="47.7978" lon="6.54238">
        <ele>467.596</ele>
        <time>2015-06-13T12:17:30.615Z</time>
      </trkpt>
      <trkpt lat="47.79781" lon="6.54249">
        <ele>467.442</ele>
        <time>2015-06-13T12:17:33.616Z</time>
      </trkpt>
      <trkpt lat="47.79781" lon="6.54253">
        <ele>467.891</ele>
        <time>2015-06-13T12:17:34.621Z</time>
      </trkpt>
      <trkpt lat="47.79783" lon="6.54264">
        <ele>469.814</ele>
        <time>2015-06-13T12:17:37.615Z</time>
      </trkpt>
      <trkpt lat="47.79785" lon="6.54267">
        <ele>470.169</ele>
        <time>2015-06-13T12:17:38.616Z</time>
      </trkpt>
      <trkpt lat="47.79793" lon="6.54273">
        <ele>469.675</ele>
        <time>2015-06-13T12:17:41.641Z</time>
      </trkpt>
      <trkpt lat="47.79795" lon="6.54274">
        <ele>469.258</ele>
        <time>2015-06-13T12:17:42.618Z</time>
      </trkpt>
      <trkpt lat="47.79804" lon="6.54277">
        <ele>467.524</ele>
        <time>2015-06-13T12:17:45.609Z</time>
      </trkpt>
      <trkpt lat="47.79806" lon="6.54278">
        <ele>466.96</ele>
        <time>2015-06-13T12:17:46.615Z</time>
      </trkpt>
      <trkpt lat="47.79814" lon="6.54281">
        <ele>466.434</ele>
        <time>2015-06-13T12:17:49.615Z</time>
      </trkpt>
      <trkpt lat="47.79816" lon="6.54283">
        <ele>466.489</ele>
        <time>2015-06-13T12:17:50.621Z</time>
      </trkpt>
      <trkpt lat="47.79823" lon="6.5429">
        <ele>466.779</ele>
        <time>2015-06-13T12:17:54.617Z</time>
      </trkpt>
      <trkpt lat="47.79825" lon="6.54291">
        <ele>466.814</ele>
        <time>2015-06-13T12:17:55.604Z</time>
      </trkpt>
      <trkpt lat="47.79833" lon="6.54291">
        <ele>466.363</ele>
        <time>2015-06-13T12:17:58.612Z</time>
      </trkpt>
      <trkpt lat="47.79835" lon="6.5429">
        <ele>466.121</ele>
        <time>2015-06-13T12:17:59.617Z</time>
      </trkpt>
      <trkpt lat="47.79842" lon="6.5429">
        <ele>465.498</ele>
        <time>2015-06-13T12:18:02.63Z</time>
      </trkpt>
      <trkpt lat="47.79844" lon="6.54289">
        <ele>465.254</ele>
        <time>2015-06-13T12:18:03.625Z</time>
      </trkpt>
      <trkpt lat="47.79851" lon="6.54287">
        <ele>464.203</ele>
        <time>2015-06-13T12:18:06.631Z</time>
      </trkpt>
      <trkpt lat="47.79854" lon="6.54287">
        <ele>463.877</ele>
        <time>2015-06-13T12:18:07.59Z</time>
      </trkpt>
      <trkpt lat="47.79862" lon="6.54287">
        <ele>463.812</ele>
        <time>2015-06-13T12:18:11.611Z</time>
      </trkpt>
      <trkpt lat="47.79865" lon="6.54289">
        <ele>464.755</ele>
        <time>2015-06-13T12:18:12.603Z</time>
      </trkpt>
      <trkpt lat="47.79871" lon="6.54288">
        <ele>466.725</ele>
        <time>2015-06-13T12:18:15.618Z</time>
      </trkpt>
      <trkpt lat="47.79874" lon="6.54287">
        <ele>467.211</ele>
        <time>2015-06-13T12:18:16.555Z</time>
      </trkpt>
      <trkpt lat="47.79882" lon="6.54284">
        <ele>468.983</ele>
        <time>2015-06-13T12:18:20.764Z</time>
      </trkpt>
      <trkpt lat="47.79884" lon="6.54284">
        <ele>469.46</ele>
        <time>2015-06-13T12:18:21.563Z</time>
      </trkpt>
      <trkpt lat="47.79892" lon="6.54284">
        <ele>471.124</ele>
        <time>2015-06-13T12:18:27.531Z</time>
      </trkpt>
      <trkpt lat="47.79895" lon="6.54282">
        <ele>471.029</ele>
        <time>2015-06-13T12:18:28.527Z</time>
      </trkpt>
      <trkpt lat="47.799" lon="6.54278">
        <ele>470.614</ele>
        <time>2015-06-13T12:18:30.535Z</time>
      </trkpt>
      <trkpt lat="47.79902" lon="6.54274">
        <ele>470.7</ele>
        <time>2015-06-13T12:18:31.604Z</time>
      </trkpt>
      <trkpt lat="47.79907" lon="6.54267">
        <ele>470.924</ele>
        <time>2015-06-13T12:18:33.532Z</time>
      </trkpt>
      <trkpt lat="47.79909" lon="6.54263">
        <ele>470.972</ele>
        <time>2015-06-13T12:18:34.656Z</time>
      </trkpt>
      <trkpt lat="47.79916" lon="6.54256">
        <ele>471.31</ele>
        <time>2015-06-13T12:18:37.62Z</time>
      </trkpt>
      <trkpt lat="47.79919" lon="6.54254">
        <ele>471.334</ele>
        <time>2015-06-13T12:18:38.584Z</time>
      </trkpt>
      <trkpt lat="47.79922" lon="6.5425">
        <ele>471.219</ele>
        <time>2015-06-13T12:18:39.614Z</time>
      </trkpt>
      <trkpt lat="47.79927" lon="6.54248">
        <ele>471.329</ele>
        <time>2015-06-13T12:18:40.615Z</time>
      </trkpt>
      <trkpt lat="47.79935" lon="6.54243">
        <ele>471.563</ele>
        <time>2015-06-13T12:18:42.628Z</time>
      </trkpt>
      <trkpt lat="47.79938" lon="6.5424">
        <ele>471.699</ele>
        <time>2015-06-13T12:18:43.604Z</time>
      </trkpt>
      <trkpt lat="47.79945" lon="6.54235">
        <ele>471.929</ele>
        <time>2015-06-13T12:18:45.613Z</time>
      </trkpt>
      <trkpt lat="47.79948" lon="6.54233">
        <ele>471.616</ele>
        <time>2015-06-13T12:18:46.634Z</time>
      </trkpt>
      <trkpt lat="47.79955" lon="6.54226">
        <ele>470.871</ele>
        <time>2015-06-13T12:18:49.636Z</time>
      </trkpt>
      <trkpt lat="47.79957" lon="6.54224">
        <ele>470.666</ele>
        <time>2015-06-13T12:18:50.62Z</time>
      </trkpt>
      <trkpt lat="47.79963" lon="6.54219">
        <ele>469.493</ele>
        <time>2015-06-13T12:18:53.604Z</time>
      </trkpt>
      <trkpt lat="47.79966" lon="6.54216">
        <ele>468.873</ele>
        <time>2015-06-13T12:18:54.599Z</time>
      </trkpt>
      <trkpt lat="47.79972" lon="6.54209">
        <ele>467.192</ele>
        <time>2015-06-13T12:18:56.53Z</time>
      </trkpt>
      <trkpt lat="47.79975" lon="6.54206">
        <ele>467.186</ele>
        <time>2015-06-13T12:18:57.8Z</time>
      </trkpt>
      <trkpt lat="47.79982" lon="6.542">
        <ele>467.533</ele>
        <time>2015-06-13T12:18:59.598Z</time>
      </trkpt>
      <trkpt lat="47.79985" lon="6.54197">
        <ele>467.621</ele>
        <time>2015-06-13T12:19:00.604Z</time>
      </trkpt>
      <trkpt lat="47.79991" lon="6.54192">
        <ele>468.259</ele>
        <time>2015-06-13T12:19:02.612Z</time>
      </trkpt>
      <trkpt lat="47.79993" lon="6.5419">
        <ele>468.657</ele>
        <time>2015-06-13T12:19:03.632Z</time>
      </trkpt>
      <trkpt lat="47.80001" lon="6.54185">
        <ele>470.081</ele>
        <time>2015-06-13T12:19:06.539Z</time>
      </trkpt>
      <trkpt lat="47.80004" lon="6.54182">
        <ele>471.19</ele>
        <time>2015-06-13T12:19:07.565Z</time>
      </trkpt>
      <trkpt lat="47.80009" lon="6.54178">
        <ele>473.308</ele>
        <time>2015-06-13T12:19:09.619Z</time>
      </trkpt>
      <trkpt lat="47.80043" lon="6.54144">
        <ele>482.584</ele>
        <time>2015-06-13T12:19:27.599Z</time>
      </trkpt>
      <trkpt lat="47.80035" lon="6.54139">
        <ele>480.429</ele>
        <time>2015-06-13T12:19:32.597Z</time>
      </trkpt>
      <trkpt lat="47.80034" lon="6.54139">
        <ele>480.157</ele>
        <time>2015-06-13T12:19:33.645Z</time>
      </trkpt>
      <trkpt lat="47.80031" lon="6.54149">
        <ele>480.835</ele>
        <time>2015-06-13T12:19:36.605Z</time>
      </trkpt>
      <trkpt lat="47.80029" lon="6.54152">
        <ele>480.768</ele>
        <time>2015-06-13T12:19:37.607Z</time>
      </trkpt>
      <trkpt lat="47.80038" lon="6.5415">
        <ele>482.511</ele>
        <time>2015-06-13T12:19:50.606Z</time>
      </trkpt>
      <trkpt lat="47.80039" lon="6.54149">
        <ele>482.561</ele>
        <time>2015-06-13T12:19:51.612Z</time>
      </trkpt>
      <trkpt lat="47.80046" lon="6.54141">
        <ele>482.693</ele>
        <time>2015-06-13T12:20:08.613Z</time>
      </trkpt>
      <trkpt lat="47.80046" lon="6.54141">
        <ele>482.712</ele>
        <time>2015-06-13T12:20:09.604Z</time>
      </trkpt>
      <trkpt lat="47.8005" lon="6.5413">
        <ele>480.568</ele>
        <time>2015-06-13T12:20:16.602Z</time>
      </trkpt>
      <trkpt lat="47.80052" lon="6.54126">
        <ele>479.631</ele>
        <time>2015-06-13T12:20:17.605Z</time>
      </trkpt>
      <trkpt lat="47.80058" lon="6.5412">
        <ele>477.886</ele>
        <time>2015-06-13T12:20:20.618Z</time>
      </trkpt>
      <trkpt lat="47.8006" lon="6.54118">
        <ele>477.427</ele>
        <time>2015-06-13T12:20:21.598Z</time>
      </trkpt>
      <trkpt lat="47.80067" lon="6.54113">
        <ele>476.266</ele>
        <time>2015-06-13T12:20:24.607Z</time>
      </trkpt>
      <trkpt lat="47.80069" lon="6.54111">
        <ele>476.006</ele>
        <time>2015-06-13T12:20:25.601Z</time>
      </trkpt>
      <trkpt lat="47.80075" lon="6.54106">
        <ele>475.91</ele>
        <time>2015-06-13T12:20:28.615Z</time>
      </trkpt>
      <trkpt lat="47.80078" lon="6.54104">
        <ele>475.935</ele>
        <time>2015-06-13T12:20:29.613Z</time>
      </trkpt>
      <trkpt lat="47.80084" lon="6.54096">
        <ele>476.051</ele>
        <time>2015-06-13T12:20:32.612Z</time>
      </trkpt>
      <trkpt lat="47.80086" lon="6.54094">
        <ele>476.174</ele>
        <time>2015-06-13T12:20:33.619Z</time>
      </trkpt>
      <trkpt lat="47.80092" lon="6.54085">
        <ele>476.354</ele>
        <time>2015-06-13T12:20:36.604Z</time>
      </trkpt>
      <trkpt lat="47.80094" lon="6.54081">
        <ele>476.554</ele>
        <time>2015-06-13T12:20:37.589Z</time>
      </trkpt>
      <trkpt lat="47.80098" lon="6.54072">
        <ele>476.937</ele>
        <time>2015-06-13T12:20:39.614Z</time>
      </trkpt>
      <trkpt lat="47.80099" lon="6.54068">
        <ele>476.988</ele>
        <time>2015-06-13T12:20:40.634Z</time>
      </trkpt>
      <trkpt lat="47.80103" lon="6.5406">
        <ele>477.247</ele>
        <time>2015-06-13T12:20:42.654Z</time>
      </trkpt>
      <trkpt lat="47.80106" lon="6.54055">
        <ele>477.405</ele>
        <time>2015-06-13T12:20:43.614Z</time>
      </trkpt>
      <trkpt lat="47.80112" lon="6.54045">
        <ele>477.198</ele>
        <time>2015-06-13T12:20:45.627Z</time>
      </trkpt>
      <trkpt lat="47.80114" lon="6.54041">
        <ele>476.777</ele>
        <time>2015-06-13T12:20:46.62Z</time>
      </trkpt>
      <trkpt lat="47.80118" lon="6.54033">
        <ele>476.056</ele>
        <time>2015-06-13T12:20:48.651Z</time>
      </trkpt>
      <trkpt lat="47.80121" lon="6.5403">
        <ele>475.773</ele>
        <time>2015-06-13T12:20:49.58Z</time>
      </trkpt>
      <trkpt lat="47.80126" lon="6.54025">
        <ele>475.482</ele>
        <time>2015-06-13T12:20:51.609Z</time>
      </trkpt>
      <trkpt lat="47.80128" lon="6.54022">
        <ele>475.378</ele>
        <time>2015-06-13T12:20:52.604Z</time>
      </trkpt>
      <trkpt lat="47.80135" lon="6.54016">
        <ele>475.151</ele>
        <time>2015-06-13T12:20:55.612Z</time>
      </trkpt>
      <trkpt lat="47.80137" lon="6.54013">
        <ele>475.068</ele>
        <time>2015-06-13T12:20:56.696Z</time>
      </trkpt>
      <trkpt lat="47.80144" lon="6.54015">
        <ele>473.757</ele>
        <time>2015-06-13T12:20:59.601Z</time>
      </trkpt>
      <trkpt lat="47.80145" lon="6.54019">
        <ele>473.442</ele>
        <time>2015-06-13T12:21:00.595Z</time>
      </trkpt>
      <trkpt lat="47.80147" lon="6.54028">
        <ele>473.158</ele>
        <time>2015-06-13T12:21:02.6Z</time>
      </trkpt>
      <trkpt lat="47.80148" lon="6.54033">
        <ele>473.274</ele>
        <time>2015-06-13T12:21:03.63Z</time>
      </trkpt>
      <trkpt lat="47.8015" lon="6.54042">
        <ele>473.567</ele>
        <time>2015-06-13T12:21:05.626Z</time>
      </trkpt>
      <trkpt lat="47.80152" lon="6.54047">
        <ele>473.806</ele>
        <time>2015-06-13T12:21:06.634Z</time>
      </trkpt>
      <trkpt lat="47.80154" lon="6.54056">
        <ele>474.451</ele>
        <time>2015-06-13T12:21:08.6Z</time>
      </trkpt>
      <trkpt lat="47.80155" lon="6.5406">
        <ele>474.896</ele>
        <time>2015-06-13T12:21:09.606Z</time>
      </trkpt>
      <trkpt lat="47.80158" lon="6.54068">
        <ele>475.667</ele>
        <time>2015-06-13T12:21:11.606Z</time>
      </trkpt>
      <trkpt lat="47.80159" lon="6.54073">
        <ele>476.135</ele>
        <time>2015-06-13T12:21:12.602Z</time>
      </trkpt>
      <trkpt lat="47.80161" lon="6.54082">
        <ele>477.046</ele>
        <time>2015-06-13T12:21:14.652Z</time>
      </trkpt>
      <trkpt lat="47.80161" lon="6.54086">
        <ele>477.231</ele>
        <time>2015-06-13T12:21:15.613Z</time>
      </trkpt>
      <trkpt lat="47.80163" lon="6.54099">
        <ele>477.3</ele>
        <time>2015-06-13T12:21:18.612Z</time>
      </trkpt>
      <trkpt lat="47.80163" lon="6.54104">
        <ele>477.344</ele>
        <time>2015-06-13T12:21:19.613Z</time>
      </trkpt>
      <trkpt lat="47.80164" lon="6.54116">
        <ele>477.149</ele>
        <time>2015-06-13T12:21:22.614Z</time>
      </trkpt>
      <trkpt lat="47.80164" lon="6.54121">
        <ele>476.997</ele>
        <time>2015-06-13T12:21:23.576Z</time>
      </trkpt>
      <trkpt lat="47.80163" lon="6.54131">
        <ele>476.811</ele>
        <time>2015-06-13T12:21:25.603Z</time>
      </trkpt>
      <trkpt lat="47.80163" lon="6.54135">
        <ele>476.772</ele>
        <time>2015-06-13T12:21:26.604Z</time>
      </trkpt>
      <trkpt lat="47.80163" lon="6.54145">
        <ele>476.299</ele>
        <time>2015-06-13T12:21:28.613Z</time>
      </trkpt>
      <trkpt lat="47.80163" lon="6.5415">
        <ele>475.984</ele>
        <time>2015-06-13T12:21:29.621Z</time>
      </trkpt>
      <trkpt lat="47.80162" lon="6.5416">
        <ele>475.351</ele>
        <time>2015-06-13T12:21:31.618Z</time>
      </trkpt>
      <trkpt lat="47.80163" lon="6.54165">
        <ele>474.891</ele>
        <time>2015-06-13T12:21:32.62Z</time>
      </trkpt>
      <trkpt lat="47.80165" lon="6.54176">
        <ele>474.767</ele>
        <time>2015-06-13T12:21:34.616Z</time>
      </trkpt>
      <trkpt lat="47.80165" lon="6.54182">
        <ele>474.836</ele>
        <time>2015-06-13T12:21:35.632Z</time>
      </trkpt>
      <trkpt lat="47.80166" lon="6.54193">
        <ele>475.102</ele>
        <time>2015-06-13T12:21:37.666Z</time>
      </trkpt>
      <trkpt lat="47.80166" lon="6.54198">
        <ele>475.437</ele>
        <time>2015-06-13T12:21:38.614Z</time>
      </trkpt>
      <trkpt lat="47.80166" lon="6.54209">
        <ele>476.097</ele>
        <time>2015-06-13T12:21:40.612Z</time>
      </trkpt>
      <trkpt lat="47.80167" lon="6.54214">
        <ele>476.44</ele>
        <time>2015-06-13T12:21:41.592Z</time>
      </trkpt>
      <trkpt lat="47.80168" lon="6.54225">
        <ele>477.023</ele>
        <time>2015-06-13T12:21:43.612Z</time>
      </trkpt>
      <trkpt lat="47.80168" lon="6.5423">
        <ele>477.169</ele>
        <time>2015-06-13T12:21:44.56Z</time>
      </trkpt>
      <trkpt lat="47.80169" lon="6.5424">
        <ele>477.396</ele>
        <time>2015-06-13T12:21:46.572Z</time>
      </trkpt>
      <trkpt lat="47.8017" lon="6.54246">
        <ele>477.531</ele>
        <time>2015-06-13T12:21:47.614Z</time>
      </trkpt>
      <trkpt lat="47.8017" lon="6.54256">
        <ele>478.032</ele>
        <time>2015-06-13T12:21:49.628Z</time>
      </trkpt>
      <trkpt lat="47.8017" lon="6.54261">
        <ele>478.346</ele>
        <time>2015-06-13T12:21:50.605Z</time>
      </trkpt>
      <trkpt lat="47.80169" lon="6.54274">
        <ele>479.243</ele>
        <time>2015-06-13T12:21:53.613Z</time>
      </trkpt>
      <trkpt lat="47.8017" lon="6.54278">
        <ele>479.51</ele>
        <time>2015-06-13T12:21:54.613Z</time>
      </trkpt>
      <trkpt lat="47.8017" lon="6.54288">
        <ele>480.783</ele>
        <time>2015-06-13T12:21:56.624Z</time>
      </trkpt>
      <trkpt lat="47.8017" lon="6.54293">
        <ele>481.36</ele>
        <time>2015-06-13T12:21:57.611Z</time>
      </trkpt>
      <trkpt lat="47.80171" lon="6.54303">
        <ele>482.429</ele>
        <time>2015-06-13T12:21:59.627Z</time>
      </trkpt>
      <trkpt lat="47.80172" lon="6.54308">
        <ele>482.829</ele>
        <time>2015-06-13T12:22:00.613Z</time>
      </trkpt>
      <trkpt lat="47.80173" lon="6.54319">
        <ele>483.528</ele>
        <time>2015-06-13T12:22:02.607Z</time>
      </trkpt>
      <trkpt lat="47.80174" lon="6.54326">
        <ele>483.998</ele>
        <time>2015-06-13T12:22:03.608Z</time>
      </trkpt>
      <trkpt lat="47.80175" lon="6.54338">
        <ele>484.322</ele>
        <time>2015-06-13T12:22:05.637Z</time>
      </trkpt>
      <trkpt lat="47.80176" lon="6.54344">
        <ele>484.31</ele>
        <time>2015-06-13T12:22:06.634Z</time>
      </trkpt>
      <trkpt lat="47.80177" lon="6.54351">
        <ele>484.316</ele>
        <time>2015-06-13T12:22:07.587Z</time>
      </trkpt>
      <trkpt lat="47.80178" lon="6.54357">
        <ele>484.365</ele>
        <time>2015-06-13T12:22:08.602Z</time>
      </trkpt>
      <trkpt lat="47.8018" lon="6.54369">
        <ele>484.609</ele>
        <time>2015-06-13T12:22:10.606Z</time>
      </trkpt>
      <trkpt lat="47.8018" lon="6.54374">
        <ele>484.717</ele>
        <time>2015-06-13T12:22:11.605Z</time>
      </trkpt>
      <trkpt lat="47.80183" lon="6.54385">
        <ele>485.145</ele>
        <time>2015-06-13T12:22:13.613Z</time>
      </trkpt>
      <trkpt lat="47.80184" lon="6.5439">
        <ele>485.374</ele>
        <time>2015-06-13T12:22:14.612Z</time>
      </trkpt>
      <trkpt lat="47.80185" lon="6.54402">
        <ele>485.188</ele>
        <time>2015-06-13T12:22:16.609Z</time>
      </trkpt>
      <trkpt lat="47.80186" lon="6.54407">
        <ele>485.107</ele>
        <time>2015-06-13T12:22:17.638Z</time>
      </trkpt>
      <trkpt lat="47.80188" lon="6.54419">
        <ele>485.037</ele>
        <time>2015-06-13T12:22:19.634Z</time>
      </trkpt>
      <trkpt lat="47.8019" lon="6.54424">
        <ele>485.18</ele>
        <time>2015-06-13T12:22:20.619Z</time>
      </trkpt>
      <trkpt lat="47.80192" lon="6.5443">
        <ele>485.411</ele>
        <time>2015-06-13T12:22:21.613Z</time>
      </trkpt>
      <trkpt lat="47.80195" lon="6.54437">
        <ele>485.702</ele>
        <time>2015-06-13T12:22:22.606Z</time>
      </trkpt>
      <trkpt lat="47.80197" lon="6.54445">
        <ele>485.614</ele>
        <time>2015-06-13T12:22:23.615Z</time>
      </trkpt>
      <trkpt lat="47.80201" lon="6.54457">
        <ele>485.931</ele>
        <time>2015-06-13T12:22:24.628Z</time>
      </trkpt>
      <trkpt lat="47.80204" lon="6.54464">
        <ele>486.018</ele>
        <time>2015-06-13T12:22:25.626Z</time>
      </trkpt>
      <trkpt lat="47.80208" lon="6.54476">
        <ele>486.287</ele>
        <time>2015-06-13T12:22:26.627Z</time>
      </trkpt>
      <trkpt lat="47.80213" lon="6.54483">
        <ele>485.873</ele>
        <time>2015-06-13T12:22:27.609Z</time>
      </trkpt>
      <trkpt lat="47.80214" lon="6.54493">
        <ele>486.183</ele>
        <time>2015-06-13T12:22:28.619Z</time>
      </trkpt>
      <trkpt lat="47.80217" lon="6.54502">
        <ele>485.876</ele>
        <time>2015-06-13T12:22:29.597Z</time>
      </trkpt>
      <trkpt lat="47.8022" lon="6.54511">
        <ele>485.363</ele>
        <time>2015-06-13T12:22:30.604Z</time>
      </trkpt>
      <trkpt lat="47.80222" lon="6.54519">
        <ele>485.013</ele>
        <time>2015-06-13T12:22:31.559Z</time>
      </trkpt>
      <trkpt lat="47.80225" lon="6.54528">
        <ele>484.887</ele>
        <time>2015-06-13T12:22:32.61Z</time>
      </trkpt>
      <trkpt lat="47.80227" lon="6.54536">
        <ele>484.446</ele>
        <time>2015-06-13T12:22:33.625Z</time>
      </trkpt>
      <trkpt lat="47.8023" lon="6.54544">
        <ele>483.826</ele>
        <time>2015-06-13T12:22:34.602Z</time>
      </trkpt>
      <trkpt lat="47.80232" lon="6.54555">
        <ele>482.959</ele>
        <time>2015-06-13T12:22:35.604Z</time>
      </trkpt>
      <trkpt lat="47.80235" lon="6.54563">
        <ele>482.134</ele>
        <time>2015-06-13T12:22:36.736Z</time>
      </trkpt>
      <trkpt lat="47.80238" lon="6.54571">
        <ele>481.13</ele>
        <time>2015-06-13T12:22:37.606Z</time>
      </trkpt>
      <trkpt lat="47.80241" lon="6.54579">
        <ele>480.255</ele>
        <time>2015-06-13T12:22:38.597Z</time>
      </trkpt>
      <trkpt lat="47.80244" lon="6.54587">
        <ele>479.211</ele>
        <time>2015-06-13T12:22:39.596Z</time>
      </trkpt>
      <trkpt lat="47.80247" lon="6.54596">
        <ele>477.719</ele>
        <time>2015-06-13T12:22:40.606Z</time>
      </trkpt>
      <trkpt lat="47.8025" lon="6.54604">
        <ele>476.038</ele>
        <time>2015-06-13T12:22:41.609Z</time>
      </trkpt>
      <trkpt lat="47.80253" lon="6.54614">
        <ele>474.057</ele>
        <time>2015-06-13T12:22:42.609Z</time>
      </trkpt>
      <trkpt lat="47.80257" lon="6.54621">
        <ele>472.755</ele>
        <time>2015-06-13T12:22:43.606Z</time>
      </trkpt>
      <trkpt lat="47.80257" lon="6.54632">
        <ele>471.983</ele>
        <time>2015-06-13T12:22:44.721Z</time>
      </trkpt>
      <trkpt lat="47.80259" lon="6.54643">
        <ele>471.056</ele>
        <time>2015-06-13T12:22:45.607Z</time>
      </trkpt>
      <trkpt lat="47.80257" lon="6.54652">
        <ele>470.91</ele>
        <time>2015-06-13T12:22:46.606Z</time>
      </trkpt>
      <trkpt lat="47.80257" lon="6.54662">
        <ele>470.403</ele>
        <time>2015-06-13T12:22:47.609Z</time>
      </trkpt>
      <trkpt lat="47.80257" lon="6.54673">
        <ele>469.641</ele>
        <time>2015-06-13T12:22:48.555Z</time>
      </trkpt>
      <trkpt lat="47.80255" lon="6.54683">
        <ele>469.146</ele>
        <time>2015-06-13T12:22:49.536Z</time>
      </trkpt>
      <trkpt lat="47.80254" lon="6.54694">
        <ele>468.104</ele>
        <time>2015-06-13T12:22:50.596Z</time>
      </trkpt>
      <trkpt lat="47.80251" lon="6.54704">
        <ele>468.999</ele>
        <time>2015-06-13T12:22:51.613Z</time>
      </trkpt>
      <trkpt lat="47.80248" lon="6.54711">
        <ele>469.681</ele>
        <time>2015-06-13T12:22:52.614Z</time>
      </trkpt>
      <trkpt lat="47.80247" lon="6.54722">
        <ele>470.595</ele>
        <time>2015-06-13T12:22:53.614Z</time>
      </trkpt>
      <trkpt lat="47.80245" lon="6.5473">
        <ele>470.816</ele>
        <time>2015-06-13T12:22:54.747Z</time>
      </trkpt>
      <trkpt lat="47.80243" lon="6.54739">
        <ele>471.035</ele>
        <time>2015-06-13T12:22:55.562Z</time>
      </trkpt>
      <trkpt lat="47.80241" lon="6.54748">
        <ele>471.306</ele>
        <time>2015-06-13T12:22:56.588Z</time>
      </trkpt>
      <trkpt lat="47.80239" lon="6.54756">
        <ele>471.411</ele>
        <time>2015-06-13T12:22:57.604Z</time>
      </trkpt>
      <trkpt lat="47.80238" lon="6.54763">
        <ele>471.475</ele>
        <time>2015-06-13T12:22:58.604Z</time>
      </trkpt>
      <trkpt lat="47.80236" lon="6.54771">
        <ele>471.678</ele>
        <time>2015-06-13T12:22:59.603Z</time>
      </trkpt>
      <trkpt lat="47.80236" lon="6.54779">
        <ele>471.941</ele>
        <time>2015-06-13T12:23:00.6Z</time>
      </trkpt>
      <trkpt lat="47.80234" lon="6.5479">
        <ele>471.853</ele>
        <time>2015-06-13T12:23:01.565Z</time>
      </trkpt>
      <trkpt lat="47.80234" lon="6.54798">
        <ele>472.026</ele>
        <time>2015-06-13T12:23:02.605Z</time>
      </trkpt>
      <trkpt lat="47.80234" lon="6.54806">
        <ele>472.071</ele>
        <time>2015-06-13T12:23:03.604Z</time>
      </trkpt>
      <trkpt lat="47.80233" lon="6.54814">
        <ele>472.226</ele>
        <time>2015-06-13T12:23:04.605Z</time>
      </trkpt>
      <trkpt lat="47.80233" lon="6.5482">
        <ele>472.492</ele>
        <time>2015-06-13T12:23:05.604Z</time>
      </trkpt>
      <trkpt lat="47.80232" lon="6.54828">
        <ele>472.572</ele>
        <time>2015-06-13T12:23:06.586Z</time>
      </trkpt>
      <trkpt lat="47.80231" lon="6.54836">
        <ele>472.848</ele>
        <time>2015-06-13T12:23:07.564Z</time>
      </trkpt>
      <trkpt lat="47.80231" lon="6.54843">
        <ele>473.265</ele>
        <time>2015-06-13T12:23:08.605Z</time>
      </trkpt>
      <trkpt lat="47.80231" lon="6.54851">
        <ele>473.78</ele>
        <time>2015-06-13T12:23:09.606Z</time>
      </trkpt>
      <trkpt lat="47.80231" lon="6.54858">
        <ele>474.367</ele>
        <time>2015-06-13T12:23:10.626Z</time>
      </trkpt>
      <trkpt lat="47.80233" lon="6.54871">
        <ele>475.766</ele>
        <time>2015-06-13T12:23:12.602Z</time>
      </trkpt>
      <trkpt lat="47.80234" lon="6.54876">
        <ele>476.474</ele>
        <time>2015-06-13T12:23:13.607Z</time>
      </trkpt>
      <trkpt lat="47.80232" lon="6.54889">
        <ele>476.982</ele>
        <time>2015-06-13T12:23:15.69Z</time>
      </trkpt>
      <trkpt lat="47.80232" lon="6.54894">
        <ele>477.583</ele>
        <time>2015-06-13T12:23:16.6Z</time>
      </trkpt>
      <trkpt lat="47.80233" lon="6.54903">
        <ele>478.566</ele>
        <time>2015-06-13T12:23:18.8Z</time>
      </trkpt>
      <trkpt lat="47.80233" lon="6.54908">
        <ele>478.908</ele>
        <time>2015-06-13T12:23:19.607Z</time>
      </trkpt>
      <trkpt lat="47.80236" lon="6.5492">
        <ele>480.397</ele>
        <time>2015-06-13T12:23:21.607Z</time>
      </trkpt>
      <trkpt lat="47.80237" lon="6.54925">
        <ele>480.981</ele>
        <time>2015-06-13T12:23:22.606Z</time>
      </trkpt>
      <trkpt lat="47.8024" lon="6.54934">
        <ele>482.222</ele>
        <time>2015-06-13T12:23:24.636Z</time>
      </trkpt>
      <trkpt lat="47.80242" lon="6.54937">
        <ele>482.764</ele>
        <time>2015-06-13T12:23:25.614Z</time>
      </trkpt>
      <trkpt lat="47.80245" lon="6.54945">
        <ele>484.067</ele>
        <time>2015-06-13T12:23:27.612Z</time>
      </trkpt>
      <trkpt lat="47.80247" lon="6.54949">
        <ele>484.359</ele>
        <time>2015-06-13T12:23:28.627Z</time>
      </trkpt>
      <trkpt lat="47.8025" lon="6.54957">
        <ele>484.2</ele>
        <time>2015-06-13T12:23:30.629Z</time>
      </trkpt>
      <trkpt lat="47.80252" lon="6.54961">
        <ele>483.814</ele>
        <time>2015-06-13T12:23:31.622Z</time>
      </trkpt>
      <trkpt lat="47.80256" lon="6.5497">
        <ele>483.029</ele>
        <time>2015-06-13T12:23:33.609Z</time>
      </trkpt>
      <trkpt lat="47.80257" lon="6.54974">
        <ele>482.689</ele>
        <time>2015-06-13T12:23:34.612Z</time>
      </trkpt>
      <trkpt lat="47.8026" lon="6.54985">
        <ele>482.411</ele>
        <time>2015-06-13T12:23:36.634Z</time>
      </trkpt>
      <trkpt lat="47.80261" lon="6.54991">
        <ele>482.315</ele>
        <time>2015-06-13T12:23:37.584Z</time>
      </trkpt>
      <trkpt lat="47.80262" lon="6.55002">
        <ele>482.13</ele>
        <time>2015-06-13T12:23:39.619Z</time>
      </trkpt>
      <trkpt lat="47.80262" lon="6.55007">
        <ele>482.185</ele>
        <time>2015-06-13T12:23:40.549Z</time>
      </trkpt>
      <trkpt lat="47.80264" lon="6.55016">
        <ele>482.48</ele>
        <time>2015-06-13T12:23:42.642Z</time>
      </trkpt>
      <trkpt lat="47.80264" lon="6.55021">
        <ele>482.526</ele>
        <time>2015-06-13T12:23:43.61Z</time>
      </trkpt>
      <trkpt lat="47.80262" lon="6.55034">
        <ele>482.098</ele>
        <time>2015-06-13T12:23:46.606Z</time>
      </trkpt>
      <trkpt lat="47.80259" lon="6.55037">
        <ele>481.556</ele>
        <time>2015-06-13T12:23:47.607Z</time>
      </trkpt>
      <trkpt lat="47.80252" lon="6.55045">
        <ele>479.709</ele>
        <time>2015-06-13T12:23:50.612Z</time>
      </trkpt>
      <trkpt lat="47.8025" lon="6.55048">
        <ele>479.061</ele>
        <time>2015-06-13T12:23:51.628Z</time>
      </trkpt>
      <trkpt lat="47.80247" lon="6.55057">
        <ele>478.02</ele>
        <time>2015-06-13T12:23:53.605Z</time>
      </trkpt>
      <trkpt lat="47.80245" lon="6.55062">
        <ele>477.73</ele>
        <time>2015-06-13T12:23:54.6Z</time>
      </trkpt>
      <trkpt lat="47.80243" lon="6.55072">
        <ele>477.27</ele>
        <time>2015-06-13T12:23:56.603Z</time>
      </trkpt>
      <trkpt lat="47.80242" lon="6.55077">
        <ele>476.846</ele>
        <time>2015-06-13T12:23:57.607Z</time>
      </trkpt>
      <trkpt lat="47.80238" lon="6.55086">
        <ele>475.691</ele>
        <time>2015-06-13T12:23:59.631Z</time>
      </trkpt>
      <trkpt lat="47.80234" lon="6.5509">
        <ele>474.75</ele>
        <time>2015-06-13T12:24:00.614Z</time>
      </trkpt>
      <trkpt lat="47.80231" lon="6.55095">
        <ele>473.511</ele>
        <time>2015-06-13T12:24:01.612Z</time>
      </trkpt>
      <trkpt lat="47.80227" lon="6.55098">
        <ele>472.166</ele>
        <time>2015-06-13T12:24:02.604Z</time>
      </trkpt>
      <trkpt lat="47.80222" lon="6.55103">
        <ele>470.762</ele>
        <time>2015-06-13T12:24:03.604Z</time>
      </trkpt>
      <trkpt lat="47.80218" lon="6.55106">
        <ele>471.208</ele>
        <time>2015-06-13T12:24:04.607Z</time>
      </trkpt>
      <trkpt lat="47.8021" lon="6.5511">
        <ele>472.602</ele>
        <time>2015-06-13T12:24:06.602Z</time>
      </trkpt>
      <trkpt lat="47.80206" lon="6.55112">
        <ele>473.364</ele>
        <time>2015-06-13T12:24:07.572Z</time>
      </trkpt>
      <trkpt lat="47.80198" lon="6.55115">
        <ele>474.761</ele>
        <time>2015-06-13T12:24:09.744Z</time>
      </trkpt>
      <trkpt lat="47.80194" lon="6.55117">
        <ele>475.45</ele>
        <time>2015-06-13T12:24:10.612Z</time>
      </trkpt>
      <trkpt lat="47.80183" lon="6.55121">
        <ele>476.944</ele>
        <time>2015-06-13T12:24:13.533Z</time>
      </trkpt>
      <trkpt lat="47.80175" lon="6.55123">
        <ele>477.974</ele>
        <time>2015-06-13T12:24:16.719Z</time>
      </trkpt>
      <trkpt lat="47.80172" lon="6.55124">
        <ele>478.388</ele>
        <time>2015-06-13T12:24:17.617Z</time>
      </trkpt>
      <trkpt lat="47.80164" lon="6.55128">
        <ele>479.939</ele>
        <time>2015-06-13T12:24:19.596Z</time>
      </trkpt>
      <trkpt lat="47.8016" lon="6.55131">
        <ele>481.218</ele>
        <time>2015-06-13T12:24:20.603Z</time>
      </trkpt>
      <trkpt lat="47.80154" lon="6.55141">
        <ele>483.857</ele>
        <time>2015-06-13T12:24:22.597Z</time>
      </trkpt>
      <trkpt lat="47.80153" lon="6.55146">
        <ele>484.007</ele>
        <time>2015-06-13T12:24:23.61Z</time>
      </trkpt>
      <trkpt lat="47.80148" lon="6.55155">
        <ele>483.89</ele>
        <time>2015-06-13T12:24:25.528Z</time>
      </trkpt>
      <trkpt lat="47.80145" lon="6.55159">
        <ele>483.586</ele>
        <time>2015-06-13T12:24:26.592Z</time>
      </trkpt>
      <trkpt lat="47.80137" lon="6.55166">
        <ele>482.27</ele>
        <time>2015-06-13T12:24:28.639Z</time>
      </trkpt>
      <trkpt lat="47.80134" lon="6.55171">
        <ele>482.65</ele>
        <time>2015-06-13T12:24:29.618Z</time>
      </trkpt>
      <trkpt lat="47.80131" lon="6.55175">
        <ele>483.177</ele>
        <time>2015-06-13T12:24:30.637Z</time>
      </trkpt>
      <trkpt lat="47.80129" lon="6.55182">
        <ele>483.729</ele>
        <time>2015-06-13T12:24:31.612Z</time>
      </trkpt>
      <trkpt lat="47.80128" lon="6.55189">
        <ele>484.18</ele>
        <time>2015-06-13T12:24:32.624Z</time>
      </trkpt>
      <trkpt lat="47.80128" lon="6.55195">
        <ele>484.37</ele>
        <time>2015-06-13T12:24:33.633Z</time>
      </trkpt>
      <trkpt lat="47.80128" lon="6.55206">
        <ele>484.901</ele>
        <time>2015-06-13T12:24:35.631Z</time>
      </trkpt>
      <trkpt lat="47.80128" lon="6.55212">
        <ele>485.204</ele>
        <time>2015-06-13T12:24:36.619Z</time>
      </trkpt>
      <trkpt lat="47.80128" lon="6.55218">
        <ele>485.54</ele>
        <time>2015-06-13T12:24:37.612Z</time>
      </trkpt>
      <trkpt lat="47.80133" lon="6.55228">
        <ele>486.619</ele>
        <time>2015-06-13T12:24:38.61Z</time>
      </trkpt>
      <trkpt lat="47.80135" lon="6.55235">
        <ele>487.932</ele>
        <time>2015-06-13T12:24:39.598Z</time>
      </trkpt>
      <trkpt lat="47.80139" lon="6.55242">
        <ele>488.564</ele>
        <time>2015-06-13T12:24:40.666Z</time>
      </trkpt>
      <trkpt lat="47.80143" lon="6.55249">
        <ele>489.289</ele>
        <time>2015-06-13T12:24:41.603Z</time>
      </trkpt>
      <trkpt lat="47.80147" lon="6.55254">
        <ele>489.596</ele>
        <time>2015-06-13T12:24:42.592Z</time>
      </trkpt>
      <trkpt lat="47.80153" lon="6.55259">
        <ele>489.248</ele>
        <time>2015-06-13T12:24:44.605Z</time>
      </trkpt>
      <trkpt lat="47.80156" lon="6.55263">
        <ele>488.987</ele>
        <time>2015-06-13T12:24:45.606Z</time>
      </trkpt>
      <trkpt lat="47.80162" lon="6.55274">
        <ele>488.215</ele>
        <time>2015-06-13T12:24:47.614Z</time>
      </trkpt>
      <trkpt lat="47.80166" lon="6.55278">
        <ele>487.106</ele>
        <time>2015-06-13T12:24:48.604Z</time>
      </trkpt>
      <trkpt lat="47.80173" lon="6.55286">
        <ele>486.519</ele>
        <time>2015-06-13T12:24:50.615Z</time>
      </trkpt>
      <trkpt lat="47.80177" lon="6.55291">
        <ele>486.143</ele>
        <time>2015-06-13T12:24:51.63Z</time>
      </trkpt>
      <trkpt lat="47.80181" lon="6.55295">
        <ele>485.769</ele>
        <time>2015-06-13T12:24:52.606Z</time>
      </trkpt>
      <trkpt lat="47.80186" lon="6.55299">
        <ele>485.139</ele>
        <time>2015-06-13T12:24:53.603Z</time>
      </trkpt>
      <trkpt lat="47.8019" lon="6.55301">
        <ele>484.657</ele>
        <time>2015-06-13T12:24:54.606Z</time>
      </trkpt>
      <trkpt lat="47.80194" lon="6.55303">
        <ele>484.006</ele>
        <time>2015-06-13T12:24:55.606Z</time>
      </trkpt>
      <trkpt lat="47.80202" lon="6.55309">
        <ele>484.906</ele>
        <time>2015-06-13T12:24:57.605Z</time>
      </trkpt>
      <trkpt lat="47.80203" lon="6.5531">
        <ele>485.173</ele>
        <time>2015-06-13T12:24:58.604Z</time>
      </trkpt>
      <trkpt lat="47.8021" lon="6.55316">
        <ele>485.709</ele>
        <time>2015-06-13T12:25:00.61Z</time>
      </trkpt>
      <trkpt lat="47.80213" lon="6.55318">
        <ele>485.785</ele>
        <time>2015-06-13T12:25:01.604Z</time>
      </trkpt>
      <trkpt lat="47.8022" lon="6.5532">
        <ele>485.575</ele>
        <time>2015-06-13T12:25:03.605Z</time>
      </trkpt>
      <trkpt lat="47.80223" lon="6.55321">
        <ele>485.335</ele>
        <time>2015-06-13T12:25:04.606Z</time>
      </trkpt>
      <trkpt lat="47.80229" lon="6.55323">
        <ele>484.277</ele>
        <time>2015-06-13T12:25:06.601Z</time>
      </trkpt>
      <trkpt lat="47.80232" lon="6.55324">
        <ele>483.585</ele>
        <time>2015-06-13T12:25:07.583Z</time>
      </trkpt>
      <trkpt lat="47.80239" lon="6.55324">
        <ele>482.223</ele>
        <time>2015-06-13T12:25:09.606Z</time>
      </trkpt>
      <trkpt lat="47.80242" lon="6.55324">
        <ele>481.638</ele>
        <time>2015-06-13T12:25:10.605Z</time>
      </trkpt>
      <trkpt lat="47.8025" lon="6.55325">
        <ele>480.05</ele>
        <time>2015-06-13T12:25:12.6Z</time>
      </trkpt>
      <trkpt lat="47.80254" lon="6.55327">
        <ele>480.225</ele>
        <time>2015-06-13T12:25:13.607Z</time>
      </trkpt>
      <trkpt lat="47.80258" lon="6.55332">
        <ele>479.906</ele>
        <time>2015-06-13T12:25:14.6Z</time>
      </trkpt>
      <trkpt lat="47.80256" lon="6.55346">
        <ele>479.357</ele>
        <time>2015-06-13T12:25:15.602Z</time>
      </trkpt>
      <trkpt lat="47.80257" lon="6.55354">
        <ele>479.463</ele>
        <time>2015-06-13T12:25:16.606Z</time>
      </trkpt>
      <trkpt lat="47.80255" lon="6.55362">
        <ele>479.317</ele>
        <time>2015-06-13T12:25:17.604Z</time>
      </trkpt>
      <trkpt lat="47.80255" lon="6.55369">
        <ele>479.236</ele>
        <time>2015-06-13T12:25:18.628Z</time>
      </trkpt>
      <trkpt lat="47.80251" lon="6.5538">
        <ele>478.41</ele>
        <time>2015-06-13T12:25:19.605Z</time>
      </trkpt>
      <trkpt lat="47.80248" lon="6.55386">
        <ele>478.23</ele>
        <time>2015-06-13T12:25:20.609Z</time>
      </trkpt>
      <trkpt lat="47.80244" lon="6.55393">
        <ele>479.036</ele>
        <time>2015-06-13T12:25:21.601Z</time>
      </trkpt>
      <trkpt lat="47.80238" lon="6.55399">
        <ele>480.515</ele>
        <time>2015-06-13T12:25:22.607Z</time>
      </trkpt>
      <trkpt lat="47.80235" lon="6.55408">
        <ele>482.564</ele>
        <time>2015-06-13T12:25:23.606Z</time>
      </trkpt>
      <trkpt lat="47.80232" lon="6.55413">
        <ele>483.928</ele>
        <time>2015-06-13T12:25:24.616Z</time>
      </trkpt>
      <trkpt lat="47.80226" lon="6.55419">
        <ele>485.27</ele>
        <time>2015-06-13T12:25:25.635Z</time>
      </trkpt>
      <trkpt lat="47.80221" lon="6.5542">
        <ele>485.986</ele>
        <time>2015-06-13T12:25:26.62Z</time>
      </trkpt>
      <trkpt lat="47.80217" lon="6.55432">
        <ele>489.338</ele>
        <time>2015-06-13T12:25:27.606Z</time>
      </trkpt>
      <trkpt lat="47.80216" lon="6.55443">
        <ele>491.343</ele>
        <time>2015-06-13T12:25:29.606Z</time>
      </trkpt>
      <trkpt lat="47.8022" lon="6.55446">
        <ele>491.69</ele>
        <time>2015-06-13T12:25:30.621Z</time>
      </trkpt>
      <trkpt lat="47.80219" lon="6.55452">
        <ele>493.66</ele>
        <time>2015-06-13T12:25:32.606Z</time>
      </trkpt>
      <trkpt lat="47.80217" lon="6.55461">
        <ele>496.18</ele>
        <time>2015-06-13T12:25:33.605Z</time>
      </trkpt>
      <trkpt lat="47.80214" lon="6.55468">
        <ele>497.752</ele>
        <time>2015-06-13T12:25:34.629Z</time>
      </trkpt>
      <trkpt lat="47.80213" lon="6.55474">
        <ele>498.709</ele>
        <time>2015-06-13T12:25:35.612Z</time>
      </trkpt>
      <trkpt lat="47.80211" lon="6.55486">
        <ele>498.302</ele>
        <time>2015-06-13T12:25:37.613Z</time>
      </trkpt>
      <trkpt lat="47.80209" lon="6.55491">
        <ele>498.083</ele>
        <time>2015-06-13T12:25:38.612Z</time>
      </trkpt>
      <trkpt lat="47.80207" lon="6.55502">
        <ele>498.329</ele>
        <time>2015-06-13T12:25:40.612Z</time>
      </trkpt>
      <trkpt lat="47.80206" lon="6.55509">
        <ele>499.668</ele>
        <time>2015-06-13T12:25:41.613Z</time>
      </trkpt>
      <trkpt lat="47.80206" lon="6.5552">
        <ele>502.058</ele>
        <time>2015-06-13T12:25:43.613Z</time>
      </trkpt>
      <trkpt lat="47.80207" lon="6.55525">
        <ele>503.311</ele>
        <time>2015-06-13T12:25:44.619Z</time>
      </trkpt>
      <trkpt lat="47.80206" lon="6.55537">
        <ele>503.24</ele>
        <time>2015-06-13T12:25:46.675Z</time>
      </trkpt>
      <trkpt lat="47.80207" lon="6.55543">
        <ele>502.827</ele>
        <time>2015-06-13T12:25:47.604Z</time>
      </trkpt>
      <trkpt lat="47.80209" lon="6.55554">
        <ele>502.13</ele>
        <time>2015-06-13T12:25:49.626Z</time>
      </trkpt>
      <trkpt lat="47.80211" lon="6.55559">
        <ele>502.168</ele>
        <time>2015-06-13T12:25:50.635Z</time>
      </trkpt>
      <trkpt lat="47.80214" lon="6.55571">
        <ele>502.52</ele>
        <time>2015-06-13T12:25:52.639Z</time>
      </trkpt>
      <trkpt lat="47.80215" lon="6.55577">
        <ele>502.611</ele>
        <time>2015-06-13T12:25:53.63Z</time>
      </trkpt>
      <trkpt lat="47.80217" lon="6.55584">
        <ele>502.599</ele>
        <time>2015-06-13T12:25:54.605Z</time>
      </trkpt>
      <trkpt lat="47.80218" lon="6.55591">
        <ele>502.375</ele>
        <time>2015-06-13T12:25:55.612Z</time>
      </trkpt>
      <trkpt lat="47.8022" lon="6.55598">
        <ele>502.172</ele>
        <time>2015-06-13T12:25:56.622Z</time>
      </trkpt>
      <trkpt lat="47.80223" lon="6.55604">
        <ele>501.976</ele>
        <time>2015-06-13T12:25:57.627Z</time>
      </trkpt>
      <trkpt lat="47.80226" lon="6.5561">
        <ele>501.868</ele>
        <time>2015-06-13T12:25:58.625Z</time>
      </trkpt>
      <trkpt lat="47.80234" lon="6.55618">
        <ele>502.395</ele>
        <time>2015-06-13T12:25:59.621Z</time>
      </trkpt>
      <trkpt lat="47.80236" lon="6.55625">
        <ele>503.259</ele>
        <time>2015-06-13T12:26:00.621Z</time>
      </trkpt>
      <trkpt lat="47.80239" lon="6.55631">
        <ele>503.981</ele>
        <time>2015-06-13T12:26:01.636Z</time>
      </trkpt>
      <trkpt lat="47.80241" lon="6.55635">
        <ele>504.487</ele>
        <time>2015-06-13T12:26:02.604Z</time>
      </trkpt>
      <trkpt lat="47.80243" lon="6.55643">
        <ele>505.625</ele>
        <time>2015-06-13T12:26:03.626Z</time>
      </trkpt>
      <trkpt lat="47.80246" lon="6.55649">
        <ele>506.61</ele>
        <time>2015-06-13T12:26:04.635Z</time>
      </trkpt>
      <trkpt lat="47.80249" lon="6.55654">
        <ele>507.726</ele>
        <time>2015-06-13T12:26:05.617Z</time>
      </trkpt>
      <trkpt lat="47.80252" lon="6.55661">
        <ele>508.343</ele>
        <time>2015-06-13T12:26:06.632Z</time>
      </trkpt>
      <trkpt lat="47.80257" lon="6.55666">
        <ele>507.935</ele>
        <time>2015-06-13T12:26:07.57Z</time>
      </trkpt>
      <trkpt lat="47.80263" lon="6.55671">
        <ele>506.365</ele>
        <time>2015-06-13T12:26:08.605Z</time>
      </trkpt>
      <trkpt lat="47.80264" lon="6.55682">
        <ele>506.317</ele>
        <time>2015-06-13T12:26:09.605Z</time>
      </trkpt>
      <trkpt lat="47.80264" lon="6.55691">
        <ele>506.378</ele>
        <time>2015-06-13T12:26:10.607Z</time>
      </trkpt>
      <trkpt lat="47.80269" lon="6.55701">
        <ele>505.951</ele>
        <time>2015-06-13T12:26:11.606Z</time>
      </trkpt>
      <trkpt lat="47.80272" lon="6.55708">
        <ele>505.815</ele>
        <time>2015-06-13T12:26:12.6Z</time>
      </trkpt>
      <trkpt lat="47.80276" lon="6.55718">
        <ele>505.874</ele>
        <time>2015-06-13T12:26:13.601Z</time>
      </trkpt>
      <trkpt lat="47.80278" lon="6.55724">
        <ele>506.154</ele>
        <time>2015-06-13T12:26:14.605Z</time>
      </trkpt>
      <trkpt lat="47.80282" lon="6.55734">
        <ele>506.163</ele>
        <time>2015-06-13T12:26:15.605Z</time>
      </trkpt>
      <trkpt lat="47.80288" lon="6.55741">
        <ele>505.815</ele>
        <time>2015-06-13T12:26:16.6Z</time>
      </trkpt>
      <trkpt lat="47.80291" lon="6.55749">
        <ele>505.936</ele>
        <time>2015-06-13T12:26:17.606Z</time>
      </trkpt>
      <trkpt lat="47.80295" lon="6.55757">
        <ele>505.567</ele>
        <time>2015-06-13T12:26:18.606Z</time>
      </trkpt>
      <trkpt lat="47.80298" lon="6.55766">
        <ele>505.386</ele>
        <time>2015-06-13T12:26:19.606Z</time>
      </trkpt>
      <trkpt lat="47.80302" lon="6.55775">
        <ele>505.144</ele>
        <time>2015-06-13T12:26:20.582Z</time>
      </trkpt>
      <trkpt lat="47.80303" lon="6.55782">
        <ele>504.99</ele>
        <time>2015-06-13T12:26:21.606Z</time>
      </trkpt>
      <trkpt lat="47.80307" lon="6.55789">
        <ele>504.119</ele>
        <time>2015-06-13T12:26:22.629Z</time>
      </trkpt>
      <trkpt lat="47.8031" lon="6.55799">
        <ele>503.172</ele>
        <time>2015-06-13T12:26:23.61Z</time>
      </trkpt>
      <trkpt lat="47.8031" lon="6.55807">
        <ele>502.68</ele>
        <time>2015-06-13T12:26:24.605Z</time>
      </trkpt>
      <trkpt lat="47.80312" lon="6.55815">
        <ele>501.372</ele>
        <time>2015-06-13T12:26:25.606Z</time>
      </trkpt>
      <trkpt lat="47.80314" lon="6.55823">
        <ele>500.182</ele>
        <time>2015-06-13T12:26:26.602Z</time>
      </trkpt>
      <trkpt lat="47.80319" lon="6.55832">
        <ele>498.662</ele>
        <time>2015-06-13T12:26:27.605Z</time>
      </trkpt>
      <trkpt lat="47.80322" lon="6.55839">
        <ele>498.216</ele>
        <time>2015-06-13T12:26:28.605Z</time>
      </trkpt>
      <trkpt lat="47.80325" lon="6.5585">
        <ele>498.195</ele>
        <time>2015-06-13T12:26:29.604Z</time>
      </trkpt>
      <trkpt lat="47.80329" lon="6.55858">
        <ele>498.553</ele>
        <time>2015-06-13T12:26:30.603Z</time>
      </trkpt>
      <trkpt lat="47.80328" lon="6.55867">
        <ele>498.027</ele>
        <time>2015-06-13T12:26:31.601Z</time>
      </trkpt>
      <trkpt lat="47.80329" lon="6.55876">
        <ele>497.116</ele>
        <time>2015-06-13T12:26:32.605Z</time>
      </trkpt>
      <trkpt lat="47.8033" lon="6.55885">
        <ele>496.198</ele>
        <time>2015-06-13T12:26:33.604Z</time>
      </trkpt>
      <trkpt lat="47.80332" lon="6.55892">
        <ele>495.653</ele>
        <time>2015-06-13T12:26:34.603Z</time>
      </trkpt>
      <trkpt lat="47.80334" lon="6.55902">
        <ele>495.118</ele>
        <time>2015-06-13T12:26:35.597Z</time>
      </trkpt>
      <trkpt lat="47.80334" lon="6.55909">
        <ele>494.6</ele>
        <time>2015-06-13T12:26:36.562Z</time>
      </trkpt>
      <trkpt lat="47.80335" lon="6.55919">
        <ele>493.739</ele>
        <time>2015-06-13T12:26:37.535Z</time>
      </trkpt>
      <trkpt lat="47.80337" lon="6.55926">
        <ele>492.845</ele>
        <time>2015-06-13T12:26:38.587Z</time>
      </trkpt>
      <trkpt lat="47.80339" lon="6.55936">
        <ele>491.706</ele>
        <time>2015-06-13T12:26:39.557Z</time>
      </trkpt>
      <trkpt lat="47.80342" lon="6.55946">
        <ele>491.034</ele>
        <time>2015-06-13T12:26:40.543Z</time>
      </trkpt>
      <trkpt lat="47.80342" lon="6.55952">
        <ele>490.521</ele>
        <time>2015-06-13T12:26:41.538Z</time>
      </trkpt>
      <trkpt lat="47.80345" lon="6.55961">
        <ele>490.66</ele>
        <time>2015-06-13T12:26:42.526Z</time>
      </trkpt>
      <trkpt lat="47.80349" lon="6.5597">
        <ele>491.053</ele>
        <time>2015-06-13T12:26:43.538Z</time>
      </trkpt>
      <trkpt lat="47.80353" lon="6.55978">
        <ele>490.228</ele>
        <time>2015-06-13T12:26:44.529Z</time>
      </trkpt>
      <trkpt lat="47.80356" lon="6.55989">
        <ele>487.159</ele>
        <time>2015-06-13T12:26:45.814Z</time>
      </trkpt>
      <trkpt lat="47.8036" lon="6.56">
        <ele>483.042</ele>
        <time>2015-06-13T12:26:46.835Z</time>
      </trkpt>
      <trkpt lat="47.80365" lon="6.5601">
        <ele>480.9</ele>
        <time>2015-06-13T12:26:47.816Z</time>
      </trkpt>
      <trkpt lat="47.80371" lon="6.56021">
        <ele>479.428</ele>
        <time>2015-06-13T12:26:48.815Z</time>
      </trkpt>
      <trkpt lat="47.80375" lon="6.5603">
        <ele>478.886</ele>
        <time>2015-06-13T12:26:49.828Z</time>
      </trkpt>
      <trkpt lat="47.80381" lon="6.56036">
        <ele>479.4</ele>
        <time>2015-06-13T12:26:50.826Z</time>
      </trkpt>
      <trkpt lat="47.80385" lon="6.56046">
        <ele>479.553</ele>
        <time>2015-06-13T12:26:51.826Z</time>
      </trkpt>
      <trkpt lat="47.8039" lon="6.56057">
        <ele>479.859</ele>
        <time>2015-06-13T12:26:52.829Z</time>
      </trkpt>
      <trkpt lat="47.80393" lon="6.56067">
        <ele>478.997</ele>
        <time>2015-06-13T12:26:53.814Z</time>
      </trkpt>
      <trkpt lat="47.80398" lon="6.56075">
        <ele>478.913</ele>
        <time>2015-06-13T12:26:54.815Z</time>
      </trkpt>
      <trkpt lat="47.80402" lon="6.56083">
        <ele>478.737</ele>
        <time>2015-06-13T12:26:55.825Z</time>
      </trkpt>
      <trkpt lat="47.80405" lon="6.56095">
        <ele>477.959</ele>
        <time>2015-06-13T12:26:56.81Z</time>
      </trkpt>
      <trkpt lat="47.80407" lon="6.561">
        <ele>477.524</ele>
        <time>2015-06-13T12:26:57.823Z</time>
      </trkpt>
      <trkpt lat="47.8041" lon="6.56106">
        <ele>477.116</ele>
        <time>2015-06-13T12:26:58.831Z</time>
      </trkpt>
      <trkpt lat="47.80411" lon="6.56117">
        <ele>475.495</ele>
        <time>2015-06-13T12:27:00.836Z</time>
      </trkpt>
      <trkpt lat="47.80412" lon="6.56124">
        <ele>474.414</ele>
        <time>2015-06-13T12:27:01.817Z</time>
      </trkpt>
      <trkpt lat="47.80415" lon="6.56135">
        <ele>472.6</ele>
        <time>2015-06-13T12:27:03.809Z</time>
      </trkpt>
      <trkpt lat="47.80417" lon="6.56142">
        <ele>471.616</ele>
        <time>2015-06-13T12:27:04.812Z</time>
      </trkpt>
      <trkpt lat="47.80419" lon="6.5615">
        <ele>470.759</ele>
        <time>2015-06-13T12:27:05.888Z</time>
      </trkpt>
      <trkpt lat="47.80419" lon="6.56162">
        <ele>469.474</ele>
        <time>2015-06-13T12:27:06.888Z</time>
      </trkpt>
      <trkpt lat="47.80418" lon="6.5617">
        <ele>468.687</ele>
        <time>2015-06-13T12:27:07.868Z</time>
      </trkpt>
      <trkpt lat="47.80418" lon="6.56177">
        <ele>468.219</ele>
        <time>2015-06-13T12:27:08.887Z</time>
      </trkpt>
      <trkpt lat="47.80419" lon="6.56184">
        <ele>467.697</ele>
        <time>2015-06-13T12:27:09.919Z</time>
      </trkpt>
      <trkpt lat="47.80419" lon="6.56194">
        <ele>467.017</ele>
        <time>2015-06-13T12:27:10.92Z</time>
      </trkpt>
      <trkpt lat="47.80421" lon="6.56206">
        <ele>466.167</ele>
        <time>2015-06-13T12:27:11.894Z</time>
      </trkpt>
      <trkpt lat="47.80423" lon="6.56216">
        <ele>465.718</ele>
        <time>2015-06-13T12:27:12.875Z</time>
      </trkpt>
      <trkpt lat="47.80423" lon="6.56224">
        <ele>465.222</ele>
        <time>2015-06-13T12:27:13.888Z</time>
      </trkpt>
      <trkpt lat="47.80423" lon="6.56232">
        <ele>464.896</ele>
        <time>2015-06-13T12:27:14.881Z</time>
      </trkpt>
      <trkpt lat="47.80424" lon="6.56243">
        <ele>464.441</ele>
        <time>2015-06-13T12:27:15.943Z</time>
      </trkpt>
      <trkpt lat="47.80424" lon="6.56254">
        <ele>464.045</ele>
        <time>2015-06-13T12:27:16.993Z</time>
      </trkpt>
      <trkpt lat="47.80425" lon="6.56267">
        <ele>463.936</ele>
        <time>2015-06-13T12:27:17.895Z</time>
      </trkpt>
      <trkpt lat="47.80426" lon="6.56281">
        <ele>463.959</ele>
        <time>2015-06-13T12:27:18.889Z</time>
      </trkpt>
      <trkpt lat="47.80427" lon="6.56296">
        <ele>464.01</ele>
        <time>2015-06-13T12:27:19.897Z</time>
      </trkpt>
      <trkpt lat="47.8043" lon="6.56312">
        <ele>464.275</ele>
        <time>2015-06-13T12:27:20.889Z</time>
      </trkpt>
      <trkpt lat="47.8043" lon="6.56321">
        <ele>464.169</ele>
        <time>2015-06-13T12:27:21.879Z</time>
      </trkpt>
      <trkpt lat="47.80433" lon="6.56331">
        <ele>464.368</ele>
        <time>2015-06-13T12:27:22.888Z</time>
      </trkpt>
      <trkpt lat="47.80436" lon="6.56341">
        <ele>464.67</ele>
        <time>2015-06-13T12:27:23.881Z</time>
      </trkpt>
      <trkpt lat="47.80439" lon="6.56348">
        <ele>464.846</ele>
        <time>2015-06-13T12:27:24.88Z</time>
      </trkpt>
      <trkpt lat="47.80443" lon="6.56358">
        <ele>465.035</ele>
        <time>2015-06-13T12:27:25.889Z</time>
      </trkpt>
      <trkpt lat="47.80446" lon="6.56367">
        <ele>464.871</ele>
        <time>2015-06-13T12:27:26.885Z</time>
      </trkpt>
      <trkpt lat="47.80452" lon="6.56375">
        <ele>464.905</ele>
        <time>2015-06-13T12:27:27.882Z</time>
      </trkpt>
      <trkpt lat="47.80458" lon="6.56382">
        <ele>464.511</ele>
        <time>2015-06-13T12:27:28.883Z</time>
      </trkpt>
      <trkpt lat="47.80462" lon="6.56388">
        <ele>463.74</ele>
        <time>2015-06-13T12:27:29.888Z</time>
      </trkpt>
      <trkpt lat="47.80466" lon="6.56397">
        <ele>462.55</ele>
        <time>2015-06-13T12:27:30.882Z</time>
      </trkpt>
      <trkpt lat="47.80469" lon="6.56407">
        <ele>461.014</ele>
        <time>2015-06-13T12:27:31.884Z</time>
      </trkpt>
      <trkpt lat="47.80469" lon="6.56418">
        <ele>459.313</ele>
        <time>2015-06-13T12:27:32.889Z</time>
      </trkpt>
      <trkpt lat="47.8047" lon="6.56428">
        <ele>458.758</ele>
        <time>2015-06-13T12:27:33.881Z</time>
      </trkpt>
      <trkpt lat="47.80473" lon="6.56437">
        <ele>458.335</ele>
        <time>2015-06-13T12:27:34.888Z</time>
      </trkpt>
      <trkpt lat="47.80474" lon="6.56447">
        <ele>457.854</ele>
        <time>2015-06-13T12:27:35.88Z</time>
      </trkpt>
      <trkpt lat="47.80475" lon="6.56459">
        <ele>456.73</ele>
        <time>2015-06-13T12:27:36.913Z</time>
      </trkpt>
      <trkpt lat="47.80474" lon="6.56468">
        <ele>455.734</ele>
        <time>2015-06-13T12:27:37.889Z</time>
      </trkpt>
      <trkpt lat="47.80475" lon="6.56478">
        <ele>455.312</ele>
        <time>2015-06-13T12:27:38.886Z</time>
      </trkpt>
      <trkpt lat="47.80473" lon="6.5649">
        <ele>455.046</ele>
        <time>2015-06-13T12:27:39.895Z</time>
      </trkpt>
      <trkpt lat="47.80472" lon="6.56503">
        <ele>454.62</ele>
        <time>2015-06-13T12:27:40.891Z</time>
      </trkpt>
      <trkpt lat="47.80471" lon="6.56514">
        <ele>452.844</ele>
        <time>2015-06-13T12:27:41.889Z</time>
      </trkpt>
      <trkpt lat="47.8047" lon="6.56526">
        <ele>450.91</ele>
        <time>2015-06-13T12:27:42.889Z</time>
      </trkpt>
      <trkpt lat="47.80468" lon="6.56539">
        <ele>448.796</ele>
        <time>2015-06-13T12:27:43.889Z</time>
      </trkpt>
      <trkpt lat="47.80466" lon="6.56557">
        <ele>446.477</ele>
        <time>2015-06-13T12:27:44.881Z</time>
      </trkpt>
      <trkpt lat="47.80464" lon="6.56569">
        <ele>445.447</ele>
        <time>2015-06-13T12:27:45.885Z</time>
      </trkpt>
      <trkpt lat="47.80458" lon="6.56584">
        <ele>444.038</ele>
        <time>2015-06-13T12:27:46.878Z</time>
      </trkpt>
      <trkpt lat="47.80455" lon="6.566">
        <ele>444.806</ele>
        <time>2015-06-13T12:27:47.91Z</time>
      </trkpt>
      <trkpt lat="47.80452" lon="6.56615">
        <ele>445.074</ele>
        <time>2015-06-13T12:27:48.9Z</time>
      </trkpt>
      <trkpt lat="47.80449" lon="6.56632">
        <ele>444.685</ele>
        <time>2015-06-13T12:27:49.886Z</time>
      </trkpt>
      <trkpt lat="47.80446" lon="6.56646">
        <ele>444.224</ele>
        <time>2015-06-13T12:27:50.886Z</time>
      </trkpt>
      <trkpt lat="47.80447" lon="6.56659">
        <ele>444.296</ele>
        <time>2015-06-13T12:27:51.886Z</time>
      </trkpt>
      <trkpt lat="47.8045" lon="6.56671">
        <ele>444.658</ele>
        <time>2015-06-13T12:27:53.049Z</time>
      </trkpt>
      <trkpt lat="47.80451" lon="6.56686">
        <ele>444.298</ele>
        <time>2015-06-13T12:27:53.879Z</time>
      </trkpt>
      <trkpt lat="47.80453" lon="6.56699">
        <ele>444.061</ele>
        <time>2015-06-13T12:27:54.882Z</time>
      </trkpt>
      <trkpt lat="47.80455" lon="6.56714">
        <ele>443.877</ele>
        <time>2015-06-13T12:27:55.879Z</time>
      </trkpt>
      <trkpt lat="47.80456" lon="6.56724">
        <ele>443.444</ele>
        <time>2015-06-13T12:27:56.879Z</time>
      </trkpt>
      <trkpt lat="47.80454" lon="6.56732">
        <ele>442.435</ele>
        <time>2015-06-13T12:27:57.879Z</time>
      </trkpt>
      <trkpt lat="47.80449" lon="6.56742">
        <ele>440.739</ele>
        <time>2015-06-13T12:27:58.878Z</time>
      </trkpt>
      <trkpt lat="47.80447" lon="6.56749">
        <ele>439.565</ele>
        <time>2015-06-13T12:27:59.878Z</time>
      </trkpt>
      <trkpt lat="47.80449" lon="6.56761">
        <ele>438.871</ele>
        <time>2015-06-13T12:28:01.878Z</time>
      </trkpt>
      <trkpt lat="47.80454" lon="6.56764">
        <ele>439.768</ele>
        <time>2015-06-13T12:28:02.878Z</time>
      </trkpt>
      <trkpt lat="47.80463" lon="6.56765">
        <ele>441.749</ele>
        <time>2015-06-13T12:28:04.878Z</time>
      </trkpt>
      <trkpt lat="47.80466" lon="6.56766">
        <ele>442.551</ele>
        <time>2015-06-13T12:28:05.884Z</time>
      </trkpt>
      <trkpt lat="47.80472" lon="6.5677">
        <ele>444.024</ele>
        <time>2015-06-13T12:28:06.877Z</time>
      </trkpt>
      <trkpt lat="47.80477" lon="6.56773">
        <ele>445.391</ele>
        <time>2015-06-13T12:28:07.864Z</time>
      </trkpt>
      <trkpt lat="47.80484" lon="6.56778">
        <ele>447.912</ele>
        <time>2015-06-13T12:28:09.886Z</time>
      </trkpt>
      <trkpt lat="47.80489" lon="6.56783">
        <ele>449.519</ele>
        <time>2015-06-13T12:28:10.873Z</time>
      </trkpt>
      <trkpt lat="47.80497" lon="6.56786">
        <ele>452.403</ele>
        <time>2015-06-13T12:28:11.525Z</time>
      </trkpt>
      <trkpt lat="47.80502" lon="6.5679">
        <ele>453.683</ele>
        <time>2015-06-13T12:28:12.581Z</time>
      </trkpt>
      <trkpt lat="47.80509" lon="6.56797">
        <ele>455.046</ele>
        <time>2015-06-13T12:28:13.581Z</time>
      </trkpt>
      <trkpt lat="47.80513" lon="6.56799">
        <ele>455.815</ele>
        <time>2015-06-13T12:28:14.581Z</time>
      </trkpt>
      <trkpt lat="47.8052" lon="6.568">
        <ele>456.867</ele>
        <time>2015-06-13T12:28:15.575Z</time>
      </trkpt>
      <trkpt lat="47.80526" lon="6.56803">
        <ele>457.709</ele>
        <time>2015-06-13T12:28:16.574Z</time>
      </trkpt>
      <trkpt lat="47.80534" lon="6.56807">
        <ele>457.76</ele>
        <time>2015-06-13T12:28:18.574Z</time>
      </trkpt>
      <trkpt lat="47.80537" lon="6.56811">
        <ele>457.555</ele>
        <time>2015-06-13T12:28:19.606Z</time>
      </trkpt>
      <trkpt lat="47.80542" lon="6.56815">
        <ele>456.99</ele>
        <time>2015-06-13T12:28:20.573Z</time>
      </trkpt>
      <trkpt lat="47.80546" lon="6.5682">
        <ele>456.179</ele>
        <time>2015-06-13T12:28:21.573Z</time>
      </trkpt>
      <trkpt lat="47.80551" lon="6.56824">
        <ele>455.164</ele>
        <time>2015-06-13T12:28:22.699Z</time>
      </trkpt>
      <trkpt lat="47.80555" lon="6.56828">
        <ele>453.923</ele>
        <time>2015-06-13T12:28:23.581Z</time>
      </trkpt>
      <trkpt lat="47.80562" lon="6.56832">
        <ele>453.001</ele>
        <time>2015-06-13T12:28:25.574Z</time>
      </trkpt>
      <trkpt lat="47.80565" lon="6.56835">
        <ele>452.646</ele>
        <time>2015-06-13T12:28:26.574Z</time>
      </trkpt>
      <trkpt lat="47.80571" lon="6.5684">
        <ele>452.444</ele>
        <time>2015-06-13T12:28:27.574Z</time>
      </trkpt>
      <trkpt lat="47.80574" lon="6.56846">
        <ele>452.34</ele>
        <time>2015-06-13T12:28:28.573Z</time>
      </trkpt>
      <trkpt lat="47.80579" lon="6.56849">
        <ele>452.145</ele>
        <time>2015-06-13T12:28:30.597Z</time>
      </trkpt>
      <trkpt lat="47.80584" lon="6.5685">
        <ele>451.965</ele>
        <time>2015-06-13T12:28:31.579Z</time>
      </trkpt>
      <trkpt lat="47.80591" lon="6.56853">
        <ele>451.724</ele>
        <time>2015-06-13T12:28:33.538Z</time>
      </trkpt>
      <trkpt lat="47.80597" lon="6.56857">
        <ele>451.515</ele>
        <time>2015-06-13T12:28:34.574Z</time>
      </trkpt>
      <trkpt lat="47.80601" lon="6.56865">
        <ele>451.077</ele>
        <time>2015-06-13T12:28:36.573Z</time>
      </trkpt>
      <trkpt lat="47.80602" lon="6.56872">
        <ele>450.555</ele>
        <time>2015-06-13T12:28:37.575Z</time>
      </trkpt>
      <trkpt lat="47.80601" lon="6.56878">
        <ele>450.082</ele>
        <time>2015-06-13T12:28:38.583Z</time>
      </trkpt>
      <trkpt lat="47.80599" lon="6.56886">
        <ele>449.409</ele>
        <time>2015-06-13T12:28:39.575Z</time>
      </trkpt>
      <trkpt lat="47.80597" lon="6.56894">
        <ele>449.073</ele>
        <time>2015-06-13T12:28:40.583Z</time>
      </trkpt>
      <trkpt lat="47.80593" lon="6.56901">
        <ele>449.114</ele>
        <time>2015-06-13T12:28:41.604Z</time>
      </trkpt>
      <trkpt lat="47.80589" lon="6.56909">
        <ele>449.387</ele>
        <time>2015-06-13T12:28:42.585Z</time>
      </trkpt>
      <trkpt lat="47.80585" lon="6.56915">
        <ele>449.818</ele>
        <time>2015-06-13T12:28:43.584Z</time>
      </trkpt>
      <trkpt lat="47.80581" lon="6.56924">
        <ele>449.245</ele>
        <time>2015-06-13T12:28:44.659Z</time>
      </trkpt>
      <trkpt lat="47.80577" lon="6.56932">
        <ele>447.996</ele>
        <time>2015-06-13T12:28:45.654Z</time>
      </trkpt>
      <trkpt lat="47.80581" lon="6.56936">
        <ele>447.608</ele>
        <time>2015-06-13T12:28:46.592Z</time>
      </trkpt>
      <trkpt lat="47.80582" lon="6.56945">
        <ele>446.643</ele>
        <time>2015-06-13T12:28:47.583Z</time>
      </trkpt>
      <trkpt lat="47.80584" lon="6.56951">
        <ele>445.738</ele>
        <time>2015-06-13T12:28:48.582Z</time>
      </trkpt>
      <trkpt lat="47.80586" lon="6.56959">
        <ele>444.524</ele>
        <time>2015-06-13T12:28:49.519Z</time>
      </trkpt>
      <trkpt lat="47.80588" lon="6.56967">
        <ele>443.927</ele>
        <time>2015-06-13T12:28:50.575Z</time>
      </trkpt>
      <trkpt lat="47.80592" lon="6.56972">
        <ele>444.517</ele>
        <time>2015-06-13T12:28:51.575Z</time>
      </trkpt>
      <trkpt lat="47.80592" lon="6.56979">
        <ele>444.142</ele>
        <time>2015-06-13T12:28:52.582Z</time>
      </trkpt>
      <trkpt lat="47.80593" lon="6.56986">
        <ele>444.38</ele>
        <time>2015-06-13T12:28:53.596Z</time>
      </trkpt>
      <trkpt lat="47.80595" lon="6.56999">
        <ele>444.452</ele>
        <time>2015-06-13T12:28:55.658Z</time>
      </trkpt>
      <trkpt lat="47.80596" lon="6.57005">
        <ele>445.31</ele>
        <time>2015-06-13T12:28:56.586Z</time>
      </trkpt>
      <trkpt lat="47.806" lon="6.57016">
        <ele>447.218</ele>
        <time>2015-06-13T12:28:58.559Z</time>
      </trkpt>
      <trkpt lat="47.80599" lon="6.57019">
        <ele>447.099</ele>
        <time>2015-06-13T12:28:59.576Z</time>
      </trkpt>
      <trkpt lat="47.80603" lon="6.57025">
        <ele>448.535</ele>
        <time>2015-06-13T12:29:00.595Z</time>
      </trkpt>
      <trkpt lat="47.80605" lon="6.57033">
        <ele>448.422</ele>
        <time>2015-06-13T12:29:01.574Z</time>
      </trkpt>
      <trkpt lat="47.80608" lon="6.5704">
        <ele>447.837</ele>
        <time>2015-06-13T12:29:02.59Z</time>
      </trkpt>
      <trkpt lat="47.80613" lon="6.57047">
        <ele>446.668</ele>
        <time>2015-06-13T12:29:03.568Z</time>
      </trkpt>
      <trkpt lat="47.80617" lon="6.57057">
        <ele>445.09</ele>
        <time>2015-06-13T12:29:05.606Z</time>
      </trkpt>
      <trkpt lat="47.80615" lon="6.57064">
        <ele>443.512</ele>
        <time>2015-06-13T12:29:06.579Z</time>
      </trkpt>
      <trkpt lat="47.80612" lon="6.57071">
        <ele>441.99</ele>
        <time>2015-06-13T12:29:07.549Z</time>
      </trkpt>
      <trkpt lat="47.80612" lon="6.57077">
        <ele>441.006</ele>
        <time>2015-06-13T12:29:08.575Z</time>
      </trkpt>
      <trkpt lat="47.8061" lon="6.57087">
        <ele>440.061</ele>
        <time>2015-06-13T12:29:09.603Z</time>
      </trkpt>
      <trkpt lat="47.80606" lon="6.57094">
        <ele>440.251</ele>
        <time>2015-06-13T12:29:10.588Z</time>
      </trkpt>
      <trkpt lat="47.80603" lon="6.57102">
        <ele>440.461</ele>
        <time>2015-06-13T12:29:11.591Z</time>
      </trkpt>
      <trkpt lat="47.80602" lon="6.5711">
        <ele>440.638</ele>
        <time>2015-06-13T12:29:12.581Z</time>
      </trkpt>
      <trkpt lat="47.80601" lon="6.5712">
        <ele>440.764</ele>
        <time>2015-06-13T12:29:13.602Z</time>
      </trkpt>
      <trkpt lat="47.806" lon="6.5713">
        <ele>440.8</ele>
        <time>2015-06-13T12:29:14.573Z</time>
      </trkpt>
      <trkpt lat="47.80599" lon="6.57139">
        <ele>440.879</ele>
        <time>2015-06-13T12:29:15.572Z</time>
      </trkpt>
      <trkpt lat="47.80599" lon="6.57143">
        <ele>440.916</ele>
        <time>2015-06-13T12:29:16.573Z</time>
      </trkpt>
      <trkpt lat="47.80598" lon="6.57149">
        <ele>440.945</ele>
        <time>2015-06-13T12:29:17.59Z</time>
      </trkpt>
      <trkpt lat="47.80596" lon="6.57157">
        <ele>441.029</ele>
        <time>2015-06-13T12:29:18.574Z</time>
      </trkpt>
      <trkpt lat="47.80597" lon="6.57163">
        <ele>441.006</ele>
        <time>2015-06-13T12:29:19.577Z</time>
      </trkpt>
      <trkpt lat="47.80596" lon="6.57172">
        <ele>441.52</ele>
        <time>2015-06-13T12:29:20.581Z</time>
      </trkpt>
      <trkpt lat="47.80596" lon="6.57183">
        <ele>442.572</ele>
        <time>2015-06-13T12:29:21.574Z</time>
      </trkpt>
      <trkpt lat="47.80597" lon="6.57187">
        <ele>443.002</ele>
        <time>2015-06-13T12:29:22.573Z</time>
      </trkpt>
      <trkpt lat="47.80594" lon="6.57194">
        <ele>444.245</ele>
        <time>2015-06-13T12:29:23.597Z</time>
      </trkpt>
      <trkpt lat="47.80591" lon="6.57206">
        <ele>445.994</ele>
        <time>2015-06-13T12:29:24.575Z</time>
      </trkpt>
      <trkpt lat="47.8059" lon="6.57214">
        <ele>446.775</ele>
        <time>2015-06-13T12:29:25.59Z</time>
      </trkpt>
      <trkpt lat="47.80591" lon="6.57222">
        <ele>447.164</ele>
        <time>2015-06-13T12:29:26.575Z</time>
      </trkpt>
      <trkpt lat="47.80592" lon="6.57235">
        <ele>447.949</ele>
        <time>2015-06-13T12:29:28.581Z</time>
      </trkpt>
      <trkpt lat="47.80594" lon="6.57242">
        <ele>448.015</ele>
        <time>2015-06-13T12:29:29.582Z</time>
      </trkpt>
      <trkpt lat="47.80594" lon="6.57253">
        <ele>448.955</ele>
        <time>2015-06-13T12:29:31.576Z</time>
      </trkpt>
      <trkpt lat="47.80593" lon="6.57259">
        <ele>449.83</ele>
        <time>2015-06-13T12:29:32.655Z</time>
      </trkpt>
      <trkpt lat="47.80595" lon="6.57266">
        <ele>450.132</ele>
        <time>2015-06-13T12:29:34.607Z</time>
      </trkpt>
      <trkpt lat="47.80597" lon="6.57273">
        <ele>450.51</ele>
        <time>2015-06-13T12:29:35.582Z</time>
      </trkpt>
      <trkpt lat="47.80599" lon="6.57284">
        <ele>451.242</ele>
        <time>2015-06-13T12:29:38.584Z</time>
      </trkpt>
      <trkpt lat="47.80599" lon="6.57289">
        <ele>451.572</ele>
        <time>2015-06-13T12:29:39.59Z</time>
      </trkpt>
      <trkpt lat="47.806" lon="6.57296">
        <ele>452.057</ele>
        <time>2015-06-13T12:29:40.582Z</time>
      </trkpt>
      <trkpt lat="47.80601" lon="6.57303">
        <ele>452.365</ele>
        <time>2015-06-13T12:29:41.582Z</time>
      </trkpt>
      <trkpt lat="47.80601" lon="6.57316">
        <ele>452.336</ele>
        <time>2015-06-13T12:29:43.574Z</time>
      </trkpt>
      <trkpt lat="47.80601" lon="6.57323">
        <ele>452.23</ele>
        <time>2015-06-13T12:29:44.572Z</time>
      </trkpt>
      <trkpt lat="47.80602" lon="6.57334">
        <ele>451.93</ele>
        <time>2015-06-13T12:29:46.573Z</time>
      </trkpt>
      <trkpt lat="47.80603" lon="6.5734">
        <ele>451.689</ele>
        <time>2015-06-13T12:29:47.576Z</time>
      </trkpt>
      <trkpt lat="47.80602" lon="6.57352">
        <ele>451.572</ele>
        <time>2015-06-13T12:29:49.575Z</time>
      </trkpt>
      <trkpt lat="47.80601" lon="6.57358">
        <ele>451.574</ele>
        <time>2015-06-13T12:29:50.598Z</time>
      </trkpt>
      <trkpt lat="47.80599" lon="6.5737">
        <ele>451.507</ele>
        <time>2015-06-13T12:29:52.575Z</time>
      </trkpt>
      <trkpt lat="47.80599" lon="6.57375">
        <ele>451.36</ele>
        <time>2015-06-13T12:29:53.595Z</time>
      </trkpt>
      <trkpt lat="47.80598" lon="6.57388">
        <ele>450.906</ele>
        <time>2015-06-13T12:29:55.575Z</time>
      </trkpt>
      <trkpt lat="47.80597" lon="6.57394">
        <ele>450.718</ele>
        <time>2015-06-13T12:29:56.576Z</time>
      </trkpt>
      <trkpt lat="47.80595" lon="6.57401">
        <ele>450.472</ele>
        <time>2015-06-13T12:29:57.575Z</time>
      </trkpt>
      <trkpt lat="47.80594" lon="6.57408">
        <ele>450.227</ele>
        <time>2015-06-13T12:29:58.576Z</time>
      </trkpt>
      <trkpt lat="47.80593" lon="6.57415">
        <ele>449.829</ele>
        <time>2015-06-13T12:29:59.577Z</time>
      </trkpt>
      <trkpt lat="47.80592" lon="6.57422">
        <ele>449.326</ele>
        <time>2015-06-13T12:30:00.573Z</time>
      </trkpt>
      <trkpt lat="47.80591" lon="6.5743">
        <ele>448.758</ele>
        <time>2015-06-13T12:30:01.597Z</time>
      </trkpt>
      <trkpt lat="47.80589" lon="6.57438">
        <ele>448.213</ele>
        <time>2015-06-13T12:30:02.565Z</time>
      </trkpt>
      <trkpt lat="47.80588" lon="6.57446">
        <ele>447.631</ele>
        <time>2015-06-13T12:30:03.572Z</time>
      </trkpt>
      <trkpt lat="47.80584" lon="6.57466">
        <ele>447.166</ele>
        <time>2015-06-13T12:30:04.572Z</time>
      </trkpt>
      <trkpt lat="47.80582" lon="6.57474">
        <ele>446.595</ele>
        <time>2015-06-13T12:30:05.588Z</time>
      </trkpt>
      <trkpt lat="47.80579" lon="6.57482">
        <ele>445.814</ele>
        <time>2015-06-13T12:30:06.54Z</time>
      </trkpt>
      <trkpt lat="47.80574" lon="6.57492">
        <ele>444.579</ele>
        <time>2015-06-13T12:30:08.583Z</time>
      </trkpt>
      <trkpt lat="47.80571" lon="6.57498">
        <ele>443.834</ele>
        <time>2015-06-13T12:30:09.579Z</time>
      </trkpt>
      <trkpt lat="47.80567" lon="6.57503">
        <ele>443.131</ele>
        <time>2015-06-13T12:30:10.58Z</time>
      </trkpt>
      <trkpt lat="47.80561" lon="6.57515">
        <ele>442.797</ele>
        <time>2015-06-13T12:30:11.583Z</time>
      </trkpt>
      <trkpt lat="47.80558" lon="6.57521">
        <ele>442.832</ele>
        <time>2015-06-13T12:30:12.58Z</time>
      </trkpt>
      <trkpt lat="47.80553" lon="6.57529">
        <ele>443.089</ele>
        <time>2015-06-13T12:30:13.582Z</time>
      </trkpt>
      <trkpt lat="47.80547" lon="6.57531">
        <ele>442.675</ele>
        <time>2015-06-13T12:30:14.574Z</time>
      </trkpt>
      <trkpt lat="47.80544" lon="6.57538">
        <ele>443.518</ele>
        <time>2015-06-13T12:30:15.573Z</time>
      </trkpt>
      <trkpt lat="47.8054" lon="6.57545">
        <ele>443.548</ele>
        <time>2015-06-13T12:30:16.592Z</time>
      </trkpt>
      <trkpt lat="47.80539" lon="6.57554">
        <ele>444.295</ele>
        <time>2015-06-13T12:30:17.596Z</time>
      </trkpt>
      <trkpt lat="47.80536" lon="6.57559">
        <ele>443.956</ele>
        <time>2015-06-13T12:30:18.603Z</time>
      </trkpt>
      <trkpt lat="47.80532" lon="6.57565">
        <ele>443.308</ele>
        <time>2015-06-13T12:30:19.665Z</time>
      </trkpt>
      <trkpt lat="47.80527" lon="6.57575">
        <ele>442.023</ele>
        <time>2015-06-13T12:30:21.603Z</time>
      </trkpt>
      <trkpt lat="47.80523" lon="6.57586">
        <ele>441.351</ele>
        <time>2015-06-13T12:30:22.602Z</time>
      </trkpt>
      <trkpt lat="47.80519" lon="6.57595">
        <ele>440.742</ele>
        <time>2015-06-13T12:30:23.518Z</time>
      </trkpt>
      <trkpt lat="47.80518" lon="6.57602">
        <ele>440.629</ele>
        <time>2015-06-13T12:30:24.601Z</time>
      </trkpt>
      <trkpt lat="47.80516" lon="6.5761">
        <ele>440.366</ele>
        <time>2015-06-13T12:30:26.575Z</time>
      </trkpt>
      <trkpt lat="47.80512" lon="6.57619">
        <ele>438.834</ele>
        <time>2015-06-13T12:30:27.573Z</time>
      </trkpt>
      <trkpt lat="47.8051" lon="6.57625">
        <ele>438.011</ele>
        <time>2015-06-13T12:30:28.575Z</time>
      </trkpt>
      <trkpt lat="47.80501" lon="6.57635">
        <ele>433.504</ele>
        <time>2015-06-13T12:30:29.574Z</time>
      </trkpt>
      <trkpt lat="47.80496" lon="6.57639">
        <ele>431.226</ele>
        <time>2015-06-13T12:30:30.573Z</time>
      </trkpt>
      <trkpt lat="47.80493" lon="6.57644">
        <ele>429.821</ele>
        <time>2015-06-13T12:30:31.575Z</time>
      </trkpt>
      <trkpt lat="47.80489" lon="6.5765">
        <ele>428.608</ele>
        <time>2015-06-13T12:30:32.574Z</time>
      </trkpt>
      <trkpt lat="47.80481" lon="6.57664">
        <ele>427.033</ele>
        <time>2015-06-13T12:30:33.582Z</time>
      </trkpt>
      <trkpt lat="47.80474" lon="6.57676">
        <ele>425.773</ele>
        <time>2015-06-13T12:30:34.573Z</time>
      </trkpt>
      <trkpt lat="47.8047" lon="6.57691">
        <ele>425.229</ele>
        <time>2015-06-13T12:30:35.581Z</time>
      </trkpt>
      <trkpt lat="47.80466" lon="6.57697">
        <ele>423.985</ele>
        <time>2015-06-13T12:30:36.545Z</time>
      </trkpt>
      <trkpt lat="47.80463" lon="6.57705">
        <ele>422.756</ele>
        <time>2015-06-13T12:30:37.573Z</time>
      </trkpt>
      <trkpt lat="47.8045" lon="6.57713">
        <ele>418.702</ele>
        <time>2015-06-13T12:30:38.574Z</time>
      </trkpt>
      <trkpt lat="47.80447" lon="6.57716">
        <ele>417.96</ele>
        <time>2015-06-13T12:30:39.574Z</time>
      </trkpt>
      <trkpt lat="47.80437" lon="6.57719">
        <ele>415.972</ele>
        <time>2015-06-13T12:30:40.573Z</time>
      </trkpt>
      <trkpt lat="47.80429" lon="6.57717">
        <ele>414.921</ele>
        <time>2015-06-13T12:30:41.548Z</time>
      </trkpt>
      <trkpt lat="47.80418" lon="6.57718">
        <ele>413.283</ele>
        <time>2015-06-13T12:30:42.574Z</time>
      </trkpt>
      <trkpt lat="47.80408" lon="6.57718">
        <ele>414.582</ele>
        <time>2015-06-13T12:30:43.575Z</time>
      </trkpt>
      <trkpt lat="47.80397" lon="6.57716">
        <ele>416.189</ele>
        <time>2015-06-13T12:30:44.607Z</time>
      </trkpt>
      <trkpt lat="47.80387" lon="6.57716">
        <ele>417.517</ele>
        <time>2015-06-13T12:30:45.574Z</time>
      </trkpt>
      <trkpt lat="47.8038" lon="6.57714">
        <ele>417.975</ele>
        <time>2015-06-13T12:30:46.592Z</time>
      </trkpt>
      <trkpt lat="47.80371" lon="6.57713">
        <ele>418.638</ele>
        <time>2015-06-13T12:30:47.572Z</time>
      </trkpt>
      <trkpt lat="47.80363" lon="6.57711">
        <ele>419.137</ele>
        <time>2015-06-13T12:30:48.71Z</time>
      </trkpt>
      <trkpt lat="47.80352" lon="6.57711">
        <ele>418.244</ele>
        <time>2015-06-13T12:30:49.579Z</time>
      </trkpt>
      <trkpt lat="47.80343" lon="6.57715">
        <ele>417.408</ele>
        <time>2015-06-13T12:30:50.575Z</time>
      </trkpt>
      <trkpt lat="47.80332" lon="6.57717">
        <ele>416.235</ele>
        <time>2015-06-13T12:30:51.585Z</time>
      </trkpt>
      <trkpt lat="47.80324" lon="6.5772">
        <ele>413.889</ele>
        <time>2015-06-13T12:30:52.573Z</time>
      </trkpt>
      <trkpt lat="47.80313" lon="6.57723">
        <ele>410.563</ele>
        <time>2015-06-13T12:30:53.674Z</time>
      </trkpt>
      <trkpt lat="47.80305" lon="6.57735">
        <ele>408.358</ele>
        <time>2015-06-13T12:30:54.573Z</time>
      </trkpt>
      <trkpt lat="47.80297" lon="6.57743">
        <ele>407.69</ele>
        <time>2015-06-13T12:30:55.582Z</time>
      </trkpt>
      <trkpt lat="47.80286" lon="6.57752">
        <ele>407.023</ele>
        <time>2015-06-13T12:30:56.573Z</time>
      </trkpt>
      <trkpt lat="47.80279" lon="6.57758">
        <ele>406.685</ele>
        <time>2015-06-13T12:30:57.572Z</time>
      </trkpt>
      <trkpt lat="47.80271" lon="6.57763">
        <ele>407.7</ele>
        <time>2015-06-13T12:30:58.574Z</time>
      </trkpt>
      <trkpt lat="47.80263" lon="6.57774">
        <ele>408.923</ele>
        <time>2015-06-13T12:30:59.577Z</time>
      </trkpt>
      <trkpt lat="47.8026" lon="6.57771">
        <ele>409.112</ele>
        <time>2015-06-13T12:31:00.582Z</time>
      </trkpt>
      <trkpt lat="47.80252" lon="6.57762">
        <ele>409.753</ele>
        <time>2015-06-13T12:31:01.581Z</time>
      </trkpt>
      <trkpt lat="47.80242" lon="6.57761">
        <ele>410</ele>
        <time>2015-06-13T12:31:02.593Z</time>
      </trkpt>
      <trkpt lat="47.80246" lon="6.57754">
        <ele>410</ele>
        <time>2015-06-13T12:31:03.573Z</time>
      </trkpt>
      <trkpt lat="47.80239" lon="6.57748">
        <ele>409.978</ele>
        <time>2015-06-13T12:31:04.595Z</time>
      </trkpt>
      <trkpt lat="47.80234" lon="6.57743">
        <ele>410.073</ele>
        <time>2015-06-13T12:31:05.577Z</time>
      </trkpt>
      <trkpt lat="47.80227" lon="6.57741">
        <ele>410.42</ele>
        <time>2015-06-13T12:31:06.573Z</time>
      </trkpt>
      <trkpt lat="47.80221" lon="6.57737">
        <ele>410.891</ele>
        <time>2015-06-13T12:31:07.558Z</time>
      </trkpt>
      <trkpt lat="47.80216" lon="6.57731">
        <ele>411.058</ele>
        <time>2015-06-13T12:31:08.581Z</time>
      </trkpt>
      <trkpt lat="47.80212" lon="6.57722">
        <ele>411.21</ele>
        <time>2015-06-13T12:31:09.578Z</time>
      </trkpt>
      <trkpt lat="47.80209" lon="6.57715">
        <ele>410.351</ele>
        <time>2015-06-13T12:31:10.609Z</time>
      </trkpt>
      <trkpt lat="47.80209" lon="6.57706">
        <ele>409.521</ele>
        <time>2015-06-13T12:31:11.573Z</time>
      </trkpt>
      <trkpt lat="47.80208" lon="6.57695">
        <ele>408.489</ele>
        <time>2015-06-13T12:31:12.573Z</time>
      </trkpt>
      <trkpt lat="47.80209" lon="6.57682">
        <ele>407.822</ele>
        <time>2015-06-13T12:31:13.573Z</time>
      </trkpt>
      <trkpt lat="47.8021" lon="6.57673">
        <ele>407.37</ele>
        <time>2015-06-13T12:31:14.583Z</time>
      </trkpt>
      <trkpt lat="47.80213" lon="6.5766">
        <ele>406.842</ele>
        <time>2015-06-13T12:31:15.604Z</time>
      </trkpt>
      <trkpt lat="47.80212" lon="6.57646">
        <ele>406.529</ele>
        <time>2015-06-13T12:31:16.58Z</time>
      </trkpt>
      <trkpt lat="47.80212" lon="6.57632">
        <ele>406.868</ele>
        <time>2015-06-13T12:31:17.573Z</time>
      </trkpt>
      <trkpt lat="47.80207" lon="6.57619">
        <ele>407.53</ele>
        <time>2015-06-13T12:31:18.577Z</time>
      </trkpt>
      <trkpt lat="47.802" lon="6.57611">
        <ele>407.415</ele>
        <time>2015-06-13T12:31:19.574Z</time>
      </trkpt>
      <trkpt lat="47.80194" lon="6.576">
        <ele>407.468</ele>
        <time>2015-06-13T12:31:20.592Z</time>
      </trkpt>
      <trkpt lat="47.80191" lon="6.57594">
        <ele>407.78</ele>
        <time>2015-06-13T12:31:21.574Z</time>
      </trkpt>
      <trkpt lat="47.80179" lon="6.57593">
        <ele>408.235</ele>
        <time>2015-06-13T12:31:22.593Z</time>
      </trkpt>
      <trkpt lat="47.80172" lon="6.57586">
        <ele>408.15</ele>
        <time>2015-06-13T12:31:23.574Z</time>
      </trkpt>
      <trkpt lat="47.80166" lon="6.57579">
        <ele>408.428</ele>
        <time>2015-06-13T12:31:24.575Z</time>
      </trkpt>
      <trkpt lat="47.8016" lon="6.57572">
        <ele>410.187</ele>
        <time>2015-06-13T12:31:25.574Z</time>
      </trkpt>
      <trkpt lat="47.80156" lon="6.57564">
        <ele>411.571</ele>
        <time>2015-06-13T12:31:26.581Z</time>
      </trkpt>
      <trkpt lat="47.80151" lon="6.57558">
        <ele>413.229</ele>
        <time>2015-06-13T12:31:27.574Z</time>
      </trkpt>
      <trkpt lat="47.80146" lon="6.57552">
        <ele>414.315</ele>
        <time>2015-06-13T12:31:28.594Z</time>
      </trkpt>
      <trkpt lat="47.80143" lon="6.57546">
        <ele>414.546</ele>
        <time>2015-06-13T12:31:29.574Z</time>
      </trkpt>
      <trkpt lat="47.8014" lon="6.57539">
        <ele>414.649</ele>
        <time>2015-06-13T12:31:30.581Z</time>
      </trkpt>
      <trkpt lat="47.80134" lon="6.57533">
        <ele>414.306</ele>
        <time>2015-06-13T12:31:31.628Z</time>
      </trkpt>
      <trkpt lat="47.8013" lon="6.57525">
        <ele>413.723</ele>
        <time>2015-06-13T12:31:32.567Z</time>
      </trkpt>
      <trkpt lat="47.8013" lon="6.57517">
        <ele>413.069</ele>
        <time>2015-06-13T12:31:33.582Z</time>
      </trkpt>
      <trkpt lat="47.80131" lon="6.57508">
        <ele>412.338</ele>
        <time>2015-06-13T12:31:34.574Z</time>
      </trkpt>
      <trkpt lat="47.80131" lon="6.57501">
        <ele>411.718</ele>
        <time>2015-06-13T12:31:35.59Z</time>
      </trkpt>
      <trkpt lat="47.8013" lon="6.57494">
        <ele>411.207</ele>
        <time>2015-06-13T12:31:36.574Z</time>
      </trkpt>
      <trkpt lat="47.80133" lon="6.57488">
        <ele>411.918</ele>
        <time>2015-06-13T12:31:39.568Z</time>
      </trkpt>
      <trkpt lat="47.80136" lon="6.57484">
        <ele>412.652</ele>
        <time>2015-06-13T12:31:40.574Z</time>
      </trkpt>
      <trkpt lat="47.8014" lon="6.57473">
        <ele>413.084</ele>
        <time>2015-06-13T12:31:41.535Z</time>
      </trkpt>
      <trkpt lat="47.80138" lon="6.5747">
        <ele>412.394</ele>
        <time>2015-06-13T12:31:42.576Z</time>
      </trkpt>
      <trkpt lat="47.80139" lon="6.57461">
        <ele>411.24</ele>
        <time>2015-06-13T12:31:44.67Z</time>
      </trkpt>
      <trkpt lat="47.80138" lon="6.57454">
        <ele>410.235</ele>
        <time>2015-06-13T12:31:45.581Z</time>
      </trkpt>
      <trkpt lat="47.80139" lon="6.57448">
        <ele>409.617</ele>
        <time>2015-06-13T12:31:46.553Z</time>
      </trkpt>
      <trkpt lat="47.8014" lon="6.57441">
        <ele>409.038</ele>
        <time>2015-06-13T12:31:47.575Z</time>
      </trkpt>
      <trkpt lat="47.80141" lon="6.57431">
        <ele>408.357</ele>
        <time>2015-06-13T12:31:48.626Z</time>
      </trkpt>
      <trkpt lat="47.8014" lon="6.57421">
        <ele>406.737</ele>
        <time>2015-06-13T12:31:49.582Z</time>
      </trkpt>
      <trkpt lat="47.80142" lon="6.57412">
        <ele>407.514</ele>
        <time>2015-06-13T12:31:50.581Z</time>
      </trkpt>
      <trkpt lat="47.80135" lon="6.57403">
        <ele>406.662</ele>
        <time>2015-06-13T12:31:51.576Z</time>
      </trkpt>
      <trkpt lat="47.80134" lon="6.57395">
        <ele>407.179</ele>
        <time>2015-06-13T12:31:52.576Z</time>
      </trkpt>
      <trkpt lat="47.80132" lon="6.57385">
        <ele>407.742</ele>
        <time>2015-06-13T12:31:53.533Z</time>
      </trkpt>
      <trkpt lat="47.80127" lon="6.57372">
        <ele>408.068</ele>
        <time>2015-06-13T12:31:54.575Z</time>
      </trkpt>
      <trkpt lat="47.80126" lon="6.57361">
        <ele>408.933</ele>
        <time>2015-06-13T12:31:55.574Z</time>
      </trkpt>
      <trkpt lat="47.80125" lon="6.57348">
        <ele>408.5</ele>
        <time>2015-06-13T12:31:56.577Z</time>
      </trkpt>
      <trkpt lat="47.80125" lon="6.57339">
        <ele>408.397</ele>
        <time>2015-06-13T12:31:57.604Z</time>
      </trkpt>
      <trkpt lat="47.8012" lon="6.57331">
        <ele>408.25</ele>
        <time>2015-06-13T12:31:58.577Z</time>
      </trkpt>
      <trkpt lat="47.80118" lon="6.57325">
        <ele>409.027</ele>
        <time>2015-06-13T12:31:59.582Z</time>
      </trkpt>
      <trkpt lat="47.80113" lon="6.5732">
        <ele>409.592</ele>
        <time>2015-06-13T12:32:00.575Z</time>
      </trkpt>
      <trkpt lat="47.80107" lon="6.5732">
        <ele>409.182</ele>
        <time>2015-06-13T12:32:01.575Z</time>
      </trkpt>
      <trkpt lat="47.80101" lon="6.5732">
        <ele>408.693</ele>
        <time>2015-06-13T12:32:02.573Z</time>
      </trkpt>
      <trkpt lat="47.80094" lon="6.57323">
        <ele>407.311</ele>
        <time>2015-06-13T12:32:03.571Z</time>
      </trkpt>
      <trkpt lat="47.80089" lon="6.57326">
        <ele>405.823</ele>
        <time>2015-06-13T12:32:04.676Z</time>
      </trkpt>
      <trkpt lat="47.80086" lon="6.57322">
        <ele>407.016</ele>
        <time>2015-06-13T12:32:05.58Z</time>
      </trkpt>
      <trkpt lat="47.80077" lon="6.57325">
        <ele>407.173</ele>
        <time>2015-06-13T12:32:06.572Z</time>
      </trkpt>
      <trkpt lat="47.80068" lon="6.57324">
        <ele>408.974</ele>
        <time>2015-06-13T12:32:07.561Z</time>
      </trkpt>
      <trkpt lat="47.80062" lon="6.57328">
        <ele>409.441</ele>
        <time>2015-06-13T12:32:08.578Z</time>
      </trkpt>
      <trkpt lat="47.80056" lon="6.57334">
        <ele>409.641</ele>
        <time>2015-06-13T12:32:09.593Z</time>
      </trkpt>
      <trkpt lat="47.80048" lon="6.57336">
        <ele>410.024</ele>
        <time>2015-06-13T12:32:10.58Z</time>
      </trkpt>
      <trkpt lat="47.80043" lon="6.5733">
        <ele>411.8</ele>
        <time>2015-06-13T12:32:11.582Z</time>
      </trkpt>
      <trkpt lat="47.80037" lon="6.57337">
        <ele>411.134</ele>
        <time>2015-06-13T12:32:12.573Z</time>
      </trkpt>
      <trkpt lat="47.80031" lon="6.5734">
        <ele>411.079</ele>
        <time>2015-06-13T12:32:13.595Z</time>
      </trkpt>
      <trkpt lat="47.80024" lon="6.57342">
        <ele>411.078</ele>
        <time>2015-06-13T12:32:14.573Z</time>
      </trkpt>
      <trkpt lat="47.80019" lon="6.57346">
        <ele>410.17</ele>
        <time>2015-06-13T12:32:15.807Z</time>
      </trkpt>
      <trkpt lat="47.80015" lon="6.5735">
        <ele>409.648</ele>
        <time>2015-06-13T12:32:16.574Z</time>
      </trkpt>
      <trkpt lat="47.80007" lon="6.57353">
        <ele>409.726</ele>
        <time>2015-06-13T12:32:18.587Z</time>
      </trkpt>
      <trkpt lat="47.8" lon="6.57346">
        <ele>411.171</ele>
        <time>2015-06-13T12:32:19.574Z</time>
      </trkpt>
      <trkpt lat="47.79992" lon="6.57342">
        <ele>411.689</ele>
        <time>2015-06-13T12:32:21.575Z</time>
      </trkpt>
      <trkpt lat="47.79989" lon="6.57339">
        <ele>412.049</ele>
        <time>2015-06-13T12:32:22.576Z</time>
      </trkpt>
      <trkpt lat="47.79983" lon="6.57338">
        <ele>412.063</ele>
        <time>2015-06-13T12:32:23.583Z</time>
      </trkpt>
      <trkpt lat="47.79976" lon="6.57334">
        <ele>412.091</ele>
        <time>2015-06-13T12:32:24.598Z</time>
      </trkpt>
      <trkpt lat="47.79972" lon="6.5733">
        <ele>412.457</ele>
        <time>2015-06-13T12:32:25.582Z</time>
      </trkpt>
      <trkpt lat="47.79966" lon="6.57326">
        <ele>412.333</ele>
        <time>2015-06-13T12:32:26.574Z</time>
      </trkpt>
      <trkpt lat="47.79959" lon="6.57322">
        <ele>412.371</ele>
        <time>2015-06-13T12:32:27.573Z</time>
      </trkpt>
      <trkpt lat="47.79956" lon="6.57319">
        <ele>412.64</ele>
        <time>2015-06-13T12:32:28.572Z</time>
      </trkpt>
      <trkpt lat="47.79952" lon="6.57317">
        <ele>412.588</ele>
        <time>2015-06-13T12:32:29.573Z</time>
      </trkpt>
      <trkpt lat="47.79946" lon="6.57314">
        <ele>412.642</ele>
        <time>2015-06-13T12:32:30.572Z</time>
      </trkpt>
      <trkpt lat="47.79939" lon="6.57314">
        <ele>412.311</ele>
        <time>2015-06-13T12:32:31.582Z</time>
      </trkpt>
      <trkpt lat="47.79931" lon="6.57314">
        <ele>412.211</ele>
        <time>2015-06-13T12:32:32.573Z</time>
      </trkpt>
      <trkpt lat="47.79926" lon="6.57307">
        <ele>413.161</ele>
        <time>2015-06-13T12:32:35.596Z</time>
      </trkpt>
      <trkpt lat="47.79921" lon="6.57308">
        <ele>412.759</ele>
        <time>2015-06-13T12:32:36.575Z</time>
      </trkpt>
      <trkpt lat="47.79916" lon="6.57306">
        <ele>413.113</ele>
        <time>2015-06-13T12:32:37.575Z</time>
      </trkpt>
      <trkpt lat="47.7991" lon="6.57302">
        <ele>415.023</ele>
        <time>2015-06-13T12:32:38.573Z</time>
      </trkpt>
      <trkpt lat="47.79904" lon="6.57299">
        <ele>416.692</ele>
        <time>2015-06-13T12:32:39.58Z</time>
      </trkpt>
      <trkpt lat="47.79899" lon="6.57295">
        <ele>418.712</ele>
        <time>2015-06-13T12:32:40.575Z</time>
      </trkpt>
      <trkpt lat="47.79892" lon="6.57294">
        <ele>420.371</ele>
        <time>2015-06-13T12:32:41.575Z</time>
      </trkpt>
      <trkpt lat="47.79889" lon="6.57287">
        <ele>422.471</ele>
        <time>2015-06-13T12:32:42.575Z</time>
      </trkpt>
      <trkpt lat="47.79885" lon="6.57283">
        <ele>423.355</ele>
        <time>2015-06-13T12:32:43.576Z</time>
      </trkpt>
      <trkpt lat="47.7988" lon="6.57279">
        <ele>423.839</ele>
        <time>2015-06-13T12:32:44.574Z</time>
      </trkpt>
      <trkpt lat="47.79878" lon="6.57273">
        <ele>424.157</ele>
        <time>2015-06-13T12:32:45.579Z</time>
      </trkpt>
      <trkpt lat="47.79869" lon="6.57275">
        <ele>423.136</ele>
        <time>2015-06-13T12:32:46.603Z</time>
      </trkpt>
      <trkpt lat="47.79865" lon="6.57269">
        <ele>423.197</ele>
        <time>2015-06-13T12:32:47.585Z</time>
      </trkpt>
      <trkpt lat="47.79864" lon="6.57262">
        <ele>423.955</ele>
        <time>2015-06-13T12:32:48.583Z</time>
      </trkpt>
      <trkpt lat="47.79857" lon="6.57258">
        <ele>423.826</ele>
        <time>2015-06-13T12:32:49.584Z</time>
      </trkpt>
      <trkpt lat="47.79854" lon="6.57253">
        <ele>424.218</ele>
        <time>2015-06-13T12:32:50.573Z</time>
      </trkpt>
      <trkpt lat="47.79847" lon="6.57244">
        <ele>423.775</ele>
        <time>2015-06-13T12:32:52.588Z</time>
      </trkpt>
      <trkpt lat="47.79844" lon="6.57235">
        <ele>423.371</ele>
        <time>2015-06-13T12:32:53.58Z</time>
      </trkpt>
      <trkpt lat="47.7984" lon="6.57232">
        <ele>423.177</ele>
        <time>2015-06-13T12:32:54.573Z</time>
      </trkpt>
      <trkpt lat="47.79835" lon="6.57228">
        <ele>423.018</ele>
        <time>2015-06-13T12:32:55.573Z</time>
      </trkpt>
      <trkpt lat="47.7983" lon="6.57221">
        <ele>422.347</ele>
        <time>2015-06-13T12:32:57.574Z</time>
      </trkpt>
      <trkpt lat="47.79831" lon="6.57213">
        <ele>422.381</ele>
        <time>2015-06-13T12:32:58.571Z</time>
      </trkpt>
      <trkpt lat="47.79828" lon="6.57207">
        <ele>422.018</ele>
        <time>2015-06-13T12:32:59.58Z</time>
      </trkpt>
      <trkpt lat="47.79827" lon="6.572">
        <ele>421.984</ele>
        <time>2015-06-13T12:33:00.571Z</time>
      </trkpt>
      <trkpt lat="47.79825" lon="6.57194">
        <ele>422</ele>
        <time>2015-06-13T12:33:01.579Z</time>
      </trkpt>
      <trkpt lat="47.79823" lon="6.57188">
        <ele>422</ele>
        <time>2015-06-13T12:33:02.595Z</time>
      </trkpt>
      <trkpt lat="47.7982" lon="6.57177">
        <ele>422</ele>
        <time>2015-06-13T12:33:04.572Z</time>
      </trkpt>
      <trkpt lat="47.79819" lon="6.57172">
        <ele>422</ele>
        <time>2015-06-13T12:33:05.572Z</time>
      </trkpt>
      <trkpt lat="47.79818" lon="6.57166">
        <ele>422.005</ele>
        <time>2015-06-13T12:33:06.572Z</time>
      </trkpt>
      <trkpt lat="47.79813" lon="6.57161">
        <ele>422.09</ele>
        <time>2015-06-13T12:33:07.565Z</time>
      </trkpt>
      <trkpt lat="47.7981" lon="6.57149">
        <ele>422.435</ele>
        <time>2015-06-13T12:33:09.601Z</time>
      </trkpt>
      <trkpt lat="47.79807" lon="6.57143">
        <ele>422.788</ele>
        <time>2015-06-13T12:33:10.595Z</time>
      </trkpt>
      <trkpt lat="47.79804" lon="6.57131">
        <ele>423.851</ele>
        <time>2015-06-13T12:33:12.588Z</time>
      </trkpt>
      <trkpt lat="47.79802" lon="6.57126">
        <ele>424.418</ele>
        <time>2015-06-13T12:33:13.595Z</time>
      </trkpt>
      <trkpt lat="47.79801" lon="6.57121">
        <ele>424.868</ele>
        <time>2015-06-13T12:33:14.564Z</time>
      </trkpt>
      <trkpt lat="47.79798" lon="6.57113">
        <ele>425.703</ele>
        <time>2015-06-13T12:33:15.582Z</time>
      </trkpt>
      <trkpt lat="47.79794" lon="6.57106">
        <ele>426.324</ele>
        <time>2015-06-13T12:33:16.559Z</time>
      </trkpt>
      <trkpt lat="47.79791" lon="6.571">
        <ele>426.593</ele>
        <time>2015-06-13T12:33:17.58Z</time>
      </trkpt>
      <trkpt lat="47.79785" lon="6.57094">
        <ele>426.905</ele>
        <time>2015-06-13T12:33:18.599Z</time>
      </trkpt>
      <trkpt lat="47.79783" lon="6.57089">
        <ele>426.918</ele>
        <time>2015-06-13T12:33:19.576Z</time>
      </trkpt>
      <trkpt lat="47.79779" lon="6.57082">
        <ele>426.861</ele>
        <time>2015-06-13T12:33:20.585Z</time>
      </trkpt>
      <trkpt lat="47.79778" lon="6.57077">
        <ele>426.572</ele>
        <time>2015-06-13T12:33:21.599Z</time>
      </trkpt>
      <trkpt lat="47.79775" lon="6.57073">
        <ele>425.972</ele>
        <time>2015-06-13T12:33:22.584Z</time>
      </trkpt>
      <trkpt lat="47.79771" lon="6.57067">
        <ele>425.32</ele>
        <time>2015-06-13T12:33:23.576Z</time>
      </trkpt>
      <trkpt lat="47.79766" lon="6.57063">
        <ele>424.89</ele>
        <time>2015-06-13T12:33:24.574Z</time>
      </trkpt>
      <trkpt lat="47.79763" lon="6.57059">
        <ele>424.554</ele>
        <time>2015-06-13T12:33:25.573Z</time>
      </trkpt>
      <trkpt lat="47.79759" lon="6.57055">
        <ele>424.378</ele>
        <time>2015-06-13T12:33:27.582Z</time>
      </trkpt>
      <trkpt lat="47.79753" lon="6.57054">
        <ele>424.255</ele>
        <time>2015-06-13T12:33:28.578Z</time>
      </trkpt>
      <trkpt lat="47.79748" lon="6.57044">
        <ele>425.116</ele>
        <time>2015-06-13T12:33:31.575Z</time>
      </trkpt>
      <trkpt lat="47.79746" lon="6.57042">
        <ele>425.173</ele>
        <time>2015-06-13T12:33:32.573Z</time>
      </trkpt>
      <trkpt lat="47.79741" lon="6.57032">
        <ele>425.392</ele>
        <time>2015-06-13T12:33:34.574Z</time>
      </trkpt>
      <trkpt lat="47.79738" lon="6.57029">
        <ele>425.139</ele>
        <time>2015-06-13T12:33:35.573Z</time>
      </trkpt>
      <trkpt lat="47.79731" lon="6.57022">
        <ele>424.975</ele>
        <time>2015-06-13T12:33:37.583Z</time>
      </trkpt>
      <trkpt lat="47.79728" lon="6.57019">
        <ele>424.919</ele>
        <time>2015-06-13T12:33:38.584Z</time>
      </trkpt>
      <trkpt lat="47.79721" lon="6.57012">
        <ele>424.749</ele>
        <time>2015-06-13T12:33:40.663Z</time>
      </trkpt>
      <trkpt lat="47.79718" lon="6.57007">
        <ele>425.206</ele>
        <time>2015-06-13T12:33:41.585Z</time>
      </trkpt>
      <trkpt lat="47.79713" lon="6.56997">
        <ele>425.79</ele>
        <time>2015-06-13T12:33:43.583Z</time>
      </trkpt>
      <trkpt lat="47.79712" lon="6.56992">
        <ele>425.92</ele>
        <time>2015-06-13T12:33:44.583Z</time>
      </trkpt>
      <trkpt lat="47.79707" lon="6.56982">
        <ele>426.118</ele>
        <time>2015-06-13T12:33:46.582Z</time>
      </trkpt>
      <trkpt lat="47.79704" lon="6.56977">
        <ele>426.19</ele>
        <time>2015-06-13T12:33:47.583Z</time>
      </trkpt>
      <trkpt lat="47.79702" lon="6.56966">
        <ele>426.909</ele>
        <time>2015-06-13T12:33:49.583Z</time>
      </trkpt>
      <trkpt lat="47.79701" lon="6.56961">
        <ele>427.338</ele>
        <time>2015-06-13T12:33:50.584Z</time>
      </trkpt>
      <trkpt lat="47.79698" lon="6.56949">
        <ele>428.19</ele>
        <time>2015-06-13T12:33:52.578Z</time>
      </trkpt>
      <trkpt lat="47.79697" lon="6.56943">
        <ele>428.444</ele>
        <time>2015-06-13T12:33:53.583Z</time>
      </trkpt>
      <trkpt lat="47.79697" lon="6.56931">
        <ele>428.751</ele>
        <time>2015-06-13T12:33:55.617Z</time>
      </trkpt>
      <trkpt lat="47.797" lon="6.5692">
        <ele>429.518</ele>
        <time>2015-06-13T12:33:56.59Z</time>
      </trkpt>
      <trkpt lat="47.79698" lon="6.56912">
        <ele>429.302</ele>
        <time>2015-06-13T12:33:58.579Z</time>
      </trkpt>
      <trkpt lat="47.79696" lon="6.56907">
        <ele>429.087</ele>
        <time>2015-06-13T12:33:59.583Z</time>
      </trkpt>
      <trkpt lat="47.79697" lon="6.56894">
        <ele>429.131</ele>
        <time>2015-06-13T12:34:01.583Z</time>
      </trkpt>
      <trkpt lat="47.79697" lon="6.56888">
        <ele>429.076</ele>
        <time>2015-06-13T12:34:02.582Z</time>
      </trkpt>
      <trkpt lat="47.79694" lon="6.56878">
        <ele>428.605</ele>
        <time>2015-06-13T12:34:04.582Z</time>
      </trkpt>
      <trkpt lat="47.79692" lon="6.56874">
        <ele>428.327</ele>
        <time>2015-06-13T12:34:05.583Z</time>
      </trkpt>
      <trkpt lat="47.79689" lon="6.56863">
        <ele>427.865</ele>
        <time>2015-06-13T12:34:07.569Z</time>
      </trkpt>
      <trkpt lat="47.79688" lon="6.56857">
        <ele>427.849</ele>
        <time>2015-06-13T12:34:08.576Z</time>
      </trkpt>
      <trkpt lat="47.79686" lon="6.56846">
        <ele>428.024</ele>
        <time>2015-06-13T12:34:10.609Z</time>
      </trkpt>
      <trkpt lat="47.79685" lon="6.56841">
        <ele>428.148</ele>
        <time>2015-06-13T12:34:11.62Z</time>
      </trkpt>
      <trkpt lat="47.79682" lon="6.56831">
        <ele>428.869</ele>
        <time>2015-06-13T12:34:14.588Z</time>
      </trkpt>
      <trkpt lat="47.79681" lon="6.56828">
        <ele>429.322</ele>
        <time>2015-06-13T12:34:15.602Z</time>
      </trkpt>
      <trkpt lat="47.79683" lon="6.56816">
        <ele>431.174</ele>
        <time>2015-06-13T12:34:19.59Z</time>
      </trkpt>
      <trkpt lat="47.79683" lon="6.56812">
        <ele>431.599</ele>
        <time>2015-06-13T12:34:20.638Z</time>
      </trkpt>
      <trkpt lat="47.7968" lon="6.56804">
        <ele>433.317</ele>
        <time>2015-06-13T12:34:22.582Z</time>
      </trkpt>
      <trkpt lat="47.79677" lon="6.56801">
        <ele>434.098</ele>
        <time>2015-06-13T12:34:23.589Z</time>
      </trkpt>
      <trkpt lat="47.79674" lon="6.56794">
        <ele>435.4</ele>
        <time>2015-06-13T12:34:25.604Z</time>
      </trkpt>
      <trkpt lat="47.79671" lon="6.5679">
        <ele>436.117</ele>
        <time>2015-06-13T12:34:26.59Z</time>
      </trkpt>
      <trkpt lat="47.79664" lon="6.56783">
        <ele>437.266</ele>
        <time>2015-06-13T12:34:28.586Z</time>
      </trkpt>
      <trkpt lat="47.7966" lon="6.5678">
        <ele>437.294</ele>
        <time>2015-06-13T12:34:29.612Z</time>
      </trkpt>
      <trkpt lat="47.79654" lon="6.56775">
        <ele>437.431</ele>
        <time>2015-06-13T12:34:31.59Z</time>
      </trkpt>
      <trkpt lat="47.79651" lon="6.56772">
        <ele>437.51</ele>
        <time>2015-06-13T12:34:32.578Z</time>
      </trkpt>
      <trkpt lat="47.79646" lon="6.56769">
        <ele>437.46</ele>
        <time>2015-06-13T12:34:33.607Z</time>
      </trkpt>
      <trkpt lat="47.79642" lon="6.56767">
        <ele>437.384</ele>
        <time>2015-06-13T12:34:34.59Z</time>
      </trkpt>
      <trkpt lat="47.79634" lon="6.56764">
        <ele>437.312</ele>
        <time>2015-06-13T12:34:36.594Z</time>
      </trkpt>
      <trkpt lat="47.7963" lon="6.56763">
        <ele>437.214</ele>
        <time>2015-06-13T12:34:37.721Z</time>
      </trkpt>
      <trkpt lat="47.79624" lon="6.5677">
        <ele>436.764</ele>
        <time>2015-06-13T12:34:39.547Z</time>
      </trkpt>
      <trkpt lat="47.79623" lon="6.56777">
        <ele>436.608</ele>
        <time>2015-06-13T12:34:40.519Z</time>
      </trkpt>
      <trkpt lat="47.79622" lon="6.56784">
        <ele>435.914</ele>
        <time>2015-06-13T12:34:41.511Z</time>
      </trkpt>
      <trkpt lat="47.79624" lon="6.56798">
        <ele>434.334</ele>
        <time>2015-06-13T12:34:42.504Z</time>
      </trkpt>
      <trkpt lat="47.7962" lon="6.5681">
        <ele>433.346</ele>
        <time>2015-06-13T12:34:44.604Z</time>
      </trkpt>
      <trkpt lat="47.79614" lon="6.56819">
        <ele>432.964</ele>
        <time>2015-06-13T12:34:45.538Z</time>
      </trkpt>
      <trkpt lat="47.79611" lon="6.56824">
        <ele>432.649</ele>
        <time>2015-06-13T12:34:46.541Z</time>
      </trkpt>
      <trkpt lat="47.79608" lon="6.5683">
        <ele>432.285</ele>
        <time>2015-06-13T12:34:47.581Z</time>
      </trkpt>
      <trkpt lat="47.79602" lon="6.56837">
        <ele>431.967</ele>
        <time>2015-06-13T12:34:49.598Z</time>
      </trkpt>
      <trkpt lat="47.79597" lon="6.56841">
        <ele>431.965</ele>
        <time>2015-06-13T12:34:50.573Z</time>
      </trkpt>
      <trkpt lat="47.79593" lon="6.56846">
        <ele>432.013</ele>
        <time>2015-06-13T12:34:51.52Z</time>
      </trkpt>
      <trkpt lat="47.79588" lon="6.56847">
        <ele>432.518</ele>
        <time>2015-06-13T12:34:52.564Z</time>
      </trkpt>
      <trkpt lat="47.79584" lon="6.56853">
        <ele>432.936</ele>
        <time>2015-06-13T12:34:53.57Z</time>
      </trkpt>
      <trkpt lat="47.79582" lon="6.5686">
        <ele>433</ele>
        <time>2015-06-13T12:34:54.573Z</time>
      </trkpt>
      <trkpt lat="47.79581" lon="6.56872">
        <ele>433.114</ele>
        <time>2015-06-13T12:34:55.579Z</time>
      </trkpt>
      <trkpt lat="47.79575" lon="6.56883">
        <ele>433.666</ele>
        <time>2015-06-13T12:34:56.583Z</time>
      </trkpt>
      <trkpt lat="47.79575" lon="6.56893">
        <ele>433.777</ele>
        <time>2015-06-13T12:34:57.585Z</time>
      </trkpt>
      <trkpt lat="47.79575" lon="6.56909">
        <ele>433.35</ele>
        <time>2015-06-13T12:34:58.582Z</time>
      </trkpt>
      <trkpt lat="47.79573" lon="6.56926">
        <ele>433.013</ele>
        <time>2015-06-13T12:34:59.582Z</time>
      </trkpt>
      <trkpt lat="47.79572" lon="6.56939">
        <ele>432.369</ele>
        <time>2015-06-13T12:35:00.569Z</time>
      </trkpt>
      <trkpt lat="47.7957" lon="6.56952">
        <ele>431.373</ele>
        <time>2015-06-13T12:35:01.63Z</time>
      </trkpt>
      <trkpt lat="47.79571" lon="6.56964">
        <ele>429.436</ele>
        <time>2015-06-13T12:35:02.573Z</time>
      </trkpt>
      <trkpt lat="47.7957" lon="6.56975">
        <ele>427.759</ele>
        <time>2015-06-13T12:35:03.573Z</time>
      </trkpt>
      <trkpt lat="47.79566" lon="6.56985">
        <ele>426.057</ele>
        <time>2015-06-13T12:35:05.571Z</time>
      </trkpt>
      <trkpt lat="47.7956" lon="6.5699">
        <ele>426.132</ele>
        <time>2015-06-13T12:35:06.582Z</time>
      </trkpt>
      <trkpt lat="47.79553" lon="6.56996">
        <ele>426.704</ele>
        <time>2015-06-13T12:35:07.555Z</time>
      </trkpt>
      <trkpt lat="47.7955" lon="6.56997">
        <ele>427.854</ele>
        <time>2015-06-13T12:35:08.582Z</time>
      </trkpt>
      <trkpt lat="47.79538" lon="6.57004">
        <ele>431.531</ele>
        <time>2015-06-13T12:35:09.605Z</time>
      </trkpt>
      <trkpt lat="47.79534" lon="6.5701">
        <ele>431.432</ele>
        <time>2015-06-13T12:35:10.585Z</time>
      </trkpt>
      <trkpt lat="47.79527" lon="6.57014">
        <ele>433.331</ele>
        <time>2015-06-13T12:35:11.582Z</time>
      </trkpt>
      <trkpt lat="47.79522" lon="6.57019">
        <ele>432.125</ele>
        <time>2015-06-13T12:35:12.587Z</time>
      </trkpt>
      <trkpt lat="47.79516" lon="6.57028">
        <ele>431.247</ele>
        <time>2015-06-13T12:35:13.573Z</time>
      </trkpt>
      <trkpt lat="47.79509" lon="6.57035">
        <ele>430.473</ele>
        <time>2015-06-13T12:35:14.573Z</time>
      </trkpt>
      <trkpt lat="47.79501" lon="6.57044">
        <ele>429.868</ele>
        <time>2015-06-13T12:35:15.507Z</time>
      </trkpt>
      <trkpt lat="47.79494" lon="6.57051">
        <ele>428.214</ele>
        <time>2015-06-13T12:35:16.511Z</time>
      </trkpt>
      <trkpt lat="47.79487" lon="6.57061">
        <ele>426.821</ele>
        <time>2015-06-13T12:35:17.567Z</time>
      </trkpt>
      <trkpt lat="47.79482" lon="6.57073">
        <ele>426.636</ele>
        <time>2015-06-13T12:35:18.575Z</time>
      </trkpt>
      <trkpt lat="47.79477" lon="6.57086">
        <ele>427.24</ele>
        <time>2015-06-13T12:35:19.573Z</time>
      </trkpt>
      <trkpt lat="47.79472" lon="6.57101">
        <ele>426.745</ele>
        <time>2015-06-13T12:35:20.573Z</time>
      </trkpt>
      <trkpt lat="47.79469" lon="6.57111">
        <ele>425.732</ele>
        <time>2015-06-13T12:35:21.591Z</time>
      </trkpt>
      <trkpt lat="47.79466" lon="6.57125">
        <ele>423.328</ele>
        <time>2015-06-13T12:35:22.573Z</time>
      </trkpt>
      <trkpt lat="47.79462" lon="6.57133">
        <ele>421.511</ele>
        <time>2015-06-13T12:35:23.576Z</time>
      </trkpt>
      <trkpt lat="47.79455" lon="6.5714">
        <ele>419.522</ele>
        <time>2015-06-13T12:35:24.573Z</time>
      </trkpt>
      <trkpt lat="47.79449" lon="6.57141">
        <ele>418.701</ele>
        <time>2015-06-13T12:35:25.581Z</time>
      </trkpt>
      <trkpt lat="47.7944" lon="6.57145">
        <ele>416.218</ele>
        <time>2015-06-13T12:35:26.573Z</time>
      </trkpt>
      <trkpt lat="47.79433" lon="6.57148">
        <ele>413.864</ele>
        <time>2015-06-13T12:35:27.574Z</time>
      </trkpt>
      <trkpt lat="47.79427" lon="6.57148">
        <ele>411.393</ele>
        <time>2015-06-13T12:35:28.573Z</time>
      </trkpt>
      <trkpt lat="47.79418" lon="6.57144">
        <ele>408.348</ele>
        <time>2015-06-13T12:35:29.573Z</time>
      </trkpt>
      <trkpt lat="47.79409" lon="6.57135">
        <ele>408.404</ele>
        <time>2015-06-13T12:35:30.574Z</time>
      </trkpt>
      <trkpt lat="47.79401" lon="6.5713">
        <ele>409.554</ele>
        <time>2015-06-13T12:35:31.568Z</time>
      </trkpt>
      <trkpt lat="47.79391" lon="6.57133">
        <ele>408.577</ele>
        <time>2015-06-13T12:35:32.581Z</time>
      </trkpt>
      <trkpt lat="47.79381" lon="6.57133">
        <ele>409.331</ele>
        <time>2015-06-13T12:35:33.573Z</time>
      </trkpt>
      <trkpt lat="47.79375" lon="6.57136">
        <ele>409.03</ele>
        <time>2015-06-13T12:35:34.773Z</time>
      </trkpt>
      <trkpt lat="47.79368" lon="6.5714">
        <ele>408.752</ele>
        <time>2015-06-13T12:35:35.576Z</time>
      </trkpt>
      <trkpt lat="47.79361" lon="6.57142">
        <ele>409.378</ele>
        <time>2015-06-13T12:35:36.598Z</time>
      </trkpt>
      <trkpt lat="47.79353" lon="6.57146">
        <ele>408.772</ele>
        <time>2015-06-13T12:35:37.574Z</time>
      </trkpt>
      <trkpt lat="47.79345" lon="6.57153">
        <ele>408.385</ele>
        <time>2015-06-13T12:35:38.575Z</time>
      </trkpt>
      <trkpt lat="47.79336" lon="6.5716">
        <ele>408.699</ele>
        <time>2015-06-13T12:35:39.655Z</time>
      </trkpt>
      <trkpt lat="47.79328" lon="6.5717">
        <ele>407.767</ele>
        <time>2015-06-13T12:35:40.609Z</time>
      </trkpt>
      <trkpt lat="47.7932" lon="6.5718">
        <ele>405.828</ele>
        <time>2015-06-13T12:35:41.573Z</time>
      </trkpt>
      <trkpt lat="47.79313" lon="6.57184">
        <ele>405.233</ele>
        <time>2015-06-13T12:35:42.588Z</time>
      </trkpt>
      <trkpt lat="47.79306" lon="6.57191">
        <ele>404.992</ele>
        <time>2015-06-13T12:35:43.578Z</time>
      </trkpt>
      <trkpt lat="47.79295" lon="6.57203">
        <ele>403.274</ele>
        <time>2015-06-13T12:35:44.593Z</time>
      </trkpt>
      <trkpt lat="47.79286" lon="6.57214">
        <ele>401.733</ele>
        <time>2015-06-13T12:35:45.575Z</time>
      </trkpt>
      <trkpt lat="47.79276" lon="6.57222">
        <ele>400.284</ele>
        <time>2015-06-13T12:35:46.697Z</time>
      </trkpt>
      <trkpt lat="47.7927" lon="6.57228">
        <ele>401.73</ele>
        <time>2015-06-13T12:35:47.588Z</time>
      </trkpt>
      <trkpt lat="47.79263" lon="6.57234">
        <ele>402.822</ele>
        <time>2015-06-13T12:35:48.578Z</time>
      </trkpt>
      <trkpt lat="47.79256" lon="6.57241">
        <ele>403.312</ele>
        <time>2015-06-13T12:35:49.573Z</time>
      </trkpt>
      <trkpt lat="47.79252" lon="6.57248">
        <ele>403.115</ele>
        <time>2015-06-13T12:35:50.576Z</time>
      </trkpt>
      <trkpt lat="47.79248" lon="6.57254">
        <ele>403.477</ele>
        <time>2015-06-13T12:35:51.584Z</time>
      </trkpt>
      <trkpt lat="47.79242" lon="6.5726">
        <ele>404.125</ele>
        <time>2015-06-13T12:35:52.581Z</time>
      </trkpt>
      <trkpt lat="47.79236" lon="6.57268">
        <ele>404.607</ele>
        <time>2015-06-13T12:35:53.573Z</time>
      </trkpt>
      <trkpt lat="47.79233" lon="6.57268">
        <ele>404.382</ele>
        <time>2015-06-13T12:35:54.573Z</time>
      </trkpt>
      <trkpt lat="47.79226" lon="6.57274">
        <ele>404.215</ele>
        <time>2015-06-13T12:35:55.574Z</time>
      </trkpt>
      <trkpt lat="47.79223" lon="6.57279">
        <ele>404.081</ele>
        <time>2015-06-13T12:35:56.599Z</time>
      </trkpt>
      <trkpt lat="47.79218" lon="6.57286">
        <ele>404.372</ele>
        <time>2015-06-13T12:35:57.573Z</time>
      </trkpt>
      <trkpt lat="47.79212" lon="6.57296">
        <ele>404.535</ele>
        <time>2015-06-13T12:35:58.593Z</time>
      </trkpt>
      <trkpt lat="47.79202" lon="6.57311">
        <ele>405.025</ele>
        <time>2015-06-13T12:35:59.575Z</time>
      </trkpt>
      <trkpt lat="47.79196" lon="6.57316">
        <ele>405.012</ele>
        <time>2015-06-13T12:36:00.575Z</time>
      </trkpt>
      <trkpt lat="47.79193" lon="6.57318">
        <ele>405.086</ele>
        <time>2015-06-13T12:36:01.572Z</time>
      </trkpt>
      <trkpt lat="47.79187" lon="6.57326">
        <ele>406.99</ele>
        <time>2015-06-13T12:36:02.572Z</time>
      </trkpt>
      <trkpt lat="47.79182" lon="6.57329">
        <ele>408.65</ele>
        <time>2015-06-13T12:36:03.579Z</time>
      </trkpt>
      <trkpt lat="47.79178" lon="6.5733">
        <ele>409.643</ele>
        <time>2015-06-13T12:36:04.764Z</time>
      </trkpt>
      <trkpt lat="47.79172" lon="6.57336">
        <ele>411.02</ele>
        <time>2015-06-13T12:36:05.572Z</time>
      </trkpt>
      <trkpt lat="47.79169" lon="6.57338">
        <ele>411.128</ele>
        <time>2015-06-13T12:36:06.578Z</time>
      </trkpt>
      <trkpt lat="47.79161" lon="6.5734">
        <ele>411.069</ele>
        <time>2015-06-13T12:36:07.569Z</time>
      </trkpt>
      <trkpt lat="47.79153" lon="6.57346">
        <ele>410.104</ele>
        <time>2015-06-13T12:36:08.536Z</time>
      </trkpt>
      <trkpt lat="47.79152" lon="6.57345">
        <ele>410.283</ele>
        <time>2015-06-13T12:36:09.573Z</time>
      </trkpt>
      <trkpt lat="47.79147" lon="6.57353">
        <ele>409.486</ele>
        <time>2015-06-13T12:36:10.589Z</time>
      </trkpt>
      <trkpt lat="47.7914" lon="6.57351">
        <ele>410.619</ele>
        <time>2015-06-13T12:36:11.576Z</time>
      </trkpt>
      <trkpt lat="47.79135" lon="6.57352">
        <ele>410.627</ele>
        <time>2015-06-13T12:36:12.573Z</time>
      </trkpt>
      <trkpt lat="47.79131" lon="6.57357">
        <ele>410.296</ele>
        <time>2015-06-13T12:36:13.582Z</time>
      </trkpt>
      <trkpt lat="47.79124" lon="6.57357">
        <ele>410.318</ele>
        <time>2015-06-13T12:36:14.583Z</time>
      </trkpt>
      <trkpt lat="47.79117" lon="6.57356">
        <ele>410.404</ele>
        <time>2015-06-13T12:36:15.584Z</time>
      </trkpt>
      <trkpt lat="47.79109" lon="6.57352">
        <ele>410.711</ele>
        <time>2015-06-13T12:36:16.584Z</time>
      </trkpt>
      <trkpt lat="47.79103" lon="6.57342">
        <ele>411.243</ele>
        <time>2015-06-13T12:36:17.605Z</time>
      </trkpt>
      <trkpt lat="47.79096" lon="6.57334">
        <ele>411.448</ele>
        <time>2015-06-13T12:36:18.583Z</time>
      </trkpt>
      <trkpt lat="47.79091" lon="6.57324">
        <ele>410.796</ele>
        <time>2015-06-13T12:36:19.579Z</time>
      </trkpt>
      <trkpt lat="47.79088" lon="6.57319">
        <ele>410.271</ele>
        <time>2015-06-13T12:36:20.591Z</time>
      </trkpt>
      <trkpt lat="47.79081" lon="6.57306">
        <ele>408.761</ele>
        <time>2015-06-13T12:36:21.583Z</time>
      </trkpt>
      <trkpt lat="47.79074" lon="6.57295">
        <ele>408.756</ele>
        <time>2015-06-13T12:36:22.583Z</time>
      </trkpt>
      <trkpt lat="47.79064" lon="6.57287">
        <ele>408.194</ele>
        <time>2015-06-13T12:36:23.584Z</time>
      </trkpt>
      <trkpt lat="47.79062" lon="6.57274">
        <ele>408.685</ele>
        <time>2015-06-13T12:36:24.584Z</time>
      </trkpt>
      <trkpt lat="47.79055" lon="6.57263">
        <ele>408.01</ele>
        <time>2015-06-13T12:36:25.583Z</time>
      </trkpt>
      <trkpt lat="47.7905" lon="6.57252">
        <ele>408.382</ele>
        <time>2015-06-13T12:36:28.581Z</time>
      </trkpt>
      <trkpt lat="47.79047" lon="6.57256">
        <ele>408.485</ele>
        <time>2015-06-13T12:36:29.644Z</time>
      </trkpt>
      <trkpt lat="47.79043" lon="6.5726">
        <ele>408.555</ele>
        <time>2015-06-13T12:36:30.583Z</time>
      </trkpt>
      <trkpt lat="47.79038" lon="6.57265">
        <ele>408.6</ele>
        <time>2015-06-13T12:36:31.579Z</time>
      </trkpt>
      <trkpt lat="47.79032" lon="6.57265">
        <ele>408.815</ele>
        <time>2015-06-13T12:36:32.583Z</time>
      </trkpt>
      <trkpt lat="47.79028" lon="6.57268">
        <ele>408.718</ele>
        <time>2015-06-13T12:36:33.604Z</time>
      </trkpt>
      <trkpt lat="47.7902" lon="6.57267">
        <ele>407.842</ele>
        <time>2015-06-13T12:36:34.591Z</time>
      </trkpt>
      <trkpt lat="47.79017" lon="6.57269">
        <ele>407.49</ele>
        <time>2015-06-13T12:36:35.583Z</time>
      </trkpt>
      <trkpt lat="47.79012" lon="6.57273">
        <ele>407.163</ele>
        <time>2015-06-13T12:36:36.571Z</time>
      </trkpt>
      <trkpt lat="47.79007" lon="6.57274">
        <ele>406.933</ele>
        <time>2015-06-13T12:36:37.584Z</time>
      </trkpt>
      <trkpt lat="47.79003" lon="6.57277">
        <ele>407.066</ele>
        <time>2015-06-13T12:36:38.583Z</time>
      </trkpt>
      <trkpt lat="47.78996" lon="6.57277">
        <ele>407.096</ele>
        <time>2015-06-13T12:36:39.583Z</time>
      </trkpt>
      <trkpt lat="47.78987" lon="6.57282">
        <ele>407.094</ele>
        <time>2015-06-13T12:36:40.583Z</time>
      </trkpt>
      <trkpt lat="47.78981" lon="6.57286">
        <ele>406.834</ele>
        <time>2015-06-13T12:36:41.538Z</time>
      </trkpt>
      <trkpt lat="47.78975" lon="6.57281">
        <ele>407.494</ele>
        <time>2015-06-13T12:36:42.572Z</time>
      </trkpt>
      <trkpt lat="47.78968" lon="6.57278">
        <ele>407.206</ele>
        <time>2015-06-13T12:36:43.589Z</time>
      </trkpt>
      <trkpt lat="47.78962" lon="6.57275">
        <ele>406.315</ele>
        <time>2015-06-13T12:36:44.604Z</time>
      </trkpt>
      <trkpt lat="47.78956" lon="6.57272">
        <ele>405.499</ele>
        <time>2015-06-13T12:36:45.573Z</time>
      </trkpt>
      <trkpt lat="47.78947" lon="6.57269">
        <ele>404.278</ele>
        <time>2015-06-13T12:36:46.598Z</time>
      </trkpt>
      <trkpt lat="47.78936" lon="6.57265">
        <ele>403.928</ele>
        <time>2015-06-13T12:36:47.574Z</time>
      </trkpt>
      <trkpt lat="47.78929" lon="6.5727">
        <ele>403.106</ele>
        <time>2015-06-13T12:36:48.574Z</time>
      </trkpt>
      <trkpt lat="47.78923" lon="6.57276">
        <ele>402.363</ele>
        <time>2015-06-13T12:36:49.574Z</time>
      </trkpt>
      <trkpt lat="47.78917" lon="6.5728">
        <ele>401.53</ele>
        <time>2015-06-13T12:36:50.573Z</time>
      </trkpt>
      <trkpt lat="47.78908" lon="6.57288">
        <ele>397.299</ele>
        <time>2015-06-13T12:36:51.593Z</time>
      </trkpt>
      <trkpt lat="47.78903" lon="6.5729">
        <ele>396.076</ele>
        <time>2015-06-13T12:36:52.592Z</time>
      </trkpt>
      <trkpt lat="47.78893" lon="6.57295">
        <ele>393.935</ele>
        <time>2015-06-13T12:36:53.573Z</time>
      </trkpt>
      <trkpt lat="47.78884" lon="6.57297">
        <ele>394.301</ele>
        <time>2015-06-13T12:36:54.572Z</time>
      </trkpt>
      <trkpt lat="47.78876" lon="6.573">
        <ele>395.737</ele>
        <time>2015-06-13T12:36:55.576Z</time>
      </trkpt>
      <trkpt lat="47.78871" lon="6.57298">
        <ele>396.939</ele>
        <time>2015-06-13T12:36:56.536Z</time>
      </trkpt>
      <trkpt lat="47.78863" lon="6.573">
        <ele>398.204</ele>
        <time>2015-06-13T12:36:57.583Z</time>
      </trkpt>
      <trkpt lat="47.78856" lon="6.57296">
        <ele>398.886</ele>
        <time>2015-06-13T12:36:58.582Z</time>
      </trkpt>
      <trkpt lat="47.78851" lon="6.57293">
        <ele>399.134</ele>
        <time>2015-06-13T12:36:59.583Z</time>
      </trkpt>
      <trkpt lat="47.78844" lon="6.57292">
        <ele>399.208</ele>
        <time>2015-06-13T12:37:00.592Z</time>
      </trkpt>
      <trkpt lat="47.78837" lon="6.57286">
        <ele>399.883</ele>
        <time>2015-06-13T12:37:01.577Z</time>
      </trkpt>
      <trkpt lat="47.78831" lon="6.57285">
        <ele>399.456</ele>
        <time>2015-06-13T12:37:02.577Z</time>
      </trkpt>
      <trkpt lat="47.78824" lon="6.57289">
        <ele>397.346</ele>
        <time>2015-06-13T12:37:03.575Z</time>
      </trkpt>
      <trkpt lat="47.78814" lon="6.57292">
        <ele>394.639</ele>
        <time>2015-06-13T12:37:04.583Z</time>
      </trkpt>
      <trkpt lat="47.78816" lon="6.57283">
        <ele>396.576</ele>
        <time>2015-06-13T12:37:05.61Z</time>
      </trkpt>
      <trkpt lat="47.78814" lon="6.57272">
        <ele>397.572</ele>
        <time>2015-06-13T12:37:06.588Z</time>
      </trkpt>
      <trkpt lat="47.78808" lon="6.57267">
        <ele>397.382</ele>
        <time>2015-06-13T12:37:07.568Z</time>
      </trkpt>
      <trkpt lat="47.78807" lon="6.57255">
        <ele>399.374</ele>
        <time>2015-06-13T12:37:08.577Z</time>
      </trkpt>
      <trkpt lat="47.78801" lon="6.57248">
        <ele>399.592</ele>
        <time>2015-06-13T12:37:09.582Z</time>
      </trkpt>
      <trkpt lat="47.78795" lon="6.57242">
        <ele>399.262</ele>
        <time>2015-06-13T12:37:10.579Z</time>
      </trkpt>
      <trkpt lat="47.78789" lon="6.57235">
        <ele>398.798</ele>
        <time>2015-06-13T12:37:11.603Z</time>
      </trkpt>
      <trkpt lat="47.7878" lon="6.57232">
        <ele>397.642</ele>
        <time>2015-06-13T12:37:12.584Z</time>
      </trkpt>
      <trkpt lat="47.78776" lon="6.57228">
        <ele>397.635</ele>
        <time>2015-06-13T12:37:13.582Z</time>
      </trkpt>
      <trkpt lat="47.78769" lon="6.57231">
        <ele>397.453</ele>
        <time>2015-06-13T12:37:14.583Z</time>
      </trkpt>
      <trkpt lat="47.78763" lon="6.5723">
        <ele>397.68</ele>
        <time>2015-06-13T12:37:15.576Z</time>
      </trkpt>
      <trkpt lat="47.78757" lon="6.57227">
        <ele>398.189</ele>
        <time>2015-06-13T12:37:16.583Z</time>
      </trkpt>
      <trkpt lat="47.78754" lon="6.57223">
        <ele>398.779</ele>
        <time>2015-06-13T12:37:17.583Z</time>
      </trkpt>
      <trkpt lat="47.78747" lon="6.57219">
        <ele>398.953</ele>
        <time>2015-06-13T12:37:18.596Z</time>
      </trkpt>
      <trkpt lat="47.78741" lon="6.57221">
        <ele>398.427</ele>
        <time>2015-06-13T12:37:19.586Z</time>
      </trkpt>
      <trkpt lat="47.78732" lon="6.57226">
        <ele>397.343</ele>
        <time>2015-06-13T12:37:20.57Z</time>
      </trkpt>
      <trkpt lat="47.78724" lon="6.57232">
        <ele>396.429</ele>
        <time>2015-06-13T12:37:22.589Z</time>
      </trkpt>
      <trkpt lat="47.78719" lon="6.57238">
        <ele>395.469</ele>
        <time>2015-06-13T12:37:23.584Z</time>
      </trkpt>
      <trkpt lat="47.78715" lon="6.57242">
        <ele>394.778</ele>
        <time>2015-06-13T12:37:24.582Z</time>
      </trkpt>
      <trkpt lat="47.7871" lon="6.57247">
        <ele>393.914</ele>
        <time>2015-06-13T12:37:25.583Z</time>
      </trkpt>
      <trkpt lat="47.78705" lon="6.57251">
        <ele>393.086</ele>
        <time>2015-06-13T12:37:26.583Z</time>
      </trkpt>
      <trkpt lat="47.78702" lon="6.57254">
        <ele>392.697</ele>
        <time>2015-06-13T12:37:27.583Z</time>
      </trkpt>
      <trkpt lat="47.78699" lon="6.57263">
        <ele>392.346</ele>
        <time>2015-06-13T12:37:32.596Z</time>
      </trkpt>
      <trkpt lat="47.78697" lon="6.57267">
        <ele>392.132</ele>
        <time>2015-06-13T12:37:33.573Z</time>
      </trkpt>
      <trkpt lat="47.7869" lon="6.57273">
        <ele>391.801</ele>
        <time>2015-06-13T12:37:39.573Z</time>
      </trkpt>
      <trkpt lat="47.78689" lon="6.57274">
        <ele>391.758</ele>
        <time>2015-06-13T12:37:40.574Z</time>
      </trkpt>
      <trkpt lat="47.78683" lon="6.57282">
        <ele>391.801</ele>
        <time>2015-06-13T12:37:47.582Z</time>
      </trkpt>
      <trkpt lat="47.78682" lon="6.57284">
        <ele>391.893</ele>
        <time>2015-06-13T12:37:48.579Z</time>
      </trkpt>
      <trkpt lat="47.78679" lon="6.57295">
        <ele>392.407</ele>
        <time>2015-06-13T12:37:52.581Z</time>
      </trkpt>
      <trkpt lat="47.78679" lon="6.57298">
        <ele>392.595</ele>
        <time>2015-06-13T12:37:53.577Z</time>
      </trkpt>
      <trkpt lat="47.78676" lon="6.57309">
        <ele>393.315</ele>
        <time>2015-06-13T12:37:56.62Z</time>
      </trkpt>
      <trkpt lat="47.78676" lon="6.57313">
        <ele>393.596</ele>
        <time>2015-06-13T12:37:57.583Z</time>
      </trkpt>
      <trkpt lat="47.78679" lon="6.57322">
        <ele>394.266</ele>
        <time>2015-06-13T12:38:00.58Z</time>
      </trkpt>
      <trkpt lat="47.7868" lon="6.57326">
        <ele>394.444</ele>
        <time>2015-06-13T12:38:01.536Z</time>
      </trkpt>
      <trkpt lat="47.78681" lon="6.57338">
        <ele>394.582</ele>
        <time>2015-06-13T12:38:05.539Z</time>
      </trkpt>
      <trkpt lat="47.78681" lon="6.57341">
        <ele>394.358</ele>
        <time>2015-06-13T12:38:06.632Z</time>
      </trkpt>
      <trkpt lat="47.7868" lon="6.57351">
        <ele>393.797</ele>
        <time>2015-06-13T12:38:09.59Z</time>
      </trkpt>
      <trkpt lat="47.78679" lon="6.57355">
        <ele>393.566</ele>
        <time>2015-06-13T12:38:10.566Z</time>
      </trkpt>
      <trkpt lat="47.78679" lon="6.57368">
        <ele>393.232</ele>
        <time>2015-06-13T12:38:13.59Z</time>
      </trkpt>
      <trkpt lat="47.7868" lon="6.57372">
        <ele>393.279</ele>
        <time>2015-06-13T12:38:14.59Z</time>
      </trkpt>
      <trkpt lat="47.78682" lon="6.57384">
        <ele>393.309</ele>
        <time>2015-06-13T12:38:17.596Z</time>
      </trkpt>
      <trkpt lat="47.78681" lon="6.57387">
        <ele>393.38</ele>
        <time>2015-06-13T12:38:18.618Z</time>
      </trkpt>
      <trkpt lat="47.78679" lon="6.574">
        <ele>395.503</ele>
        <time>2015-06-13T12:38:21.58Z</time>
      </trkpt>
      <trkpt lat="47.78679" lon="6.57404">
        <ele>396.167</ele>
        <time>2015-06-13T12:38:22.574Z</time>
      </trkpt>
      <trkpt lat="47.78685" lon="6.57408">
        <ele>396.96</ele>
        <time>2015-06-13T12:38:24.579Z</time>
      </trkpt>
      <trkpt lat="47.78688" lon="6.57411">
        <ele>397.569</ele>
        <time>2015-06-13T12:38:25.579Z</time>
      </trkpt>
      <trkpt lat="47.78691" lon="6.57419">
        <ele>399.132</ele>
        <time>2015-06-13T12:38:27.572Z</time>
      </trkpt>
      <trkpt lat="47.78691" lon="6.57424">
        <ele>399.662</ele>
        <time>2015-06-13T12:38:28.573Z</time>
      </trkpt>
      <trkpt lat="47.78691" lon="6.57435">
        <ele>400.976</ele>
        <time>2015-06-13T12:38:32.587Z</time>
      </trkpt>
      <trkpt lat="47.78691" lon="6.57438">
        <ele>401.243</ele>
        <time>2015-06-13T12:38:33.589Z</time>
      </trkpt>
      <trkpt lat="47.78694" lon="6.5745">
        <ele>401.809</ele>
        <time>2015-06-13T12:38:37.589Z</time>
      </trkpt>
      <trkpt lat="47.78695" lon="6.57454">
        <ele>401.621</ele>
        <time>2015-06-13T12:38:38.611Z</time>
      </trkpt>
      <trkpt lat="47.78696" lon="6.57465">
        <ele>401.18</ele>
        <time>2015-06-13T12:38:41.567Z</time>
      </trkpt>
      <trkpt lat="47.78695" lon="6.5747">
        <ele>401.07</ele>
        <time>2015-06-13T12:38:42.611Z</time>
      </trkpt>
      <trkpt lat="47.78692" lon="6.57482">
        <ele>402.365</ele>
        <time>2015-06-13T12:38:45.612Z</time>
      </trkpt>
      <trkpt lat="47.78692" lon="6.57486">
        <ele>402.829</ele>
        <time>2015-06-13T12:38:46.759Z</time>
      </trkpt>
      <trkpt lat="47.7869" lon="6.57495">
        <ele>404.01</ele>
        <time>2015-06-13T12:38:48.561Z</time>
      </trkpt>
      <trkpt lat="47.78689" lon="6.57499">
        <ele>404.658</ele>
        <time>2015-06-13T12:38:49.586Z</time>
      </trkpt>
      <trkpt lat="47.78685" lon="6.57509">
        <ele>405.815</ele>
        <time>2015-06-13T12:38:51.587Z</time>
      </trkpt>
      <trkpt lat="47.78682" lon="6.57513">
        <ele>406.422</ele>
        <time>2015-06-13T12:38:52.611Z</time>
      </trkpt>
      <trkpt lat="47.78676" lon="6.57519">
        <ele>407.781</ele>
        <time>2015-06-13T12:38:54.589Z</time>
      </trkpt>
      <trkpt lat="47.78673" lon="6.57521">
        <ele>408.395</ele>
        <time>2015-06-13T12:38:55.59Z</time>
      </trkpt>
      <trkpt lat="47.78667" lon="6.57526">
        <ele>409.893</ele>
        <time>2015-06-13T12:38:57.696Z</time>
      </trkpt>
      <trkpt lat="47.78663" lon="6.57529">
        <ele>410.282</ele>
        <time>2015-06-13T12:38:58.591Z</time>
      </trkpt>
      <trkpt lat="47.78655" lon="6.57535">
        <ele>410.725</ele>
        <time>2015-06-13T12:39:00.605Z</time>
      </trkpt>
      <trkpt lat="47.78652" lon="6.57539">
        <ele>410.848</ele>
        <time>2015-06-13T12:39:01.608Z</time>
      </trkpt>
      <trkpt lat="47.78647" lon="6.57549">
        <ele>410.861</ele>
        <time>2015-06-13T12:39:03.575Z</time>
      </trkpt>
      <trkpt lat="47.78645" lon="6.57555">
        <ele>410.82</ele>
        <time>2015-06-13T12:39:04.579Z</time>
      </trkpt>
      <trkpt lat="47.7864" lon="6.57562">
        <ele>410.506</ele>
        <time>2015-06-13T12:39:06.577Z</time>
      </trkpt>
      <trkpt lat="47.78637" lon="6.57565">
        <ele>410.22</ele>
        <time>2015-06-13T12:39:07.597Z</time>
      </trkpt>
      <trkpt lat="47.78635" lon="6.57567">
        <ele>409.874</ele>
        <time>2015-06-13T12:39:08.607Z</time>
      </trkpt>
      <trkpt lat="47.7863" lon="6.57574">
        <ele>409.046</ele>
        <time>2015-06-13T12:39:10.598Z</time>
      </trkpt>
      <trkpt lat="47.78624" lon="6.57577">
        <ele>408.413</ele>
        <time>2015-06-13T12:39:12.582Z</time>
      </trkpt>
      <trkpt lat="47.78621" lon="6.57575">
        <ele>408.29</ele>
        <time>2015-06-13T12:39:13.573Z</time>
      </trkpt>
      <trkpt lat="47.78617" lon="6.57579">
        <ele>407.743</ele>
        <time>2015-06-13T12:39:14.574Z</time>
      </trkpt>
      <trkpt lat="47.78613" lon="6.57582">
        <ele>407.246</ele>
        <time>2015-06-13T12:39:15.583Z</time>
      </trkpt>
      <trkpt lat="47.78607" lon="6.57585">
        <ele>406.575</ele>
        <time>2015-06-13T12:39:16.544Z</time>
      </trkpt>
      <trkpt lat="47.78602" lon="6.57587">
        <ele>406.122</ele>
        <time>2015-06-13T12:39:17.581Z</time>
      </trkpt>
      <trkpt lat="47.78598" lon="6.57588">
        <ele>405.795</ele>
        <time>2015-06-13T12:39:18.59Z</time>
      </trkpt>
      <trkpt lat="47.78593" lon="6.5759">
        <ele>405.501</ele>
        <time>2015-06-13T12:39:19.559Z</time>
      </trkpt>
      <trkpt lat="47.78587" lon="6.57594">
        <ele>405.365</ele>
        <time>2015-06-13T12:39:20.589Z</time>
      </trkpt>
      <trkpt lat="47.78583" lon="6.57596">
        <ele>405.193</ele>
        <time>2015-06-13T12:39:21.557Z</time>
      </trkpt>
      <trkpt lat="47.78578" lon="6.57599">
        <ele>404.25</ele>
        <time>2015-06-13T12:39:22.582Z</time>
      </trkpt>
      <trkpt lat="47.78573" lon="6.57602">
        <ele>403.225</ele>
        <time>2015-06-13T12:39:23.591Z</time>
      </trkpt>
      <trkpt lat="47.7857" lon="6.57603">
        <ele>402.303</ele>
        <time>2015-06-13T12:39:24.574Z</time>
      </trkpt>
      <trkpt lat="47.78564" lon="6.57605">
        <ele>401.037</ele>
        <time>2015-06-13T12:39:25.582Z</time>
      </trkpt>
      <trkpt lat="47.78495" lon="6.57583">
        <ele>391.816</ele>
        <time>2015-06-13T12:39:39.626Z</time>
      </trkpt>
      <trkpt lat="47.78491" lon="6.57596">
        <ele>391.52</ele>
        <time>2015-06-13T12:39:40.616Z</time>
      </trkpt>
      <trkpt lat="47.78484" lon="6.57597">
        <ele>391.499</ele>
        <time>2015-06-13T12:39:41.579Z</time>
      </trkpt>
      <trkpt lat="47.78482" lon="6.57601">
        <ele>391.54</ele>
        <time>2015-06-13T12:39:42.587Z</time>
      </trkpt>
      <trkpt lat="47.78478" lon="6.57601">
        <ele>391.581</ele>
        <time>2015-06-13T12:39:43.58Z</time>
      </trkpt>
      <trkpt lat="47.78472" lon="6.57602">
        <ele>391.685</ele>
        <time>2015-06-13T12:39:44.522Z</time>
      </trkpt>
      <trkpt lat="47.78467" lon="6.57612">
        <ele>391.239</ele>
        <time>2015-06-13T12:39:46.578Z</time>
      </trkpt>
      <trkpt lat="47.78461" lon="6.57613">
        <ele>390.442</ele>
        <time>2015-06-13T12:39:47.61Z</time>
      </trkpt>
      <trkpt lat="47.78454" lon="6.57617">
        <ele>389.892</ele>
        <time>2015-06-13T12:39:49.591Z</time>
      </trkpt>
      <trkpt lat="47.78451" lon="6.57619">
        <ele>389.759</ele>
        <time>2015-06-13T12:39:50.582Z</time>
      </trkpt>
      <trkpt lat="47.78444" lon="6.57622">
        <ele>389.568</ele>
        <time>2015-06-13T12:39:52.585Z</time>
      </trkpt>
      <trkpt lat="47.7844" lon="6.57623">
        <ele>389.77</ele>
        <time>2015-06-13T12:39:53.583Z</time>
      </trkpt>
      <trkpt lat="47.78435" lon="6.57625">
        <ele>390.043</ele>
        <time>2015-06-13T12:39:54.584Z</time>
      </trkpt>
      <trkpt lat="47.7843" lon="6.57627">
        <ele>390.288</ele>
        <time>2015-06-13T12:39:55.583Z</time>
      </trkpt>
      <trkpt lat="47.78422" lon="6.57631">
        <ele>390.806</ele>
        <time>2015-06-13T12:39:57.605Z</time>
      </trkpt>
      <trkpt lat="47.78417" lon="6.57632">
        <ele>391.022</ele>
        <time>2015-06-13T12:39:58.589Z</time>
      </trkpt>
      <trkpt lat="47.78413" lon="6.57634">
        <ele>390.791</ele>
        <time>2015-06-13T12:39:59.798Z</time>
      </trkpt>
      <trkpt lat="47.78409" lon="6.57636">
        <ele>390.399</ele>
        <time>2015-06-13T12:40:00.583Z</time>
      </trkpt>
      <trkpt lat="47.78401" lon="6.57637">
        <ele>389.579</ele>
        <time>2015-06-13T12:40:02.59Z</time>
      </trkpt>
      <trkpt lat="47.78398" lon="6.57636">
        <ele>389.032</ele>
        <time>2015-06-13T12:40:03.589Z</time>
      </trkpt>
      <trkpt lat="47.78391" lon="6.57631">
        <ele>387.344</ele>
        <time>2015-06-13T12:40:06.583Z</time>
      </trkpt>
      <trkpt lat="47.78389" lon="6.57626">
        <ele>386.706</ele>
        <time>2015-06-13T12:40:07.613Z</time>
      </trkpt>
      <trkpt lat="47.78389" lon="6.57615">
        <ele>385.411</ele>
        <time>2015-06-13T12:40:09.589Z</time>
      </trkpt>
      <trkpt lat="47.78388" lon="6.57608">
        <ele>384.812</ele>
        <time>2015-06-13T12:40:10.59Z</time>
      </trkpt>
      <trkpt lat="47.78386" lon="6.57601">
        <ele>384.408</ele>
        <time>2015-06-13T12:40:11.774Z</time>
      </trkpt>
      <trkpt lat="47.78385" lon="6.57595">
        <ele>384.163</ele>
        <time>2015-06-13T12:40:12.59Z</time>
      </trkpt>
      <trkpt lat="47.78382" lon="6.57589">
        <ele>384.121</ele>
        <time>2015-06-13T12:40:13.591Z</time>
      </trkpt>
      <trkpt lat="47.78379" lon="6.57584">
        <ele>384.104</ele>
        <time>2015-06-13T12:40:14.59Z</time>
      </trkpt>
      <trkpt lat="47.78374" lon="6.57574">
        <ele>386.31</ele>
        <time>2015-06-13T12:40:16.604Z</time>
      </trkpt>
      <trkpt lat="47.78372" lon="6.57571">
        <ele>387.174</ele>
        <time>2015-06-13T12:40:17.559Z</time>
      </trkpt>
      <trkpt lat="47.78367" lon="6.57565">
        <ele>388.755</ele>
        <time>2015-06-13T12:40:19.573Z</time>
      </trkpt>
      <trkpt lat="47.78364" lon="6.57564">
        <ele>389.591</ele>
        <time>2015-06-13T12:40:20.574Z</time>
      </trkpt>
      <trkpt lat="47.78356" lon="6.57565">
        <ele>390.405</ele>
        <time>2015-06-13T12:40:22.58Z</time>
      </trkpt>
      <trkpt lat="47.78353" lon="6.57565">
        <ele>390.688</ele>
        <time>2015-06-13T12:40:23.594Z</time>
      </trkpt>
      <trkpt lat="47.78346" lon="6.57566">
        <ele>391.258</ele>
        <time>2015-06-13T12:40:25.587Z</time>
      </trkpt>
      <trkpt lat="47.78343" lon="6.57566">
        <ele>391.541</ele>
        <time>2015-06-13T12:40:26.6Z</time>
      </trkpt>
      <trkpt lat="47.78337" lon="6.57566">
        <ele>392.091</ele>
        <time>2015-06-13T12:40:28.574Z</time>
      </trkpt>
      <trkpt lat="47.78333" lon="6.57566">
        <ele>392.435</ele>
        <time>2015-06-13T12:40:29.574Z</time>
      </trkpt>
      <trkpt lat="47.78325" lon="6.57566">
        <ele>393.795</ele>
        <time>2015-06-13T12:40:31.579Z</time>
      </trkpt>
      <trkpt lat="47.78319" lon="6.57565">
        <ele>394.672</ele>
        <time>2015-06-13T12:40:32.609Z</time>
      </trkpt>
      <trkpt lat="47.78314" lon="6.57564">
        <ele>395.432</ele>
        <time>2015-06-13T12:40:33.608Z</time>
      </trkpt>
      <trkpt lat="47.78309" lon="6.57562">
        <ele>395.96</ele>
        <time>2015-06-13T12:40:34.606Z</time>
      </trkpt>
      <trkpt lat="47.78298" lon="6.57547">
        <ele>393.955</ele>
        <time>2015-06-13T12:40:35.594Z</time>
      </trkpt>
      <trkpt lat="47.78291" lon="6.57544">
        <ele>393.27</ele>
        <time>2015-06-13T12:40:36.588Z</time>
      </trkpt>
      <trkpt lat="47.7828" lon="6.57547">
        <ele>393.496</ele>
        <time>2015-06-13T12:40:37.576Z</time>
      </trkpt>
      <trkpt lat="47.78265" lon="6.57561">
        <ele>395.987</ele>
        <time>2015-06-13T12:40:38.583Z</time>
      </trkpt>
      <trkpt lat="47.78257" lon="6.57569">
        <ele>396.079</ele>
        <time>2015-06-13T12:40:39.582Z</time>
      </trkpt>
      <trkpt lat="47.78246" lon="6.5756">
        <ele>395.51</ele>
        <time>2015-06-13T12:40:40.582Z</time>
      </trkpt>
      <trkpt lat="47.78241" lon="6.57543">
        <ele>392.87</ele>
        <time>2015-06-13T12:40:41.589Z</time>
      </trkpt>
      <trkpt lat="47.78234" lon="6.5754">
        <ele>391.91</ele>
        <time>2015-06-13T12:40:44.573Z</time>
      </trkpt>
      <trkpt lat="47.78233" lon="6.57533">
        <ele>390.405</ele>
        <time>2015-06-13T12:40:45.574Z</time>
      </trkpt>
      <trkpt lat="47.78233" lon="6.57527">
        <ele>389.377</ele>
        <time>2015-06-13T12:40:46.574Z</time>
      </trkpt>
      <trkpt lat="47.78232" lon="6.57519">
        <ele>389.388</ele>
        <time>2015-06-13T12:40:47.573Z</time>
      </trkpt>
      <trkpt lat="47.78234" lon="6.57511">
        <ele>389.193</ele>
        <time>2015-06-13T12:40:49.571Z</time>
      </trkpt>
      <trkpt lat="47.78232" lon="6.57505">
        <ele>389.483</ele>
        <time>2015-06-13T12:40:50.603Z</time>
      </trkpt>
      <trkpt lat="47.78234" lon="6.57495">
        <ele>388.724</ele>
        <time>2015-06-13T12:40:52.581Z</time>
      </trkpt>
      <trkpt lat="47.78234" lon="6.57488">
        <ele>388.446</ele>
        <time>2015-06-13T12:40:53.549Z</time>
      </trkpt>
      <trkpt lat="47.78234" lon="6.57481">
        <ele>387.965</ele>
        <time>2015-06-13T12:40:54.572Z</time>
      </trkpt>
      <trkpt lat="47.78235" lon="6.57474">
        <ele>387.36</ele>
        <time>2015-06-13T12:40:55.571Z</time>
      </trkpt>
      <trkpt lat="47.78236" lon="6.57466">
        <ele>386.226</ele>
        <time>2015-06-13T12:40:56.584Z</time>
      </trkpt>
      <trkpt lat="47.78235" lon="6.5746">
        <ele>385.401</ele>
        <time>2015-06-13T12:40:57.572Z</time>
      </trkpt>
      <trkpt lat="47.78234" lon="6.57453">
        <ele>384.636</ele>
        <time>2015-06-13T12:40:58.574Z</time>
      </trkpt>
      <trkpt lat="47.7823" lon="6.57444">
        <ele>383.854</ele>
        <time>2015-06-13T12:40:59.573Z</time>
      </trkpt>
      <trkpt lat="47.78225" lon="6.57438">
        <ele>384.113</ele>
        <time>2015-06-13T12:41:00.572Z</time>
      </trkpt>
      <trkpt lat="47.78218" lon="6.5743">
        <ele>384.64</ele>
        <time>2015-06-13T12:41:01.588Z</time>
      </trkpt>
      <trkpt lat="47.78213" lon="6.57417">
        <ele>384.338</ele>
        <time>2015-06-13T12:41:02.574Z</time>
      </trkpt>
      <trkpt lat="47.78206" lon="6.57405">
        <ele>383.915</ele>
        <time>2015-06-13T12:41:03.572Z</time>
      </trkpt>
      <trkpt lat="47.78201" lon="6.57398">
        <ele>383.663</ele>
        <time>2015-06-13T12:41:04.58Z</time>
      </trkpt>
      <trkpt lat="47.78198" lon="6.57393">
        <ele>383.326</ele>
        <time>2015-06-13T12:41:05.566Z</time>
      </trkpt>
      <trkpt lat="47.78194" lon="6.57386">
        <ele>382.464</ele>
        <time>2015-06-13T12:41:06.597Z</time>
      </trkpt>
      <trkpt lat="47.78188" lon="6.5738">
        <ele>380.937</ele>
        <time>2015-06-13T12:41:07.578Z</time>
      </trkpt>
      <trkpt lat="47.78185" lon="6.57372">
        <ele>379.378</ele>
        <time>2015-06-13T12:41:08.573Z</time>
      </trkpt>
      <trkpt lat="47.78176" lon="6.57374">
        <ele>378.436</ele>
        <time>2015-06-13T12:41:09.593Z</time>
      </trkpt>
      <trkpt lat="47.78166" lon="6.5737">
        <ele>376.547</ele>
        <time>2015-06-13T12:41:10.586Z</time>
      </trkpt>
      <trkpt lat="47.78155" lon="6.57367">
        <ele>374.344</ele>
        <time>2015-06-13T12:41:11.574Z</time>
      </trkpt>
      <trkpt lat="47.78147" lon="6.57357">
        <ele>371.69</ele>
        <time>2015-06-13T12:41:12.574Z</time>
      </trkpt>
      <trkpt lat="47.78137" lon="6.57363">
        <ele>371.028</ele>
        <time>2015-06-13T12:41:13.572Z</time>
      </trkpt>
      <trkpt lat="47.78132" lon="6.57369">
        <ele>371.18</ele>
        <time>2015-06-13T12:41:14.572Z</time>
      </trkpt>
      <trkpt lat="47.78125" lon="6.57374">
        <ele>370.599</ele>
        <time>2015-06-13T12:41:15.572Z</time>
      </trkpt>
      <trkpt lat="47.78118" lon="6.57376">
        <ele>369.453</ele>
        <time>2015-06-13T12:41:16.573Z</time>
      </trkpt>
      <trkpt lat="47.78111" lon="6.5738">
        <ele>368.437</ele>
        <time>2015-06-13T12:41:17.572Z</time>
      </trkpt>
      <trkpt lat="47.78105" lon="6.57382">
        <ele>369.696</ele>
        <time>2015-06-13T12:41:18.578Z</time>
      </trkpt>
      <trkpt lat="47.78105" lon="6.57397">
        <ele>370.177</ele>
        <time>2015-06-13T12:41:19.572Z</time>
      </trkpt>
      <trkpt lat="47.78103" lon="6.57403">
        <ele>370.426</ele>
        <time>2015-06-13T12:41:21.573Z</time>
      </trkpt>
      <trkpt lat="47.781" lon="6.5741">
        <ele>370.584</ele>
        <time>2015-06-13T12:41:22.595Z</time>
      </trkpt>
      <trkpt lat="47.781" lon="6.57417">
        <ele>370.512</ele>
        <time>2015-06-13T12:41:23.573Z</time>
      </trkpt>
      <trkpt lat="47.781" lon="6.57425">
        <ele>372.411</ele>
        <time>2015-06-13T12:41:24.579Z</time>
      </trkpt>
      <trkpt lat="47.78097" lon="6.57437">
        <ele>374.519</ele>
        <time>2015-06-13T12:41:26.573Z</time>
      </trkpt>
      <trkpt lat="47.7809" lon="6.57442">
        <ele>372.748</ele>
        <time>2015-06-13T12:41:27.574Z</time>
      </trkpt>
      <trkpt lat="47.78087" lon="6.57452">
        <ele>373.88</ele>
        <time>2015-06-13T12:41:29.575Z</time>
      </trkpt>
      <trkpt lat="47.78083" lon="6.57458">
        <ele>373.995</ele>
        <time>2015-06-13T12:41:30.582Z</time>
      </trkpt>
      <trkpt lat="47.78077" lon="6.57467">
        <ele>376.135</ele>
        <time>2015-06-13T12:41:32.596Z</time>
      </trkpt>
      <trkpt lat="47.78074" lon="6.57475">
        <ele>377.529</ele>
        <time>2015-06-13T12:41:33.623Z</time>
      </trkpt>
      <trkpt lat="47.78071" lon="6.57481">
        <ele>378.317</ele>
        <time>2015-06-13T12:41:34.548Z</time>
      </trkpt>
      <trkpt lat="47.78067" lon="6.57485">
        <ele>378.326</ele>
        <time>2015-06-13T12:41:35.511Z</time>
      </trkpt>
      <trkpt lat="47.7806" lon="6.57491">
        <ele>378.338</ele>
        <time>2015-06-13T12:41:38.582Z</time>
      </trkpt>
      <trkpt lat="47.78059" lon="6.57498">
        <ele>379.186</ele>
        <time>2015-06-13T12:41:39.579Z</time>
      </trkpt>
      <trkpt lat="47.78055" lon="6.57503">
        <ele>379.204</ele>
        <time>2015-06-13T12:41:40.582Z</time>
      </trkpt>
      <trkpt lat="47.78053" lon="6.57509">
        <ele>379.59</ele>
        <time>2015-06-13T12:41:41.595Z</time>
      </trkpt>
      <trkpt lat="47.78049" lon="6.57514">
        <ele>379.764</ele>
        <time>2015-06-13T12:41:43.579Z</time>
      </trkpt>
      <trkpt lat="47.78047" lon="6.57519">
        <ele>379.826</ele>
        <time>2015-06-13T12:41:44.614Z</time>
      </trkpt>
      <trkpt lat="47.78042" lon="6.57528">
        <ele>379.557</ele>
        <time>2015-06-13T12:41:46.581Z</time>
      </trkpt>
      <trkpt lat="47.7804" lon="6.57533">
        <ele>380.232</ele>
        <time>2015-06-13T12:41:47.59Z</time>
      </trkpt>
      <trkpt lat="47.78038" lon="6.57539">
        <ele>380.83</ele>
        <time>2015-06-13T12:41:48.583Z</time>
      </trkpt>
      <trkpt lat="47.78035" lon="6.57544">
        <ele>381.101</ele>
        <time>2015-06-13T12:41:49.582Z</time>
      </trkpt>
      <trkpt lat="47.78031" lon="6.57549">
        <ele>381.013</ele>
        <time>2015-06-13T12:41:50.583Z</time>
      </trkpt>
      <trkpt lat="47.78026" lon="6.57553">
        <ele>380.559</ele>
        <time>2015-06-13T12:41:51.582Z</time>
      </trkpt>
      <trkpt lat="47.78021" lon="6.57558">
        <ele>380.345</ele>
        <time>2015-06-13T12:41:52.578Z</time>
      </trkpt>
      <trkpt lat="47.78016" lon="6.5756">
        <ele>379.91</ele>
        <time>2015-06-13T12:41:53.582Z</time>
      </trkpt>
      <trkpt lat="47.7801" lon="6.57561">
        <ele>379.401</ele>
        <time>2015-06-13T12:41:54.583Z</time>
      </trkpt>
      <trkpt lat="47.78001" lon="6.57558">
        <ele>378.203</ele>
        <time>2015-06-13T12:41:55.606Z</time>
      </trkpt>
      <trkpt lat="47.77994" lon="6.57561">
        <ele>378.355</ele>
        <time>2015-06-13T12:41:56.581Z</time>
      </trkpt>
      <trkpt lat="47.77989" lon="6.57562">
        <ele>378.397</ele>
        <time>2015-06-13T12:41:57.582Z</time>
      </trkpt>
      <trkpt lat="47.77982" lon="6.57565">
        <ele>378.844</ele>
        <time>2015-06-13T12:41:59.573Z</time>
      </trkpt>
      <trkpt lat="47.77979" lon="6.57565">
        <ele>378.956</ele>
        <time>2015-06-13T12:42:00.572Z</time>
      </trkpt>
      <trkpt lat="47.77975" lon="6.57575">
        <ele>380.941</ele>
        <time>2015-06-13T12:42:02.578Z</time>
      </trkpt>
      <trkpt lat="47.77973" lon="6.5758">
        <ele>382.139</ele>
        <time>2015-06-13T12:42:03.571Z</time>
      </trkpt>
      <trkpt lat="47.77969" lon="6.57584">
        <ele>383.047</ele>
        <time>2015-06-13T12:42:04.568Z</time>
      </trkpt>
      <trkpt lat="47.77963" lon="6.57591">
        <ele>385.007</ele>
        <time>2015-06-13T12:42:06.534Z</time>
      </trkpt>
      <trkpt lat="47.77956" lon="6.57598">
        <ele>386.969</ele>
        <time>2015-06-13T12:42:08.567Z</time>
      </trkpt>
      <trkpt lat="47.77952" lon="6.57602">
        <ele>387.911</ele>
        <time>2015-06-13T12:42:09.566Z</time>
      </trkpt>
      <trkpt lat="47.77946" lon="6.5761">
        <ele>389.676</ele>
        <time>2015-06-13T12:42:10.572Z</time>
      </trkpt>
      <trkpt lat="47.77943" lon="6.57615">
        <ele>389.593</ele>
        <time>2015-06-13T12:42:11.593Z</time>
      </trkpt>
      <trkpt lat="47.7794" lon="6.57618">
        <ele>388.784</ele>
        <time>2015-06-13T12:42:12.573Z</time>
      </trkpt>
      <trkpt lat="47.77934" lon="6.57622">
        <ele>387.668</ele>
        <time>2015-06-13T12:42:13.575Z</time>
      </trkpt>
      <trkpt lat="47.77926" lon="6.57628">
        <ele>386.265</ele>
        <time>2015-06-13T12:42:15.585Z</time>
      </trkpt>
      <trkpt lat="47.77925" lon="6.57629">
        <ele>385.965</ele>
        <time>2015-06-13T12:42:16.606Z</time>
      </trkpt>
      <trkpt lat="47.77917" lon="6.57633">
        <ele>384.769</ele>
        <time>2015-06-13T12:42:18.573Z</time>
      </trkpt>
      <trkpt lat="47.77913" lon="6.57633">
        <ele>384.545</ele>
        <time>2015-06-13T12:42:19.573Z</time>
      </trkpt>
      <trkpt lat="47.77909" lon="6.57639">
        <ele>384.45</ele>
        <time>2015-06-13T12:42:20.573Z</time>
      </trkpt>
      <trkpt lat="47.77905" lon="6.57643">
        <ele>384.449</ele>
        <time>2015-06-13T12:42:21.573Z</time>
      </trkpt>
      <trkpt lat="47.77901" lon="6.57647">
        <ele>384.38</ele>
        <time>2015-06-13T12:42:22.555Z</time>
      </trkpt>
      <trkpt lat="47.77897" lon="6.5765">
        <ele>384.199</ele>
        <time>2015-06-13T12:42:23.575Z</time>
      </trkpt>
      <trkpt lat="47.7789" lon="6.57655">
        <ele>383.71</ele>
        <time>2015-06-13T12:42:25.572Z</time>
      </trkpt>
      <trkpt lat="47.77886" lon="6.57657">
        <ele>383.352</ele>
        <time>2015-06-13T12:42:26.535Z</time>
      </trkpt>
      <trkpt lat="47.77882" lon="6.57659">
        <ele>382.88</ele>
        <time>2015-06-13T12:42:27.571Z</time>
      </trkpt>
      <trkpt lat="47.77877" lon="6.57661">
        <ele>382.315</ele>
        <time>2015-06-13T12:42:28.573Z</time>
      </trkpt>
      <trkpt lat="47.77864" lon="6.57662">
        <ele>380.742</ele>
        <time>2015-06-13T12:42:29.573Z</time>
      </trkpt>
      <trkpt lat="47.77856" lon="6.57664">
        <ele>380.986</ele>
        <time>2015-06-13T12:42:30.573Z</time>
      </trkpt>
      <trkpt lat="47.7785" lon="6.57665">
        <ele>381.659</ele>
        <time>2015-06-13T12:42:31.59Z</time>
      </trkpt>
      <trkpt lat="47.77843" lon="6.57665">
        <ele>382.765</ele>
        <time>2015-06-13T12:42:32.604Z</time>
      </trkpt>
      <trkpt lat="47.77838" lon="6.57662">
        <ele>383.548</ele>
        <time>2015-06-13T12:42:33.588Z</time>
      </trkpt>
      <trkpt lat="47.77831" lon="6.57663">
        <ele>383.615</ele>
        <time>2015-06-13T12:42:34.564Z</time>
      </trkpt>
      <trkpt lat="47.77827" lon="6.5766">
        <ele>383.129</ele>
        <time>2015-06-13T12:42:35.566Z</time>
      </trkpt>
      <trkpt lat="47.77819" lon="6.5766">
        <ele>381.707</ele>
        <time>2015-06-13T12:42:36.627Z</time>
      </trkpt>
      <trkpt lat="47.77815" lon="6.57661">
        <ele>380.908</ele>
        <time>2015-06-13T12:42:37.574Z</time>
      </trkpt>
      <trkpt lat="47.77805" lon="6.57661">
        <ele>379.145</ele>
        <time>2015-06-13T12:42:38.574Z</time>
      </trkpt>
      <trkpt lat="47.77796" lon="6.57664">
        <ele>378.017</ele>
        <time>2015-06-13T12:42:39.567Z</time>
      </trkpt>
      <trkpt lat="47.77789" lon="6.57663">
        <ele>377.211</ele>
        <time>2015-06-13T12:42:40.574Z</time>
      </trkpt>
      <trkpt lat="47.77785" lon="6.57661">
        <ele>376.649</ele>
        <time>2015-06-13T12:42:41.58Z</time>
      </trkpt>
      <trkpt lat="47.77778" lon="6.57655">
        <ele>375.597</ele>
        <time>2015-06-13T12:42:43.58Z</time>
      </trkpt>
      <trkpt lat="47.77777" lon="6.5765">
        <ele>375.452</ele>
        <time>2015-06-13T12:42:44.576Z</time>
      </trkpt>
      <trkpt lat="47.77775" lon="6.57643">
        <ele>375.617</ele>
        <time>2015-06-13T12:42:45.581Z</time>
      </trkpt>
      <trkpt lat="47.77774" lon="6.57635">
        <ele>375.92</ele>
        <time>2015-06-13T12:42:46.576Z</time>
      </trkpt>
      <trkpt lat="47.77775" lon="6.57626">
        <ele>376.544</ele>
        <time>2015-06-13T12:42:47.757Z</time>
      </trkpt>
      <trkpt lat="47.77781" lon="6.57617">
        <ele>377.099</ele>
        <time>2015-06-13T12:42:48.604Z</time>
      </trkpt>
      <trkpt lat="47.77786" lon="6.57609">
        <ele>376.463</ele>
        <time>2015-06-13T12:42:49.581Z</time>
      </trkpt>
      <trkpt lat="47.77789" lon="6.57604">
        <ele>375.403</ele>
        <time>2015-06-13T12:42:50.582Z</time>
      </trkpt>
      <trkpt lat="47.7779" lon="6.57596">
        <ele>374.203</ele>
        <time>2015-06-13T12:42:51.582Z</time>
      </trkpt>
      <trkpt lat="47.77792" lon="6.57587">
        <ele>373.021</ele>
        <time>2015-06-13T12:42:52.58Z</time>
      </trkpt>
      <trkpt lat="47.77794" lon="6.5758">
        <ele>372.874</ele>
        <time>2015-06-13T12:42:53.581Z</time>
      </trkpt>
      <trkpt lat="47.77797" lon="6.57571">
        <ele>374.023</ele>
        <time>2015-06-13T12:42:54.589Z</time>
      </trkpt>
      <trkpt lat="47.77798" lon="6.57565">
        <ele>374.862</ele>
        <time>2015-06-13T12:42:55.589Z</time>
      </trkpt>
      <trkpt lat="47.77809" lon="6.57566">
        <ele>374.999</ele>
        <time>2015-06-13T12:42:56.576Z</time>
      </trkpt>
      <trkpt lat="47.77812" lon="6.57554">
        <ele>376.431</ele>
        <time>2015-06-13T12:42:58.581Z</time>
      </trkpt>
      <trkpt lat="47.77813" lon="6.57546">
        <ele>376.284</ele>
        <time>2015-06-13T12:42:59.59Z</time>
      </trkpt>
      <trkpt lat="47.77816" lon="6.57536">
        <ele>376.274</ele>
        <time>2015-06-13T12:43:01.576Z</time>
      </trkpt>
      <trkpt lat="47.7782" lon="6.57529">
        <ele>376.565</ele>
        <time>2015-06-13T12:43:02.575Z</time>
      </trkpt>
      <trkpt lat="47.77819" lon="6.57521">
        <ele>376.933</ele>
        <time>2015-06-13T12:43:03.572Z</time>
      </trkpt>
      <trkpt lat="47.77817" lon="6.57513">
        <ele>377.35</ele>
        <time>2015-06-13T12:43:04.58Z</time>
      </trkpt>
      <trkpt lat="47.77816" lon="6.57501">
        <ele>378.031</ele>
        <time>2015-06-13T12:43:06.58Z</time>
      </trkpt>
      <trkpt lat="47.77815" lon="6.57495">
        <ele>377.998</ele>
        <time>2015-06-13T12:43:07.596Z</time>
      </trkpt>
      <trkpt lat="47.77812" lon="6.57486">
        <ele>377.707</ele>
        <time>2015-06-13T12:43:08.588Z</time>
      </trkpt>
      <trkpt lat="47.77806" lon="6.57482">
        <ele>377.026</ele>
        <time>2015-06-13T12:43:09.582Z</time>
      </trkpt>
      <trkpt lat="47.77803" lon="6.5748">
        <ele>376.761</ele>
        <time>2015-06-13T12:43:10.581Z</time>
      </trkpt>
      <trkpt lat="47.77798" lon="6.57475">
        <ele>376.051</ele>
        <time>2015-06-13T12:43:11.581Z</time>
      </trkpt>
      <trkpt lat="47.77793" lon="6.57467">
        <ele>374.989</ele>
        <time>2015-06-13T12:43:12.581Z</time>
      </trkpt>
      <trkpt lat="47.77794" lon="6.57454">
        <ele>374.568</ele>
        <time>2015-06-13T12:43:13.575Z</time>
      </trkpt>
      <trkpt lat="47.77792" lon="6.57447">
        <ele>374.157</ele>
        <time>2015-06-13T12:43:14.581Z</time>
      </trkpt>
      <trkpt lat="47.77792" lon="6.57437">
        <ele>373.719</ele>
        <time>2015-06-13T12:43:15.601Z</time>
      </trkpt>
      <trkpt lat="47.77793" lon="6.57428">
        <ele>373.423</ele>
        <time>2015-06-13T12:43:16.574Z</time>
      </trkpt>
      <trkpt lat="47.77793" lon="6.57415">
        <ele>372.861</ele>
        <time>2015-06-13T12:43:17.581Z</time>
      </trkpt>
      <trkpt lat="47.77796" lon="6.57403">
        <ele>371.905</ele>
        <time>2015-06-13T12:43:18.58Z</time>
      </trkpt>
      <trkpt lat="47.77801" lon="6.57392">
        <ele>370.608</ele>
        <time>2015-06-13T12:43:19.576Z</time>
      </trkpt>
      <trkpt lat="47.7781" lon="6.57384">
        <ele>369.59</ele>
        <time>2015-06-13T12:43:20.581Z</time>
      </trkpt>
      <trkpt lat="47.77816" lon="6.57376">
        <ele>368.723</ele>
        <time>2015-06-13T12:43:21.581Z</time>
      </trkpt>
      <trkpt lat="47.77821" lon="6.57367">
        <ele>367.559</ele>
        <time>2015-06-13T12:43:22.576Z</time>
      </trkpt>
      <trkpt lat="47.77827" lon="6.57359">
        <ele>366.256</ele>
        <time>2015-06-13T12:43:23.573Z</time>
      </trkpt>
      <trkpt lat="47.77831" lon="6.5735">
        <ele>364.623</ele>
        <time>2015-06-13T12:43:24.575Z</time>
      </trkpt>
      <trkpt lat="47.77836" lon="6.57341">
        <ele>362.979</ele>
        <time>2015-06-13T12:43:25.581Z</time>
      </trkpt>
      <trkpt lat="47.77839" lon="6.57332">
        <ele>361.569</ele>
        <time>2015-06-13T12:43:26.581Z</time>
      </trkpt>
      <trkpt lat="47.77845" lon="6.57319">
        <ele>359.289</ele>
        <time>2015-06-13T12:43:27.58Z</time>
      </trkpt>
      <trkpt lat="47.7785" lon="6.57306">
        <ele>357.813</ele>
        <time>2015-06-13T12:43:28.579Z</time>
      </trkpt>
      <trkpt lat="47.77853" lon="6.57293">
        <ele>356.28</ele>
        <time>2015-06-13T12:43:29.58Z</time>
      </trkpt>
      <trkpt lat="47.77863" lon="6.57285">
        <ele>356.208</ele>
        <time>2015-06-13T12:43:30.573Z</time>
      </trkpt>
      <trkpt lat="47.77868" lon="6.57274">
        <ele>355.382</ele>
        <time>2015-06-13T12:43:31.604Z</time>
      </trkpt>
      <trkpt lat="47.77871" lon="6.57264">
        <ele>355.248</ele>
        <time>2015-06-13T12:43:32.579Z</time>
      </trkpt>
      <trkpt lat="47.77875" lon="6.57255">
        <ele>355.158</ele>
        <time>2015-06-13T12:43:33.58Z</time>
      </trkpt>
      <trkpt lat="47.7788" lon="6.57247">
        <ele>355.598</ele>
        <time>2015-06-13T12:43:34.573Z</time>
      </trkpt>
      <trkpt lat="47.77885" lon="6.57237">
        <ele>356.678</ele>
        <time>2015-06-13T12:43:35.573Z</time>
      </trkpt>
      <trkpt lat="47.7788" lon="6.57224">
        <ele>357.21</ele>
        <time>2015-06-13T12:43:36.573Z</time>
      </trkpt>
      <trkpt lat="47.77883" lon="6.57215">
        <ele>357.904</ele>
        <time>2015-06-13T12:43:37.57Z</time>
      </trkpt>
      <trkpt lat="47.77887" lon="6.57204">
        <ele>358.597</ele>
        <time>2015-06-13T12:43:38.574Z</time>
      </trkpt>
      <trkpt lat="47.77889" lon="6.57194">
        <ele>358.995</ele>
        <time>2015-06-13T12:43:39.573Z</time>
      </trkpt>
      <trkpt lat="47.77895" lon="6.57186">
        <ele>359.052</ele>
        <time>2015-06-13T12:43:40.572Z</time>
      </trkpt>
      <trkpt lat="47.779" lon="6.57184">
        <ele>359.269</ele>
        <time>2015-06-13T12:43:41.577Z</time>
      </trkpt>
      <trkpt lat="47.77903" lon="6.57179">
        <ele>359.166</ele>
        <time>2015-06-13T12:43:42.571Z</time>
      </trkpt>
      <trkpt lat="47.77909" lon="6.57175">
        <ele>359.201</ele>
        <time>2015-06-13T12:43:43.535Z</time>
      </trkpt>
      <trkpt lat="47.77915" lon="6.57169">
        <ele>359.097</ele>
        <time>2015-06-13T12:43:44.572Z</time>
      </trkpt>
      <trkpt lat="47.77921" lon="6.57165">
        <ele>359.145</ele>
        <time>2015-06-13T12:43:45.573Z</time>
      </trkpt>
      <trkpt lat="47.77927" lon="6.57157">
        <ele>359.372</ele>
        <time>2015-06-13T12:43:46.573Z</time>
      </trkpt>
      <trkpt lat="47.77934" lon="6.57153">
        <ele>359.613</ele>
        <time>2015-06-13T12:43:47.549Z</time>
      </trkpt>
      <trkpt lat="47.77936" lon="6.57152">
        <ele>359.7</ele>
        <time>2015-06-13T12:43:48.572Z</time>
      </trkpt>
      <trkpt lat="47.77942" lon="6.57151">
        <ele>359.905</ele>
        <time>2015-06-13T12:43:49.572Z</time>
      </trkpt>
      <trkpt lat="47.77946" lon="6.5715">
        <ele>359.831</ele>
        <time>2015-06-13T12:43:50.579Z</time>
      </trkpt>
      <trkpt lat="47.77952" lon="6.57146">
        <ele>359.407</ele>
        <time>2015-06-13T12:43:52.594Z</time>
      </trkpt>
      <trkpt lat="47.77959" lon="6.57136">
        <ele>359.574</ele>
        <time>2015-06-13T12:43:53.575Z</time>
      </trkpt>
      <trkpt lat="47.77966" lon="6.57128">
        <ele>360.682</ele>
        <time>2015-06-13T12:43:55.581Z</time>
      </trkpt>
      <trkpt lat="47.77968" lon="6.57121">
        <ele>362.029</ele>
        <time>2015-06-13T12:43:56.574Z</time>
      </trkpt>
      <trkpt lat="47.77972" lon="6.57113">
        <ele>363.552</ele>
        <time>2015-06-13T12:43:57.575Z</time>
      </trkpt>
      <trkpt lat="47.77975" lon="6.57107">
        <ele>363.855</ele>
        <time>2015-06-13T12:43:58.573Z</time>
      </trkpt>
      <trkpt lat="47.77976" lon="6.57098">
        <ele>364.398</ele>
        <time>2015-06-13T12:44:00.568Z</time>
      </trkpt>
      <trkpt lat="47.77979" lon="6.57093">
        <ele>364.511</ele>
        <time>2015-06-13T12:44:01.566Z</time>
      </trkpt>
      <trkpt lat="47.77979" lon="6.57087">
        <ele>364.962</ele>
        <time>2015-06-13T12:44:02.567Z</time>
      </trkpt>
      <trkpt lat="47.77977" lon="6.57079">
        <ele>365.724</ele>
        <time>2015-06-13T12:44:03.602Z</time>
      </trkpt>
      <trkpt lat="47.77974" lon="6.57073">
        <ele>366.552</ele>
        <time>2015-06-13T12:44:04.566Z</time>
      </trkpt>
      <trkpt lat="47.77974" lon="6.57066">
        <ele>367.002</ele>
        <time>2015-06-13T12:44:05.577Z</time>
      </trkpt>
      <trkpt lat="47.77972" lon="6.57059">
        <ele>367.797</ele>
        <time>2015-06-13T12:44:06.571Z</time>
      </trkpt>
      <trkpt lat="47.77966" lon="6.57056">
        <ele>368.452</ele>
        <time>2015-06-13T12:44:07.582Z</time>
      </trkpt>
      <trkpt lat="47.77963" lon="6.57049">
        <ele>369.529</ele>
        <time>2015-06-13T12:44:08.572Z</time>
      </trkpt>
      <trkpt lat="47.7796" lon="6.57045">
        <ele>370.307</ele>
        <time>2015-06-13T12:44:09.578Z</time>
      </trkpt>
      <trkpt lat="47.7796" lon="6.57041">
        <ele>370.8</ele>
        <time>2015-06-13T12:44:11.571Z</time>
      </trkpt>
      <trkpt lat="47.77961" lon="6.57029">
        <ele>372.235</ele>
        <time>2015-06-13T12:44:12.574Z</time>
      </trkpt>
      <trkpt lat="47.77959" lon="6.57019">
        <ele>373.086</ele>
        <time>2015-06-13T12:44:14.597Z</time>
      </trkpt>
      <trkpt lat="47.77958" lon="6.57013">
        <ele>373.558</ele>
        <time>2015-06-13T12:44:15.577Z</time>
      </trkpt>
      <trkpt lat="47.77954" lon="6.57007">
        <ele>374.17</ele>
        <time>2015-06-13T12:44:16.582Z</time>
      </trkpt>
      <trkpt lat="47.77953" lon="6.57001">
        <ele>374.663</ele>
        <time>2015-06-13T12:44:17.583Z</time>
      </trkpt>
      <trkpt lat="47.77952" lon="6.5699">
        <ele>374.467</ele>
        <time>2015-06-13T12:44:19.581Z</time>
      </trkpt>
      <trkpt lat="47.77944" lon="6.56987">
        <ele>374.392</ele>
        <time>2015-06-13T12:44:20.577Z</time>
      </trkpt>
      <trkpt lat="47.77942" lon="6.56975">
        <ele>373.675</ele>
        <time>2015-06-13T12:44:24.588Z</time>
      </trkpt>
      <trkpt lat="47.77941" lon="6.56971">
        <ele>373.373</ele>
        <time>2015-06-13T12:44:25.597Z</time>
      </trkpt>
      <trkpt lat="47.77936" lon="6.5696">
        <ele>373.202</ele>
        <time>2015-06-13T12:44:28.582Z</time>
      </trkpt>
      <trkpt lat="47.77935" lon="6.56955">
        <ele>373.349</ele>
        <time>2015-06-13T12:44:29.582Z</time>
      </trkpt>
      <trkpt lat="47.77934" lon="6.56945">
        <ele>373.845</ele>
        <time>2015-06-13T12:44:31.573Z</time>
      </trkpt>
      <trkpt lat="47.77933" lon="6.5694">
        <ele>374.749</ele>
        <time>2015-06-13T12:44:32.587Z</time>
      </trkpt>
      <trkpt lat="47.77928" lon="6.56929">
        <ele>376.342</ele>
        <time>2015-06-13T12:44:35.589Z</time>
      </trkpt>
      <trkpt lat="47.77925" lon="6.56925">
        <ele>376.755</ele>
        <time>2015-06-13T12:44:36.559Z</time>
      </trkpt>
      <trkpt lat="47.77919" lon="6.56919">
        <ele>377.131</ele>
        <time>2015-06-13T12:44:38.588Z</time>
      </trkpt>
      <trkpt lat="47.77916" lon="6.56916">
        <ele>377.11</ele>
        <time>2015-06-13T12:44:39.559Z</time>
      </trkpt>
      <trkpt lat="47.7791" lon="6.56909">
        <ele>377.482</ele>
        <time>2015-06-13T12:44:41.558Z</time>
      </trkpt>
      <trkpt lat="47.77908" lon="6.56907">
        <ele>377.639</ele>
        <time>2015-06-13T12:44:42.597Z</time>
      </trkpt>
      <trkpt lat="47.77903" lon="6.56899">
        <ele>378.668</ele>
        <time>2015-06-13T12:44:45.585Z</time>
      </trkpt>
      <trkpt lat="47.77901" lon="6.56897">
        <ele>378.695</ele>
        <time>2015-06-13T12:44:46.649Z</time>
      </trkpt>
      <trkpt lat="47.77893" lon="6.5689">
        <ele>378.375</ele>
        <time>2015-06-13T12:44:49.586Z</time>
      </trkpt>
      <trkpt lat="47.77891" lon="6.56887">
        <ele>378.52</ele>
        <time>2015-06-13T12:44:50.578Z</time>
      </trkpt>
      <trkpt lat="47.77888" lon="6.5688">
        <ele>379.418</ele>
        <time>2015-06-13T12:44:52.579Z</time>
      </trkpt>
      <trkpt lat="47.77885" lon="6.56877">
        <ele>380.006</ele>
        <time>2015-06-13T12:44:53.577Z</time>
      </trkpt>
      <trkpt lat="47.7788" lon="6.56874">
        <ele>380.229</ele>
        <time>2015-06-13T12:44:54.615Z</time>
      </trkpt>
      <trkpt lat="47.77876" lon="6.56872">
        <ele>380.412</ele>
        <time>2015-06-13T12:44:55.573Z</time>
      </trkpt>
      <trkpt lat="47.7787" lon="6.56866">
        <ele>381.261</ele>
        <time>2015-06-13T12:44:57.583Z</time>
      </trkpt>
      <trkpt lat="47.77867" lon="6.56864">
        <ele>381.815</ele>
        <time>2015-06-13T12:44:58.588Z</time>
      </trkpt>
      <trkpt lat="47.7786" lon="6.56856">
        <ele>383.047</ele>
        <time>2015-06-13T12:45:01.579Z</time>
      </trkpt>
      <trkpt lat="47.77858" lon="6.56854">
        <ele>383.115</ele>
        <time>2015-06-13T12:45:02.534Z</time>
      </trkpt>
      <trkpt lat="47.7785" lon="6.56851">
        <ele>383.015</ele>
        <time>2015-06-13T12:45:05.559Z</time>
      </trkpt>
      <trkpt lat="47.77848" lon="6.56849">
        <ele>383</ele>
        <time>2015-06-13T12:45:06.571Z</time>
      </trkpt>
      <trkpt lat="47.77841" lon="6.56845">
        <ele>382.705</ele>
        <time>2015-06-13T12:45:09.523Z</time>
      </trkpt>
      <trkpt lat="47.77838" lon="6.56843">
        <ele>382.624</ele>
        <time>2015-06-13T12:45:10.591Z</time>
      </trkpt>
      <trkpt lat="47.77831" lon="6.56835">
        <ele>382.934</ele>
        <time>2015-06-13T12:45:13.582Z</time>
      </trkpt>
      <trkpt lat="47.7783" lon="6.56831">
        <ele>383.782</ele>
        <time>2015-06-13T12:45:14.588Z</time>
      </trkpt>
      <trkpt lat="47.77824" lon="6.56821">
        <ele>386.203</ele>
        <time>2015-06-13T12:45:17.582Z</time>
      </trkpt>
      <trkpt lat="47.77821" lon="6.56819">
        <ele>386.678</ele>
        <time>2015-06-13T12:45:18.582Z</time>
      </trkpt>
      <trkpt lat="47.77815" lon="6.56811">
        <ele>387.825</ele>
        <time>2015-06-13T12:45:20.581Z</time>
      </trkpt>
      <trkpt lat="47.77813" lon="6.56807">
        <ele>388.261</ele>
        <time>2015-06-13T12:45:21.588Z</time>
      </trkpt>
      <trkpt lat="47.77809" lon="6.56799">
        <ele>389.403</ele>
        <time>2015-06-13T12:45:23.624Z</time>
      </trkpt>
      <trkpt lat="47.77806" lon="6.56796">
        <ele>389.847</ele>
        <time>2015-06-13T12:45:24.581Z</time>
      </trkpt>
      <trkpt lat="47.77801" lon="6.56785">
        <ele>390.912</ele>
        <time>2015-06-13T12:45:27.58Z</time>
      </trkpt>
      <trkpt lat="47.77799" lon="6.56781">
        <ele>391.003</ele>
        <time>2015-06-13T12:45:28.59Z</time>
      </trkpt>
      <trkpt lat="47.77793" lon="6.56774">
        <ele>390.954</ele>
        <time>2015-06-13T12:45:30.519Z</time>
      </trkpt>
      <trkpt lat="47.77789" lon="6.56769">
        <ele>391.077</ele>
        <time>2015-06-13T12:45:31.59Z</time>
      </trkpt>
      <trkpt lat="47.77783" lon="6.56761">
        <ele>391.153</ele>
        <time>2015-06-13T12:45:33.581Z</time>
      </trkpt>
      <trkpt lat="47.7778" lon="6.56757">
        <ele>391.268</ele>
        <time>2015-06-13T12:45:34.579Z</time>
      </trkpt>
      <trkpt lat="47.77777" lon="6.56749">
        <ele>392.232</ele>
        <time>2015-06-13T12:45:36.607Z</time>
      </trkpt>
      <trkpt lat="47.77776" lon="6.56745">
        <ele>393.242</ele>
        <time>2015-06-13T12:45:37.577Z</time>
      </trkpt>
      <trkpt lat="47.77775" lon="6.56733">
        <ele>396.866</ele>
        <time>2015-06-13T12:45:40.579Z</time>
      </trkpt>
      <trkpt lat="47.77775" lon="6.56729">
        <ele>397.914</ele>
        <time>2015-06-13T12:45:41.578Z</time>
      </trkpt>
      <trkpt lat="47.77772" lon="6.5672">
        <ele>399.463</ele>
        <time>2015-06-13T12:45:43.582Z</time>
      </trkpt>
      <trkpt lat="47.7777" lon="6.56715">
        <ele>400.454</ele>
        <time>2015-06-13T12:45:44.601Z</time>
      </trkpt>
      <trkpt lat="47.77764" lon="6.56706">
        <ele>402.778</ele>
        <time>2015-06-13T12:45:46.578Z</time>
      </trkpt>
      <trkpt lat="47.77762" lon="6.56702">
        <ele>404.472</ele>
        <time>2015-06-13T12:45:47.588Z</time>
      </trkpt>
      <trkpt lat="47.77758" lon="6.56695">
        <ele>407.554</ele>
        <time>2015-06-13T12:45:49.608Z</time>
      </trkpt>
      <trkpt lat="47.77757" lon="6.5669">
        <ele>408.533</ele>
        <time>2015-06-13T12:45:50.59Z</time>
      </trkpt>
      <trkpt lat="47.77752" lon="6.56679">
        <ele>411.056</ele>
        <time>2015-06-13T12:45:56.551Z</time>
      </trkpt>
      <trkpt lat="47.77751" lon="6.56679">
        <ele>410.898</ele>
        <time>2015-06-13T12:45:57.589Z</time>
      </trkpt>
      <trkpt lat="47.77744" lon="6.56673">
        <ele>410.955</ele>
        <time>2015-06-13T12:46:02.597Z</time>
      </trkpt>
      <trkpt lat="47.77742" lon="6.56672">
        <ele>411</ele>
        <time>2015-06-13T12:46:03.581Z</time>
      </trkpt>
      <trkpt lat="47.77736" lon="6.56663">
        <ele>411.537</ele>
        <time>2015-06-13T12:46:09.61Z</time>
      </trkpt>
      <trkpt lat="47.77735" lon="6.56662">
        <ele>411.36</ele>
        <time>2015-06-13T12:46:10.577Z</time>
      </trkpt>
      <trkpt lat="47.77729" lon="6.56658">
        <ele>411.014</ele>
        <time>2015-06-13T12:46:13.582Z</time>
      </trkpt>
      <trkpt lat="47.77725" lon="6.56657">
        <ele>410.584</ele>
        <time>2015-06-13T12:46:14.58Z</time>
      </trkpt>
      <trkpt lat="47.77717" lon="6.56654">
        <ele>411.334</ele>
        <time>2015-06-13T12:46:16.611Z</time>
      </trkpt>
      <trkpt lat="47.77713" lon="6.56651">
        <ele>412.085</ele>
        <time>2015-06-13T12:46:17.59Z</time>
      </trkpt>
      <trkpt lat="47.77707" lon="6.56644">
        <ele>414.171</ele>
        <time>2015-06-13T12:46:20.577Z</time>
      </trkpt>
      <trkpt lat="47.77704" lon="6.56641">
        <ele>414.844</ele>
        <time>2015-06-13T12:46:21.58Z</time>
      </trkpt>
      <trkpt lat="47.77698" lon="6.56637">
        <ele>415.788</ele>
        <time>2015-06-13T12:46:23.577Z</time>
      </trkpt>
      <trkpt lat="47.77696" lon="6.56635">
        <ele>415.958</ele>
        <time>2015-06-13T12:46:24.577Z</time>
      </trkpt>
      <trkpt lat="47.77687" lon="6.56629">
        <ele>415.4</ele>
        <time>2015-06-13T12:46:26.627Z</time>
      </trkpt>
      <trkpt lat="47.77684" lon="6.56627">
        <ele>415.188</ele>
        <time>2015-06-13T12:46:27.594Z</time>
      </trkpt>
      <trkpt lat="47.77677" lon="6.56621">
        <ele>414.913</ele>
        <time>2015-06-13T12:46:30.578Z</time>
      </trkpt>
      <trkpt lat="47.77675" lon="6.56618">
        <ele>414.953</ele>
        <time>2015-06-13T12:46:31.608Z</time>
      </trkpt>
      <trkpt lat="47.77671" lon="6.56607">
        <ele>415.602</ele>
        <time>2015-06-13T12:46:36.59Z</time>
      </trkpt>
      <trkpt lat="47.77669" lon="6.56605">
        <ele>415.753</ele>
        <time>2015-06-13T12:46:37.589Z</time>
      </trkpt>
      <trkpt lat="47.77665" lon="6.56595">
        <ele>416.174</ele>
        <time>2015-06-13T12:46:43.589Z</time>
      </trkpt>
      <trkpt lat="47.77663" lon="6.56593">
        <ele>415.954</ele>
        <time>2015-06-13T12:46:44.59Z</time>
      </trkpt>
      <trkpt lat="47.77656" lon="6.56588">
        <ele>414.186</ele>
        <time>2015-06-13T12:46:48.582Z</time>
      </trkpt>
      <trkpt lat="47.77652" lon="6.56589">
        <ele>412.798</ele>
        <time>2015-06-13T12:46:49.603Z</time>
      </trkpt>
      <trkpt lat="47.77643" lon="6.56588">
        <ele>410.314</ele>
        <time>2015-06-13T12:46:53.582Z</time>
      </trkpt>
      <trkpt lat="47.77641" lon="6.56587">
        <ele>409.781</ele>
        <time>2015-06-13T12:46:54.535Z</time>
      </trkpt>
      <trkpt lat="47.77636" lon="6.56579">
        <ele>408.962</ele>
        <time>2015-06-13T12:46:57.589Z</time>
      </trkpt>
      <trkpt lat="47.77637" lon="6.56573">
        <ele>410.272</ele>
        <time>2015-06-13T12:46:58.604Z</time>
      </trkpt>
      <trkpt lat="47.77637" lon="6.5656">
        <ele>413.171</ele>
        <time>2015-06-13T12:47:03.588Z</time>
      </trkpt>
      <trkpt lat="47.77639" lon="6.5656">
        <ele>414.067</ele>
        <time>2015-06-13T12:47:04.614Z</time>
      </trkpt>
      <trkpt lat="47.77638" lon="6.56547">
        <ele>416.348</ele>
        <time>2015-06-13T12:47:14.614Z</time>
      </trkpt>
      <trkpt lat="47.77638" lon="6.56545">
        <ele>416.776</ele>
        <time>2015-06-13T12:47:15.58Z</time>
      </trkpt>
      <trkpt lat="47.77635" lon="6.56539">
        <ele>417.247</ele>
        <time>2015-06-13T12:47:17.556Z</time>
      </trkpt>
      <trkpt lat="47.77616" lon="6.56521">
        <ele>415.154</ele>
        <time>2015-06-13T12:47:18.593Z</time>
      </trkpt>
      <trkpt lat="47.77607" lon="6.56521">
        <ele>411.775</ele>
        <time>2015-06-13T12:47:24.579Z</time>
      </trkpt>
      <trkpt lat="47.77605" lon="6.56523">
        <ele>410.605</ele>
        <time>2015-06-13T12:47:25.603Z</time>
      </trkpt>
      <trkpt lat="47.77599" lon="6.56519">
        <ele>409.276</ele>
        <time>2015-06-13T12:47:30.589Z</time>
      </trkpt>
      <trkpt lat="47.77596" lon="6.56518">
        <ele>408.236</ele>
        <time>2015-06-13T12:47:31.582Z</time>
      </trkpt>
      <trkpt lat="47.77601" lon="6.56513">
        <ele>411.265</ele>
        <time>2015-06-13T12:47:38.588Z</time>
      </trkpt>
      <trkpt lat="47.77603" lon="6.5651">
        <ele>412.566</ele>
        <time>2015-06-13T12:47:39.589Z</time>
      </trkpt>
      <trkpt lat="47.77605" lon="6.56498">
        <ele>415.171</ele>
        <time>2015-06-13T12:47:42.608Z</time>
      </trkpt>
      <trkpt lat="47.77605" lon="6.56493">
        <ele>414.988</ele>
        <time>2015-06-13T12:47:43.592Z</time>
      </trkpt>
      <trkpt lat="47.77603" lon="6.56483">
        <ele>414.186</ele>
        <time>2015-06-13T12:47:46.59Z</time>
      </trkpt>
      <trkpt lat="47.77604" lon="6.56479">
        <ele>414.153</ele>
        <time>2015-06-13T12:47:47.79Z</time>
      </trkpt>
      <trkpt lat="47.77603" lon="6.56467">
        <ele>414.654</ele>
        <time>2015-06-13T12:47:50.586Z</time>
      </trkpt>
      <trkpt lat="47.77603" lon="6.56463">
        <ele>415.354</ele>
        <time>2015-06-13T12:47:51.605Z</time>
      </trkpt>
      <trkpt lat="47.77604" lon="6.5645">
        <ele>417.521</ele>
        <time>2015-06-13T12:47:54.577Z</time>
      </trkpt>
      <trkpt lat="47.77605" lon="6.56446">
        <ele>418.24</ele>
        <time>2015-06-13T12:47:55.586Z</time>
      </trkpt>
      <trkpt lat="47.7761" lon="6.56437">
        <ele>420.009</ele>
        <time>2015-06-13T12:47:58.608Z</time>
      </trkpt>
      <trkpt lat="47.77612" lon="6.56435">
        <ele>420.721</ele>
        <time>2015-06-13T12:47:59.577Z</time>
      </trkpt>
      <trkpt lat="47.7762" lon="6.5643">
        <ele>423.356</ele>
        <time>2015-06-13T12:48:02.601Z</time>
      </trkpt>
      <trkpt lat="47.77622" lon="6.56428">
        <ele>424.138</ele>
        <time>2015-06-13T12:48:03.607Z</time>
      </trkpt>
      <trkpt lat="47.77625" lon="6.56417">
        <ele>425.007</ele>
        <time>2015-06-13T12:48:09.588Z</time>
      </trkpt>
      <trkpt lat="47.77624" lon="6.56414">
        <ele>425.142</ele>
        <time>2015-06-13T12:48:10.581Z</time>
      </trkpt>
      <trkpt lat="47.77621" lon="6.56402">
        <ele>426.412</ele>
        <time>2015-06-13T12:48:21.589Z</time>
      </trkpt>
      <trkpt lat="47.77621" lon="6.56399">
        <ele>426.704</ele>
        <time>2015-06-13T12:48:22.614Z</time>
      </trkpt>
      <trkpt lat="47.77621" lon="6.56387">
        <ele>428.132</ele>
        <time>2015-06-13T12:48:27.575Z</time>
      </trkpt>
      <trkpt lat="47.77622" lon="6.56386">
        <ele>428.37</ele>
        <time>2015-06-13T12:48:28.637Z</time>
      </trkpt>
      <trkpt lat="47.77627" lon="6.56376">
        <ele>429.626</ele>
        <time>2015-06-13T12:48:32.542Z</time>
      </trkpt>
      <trkpt lat="47.77628" lon="6.56373">
        <ele>429.993</ele>
        <time>2015-06-13T12:48:33.582Z</time>
      </trkpt>
      <trkpt lat="47.77633" lon="6.56364">
        <ele>431.131</ele>
        <time>2015-06-13T12:48:36.611Z</time>
      </trkpt>
      <trkpt lat="47.77635" lon="6.56361">
        <ele>431.56</ele>
        <time>2015-06-13T12:48:37.602Z</time>
      </trkpt>
      <trkpt lat="47.77641" lon="6.56354">
        <ele>433.211</ele>
        <time>2015-06-13T12:48:40.575Z</time>
      </trkpt>
      <trkpt lat="47.77642" lon="6.56352">
        <ele>433.845</ele>
        <time>2015-06-13T12:48:41.573Z</time>
      </trkpt>
      <trkpt lat="47.77647" lon="6.56345">
        <ele>435.812</ele>
        <time>2015-06-13T12:48:44.602Z</time>
      </trkpt>
      <trkpt lat="47.7765" lon="6.56343">
        <ele>436.487</ele>
        <time>2015-06-13T12:48:45.585Z</time>
      </trkpt>
      <trkpt lat="47.77657" lon="6.56342">
        <ele>438.111</ele>
        <time>2015-06-13T12:48:48.585Z</time>
      </trkpt>
      <trkpt lat="47.77659" lon="6.56342">
        <ele>438.544</ele>
        <time>2015-06-13T12:48:49.512Z</time>
      </trkpt>
      <trkpt lat="47.77665" lon="6.56338">
        <ele>439.883</ele>
        <time>2015-06-13T12:48:52.573Z</time>
      </trkpt>
      <trkpt lat="47.77669" lon="6.56338">
        <ele>439.766</ele>
        <time>2015-06-13T12:48:53.599Z</time>
      </trkpt>
      <trkpt lat="47.77675" lon="6.56331">
        <ele>437.49</ele>
        <time>2015-06-13T12:48:57.589Z</time>
      </trkpt>
      <trkpt lat="47.77675" lon="6.56328">
        <ele>436.825</ele>
        <time>2015-06-13T12:48:58.61Z</time>
      </trkpt>
      <trkpt lat="47.77679" lon="6.56319">
        <ele>434.517</ele>
        <time>2015-06-13T12:49:01.591Z</time>
      </trkpt>
      <trkpt lat="47.77681" lon="6.56314">
        <ele>433.71</ele>
        <time>2015-06-13T12:49:02.593Z</time>
      </trkpt>
      <trkpt lat="47.77685" lon="6.56306">
        <ele>432.687</ele>
        <time>2015-06-13T12:49:04.588Z</time>
      </trkpt>
      <trkpt lat="47.77685" lon="6.56301">
        <ele>432.772</ele>
        <time>2015-06-13T12:49:05.535Z</time>
      </trkpt>
      <trkpt lat="47.77688" lon="6.56289">
        <ele>433.05</ele>
        <time>2015-06-13T12:49:09.595Z</time>
      </trkpt>
      <trkpt lat="47.77687" lon="6.56286">
        <ele>433.099</ele>
        <time>2015-06-13T12:49:10.531Z</time>
      </trkpt>
      <trkpt lat="47.77692" lon="6.56279">
        <ele>433.07</ele>
        <time>2015-06-13T12:49:16.589Z</time>
      </trkpt>
      <trkpt lat="47.77695" lon="6.56279">
        <ele>432.992</ele>
        <time>2015-06-13T12:49:17.545Z</time>
      </trkpt>
      <trkpt lat="47.77703" lon="6.56275">
        <ele>432.457</ele>
        <time>2015-06-13T12:49:23.588Z</time>
      </trkpt>
      <trkpt lat="47.77703" lon="6.56273">
        <ele>432.316</ele>
        <time>2015-06-13T12:49:24.581Z</time>
      </trkpt>
      <trkpt lat="47.777" lon="6.56261">
        <ele>431.485</ele>
        <time>2015-06-13T12:49:29.578Z</time>
      </trkpt>
      <trkpt lat="47.77697" lon="6.56257">
        <ele>431.313</ele>
        <time>2015-06-13T12:49:30.607Z</time>
      </trkpt>
      <trkpt lat="47.77693" lon="6.56249">
        <ele>431.193</ele>
        <time>2015-06-13T12:49:32.579Z</time>
      </trkpt>
      <trkpt lat="47.77691" lon="6.56246">
        <ele>431.442</ele>
        <time>2015-06-13T12:49:33.581Z</time>
      </trkpt>
      <trkpt lat="47.77684" lon="6.56241">
        <ele>432.879</ele>
        <time>2015-06-13T12:49:36.524Z</time>
      </trkpt>
      <trkpt lat="47.77682" lon="6.5624">
        <ele>433.39</ele>
        <time>2015-06-13T12:49:37.532Z</time>
      </trkpt>
      <trkpt lat="47.77675" lon="6.5624">
        <ele>434.978</ele>
        <time>2015-06-13T12:49:40.579Z</time>
      </trkpt>
      <trkpt lat="47.77672" lon="6.56241">
        <ele>435.524</ele>
        <time>2015-06-13T12:49:41.583Z</time>
      </trkpt>
      <trkpt lat="47.77666" lon="6.5625">
        <ele>435.972</ele>
        <time>2015-06-13T12:49:44.611Z</time>
      </trkpt>
      <trkpt lat="47.77664" lon="6.56254">
        <ele>435.706</ele>
        <time>2015-06-13T12:49:45.589Z</time>
      </trkpt>
      <trkpt lat="47.7766" lon="6.56262">
        <ele>435.221</ele>
        <time>2015-06-13T12:49:47.589Z</time>
      </trkpt>
      <trkpt lat="47.77657" lon="6.56267">
        <ele>434.979</ele>
        <time>2015-06-13T12:49:48.611Z</time>
      </trkpt>
      <trkpt lat="47.77651" lon="6.56273">
        <ele>434.849</ele>
        <time>2015-06-13T12:49:50.59Z</time>
      </trkpt>
      <trkpt lat="47.77647" lon="6.56274">
        <ele>434.887</ele>
        <time>2015-06-13T12:49:51.603Z</time>
      </trkpt>
      <trkpt lat="47.77639" lon="6.56278">
        <ele>435.009</ele>
        <time>2015-06-13T12:49:53.581Z</time>
      </trkpt>
      <trkpt lat="47.77635" lon="6.56279">
        <ele>435.376</ele>
        <time>2015-06-13T12:49:54.564Z</time>
      </trkpt>
      <trkpt lat="47.77628" lon="6.56278">
        <ele>436.167</ele>
        <time>2015-06-13T12:49:56.583Z</time>
      </trkpt>
      <trkpt lat="47.77625" lon="6.56276">
        <ele>436.552</ele>
        <time>2015-06-13T12:49:57.59Z</time>
      </trkpt>
      <trkpt lat="47.77619" lon="6.5627">
        <ele>437.216</ele>
        <time>2015-06-13T12:49:59.634Z</time>
      </trkpt>
      <trkpt lat="47.77616" lon="6.56268">
        <ele>437.555</ele>
        <time>2015-06-13T12:50:00.59Z</time>
      </trkpt>
      <trkpt lat="47.7761" lon="6.56265">
        <ele>437.901</ele>
        <time>2015-06-13T12:50:02.598Z</time>
      </trkpt>
      <trkpt lat="47.77607" lon="6.56264">
        <ele>437.628</ele>
        <time>2015-06-13T12:50:03.578Z</time>
      </trkpt>
      <trkpt lat="47.77601" lon="6.56264">
        <ele>437.088</ele>
        <time>2015-06-13T12:50:05.591Z</time>
      </trkpt>
      <trkpt lat="47.77597" lon="6.56265">
        <ele>436.777</ele>
        <time>2015-06-13T12:50:06.589Z</time>
      </trkpt>
      <trkpt lat="47.7759" lon="6.56266">
        <ele>436.103</ele>
        <time>2015-06-13T12:50:08.514Z</time>
      </trkpt>
      <trkpt lat="47.77586" lon="6.56266">
        <ele>435.778</ele>
        <time>2015-06-13T12:50:09.567Z</time>
      </trkpt>
      <trkpt lat="47.77578" lon="6.56265">
        <ele>435.281</ele>
        <time>2015-06-13T12:50:11.574Z</time>
      </trkpt>
      <trkpt lat="47.77574" lon="6.56265">
        <ele>435.122</ele>
        <time>2015-06-13T12:50:12.579Z</time>
      </trkpt>
      <trkpt lat="47.77566" lon="6.56261">
        <ele>435.348</ele>
        <time>2015-06-13T12:50:15.597Z</time>
      </trkpt>
      <trkpt lat="47.77564" lon="6.56257">
        <ele>435.884</ele>
        <time>2015-06-13T12:50:16.576Z</time>
      </trkpt>
      <trkpt lat="47.77557" lon="6.56249">
        <ele>438.024</ele>
        <time>2015-06-13T12:50:19.601Z</time>
      </trkpt>
      <trkpt lat="47.77555" lon="6.56246">
        <ele>438.597</ele>
        <time>2015-06-13T12:50:20.597Z</time>
      </trkpt>
      <trkpt lat="47.77548" lon="6.56241">
        <ele>439.164</ele>
        <time>2015-06-13T12:50:22.573Z</time>
      </trkpt>
      <trkpt lat="47.77545" lon="6.56239">
        <ele>439.547</ele>
        <time>2015-06-13T12:50:23.593Z</time>
      </trkpt>
      <trkpt lat="47.77538" lon="6.56236">
        <ele>440.745</ele>
        <time>2015-06-13T12:50:25.58Z</time>
      </trkpt>
      <trkpt lat="47.77534" lon="6.56233">
        <ele>441.753</ele>
        <time>2015-06-13T12:50:26.58Z</time>
      </trkpt>
      <trkpt lat="47.77528" lon="6.56228">
        <ele>444.643</ele>
        <time>2015-06-13T12:50:28.59Z</time>
      </trkpt>
      <trkpt lat="47.77524" lon="6.56225">
        <ele>444.63</ele>
        <time>2015-06-13T12:50:29.601Z</time>
      </trkpt>
      <trkpt lat="47.77516" lon="6.56223">
        <ele>442.804</ele>
        <time>2015-06-13T12:50:31.604Z</time>
      </trkpt>
      <trkpt lat="47.77512" lon="6.56223">
        <ele>441.562</ele>
        <time>2015-06-13T12:50:32.628Z</time>
      </trkpt>
      <trkpt lat="47.77503" lon="6.56225">
        <ele>438.364</ele>
        <time>2015-06-13T12:50:34.58Z</time>
      </trkpt>
      <trkpt lat="47.77499" lon="6.56229">
        <ele>436.699</ele>
        <time>2015-06-13T12:50:35.561Z</time>
      </trkpt>
      <trkpt lat="47.77494" lon="6.56233">
        <ele>435.802</ele>
        <time>2015-06-13T12:50:36.604Z</time>
      </trkpt>
      <trkpt lat="47.77483" lon="6.56245">
        <ele>434.217</ele>
        <time>2015-06-13T12:50:37.575Z</time>
      </trkpt>
      <trkpt lat="47.77475" lon="6.56256">
        <ele>432.816</ele>
        <time>2015-06-13T12:50:38.625Z</time>
      </trkpt>
      <trkpt lat="47.77466" lon="6.56258">
        <ele>431.961</ele>
        <time>2015-06-13T12:50:40.563Z</time>
      </trkpt>
      <trkpt lat="47.77465" lon="6.56262">
        <ele>431.448</ele>
        <time>2015-06-13T12:50:41.571Z</time>
      </trkpt>
      <trkpt lat="47.77461" lon="6.56271">
        <ele>430.67</ele>
        <time>2015-06-13T12:50:42.572Z</time>
      </trkpt>
      <trkpt lat="47.77458" lon="6.5627">
        <ele>430.808</ele>
        <time>2015-06-13T12:50:43.571Z</time>
      </trkpt>
      <trkpt lat="47.77452" lon="6.56267">
        <ele>430.846</ele>
        <time>2015-06-13T12:50:44.572Z</time>
      </trkpt>
      <trkpt lat="47.77437" lon="6.56279">
        <ele>432.72</ele>
        <time>2015-06-13T12:50:45.57Z</time>
      </trkpt>
      <trkpt lat="47.77431" lon="6.56287">
        <ele>433.227</ele>
        <time>2015-06-13T12:50:46.57Z</time>
      </trkpt>
      <trkpt lat="47.77424" lon="6.5629">
        <ele>434.38</ele>
        <time>2015-06-13T12:50:47.535Z</time>
      </trkpt>
      <trkpt lat="47.7742" lon="6.56295">
        <ele>435.052</ele>
        <time>2015-06-13T12:50:48.572Z</time>
      </trkpt>
      <trkpt lat="47.77415" lon="6.56299">
        <ele>435.906</ele>
        <time>2015-06-13T12:50:49.573Z</time>
      </trkpt>
      <trkpt lat="47.77407" lon="6.56311">
        <ele>436.343</ele>
        <time>2015-06-13T12:50:50.572Z</time>
      </trkpt>
      <trkpt lat="47.77401" lon="6.56315">
        <ele>436.184</ele>
        <time>2015-06-13T12:50:52.584Z</time>
      </trkpt>
      <trkpt lat="47.77397" lon="6.56311">
        <ele>436.744</ele>
        <time>2015-06-13T12:50:53.573Z</time>
      </trkpt>
      <trkpt lat="47.7739" lon="6.5631">
        <ele>437.352</ele>
        <time>2015-06-13T12:50:55.58Z</time>
      </trkpt>
      <trkpt lat="47.77385" lon="6.56304">
        <ele>437.288</ele>
        <time>2015-06-13T12:50:56.581Z</time>
      </trkpt>
      <trkpt lat="47.7738" lon="6.56297">
        <ele>436.749</ele>
        <time>2015-06-13T12:50:58.58Z</time>
      </trkpt>
      <trkpt lat="47.77376" lon="6.56296">
        <ele>436.111</ele>
        <time>2015-06-13T12:50:59.58Z</time>
      </trkpt>
      <trkpt lat="47.77367" lon="6.563">
        <ele>434.207</ele>
        <time>2015-06-13T12:51:02.576Z</time>
      </trkpt>
      <trkpt lat="47.77365" lon="6.56302">
        <ele>433.453</ele>
        <time>2015-06-13T12:51:03.58Z</time>
      </trkpt>
      <trkpt lat="47.77359" lon="6.56306">
        <ele>431.678</ele>
        <time>2015-06-13T12:51:05.579Z</time>
      </trkpt>
      <trkpt lat="47.77357" lon="6.56308">
        <ele>431.053</ele>
        <time>2015-06-13T12:51:06.579Z</time>
      </trkpt>
      <trkpt lat="47.77348" lon="6.56309">
        <ele>429.38</ele>
        <time>2015-06-13T12:51:08.564Z</time>
      </trkpt>
      <trkpt lat="47.77344" lon="6.56307">
        <ele>428.778</ele>
        <time>2015-06-13T12:51:09.575Z</time>
      </trkpt>
      <trkpt lat="47.7734" lon="6.56305">
        <ele>428.512</ele>
        <time>2015-06-13T12:51:10.582Z</time>
      </trkpt>
      <trkpt lat="47.77335" lon="6.56303">
        <ele>428.47</ele>
        <time>2015-06-13T12:51:11.581Z</time>
      </trkpt>
      <trkpt lat="47.77323" lon="6.563">
        <ele>428.835</ele>
        <time>2015-06-13T12:51:12.581Z</time>
      </trkpt>
      <trkpt lat="47.77318" lon="6.56303">
        <ele>427.809</ele>
        <time>2015-06-13T12:51:14.576Z</time>
      </trkpt>
      <trkpt lat="47.77312" lon="6.56304">
        <ele>427.43</ele>
        <time>2015-06-13T12:51:15.573Z</time>
      </trkpt>
      <trkpt lat="47.77307" lon="6.56303">
        <ele>427.417</ele>
        <time>2015-06-13T12:51:16.587Z</time>
      </trkpt>
      <trkpt lat="47.77302" lon="6.56298">
        <ele>428.126</ele>
        <time>2015-06-13T12:51:17.571Z</time>
      </trkpt>
      <trkpt lat="47.773" lon="6.56289">
        <ele>429.562</ele>
        <time>2015-06-13T12:51:19.571Z</time>
      </trkpt>
      <trkpt lat="47.77298" lon="6.56284">
        <ele>430.275</ele>
        <time>2015-06-13T12:51:20.58Z</time>
      </trkpt>
      <trkpt lat="47.77291" lon="6.56283">
        <ele>430.023</ele>
        <time>2015-06-13T12:51:23.573Z</time>
      </trkpt>
      <trkpt lat="47.77288" lon="6.56282">
        <ele>430.052</ele>
        <time>2015-06-13T12:51:24.571Z</time>
      </trkpt>
      <trkpt lat="47.7728" lon="6.5628">
        <ele>429.702</ele>
        <time>2015-06-13T12:51:27.574Z</time>
      </trkpt>
      <trkpt lat="47.77278" lon="6.56279">
        <ele>429.712</ele>
        <time>2015-06-13T12:51:28.572Z</time>
      </trkpt>
      <trkpt lat="47.7727" lon="6.56284">
        <ele>427.318</ele>
        <time>2015-06-13T12:51:33.57Z</time>
      </trkpt>
      <trkpt lat="47.77268" lon="6.56285">
        <ele>427.03</ele>
        <time>2015-06-13T12:51:34.576Z</time>
      </trkpt>
      <trkpt lat="47.77262" lon="6.56276">
        <ele>427.505</ele>
        <time>2015-06-13T12:51:40.607Z</time>
      </trkpt>
      <trkpt lat="47.77262" lon="6.56273">
        <ele>427.898</ele>
        <time>2015-06-13T12:51:41.579Z</time>
      </trkpt>
      <trkpt lat="47.77259" lon="6.56263">
        <ele>428.98</ele>
        <time>2015-06-13T12:51:44.578Z</time>
      </trkpt>
      <trkpt lat="47.77258" lon="6.5626">
        <ele>429.113</ele>
        <time>2015-06-13T12:51:45.586Z</time>
      </trkpt>
      <trkpt lat="47.77254" lon="6.56251">
        <ele>429.764</ele>
        <time>2015-06-13T12:51:48.581Z</time>
      </trkpt>
      <trkpt lat="47.77253" lon="6.56248">
        <ele>429.758</ele>
        <time>2015-06-13T12:51:49.58Z</time>
      </trkpt>
      <trkpt lat="47.77248" lon="6.56237">
        <ele>429.668</ele>
        <time>2015-06-13T12:51:52.596Z</time>
      </trkpt>
      <trkpt lat="47.77246" lon="6.56235">
        <ele>429.523</ele>
        <time>2015-06-13T12:51:53.6Z</time>
      </trkpt>
      <trkpt lat="47.77242" lon="6.56226">
        <ele>429.339</ele>
        <time>2015-06-13T12:51:55.602Z</time>
      </trkpt>
      <trkpt lat="47.7724" lon="6.56221">
        <ele>429.149</ele>
        <time>2015-06-13T12:51:56.58Z</time>
      </trkpt>
      <trkpt lat="47.77237" lon="6.56213">
        <ele>428.72</ele>
        <time>2015-06-13T12:51:58.604Z</time>
      </trkpt>
      <trkpt lat="47.77235" lon="6.56209">
        <ele>428.629</ele>
        <time>2015-06-13T12:51:59.757Z</time>
      </trkpt>
      <trkpt lat="47.77234" lon="6.562">
        <ele>428.679</ele>
        <time>2015-06-13T12:52:01.605Z</time>
      </trkpt>
      <trkpt lat="47.77232" lon="6.56195">
        <ele>428.711</ele>
        <time>2015-06-13T12:52:02.581Z</time>
      </trkpt>
      <trkpt lat="47.77228" lon="6.56188">
        <ele>429.47</ele>
        <time>2015-06-13T12:52:04.589Z</time>
      </trkpt>
      <trkpt lat="47.77226" lon="6.56185">
        <ele>429.698</ele>
        <time>2015-06-13T12:52:05.581Z</time>
      </trkpt>
      <trkpt lat="47.77221" lon="6.5618">
        <ele>429.803</ele>
        <time>2015-06-13T12:52:07.667Z</time>
      </trkpt>
      <trkpt lat="47.77218" lon="6.56177">
        <ele>429.604</ele>
        <time>2015-06-13T12:52:08.573Z</time>
      </trkpt>
      <trkpt lat="47.77214" lon="6.56171">
        <ele>429.696</ele>
        <time>2015-06-13T12:52:10.505Z</time>
      </trkpt>
      <trkpt lat="47.77212" lon="6.56168">
        <ele>429.915</ele>
        <time>2015-06-13T12:52:11.579Z</time>
      </trkpt>
      <trkpt lat="47.77206" lon="6.56157">
        <ele>430.133</ele>
        <time>2015-06-13T12:52:14.609Z</time>
      </trkpt>
      <trkpt lat="47.77205" lon="6.56154">
        <ele>430.33</ele>
        <time>2015-06-13T12:52:15.58Z</time>
      </trkpt>
      <trkpt lat="47.772" lon="6.56143">
        <ele>431.13</ele>
        <time>2015-06-13T12:52:19.595Z</time>
      </trkpt>
      <trkpt lat="47.77198" lon="6.5614">
        <ele>431.279</ele>
        <time>2015-06-13T12:52:20.59Z</time>
      </trkpt>
      <trkpt lat="47.77193" lon="6.56129">
        <ele>432.158</ele>
        <time>2015-06-13T12:52:25.579Z</time>
      </trkpt>
      <trkpt lat="47.77193" lon="6.56126">
        <ele>432.631</ele>
        <time>2015-06-13T12:52:26.578Z</time>
      </trkpt>
      <trkpt lat="47.77192" lon="6.56114">
        <ele>434.208</ele>
        <time>2015-06-13T12:52:29.578Z</time>
      </trkpt>
      <trkpt lat="47.77192" lon="6.56111">
        <ele>434.674</ele>
        <time>2015-06-13T12:52:30.587Z</time>
      </trkpt>
      <trkpt lat="47.77193" lon="6.561">
        <ele>433.583</ele>
        <time>2015-06-13T12:52:34.601Z</time>
      </trkpt>
      <trkpt lat="47.77194" lon="6.56097">
        <ele>433.396</ele>
        <time>2015-06-13T12:52:35.578Z</time>
      </trkpt>
      <trkpt lat="47.77197" lon="6.56085">
        <ele>432.197</ele>
        <time>2015-06-13T12:52:39.572Z</time>
      </trkpt>
      <trkpt lat="47.77197" lon="6.56082">
        <ele>432.053</ele>
        <time>2015-06-13T12:52:40.575Z</time>
      </trkpt>
      <trkpt lat="47.77197" lon="6.56069">
        <ele>432.546</ele>
        <time>2015-06-13T12:52:44.571Z</time>
      </trkpt>
      <trkpt lat="47.77198" lon="6.56067">
        <ele>432.672</ele>
        <time>2015-06-13T12:52:45.573Z</time>
      </trkpt>
      <trkpt lat="47.77204" lon="6.5606">
        <ele>433.159</ele>
        <time>2015-06-13T12:52:49.572Z</time>
      </trkpt>
      <trkpt lat="47.77205" lon="6.56057">
        <ele>433.28</ele>
        <time>2015-06-13T12:52:50.596Z</time>
      </trkpt>
      <trkpt lat="47.77204" lon="6.56045">
        <ele>434.821</ele>
        <time>2015-06-13T12:52:55.601Z</time>
      </trkpt>
      <trkpt lat="47.77204" lon="6.56043">
        <ele>435.213</ele>
        <time>2015-06-13T12:52:56.608Z</time>
      </trkpt>
      <trkpt lat="47.77203" lon="6.56031">
        <ele>436.797</ele>
        <time>2015-06-13T12:53:00.636Z</time>
      </trkpt>
      <trkpt lat="47.77202" lon="6.56028">
        <ele>437.218</ele>
        <time>2015-06-13T12:53:01.588Z</time>
      </trkpt>
      <trkpt lat="47.77198" lon="6.56019">
        <ele>438.147</ele>
        <time>2015-06-13T12:53:07.606Z</time>
      </trkpt>
      <trkpt lat="47.77196" lon="6.56017">
        <ele>438.279</ele>
        <time>2015-06-13T12:53:08.597Z</time>
      </trkpt>
      <trkpt lat="47.77192" lon="6.56006">
        <ele>439.607</ele>
        <time>2015-06-13T12:53:13.574Z</time>
      </trkpt>
      <trkpt lat="47.7719" lon="6.56004">
        <ele>439.888</ele>
        <time>2015-06-13T12:53:14.575Z</time>
      </trkpt>
      <trkpt lat="47.77184" lon="6.55996">
        <ele>439.826</ele>
        <time>2015-06-13T12:53:18.578Z</time>
      </trkpt>
      <trkpt lat="47.77183" lon="6.55996">
        <ele>439.753</ele>
        <time>2015-06-13T12:53:19.603Z</time>
      </trkpt>
      <trkpt lat="47.77177" lon="6.5599">
        <ele>438.359</ele>
        <time>2015-06-13T12:53:23.579Z</time>
      </trkpt>
      <trkpt lat="47.77175" lon="6.55988">
        <ele>437.849</ele>
        <time>2015-06-13T12:53:24.808Z</time>
      </trkpt>
      <trkpt lat="47.77168" lon="6.55982">
        <ele>435.491</ele>
        <time>2015-06-13T12:53:28.579Z</time>
      </trkpt>
      <trkpt lat="47.77166" lon="6.55981">
        <ele>435.139</ele>
        <time>2015-06-13T12:53:29.578Z</time>
      </trkpt>
      <trkpt lat="47.77162" lon="6.55977">
        <ele>433.534</ele>
        <time>2015-06-13T12:53:31.573Z</time>
      </trkpt>
      <trkpt lat="47.77158" lon="6.55975">
        <ele>432.975</ele>
        <time>2015-06-13T12:53:32.603Z</time>
      </trkpt>
      <trkpt lat="47.77152" lon="6.55973">
        <ele>432.578</ele>
        <time>2015-06-13T12:53:33.586Z</time>
      </trkpt>
      <trkpt lat="47.77141" lon="6.55972">
        <ele>433.031</ele>
        <time>2015-06-13T12:53:34.537Z</time>
      </trkpt>
      <trkpt lat="47.77134" lon="6.55975">
        <ele>434.286</ele>
        <time>2015-06-13T12:53:35.572Z</time>
      </trkpt>
      <trkpt lat="47.77131" lon="6.55976">
        <ele>434.838</ele>
        <time>2015-06-13T12:53:36.572Z</time>
      </trkpt>
      <trkpt lat="47.77121" lon="6.55984">
        <ele>436.386</ele>
        <time>2015-06-13T12:53:37.574Z</time>
      </trkpt>
      <trkpt lat="47.77113" lon="6.55988">
        <ele>437.416</ele>
        <time>2015-06-13T12:53:39.574Z</time>
      </trkpt>
      <trkpt lat="47.77109" lon="6.5599">
        <ele>436.942</ele>
        <time>2015-06-13T12:53:40.575Z</time>
      </trkpt>
      <trkpt lat="47.77101" lon="6.55992">
        <ele>435.285</ele>
        <time>2015-06-13T12:53:41.575Z</time>
      </trkpt>
      <trkpt lat="47.77095" lon="6.55995">
        <ele>433.915</ele>
        <time>2015-06-13T12:53:42.574Z</time>
      </trkpt>
      <trkpt lat="47.77088" lon="6.55999">
        <ele>432.634</ele>
        <time>2015-06-13T12:53:43.574Z</time>
      </trkpt>
      <trkpt lat="47.77079" lon="6.56005">
        <ele>431.728</ele>
        <time>2015-06-13T12:53:44.581Z</time>
      </trkpt>
      <trkpt lat="47.77074" lon="6.56008">
        <ele>431.571</ele>
        <time>2015-06-13T12:53:45.574Z</time>
      </trkpt>
      <trkpt lat="47.77068" lon="6.56012">
        <ele>431.491</ele>
        <time>2015-06-13T12:53:46.577Z</time>
      </trkpt>
      <trkpt lat="47.77062" lon="6.56016">
        <ele>431.534</ele>
        <time>2015-06-13T12:53:47.58Z</time>
      </trkpt>
      <trkpt lat="47.77057" lon="6.56017">
        <ele>431.586</ele>
        <time>2015-06-13T12:53:48.57Z</time>
      </trkpt>
      <trkpt lat="47.77052" lon="6.56017">
        <ele>431.193</ele>
        <time>2015-06-13T12:53:49.573Z</time>
      </trkpt>
      <trkpt lat="47.77043" lon="6.56018">
        <ele>430.472</ele>
        <time>2015-06-13T12:53:50.574Z</time>
      </trkpt>
      <trkpt lat="47.77035" lon="6.5602">
        <ele>429.88</ele>
        <time>2015-06-13T12:53:51.58Z</time>
      </trkpt>
      <trkpt lat="47.77027" lon="6.56023">
        <ele>429.384</ele>
        <time>2015-06-13T12:53:52.571Z</time>
      </trkpt>
      <trkpt lat="47.7702" lon="6.56026">
        <ele>429.542</ele>
        <time>2015-06-13T12:53:53.599Z</time>
      </trkpt>
      <trkpt lat="47.77016" lon="6.5603">
        <ele>429.862</ele>
        <time>2015-06-13T12:53:54.583Z</time>
      </trkpt>
      <trkpt lat="47.7701" lon="6.56031">
        <ele>429.794</ele>
        <time>2015-06-13T12:53:55.571Z</time>
      </trkpt>
      <trkpt lat="47.77003" lon="6.56032">
        <ele>429.533</ele>
        <time>2015-06-13T12:53:56.573Z</time>
      </trkpt>
      <trkpt lat="47.76998" lon="6.56034">
        <ele>430.064</ele>
        <time>2015-06-13T12:53:58.571Z</time>
      </trkpt>
      <trkpt lat="47.76993" lon="6.56039">
        <ele>431.906</ele>
        <time>2015-06-13T12:53:59.574Z</time>
      </trkpt>
      <trkpt lat="47.7699" lon="6.56045">
        <ele>433.088</ele>
        <time>2015-06-13T12:54:00.585Z</time>
      </trkpt>
      <trkpt lat="47.76986" lon="6.56051">
        <ele>434.867</ele>
        <time>2015-06-13T12:54:01.571Z</time>
      </trkpt>
      <trkpt lat="47.76982" lon="6.56059">
        <ele>436.552</ele>
        <time>2015-06-13T12:54:03.57Z</time>
      </trkpt>
      <trkpt lat="47.76976" lon="6.56067">
        <ele>438.177</ele>
        <time>2015-06-13T12:54:04.675Z</time>
      </trkpt>
      <trkpt lat="47.76972" lon="6.56075">
        <ele>439.022</ele>
        <time>2015-06-13T12:54:05.572Z</time>
      </trkpt>
      <trkpt lat="47.76966" lon="6.5608">
        <ele>439.22</ele>
        <time>2015-06-13T12:54:06.571Z</time>
      </trkpt>
      <trkpt lat="47.76954" lon="6.56097">
        <ele>438.686</ele>
        <time>2015-06-13T12:54:07.55Z</time>
      </trkpt>
      <trkpt lat="47.76942" lon="6.56118">
        <ele>435.212</ele>
        <time>2015-06-13T12:54:08.57Z</time>
      </trkpt>
      <trkpt lat="47.76933" lon="6.56136">
        <ele>430.088</ele>
        <time>2015-06-13T12:54:09.578Z</time>
      </trkpt>
      <trkpt lat="47.76934" lon="6.56148">
        <ele>428.473</ele>
        <time>2015-06-13T12:54:10.573Z</time>
      </trkpt>
      <trkpt lat="47.76927" lon="6.56153">
        <ele>428.031</ele>
        <time>2015-06-13T12:54:11.572Z</time>
      </trkpt>
      <trkpt lat="47.76921" lon="6.5616">
        <ele>426.693</ele>
        <time>2015-06-13T12:54:12.599Z</time>
      </trkpt>
      <trkpt lat="47.76912" lon="6.56171">
        <ele>424.94</ele>
        <time>2015-06-13T12:54:13.572Z</time>
      </trkpt>
      <trkpt lat="47.76906" lon="6.5618">
        <ele>423.817</ele>
        <time>2015-06-13T12:54:14.581Z</time>
      </trkpt>
      <trkpt lat="47.76902" lon="6.56188">
        <ele>422.326</ele>
        <time>2015-06-13T12:54:15.602Z</time>
      </trkpt>
      <trkpt lat="47.76896" lon="6.56196">
        <ele>421.49</ele>
        <time>2015-06-13T12:54:16.581Z</time>
      </trkpt>
      <trkpt lat="47.7689" lon="6.562">
        <ele>421.428</ele>
        <time>2015-06-13T12:54:17.581Z</time>
      </trkpt>
      <trkpt lat="47.76883" lon="6.56203">
        <ele>420.52</ele>
        <time>2015-06-13T12:54:18.573Z</time>
      </trkpt>
      <trkpt lat="47.76874" lon="6.56213">
        <ele>417.722</ele>
        <time>2015-06-13T12:54:19.572Z</time>
      </trkpt>
      <trkpt lat="47.76867" lon="6.56211">
        <ele>419.189</ele>
        <time>2015-06-13T12:54:20.587Z</time>
      </trkpt>
      <trkpt lat="47.76861" lon="6.56213">
        <ele>418.889</ele>
        <time>2015-06-13T12:54:21.581Z</time>
      </trkpt>
      <trkpt lat="47.76856" lon="6.56212">
        <ele>420.953</ele>
        <time>2015-06-13T12:54:22.573Z</time>
      </trkpt>
      <trkpt lat="47.76851" lon="6.56209">
        <ele>422.844</ele>
        <time>2015-06-13T12:54:23.58Z</time>
      </trkpt>
      <trkpt lat="47.76847" lon="6.56211">
        <ele>423.638</ele>
        <time>2015-06-13T12:54:24.592Z</time>
      </trkpt>
      <trkpt lat="47.76842" lon="6.56212">
        <ele>424.42</ele>
        <time>2015-06-13T12:54:25.573Z</time>
      </trkpt>
      <trkpt lat="47.76834" lon="6.56213">
        <ele>426.698</ele>
        <time>2015-06-13T12:54:28.579Z</time>
      </trkpt>
      <trkpt lat="47.76829" lon="6.56216">
        <ele>425.838</ele>
        <time>2015-06-13T12:54:29.581Z</time>
      </trkpt>
      <trkpt lat="47.76826" lon="6.56219">
        <ele>424.974</ele>
        <time>2015-06-13T12:54:31.587Z</time>
      </trkpt>
      <trkpt lat="47.7682" lon="6.56224">
        <ele>423.657</ele>
        <time>2015-06-13T12:54:32.579Z</time>
      </trkpt>
      <trkpt lat="47.76812" lon="6.56226">
        <ele>422.997</ele>
        <time>2015-06-13T12:54:35.587Z</time>
      </trkpt>
      <trkpt lat="47.76809" lon="6.56227">
        <ele>422.587</ele>
        <time>2015-06-13T12:54:36.586Z</time>
      </trkpt>
      <trkpt lat="47.76803" lon="6.56229">
        <ele>422.106</ele>
        <time>2015-06-13T12:54:39.581Z</time>
      </trkpt>
      <trkpt lat="47.76799" lon="6.56229">
        <ele>422.077</ele>
        <time>2015-06-13T12:54:40.58Z</time>
      </trkpt>
      <trkpt lat="47.76791" lon="6.56228">
        <ele>422.365</ele>
        <time>2015-06-13T12:54:43.591Z</time>
      </trkpt>
      <trkpt lat="47.76788" lon="6.56227">
        <ele>422.566</ele>
        <time>2015-06-13T12:54:44.579Z</time>
      </trkpt>
      <trkpt lat="47.7678" lon="6.56224">
        <ele>423.632</ele>
        <time>2015-06-13T12:54:47.535Z</time>
      </trkpt>
      <trkpt lat="47.76778" lon="6.56223">
        <ele>423.92</ele>
        <time>2015-06-13T12:54:48.574Z</time>
      </trkpt>
      <trkpt lat="47.7677" lon="6.56217">
        <ele>426.085</ele>
        <time>2015-06-13T12:54:52.631Z</time>
      </trkpt>
      <trkpt lat="47.76768" lon="6.56216">
        <ele>426.631</ele>
        <time>2015-06-13T12:54:53.592Z</time>
      </trkpt>
      <trkpt lat="47.7676" lon="6.5621">
        <ele>429.333</ele>
        <time>2015-06-13T12:54:58.666Z</time>
      </trkpt>
      <trkpt lat="47.76759" lon="6.56209">
        <ele>430.205</ele>
        <time>2015-06-13T12:54:59.68Z</time>
      </trkpt>
      <trkpt lat="47.76751" lon="6.56205">
        <ele>432.626</ele>
        <time>2015-06-13T12:55:04.686Z</time>
      </trkpt>
      <trkpt lat="47.7675" lon="6.56205">
        <ele>432.759</ele>
        <time>2015-06-13T12:55:05.585Z</time>
      </trkpt>
      <trkpt lat="47.76745" lon="6.56194">
        <ele>436.143</ele>
        <time>2015-06-13T12:55:12.664Z</time>
      </trkpt>
      <trkpt lat="47.76743" lon="6.56191">
        <ele>435.943</ele>
        <time>2015-06-13T12:55:13.675Z</time>
      </trkpt>
      <trkpt lat="47.76737" lon="6.56187">
        <ele>434.496</ele>
        <time>2015-06-13T12:55:15.678Z</time>
      </trkpt>
      <trkpt lat="47.76734" lon="6.56185">
        <ele>433.692</ele>
        <time>2015-06-13T12:55:16.655Z</time>
      </trkpt>
      <trkpt lat="47.7673" lon="6.56179">
        <ele>433.131</ele>
        <time>2015-06-13T12:55:18.65Z</time>
      </trkpt>
      <trkpt lat="47.76728" lon="6.56174">
        <ele>432.809</ele>
        <time>2015-06-13T12:55:19.903Z</time>
      </trkpt>
      <trkpt lat="47.76723" lon="6.56165">
        <ele>431.641</ele>
        <time>2015-06-13T12:55:22.653Z</time>
      </trkpt>
      <trkpt lat="47.76721" lon="6.56162">
        <ele>431.899</ele>
        <time>2015-06-13T12:55:23.661Z</time>
      </trkpt>
      <trkpt lat="47.76716" lon="6.56152">
        <ele>433.655</ele>
        <time>2015-06-13T12:55:27.659Z</time>
      </trkpt>
      <trkpt lat="47.76715" lon="6.56149">
        <ele>434.234</ele>
        <time>2015-06-13T12:55:28.66Z</time>
      </trkpt>
      <trkpt lat="47.76712" lon="6.56139">
        <ele>435.791</ele>
        <time>2015-06-13T12:55:31.657Z</time>
      </trkpt>
      <trkpt lat="47.7671" lon="6.56136">
        <ele>436.144</ele>
        <time>2015-06-13T12:55:32.599Z</time>
      </trkpt>
      <trkpt lat="47.76707" lon="6.56127">
        <ele>437.369</ele>
        <time>2015-06-13T12:55:35.602Z</time>
      </trkpt>
      <trkpt lat="47.76706" lon="6.56125">
        <ele>437.771</ele>
        <time>2015-06-13T12:55:36.592Z</time>
      </trkpt>
      <trkpt lat="47.767" lon="6.56119">
        <ele>438.829</ele>
        <time>2015-06-13T12:55:44.582Z</time>
      </trkpt>
      <trkpt lat="47.76696" lon="6.56117">
        <ele>439.595</ele>
        <time>2015-06-13T12:55:45.751Z</time>
      </trkpt>
      <trkpt lat="47.76691" lon="6.56112">
        <ele>440.521</ele>
        <time>2015-06-13T12:55:46.659Z</time>
      </trkpt>
      <trkpt lat="47.76687" lon="6.56107">
        <ele>440.695</ele>
        <time>2015-06-13T12:55:47.657Z</time>
      </trkpt>
      <trkpt lat="47.76681" lon="6.56101">
        <ele>440.909</ele>
        <time>2015-06-13T12:55:48.638Z</time>
      </trkpt>
      <trkpt lat="47.76676" lon="6.56096">
        <ele>441.348</ele>
        <time>2015-06-13T12:55:49.664Z</time>
      </trkpt>
      <trkpt lat="47.76671" lon="6.56091">
        <ele>441.856</ele>
        <time>2015-06-13T12:55:50.662Z</time>
      </trkpt>
      <trkpt lat="47.76667" lon="6.56087">
        <ele>442.501</ele>
        <time>2015-06-13T12:55:51.66Z</time>
      </trkpt>
      <trkpt lat="47.76659" lon="6.56084">
        <ele>442.942</ele>
        <time>2015-06-13T12:55:53.659Z</time>
      </trkpt>
      <trkpt lat="47.76657" lon="6.56084">
        <ele>442.91</ele>
        <time>2015-06-13T12:55:54.658Z</time>
      </trkpt>
      <trkpt lat="47.7665" lon="6.56086">
        <ele>442.772</ele>
        <time>2015-06-13T12:55:56.661Z</time>
      </trkpt>
      <trkpt lat="47.76644" lon="6.56088">
        <ele>442.623</ele>
        <time>2015-06-13T12:55:57.657Z</time>
      </trkpt>
      <trkpt lat="47.76636" lon="6.56089">
        <ele>442.436</ele>
        <time>2015-06-13T12:55:59.658Z</time>
      </trkpt>
      <trkpt lat="47.76633" lon="6.56089">
        <ele>442.237</ele>
        <time>2015-06-13T12:56:00.681Z</time>
      </trkpt>
      <trkpt lat="47.76627" lon="6.56084">
        <ele>442.116</ele>
        <time>2015-06-13T12:56:02.656Z</time>
      </trkpt>
      <trkpt lat="47.76624" lon="6.5608">
        <ele>441.89</ele>
        <time>2015-06-13T12:56:03.611Z</time>
      </trkpt>
      <trkpt lat="47.76619" lon="6.56074">
        <ele>441.315</ele>
        <time>2015-06-13T12:56:05.657Z</time>
      </trkpt>
      <trkpt lat="47.76616" lon="6.56071">
        <ele>441.01</ele>
        <time>2015-06-13T12:56:06.694Z</time>
      </trkpt>
      <trkpt lat="47.76612" lon="6.56065">
        <ele>440.377</ele>
        <time>2015-06-13T12:56:08.681Z</time>
      </trkpt>
      <trkpt lat="47.76609" lon="6.56063">
        <ele>440.231</ele>
        <time>2015-06-13T12:56:09.677Z</time>
      </trkpt>
      <trkpt lat="47.76602" lon="6.56055">
        <ele>440.078</ele>
        <time>2015-06-13T12:56:12.601Z</time>
      </trkpt>
      <trkpt lat="47.766" lon="6.56051">
        <ele>440.521</ele>
        <time>2015-06-13T12:56:13.594Z</time>
      </trkpt>
      <trkpt lat="47.76597" lon="6.56047">
        <ele>441.026</ele>
        <time>2015-06-13T12:56:14.661Z</time>
      </trkpt>
      <trkpt lat="47.76593" lon="6.56043">
        <ele>441.657</ele>
        <time>2015-06-13T12:56:15.658Z</time>
      </trkpt>
      <trkpt lat="47.76586" lon="6.56027">
        <ele>443.982</ele>
        <time>2015-06-13T12:56:16.732Z</time>
      </trkpt>
      <trkpt lat="47.7658" lon="6.56025">
        <ele>444.569</ele>
        <time>2015-06-13T12:56:17.66Z</time>
      </trkpt>
      <trkpt lat="47.76576" lon="6.56027">
        <ele>444.849</ele>
        <time>2015-06-13T12:56:18.599Z</time>
      </trkpt>
      <trkpt lat="47.7657" lon="6.56025">
        <ele>445.613</ele>
        <time>2015-06-13T12:56:19.667Z</time>
      </trkpt>
      <trkpt lat="47.76564" lon="6.56026">
        <ele>446.11</ele>
        <time>2015-06-13T12:56:20.654Z</time>
      </trkpt>
      <trkpt lat="47.76555" lon="6.56027">
        <ele>447.021</ele>
        <time>2015-06-13T12:56:21.654Z</time>
      </trkpt>
      <trkpt lat="47.76549" lon="6.56018">
        <ele>447.356</ele>
        <time>2015-06-13T12:56:23.655Z</time>
      </trkpt>
      <trkpt lat="47.76541" lon="6.56016">
        <ele>447.424</ele>
        <time>2015-06-13T12:56:24.664Z</time>
      </trkpt>
      <trkpt lat="47.76536" lon="6.56013">
        <ele>447.525</ele>
        <time>2015-06-13T12:56:25.668Z</time>
      </trkpt>
      <trkpt lat="47.7653" lon="6.56014">
        <ele>447.496</ele>
        <time>2015-06-13T12:56:26.68Z</time>
      </trkpt>
      <trkpt lat="47.76524" lon="6.56012">
        <ele>446.864</ele>
        <time>2015-06-13T12:56:27.684Z</time>
      </trkpt>
      <trkpt lat="47.76519" lon="6.5601">
        <ele>445.927</ele>
        <time>2015-06-13T12:56:28.657Z</time>
      </trkpt>
      <trkpt lat="47.76512" lon="6.5601">
        <ele>444.676</ele>
        <time>2015-06-13T12:56:29.679Z</time>
      </trkpt>
      <trkpt lat="47.76509" lon="6.56009">
        <ele>444.019</ele>
        <time>2015-06-13T12:56:30.68Z</time>
      </trkpt>
      <trkpt lat="47.76505" lon="6.56007">
        <ele>443.436</ele>
        <time>2015-06-13T12:56:31.657Z</time>
      </trkpt>
      <trkpt lat="47.76498" lon="6.56006">
        <ele>442.256</ele>
        <time>2015-06-13T12:56:32.66Z</time>
      </trkpt>
      <trkpt lat="47.76493" lon="6.5601">
        <ele>440.918</ele>
        <time>2015-06-13T12:56:33.657Z</time>
      </trkpt>
      <trkpt lat="47.76488" lon="6.5601">
        <ele>439.881</ele>
        <time>2015-06-13T12:56:34.659Z</time>
      </trkpt>
      <trkpt lat="47.76483" lon="6.56009">
        <ele>438.965</ele>
        <time>2015-06-13T12:56:35.658Z</time>
      </trkpt>
      <trkpt lat="47.76478" lon="6.56015">
        <ele>437.633</ele>
        <time>2015-06-13T12:56:36.653Z</time>
      </trkpt>
      <trkpt lat="47.7647" lon="6.56016">
        <ele>436.111</ele>
        <time>2015-06-13T12:56:37.65Z</time>
      </trkpt>
      <trkpt lat="47.76462" lon="6.56019">
        <ele>434.734</ele>
        <time>2015-06-13T12:56:38.652Z</time>
      </trkpt>
      <trkpt lat="47.76455" lon="6.56025">
        <ele>433.605</ele>
        <time>2015-06-13T12:56:39.657Z</time>
      </trkpt>
      <trkpt lat="47.76449" lon="6.56018">
        <ele>432.746</ele>
        <time>2015-06-13T12:56:40.62Z</time>
      </trkpt>
      <trkpt lat="47.76444" lon="6.56013">
        <ele>431.944</ele>
        <time>2015-06-13T12:56:41.651Z</time>
      </trkpt>
      <trkpt lat="47.76439" lon="6.56005">
        <ele>431.165</ele>
        <time>2015-06-13T12:56:42.652Z</time>
      </trkpt>
      <trkpt lat="47.76437" lon="6.55993">
        <ele>431.28</ele>
        <time>2015-06-13T12:56:43.678Z</time>
      </trkpt>
      <trkpt lat="47.7643" lon="6.55989">
        <ele>430.143</ele>
        <time>2015-06-13T12:56:44.652Z</time>
      </trkpt>
      <trkpt lat="47.76431" lon="6.55976">
        <ele>430.653</ele>
        <time>2015-06-13T12:56:46.651Z</time>
      </trkpt>
      <trkpt lat="47.76432" lon="6.55972">
        <ele>430.802</ele>
        <time>2015-06-13T12:56:47.653Z</time>
      </trkpt>
      <trkpt lat="47.76428" lon="6.55972">
        <ele>429.548</ele>
        <time>2015-06-13T12:56:48.652Z</time>
      </trkpt>
      <trkpt lat="47.76417" lon="6.55983">
        <ele>426.884</ele>
        <time>2015-06-13T12:56:49.652Z</time>
      </trkpt>
      <trkpt lat="47.76413" lon="6.55988">
        <ele>426.641</ele>
        <time>2015-06-13T12:56:50.651Z</time>
      </trkpt>
      <trkpt lat="47.76407" lon="6.56001">
        <ele>427.26</ele>
        <time>2015-06-13T12:56:51.651Z</time>
      </trkpt>
      <trkpt lat="47.76399" lon="6.56005">
        <ele>426.773</ele>
        <time>2015-06-13T12:56:52.657Z</time>
      </trkpt>
      <trkpt lat="47.76397" lon="6.56009">
        <ele>426.704</ele>
        <time>2015-06-13T12:56:53.647Z</time>
      </trkpt>
      <trkpt lat="47.76393" lon="6.56012">
        <ele>426.59</ele>
        <time>2015-06-13T12:56:54.677Z</time>
      </trkpt>
      <trkpt lat="47.76388" lon="6.56016">
        <ele>426.524</ele>
        <time>2015-06-13T12:56:55.652Z</time>
      </trkpt>
      <trkpt lat="47.76383" lon="6.56018">
        <ele>426.352</ele>
        <time>2015-06-13T12:56:56.651Z</time>
      </trkpt>
      <trkpt lat="47.76375" lon="6.56023">
        <ele>426.514</ele>
        <time>2015-06-13T12:56:57.651Z</time>
      </trkpt>
      <trkpt lat="47.76368" lon="6.56031">
        <ele>427.308</ele>
        <time>2015-06-13T12:56:58.652Z</time>
      </trkpt>
      <trkpt lat="47.76359" lon="6.56037">
        <ele>427.323</ele>
        <time>2015-06-13T12:56:59.654Z</time>
      </trkpt>
      <trkpt lat="47.76351" lon="6.5605">
        <ele>426.521</ele>
        <time>2015-06-13T12:57:00.645Z</time>
      </trkpt>
      <trkpt lat="47.76345" lon="6.56053">
        <ele>425.326</ele>
        <time>2015-06-13T12:57:01.65Z</time>
      </trkpt>
      <trkpt lat="47.76338" lon="6.56057">
        <ele>423.944</ele>
        <time>2015-06-13T12:57:02.65Z</time>
      </trkpt>
      <trkpt lat="47.76324" lon="6.56065">
        <ele>422.557</ele>
        <time>2015-06-13T12:57:03.651Z</time>
      </trkpt>
      <trkpt lat="47.76313" lon="6.56071">
        <ele>422.046</ele>
        <time>2015-06-13T12:57:04.651Z</time>
      </trkpt>
      <trkpt lat="47.76309" lon="6.56066">
        <ele>422.281</ele>
        <time>2015-06-13T12:57:05.65Z</time>
      </trkpt>
      <trkpt lat="47.76303" lon="6.56074">
        <ele>421.955</ele>
        <time>2015-06-13T12:57:06.621Z</time>
      </trkpt>
      <trkpt lat="47.76299" lon="6.56083">
        <ele>421.996</ele>
        <time>2015-06-13T12:57:07.658Z</time>
      </trkpt>
      <trkpt lat="47.76296" lon="6.56092">
        <ele>421.754</ele>
        <time>2015-06-13T12:57:08.651Z</time>
      </trkpt>
      <trkpt lat="47.76292" lon="6.56105">
        <ele>421.091</ele>
        <time>2015-06-13T12:57:09.652Z</time>
      </trkpt>
      <trkpt lat="47.76288" lon="6.56113">
        <ele>420.806</ele>
        <time>2015-06-13T12:57:10.652Z</time>
      </trkpt>
      <trkpt lat="47.76284" lon="6.56123">
        <ele>420.578</ele>
        <time>2015-06-13T12:57:11.651Z</time>
      </trkpt>
      <trkpt lat="47.76279" lon="6.5613">
        <ele>420.583</ele>
        <time>2015-06-13T12:57:12.65Z</time>
      </trkpt>
      <trkpt lat="47.76275" lon="6.56139">
        <ele>419.718</ele>
        <time>2015-06-13T12:57:13.651Z</time>
      </trkpt>
      <trkpt lat="47.76269" lon="6.56149">
        <ele>417.249</ele>
        <time>2015-06-13T12:57:14.652Z</time>
      </trkpt>
      <trkpt lat="47.76263" lon="6.56158">
        <ele>414.779</ele>
        <time>2015-06-13T12:57:15.675Z</time>
      </trkpt>
      <trkpt lat="47.76257" lon="6.5617">
        <ele>412.01</ele>
        <time>2015-06-13T12:57:16.651Z</time>
      </trkpt>
      <trkpt lat="47.76254" lon="6.56179">
        <ele>410.476</ele>
        <time>2015-06-13T12:57:17.686Z</time>
      </trkpt>
      <trkpt lat="47.7625" lon="6.56189">
        <ele>408.734</ele>
        <time>2015-06-13T12:57:18.652Z</time>
      </trkpt>
      <trkpt lat="47.76247" lon="6.56202">
        <ele>406.711</ele>
        <time>2015-06-13T12:57:19.651Z</time>
      </trkpt>
      <trkpt lat="47.76237" lon="6.56216">
        <ele>403.082</ele>
        <time>2015-06-13T12:57:20.651Z</time>
      </trkpt>
      <trkpt lat="47.76229" lon="6.56226">
        <ele>400.586</ele>
        <time>2015-06-13T12:57:21.653Z</time>
      </trkpt>
      <trkpt lat="47.76222" lon="6.56231">
        <ele>398.645</ele>
        <time>2015-06-13T12:57:22.642Z</time>
      </trkpt>
      <trkpt lat="47.76213" lon="6.56241">
        <ele>396.534</ele>
        <time>2015-06-13T12:57:23.651Z</time>
      </trkpt>
      <trkpt lat="47.76203" lon="6.56246">
        <ele>394.479</ele>
        <time>2015-06-13T12:57:24.652Z</time>
      </trkpt>
      <trkpt lat="47.76194" lon="6.56256">
        <ele>392.198</ele>
        <time>2015-06-13T12:57:25.652Z</time>
      </trkpt>
      <trkpt lat="47.76185" lon="6.56266">
        <ele>389.971</ele>
        <time>2015-06-13T12:57:26.662Z</time>
      </trkpt>
      <trkpt lat="47.76176" lon="6.56275">
        <ele>388.684</ele>
        <time>2015-06-13T12:57:27.652Z</time>
      </trkpt>
      <trkpt lat="47.76171" lon="6.56283">
        <ele>388.686</ele>
        <time>2015-06-13T12:57:28.651Z</time>
      </trkpt>
      <trkpt lat="47.76162" lon="6.56293">
        <ele>389.17</ele>
        <time>2015-06-13T12:57:29.652Z</time>
      </trkpt>
      <trkpt lat="47.76154" lon="6.56304">
        <ele>390.346</ele>
        <time>2015-06-13T12:57:30.651Z</time>
      </trkpt>
      <trkpt lat="47.76146" lon="6.56319">
        <ele>389.088</ele>
        <time>2015-06-13T12:57:31.675Z</time>
      </trkpt>
      <trkpt lat="47.76138" lon="6.5633">
        <ele>388.418</ele>
        <time>2015-06-13T12:57:32.968Z</time>
      </trkpt>
      <trkpt lat="47.76131" lon="6.56342">
        <ele>386.995</ele>
        <time>2015-06-13T12:57:33.601Z</time>
      </trkpt>
      <trkpt lat="47.76122" lon="6.5635">
        <ele>386.765</ele>
        <time>2015-06-13T12:57:34.659Z</time>
      </trkpt>
      <trkpt lat="47.76114" lon="6.56361">
        <ele>386.231</ele>
        <time>2015-06-13T12:57:35.651Z</time>
      </trkpt>
      <trkpt lat="47.76106" lon="6.56368">
        <ele>386.701</ele>
        <time>2015-06-13T12:57:36.673Z</time>
      </trkpt>
      <trkpt lat="47.76098" lon="6.56371">
        <ele>387.899</ele>
        <time>2015-06-13T12:57:37.663Z</time>
      </trkpt>
      <trkpt lat="47.76093" lon="6.56375">
        <ele>388.573</ele>
        <time>2015-06-13T12:57:38.652Z</time>
      </trkpt>
      <trkpt lat="47.76083" lon="6.56396">
        <ele>386.853</ele>
        <time>2015-06-13T12:57:39.686Z</time>
      </trkpt>
      <trkpt lat="47.76079" lon="6.56406">
        <ele>384.728</ele>
        <time>2015-06-13T12:57:40.678Z</time>
      </trkpt>
      <trkpt lat="47.76077" lon="6.56421">
        <ele>382.444</ele>
        <time>2015-06-13T12:57:41.612Z</time>
      </trkpt>
      <trkpt lat="47.76083" lon="6.56427">
        <ele>380.011</ele>
        <time>2015-06-13T12:57:42.652Z</time>
      </trkpt>
      <trkpt lat="47.76085" lon="6.56438">
        <ele>379.612</ele>
        <time>2015-06-13T12:57:43.651Z</time>
      </trkpt>
      <trkpt lat="47.76088" lon="6.5645">
        <ele>377.751</ele>
        <time>2015-06-13T12:57:44.652Z</time>
      </trkpt>
      <trkpt lat="47.76094" lon="6.56456">
        <ele>374.749</ele>
        <time>2015-06-13T12:57:45.652Z</time>
      </trkpt>
      <trkpt lat="47.76098" lon="6.56467">
        <ele>370.575</ele>
        <time>2015-06-13T12:57:46.796Z</time>
      </trkpt>
      <trkpt lat="47.76101" lon="6.56482">
        <ele>365.269</ele>
        <time>2015-06-13T12:57:47.684Z</time>
      </trkpt>
      <trkpt lat="47.76106" lon="6.56495">
        <ele>360.3</ele>
        <time>2015-06-13T12:57:48.666Z</time>
      </trkpt>
      <trkpt lat="47.76111" lon="6.56505">
        <ele>358.506</ele>
        <time>2015-06-13T12:57:49.672Z</time>
      </trkpt>
      <trkpt lat="47.76121" lon="6.56511">
        <ele>359.752</ele>
        <time>2015-06-13T12:57:50.659Z</time>
      </trkpt>
      <trkpt lat="47.7613" lon="6.56516">
        <ele>360.11</ele>
        <time>2015-06-13T12:57:51.659Z</time>
      </trkpt>
      <trkpt lat="47.76135" lon="6.56521">
        <ele>359.839</ele>
        <time>2015-06-13T12:57:52.652Z</time>
      </trkpt>
      <trkpt lat="47.76137" lon="6.56528">
        <ele>359.131</ele>
        <time>2015-06-13T12:57:53.667Z</time>
      </trkpt>
      <trkpt lat="47.76138" lon="6.56535">
        <ele>358.213</ele>
        <time>2015-06-13T12:57:54.658Z</time>
      </trkpt>
      <trkpt lat="47.76139" lon="6.56543">
        <ele>357.372</ele>
        <time>2015-06-13T12:57:55.649Z</time>
      </trkpt>
      <trkpt lat="47.76128" lon="6.56555">
        <ele>355.628</ele>
        <time>2015-06-13T12:57:56.658Z</time>
      </trkpt>
      <trkpt lat="47.7612" lon="6.56567">
        <ele>353.151</ele>
        <time>2015-06-13T12:57:57.651Z</time>
      </trkpt>
      <trkpt lat="47.76115" lon="6.56579">
        <ele>349.819</ele>
        <time>2015-06-13T12:57:58.678Z</time>
      </trkpt>
      <trkpt lat="47.7611" lon="6.56593">
        <ele>347.569</ele>
        <time>2015-06-13T12:57:59.652Z</time>
      </trkpt>
      <trkpt lat="47.76105" lon="6.56608">
        <ele>346.271</ele>
        <time>2015-06-13T12:58:00.651Z</time>
      </trkpt>
      <trkpt lat="47.76101" lon="6.56625">
        <ele>344.169</ele>
        <time>2015-06-13T12:58:01.649Z</time>
      </trkpt>
      <trkpt lat="47.76096" lon="6.56642">
        <ele>341.533</ele>
        <time>2015-06-13T12:58:02.644Z</time>
      </trkpt>
      <trkpt lat="47.76094" lon="6.56664">
        <ele>339.183</ele>
        <time>2015-06-13T12:58:03.659Z</time>
      </trkpt>
      <trkpt lat="47.76095" lon="6.56681">
        <ele>337.088</ele>
        <time>2015-06-13T12:58:04.651Z</time>
      </trkpt>
      <trkpt lat="47.76095" lon="6.56698">
        <ele>334.422</ele>
        <time>2015-06-13T12:58:05.66Z</time>
      </trkpt>
      <trkpt lat="47.76093" lon="6.56718">
        <ele>331.034</ele>
        <time>2015-06-13T12:58:06.624Z</time>
      </trkpt>
      <trkpt lat="47.76093" lon="6.56735">
        <ele>331.362</ele>
        <time>2015-06-13T12:58:07.68Z</time>
      </trkpt>
      <trkpt lat="47.76092" lon="6.56754">
        <ele>332.617</ele>
        <time>2015-06-13T12:58:08.613Z</time>
      </trkpt>
      <trkpt lat="47.76095" lon="6.56776">
        <ele>332.847</ele>
        <time>2015-06-13T12:58:09.658Z</time>
      </trkpt>
      <trkpt lat="47.76103" lon="6.56781">
        <ele>333.416</ele>
        <time>2015-06-13T12:58:10.654Z</time>
      </trkpt>
      <trkpt lat="47.76106" lon="6.568">
        <ele>333.661</ele>
        <time>2015-06-13T12:58:11.65Z</time>
      </trkpt>
      <trkpt lat="47.76108" lon="6.56822">
        <ele>334.75</ele>
        <time>2015-06-13T12:58:12.665Z</time>
      </trkpt>
      <trkpt lat="47.76106" lon="6.56833">
        <ele>335.172</ele>
        <time>2015-06-13T12:58:13.652Z</time>
      </trkpt>
      <trkpt lat="47.76105" lon="6.56846">
        <ele>335.006</ele>
        <time>2015-06-13T12:58:14.675Z</time>
      </trkpt>
      <trkpt lat="47.761" lon="6.56859">
        <ele>334.59</ele>
        <time>2015-06-13T12:58:15.651Z</time>
      </trkpt>
      <trkpt lat="47.76096" lon="6.5687">
        <ele>334.136</ele>
        <time>2015-06-13T12:58:16.651Z</time>
      </trkpt>
      <trkpt lat="47.76088" lon="6.56872">
        <ele>333.754</ele>
        <time>2015-06-13T12:58:17.645Z</time>
      </trkpt>
      <trkpt lat="47.76082" lon="6.56879">
        <ele>333.055</ele>
        <time>2015-06-13T12:58:18.652Z</time>
      </trkpt>
      <trkpt lat="47.76074" lon="6.56888">
        <ele>331.458</ele>
        <time>2015-06-13T12:58:19.689Z</time>
      </trkpt>
      <trkpt lat="47.7607" lon="6.56898">
        <ele>330.521</ele>
        <time>2015-06-13T12:58:20.651Z</time>
      </trkpt>
      <trkpt lat="47.76067" lon="6.56908">
        <ele>329.744</ele>
        <time>2015-06-13T12:58:21.66Z</time>
      </trkpt>
      <trkpt lat="47.76066" lon="6.56918">
        <ele>329.375</ele>
        <time>2015-06-13T12:58:22.652Z</time>
      </trkpt>
      <trkpt lat="47.76069" lon="6.56926">
        <ele>330.258</ele>
        <time>2015-06-13T12:58:23.659Z</time>
      </trkpt>
      <trkpt lat="47.76071" lon="6.56934">
        <ele>330.707</ele>
        <time>2015-06-13T12:58:24.618Z</time>
      </trkpt>
      <trkpt lat="47.76071" lon="6.56943">
        <ele>330.959</ele>
        <time>2015-06-13T12:58:25.651Z</time>
      </trkpt>
      <trkpt lat="47.7607" lon="6.56953">
        <ele>331.728</ele>
        <time>2015-06-13T12:58:26.654Z</time>
      </trkpt>
      <trkpt lat="47.76071" lon="6.56962">
        <ele>332.571</ele>
        <time>2015-06-13T12:58:27.658Z</time>
      </trkpt>
      <trkpt lat="47.7607" lon="6.56973">
        <ele>333.465</ele>
        <time>2015-06-13T12:58:28.609Z</time>
      </trkpt>
      <trkpt lat="47.76069" lon="6.56981">
        <ele>333.025</ele>
        <time>2015-06-13T12:58:29.665Z</time>
      </trkpt>
      <trkpt lat="47.7607" lon="6.5699">
        <ele>332.518</ele>
        <time>2015-06-13T12:58:30.673Z</time>
      </trkpt>
      <trkpt lat="47.76073" lon="6.57">
        <ele>332.015</ele>
        <time>2015-06-13T12:58:31.658Z</time>
      </trkpt>
      <trkpt lat="47.76073" lon="6.5701">
        <ele>332.122</ele>
        <time>2015-06-13T12:58:32.616Z</time>
      </trkpt>
      <trkpt lat="47.76073" lon="6.57014">
        <ele>332.179</ele>
        <time>2015-06-13T12:58:33.651Z</time>
      </trkpt>
      <trkpt lat="47.76073" lon="6.57022">
        <ele>332.288</ele>
        <time>2015-06-13T12:58:34.651Z</time>
      </trkpt>
      <trkpt lat="47.76073" lon="6.57032">
        <ele>332.465</ele>
        <time>2015-06-13T12:58:35.651Z</time>
      </trkpt>
      <trkpt lat="47.76074" lon="6.57044">
        <ele>332.723</ele>
        <time>2015-06-13T12:58:36.659Z</time>
      </trkpt>
      <trkpt lat="47.76071" lon="6.57051">
        <ele>332.907</ele>
        <time>2015-06-13T12:58:37.669Z</time>
      </trkpt>
      <trkpt lat="47.76066" lon="6.57057">
        <ele>333.009</ele>
        <time>2015-06-13T12:58:38.659Z</time>
      </trkpt>
      <trkpt lat="47.76062" lon="6.57063">
        <ele>332.923</ele>
        <time>2015-06-13T12:58:39.658Z</time>
      </trkpt>
      <trkpt lat="47.76059" lon="6.57074">
        <ele>332.552</ele>
        <time>2015-06-13T12:58:40.659Z</time>
      </trkpt>
      <trkpt lat="47.76055" lon="6.5708">
        <ele>332.167</ele>
        <time>2015-06-13T12:58:41.667Z</time>
      </trkpt>
      <trkpt lat="47.76049" lon="6.57087">
        <ele>332.304</ele>
        <time>2015-06-13T12:58:42.669Z</time>
      </trkpt>
      <trkpt lat="47.76046" lon="6.57094">
        <ele>332.17</ele>
        <time>2015-06-13T12:58:43.658Z</time>
      </trkpt>
      <trkpt lat="47.76042" lon="6.571">
        <ele>332.073</ele>
        <time>2015-06-13T12:58:44.66Z</time>
      </trkpt>
      <trkpt lat="47.76036" lon="6.57109">
        <ele>331.85</ele>
        <time>2015-06-13T12:58:45.659Z</time>
      </trkpt>
      <trkpt lat="47.76032" lon="6.57116">
        <ele>331.736</ele>
        <time>2015-06-13T12:58:46.683Z</time>
      </trkpt>
      <trkpt lat="47.76028" lon="6.57123">
        <ele>331.597</ele>
        <time>2015-06-13T12:58:47.657Z</time>
      </trkpt>
      <trkpt lat="47.76023" lon="6.57132">
        <ele>331.766</ele>
        <time>2015-06-13T12:58:48.672Z</time>
      </trkpt>
      <trkpt lat="47.76018" lon="6.5714">
        <ele>331.669</ele>
        <time>2015-06-13T12:58:49.659Z</time>
      </trkpt>
      <trkpt lat="47.76014" lon="6.57147">
        <ele>331.702</ele>
        <time>2015-06-13T12:58:50.66Z</time>
      </trkpt>
      <trkpt lat="47.76009" lon="6.57155">
        <ele>331.577</ele>
        <time>2015-06-13T12:58:51.659Z</time>
      </trkpt>
      <trkpt lat="47.76006" lon="6.57163">
        <ele>331.238</ele>
        <time>2015-06-13T12:58:52.651Z</time>
      </trkpt>
      <trkpt lat="47.76001" lon="6.5717">
        <ele>330.737</ele>
        <time>2015-06-13T12:58:53.659Z</time>
      </trkpt>
      <trkpt lat="47.75996" lon="6.57178">
        <ele>330.256</ele>
        <time>2015-06-13T12:58:54.659Z</time>
      </trkpt>
      <trkpt lat="47.75991" lon="6.57187">
        <ele>329.652</ele>
        <time>2015-06-13T12:58:55.658Z</time>
      </trkpt>
      <trkpt lat="47.75987" lon="6.57192">
        <ele>329.262</ele>
        <time>2015-06-13T12:58:56.659Z</time>
      </trkpt>
      <trkpt lat="47.75982" lon="6.57197">
        <ele>329</ele>
        <time>2015-06-13T12:58:57.659Z</time>
      </trkpt>
      <trkpt lat="47.75976" lon="6.572">
        <ele>329</ele>
        <time>2015-06-13T12:58:58.658Z</time>
      </trkpt>
      <trkpt lat="47.75969" lon="6.57205">
        <ele>329.295</ele>
        <time>2015-06-13T12:58:59.659Z</time>
      </trkpt>
      <trkpt lat="47.75963" lon="6.5721">
        <ele>329.613</ele>
        <time>2015-06-13T12:59:00.658Z</time>
      </trkpt>
      <trkpt lat="47.75958" lon="6.57216">
        <ele>329.747</ele>
        <time>2015-06-13T12:59:01.651Z</time>
      </trkpt>
      <trkpt lat="47.75954" lon="6.57226">
        <ele>329.83</ele>
        <time>2015-06-13T12:59:03.658Z</time>
      </trkpt>
      <trkpt lat="47.75951" lon="6.57236">
        <ele>330.517</ele>
        <time>2015-06-13T12:59:04.652Z</time>
      </trkpt>
      <trkpt lat="47.75951" lon="6.57245">
        <ele>331.03</ele>
        <time>2015-06-13T12:59:05.657Z</time>
      </trkpt>
      <trkpt lat="47.75953" lon="6.57254">
        <ele>331.151</ele>
        <time>2015-06-13T12:59:06.657Z</time>
      </trkpt>
      <trkpt lat="47.75959" lon="6.5726">
        <ele>331.177</ele>
        <time>2015-06-13T12:59:07.862Z</time>
      </trkpt>
      <trkpt lat="47.75962" lon="6.57266">
        <ele>331.661</ele>
        <time>2015-06-13T12:59:08.659Z</time>
      </trkpt>
      <trkpt lat="47.75964" lon="6.57276">
        <ele>332.834</ele>
        <time>2015-06-13T12:59:09.658Z</time>
      </trkpt>
      <trkpt lat="47.75965" lon="6.57284">
        <ele>333.075</ele>
        <time>2015-06-13T12:59:10.658Z</time>
      </trkpt>
      <trkpt lat="47.75968" lon="6.57294">
        <ele>333.118</ele>
        <time>2015-06-13T12:59:11.668Z</time>
      </trkpt>
      <trkpt lat="47.75969" lon="6.57304">
        <ele>332.924</ele>
        <time>2015-06-13T12:59:12.659Z</time>
      </trkpt>
      <trkpt lat="47.75971" lon="6.57313">
        <ele>333.246</ele>
        <time>2015-06-13T12:59:13.616Z</time>
      </trkpt>
      <trkpt lat="47.75971" lon="6.57322">
        <ele>333.583</ele>
        <time>2015-06-13T12:59:14.713Z</time>
      </trkpt>
      <trkpt lat="47.7597" lon="6.57333">
        <ele>333.987</ele>
        <time>2015-06-13T12:59:15.652Z</time>
      </trkpt>
      <trkpt lat="47.75972" lon="6.5734">
        <ele>333.746</ele>
        <time>2015-06-13T12:59:16.659Z</time>
      </trkpt>
      <trkpt lat="47.75971" lon="6.57349">
        <ele>333.45</ele>
        <time>2015-06-13T12:59:17.659Z</time>
      </trkpt>
      <trkpt lat="47.75969" lon="6.57355">
        <ele>333.213</ele>
        <time>2015-06-13T12:59:18.682Z</time>
      </trkpt>
      <trkpt lat="47.75968" lon="6.57362">
        <ele>332.929</ele>
        <time>2015-06-13T12:59:19.66Z</time>
      </trkpt>
      <trkpt lat="47.75965" lon="6.57369">
        <ele>332.432</ele>
        <time>2015-06-13T12:59:20.653Z</time>
      </trkpt>
      <trkpt lat="47.75961" lon="6.57381">
        <ele>331.597</ele>
        <time>2015-06-13T12:59:22.652Z</time>
      </trkpt>
      <trkpt lat="47.75957" lon="6.5739">
        <ele>330.897</ele>
        <time>2015-06-13T12:59:23.652Z</time>
      </trkpt>
      <trkpt lat="47.75953" lon="6.57396">
        <ele>330.588</ele>
        <time>2015-06-13T12:59:24.66Z</time>
      </trkpt>
      <trkpt lat="47.7595" lon="6.57402">
        <ele>330.341</ele>
        <time>2015-06-13T12:59:25.666Z</time>
      </trkpt>
      <trkpt lat="47.75944" lon="6.57411">
        <ele>330.188</ele>
        <time>2015-06-13T12:59:26.658Z</time>
      </trkpt>
      <trkpt lat="47.7594" lon="6.57416">
        <ele>329.871</ele>
        <time>2015-06-13T12:59:27.651Z</time>
      </trkpt>
      <trkpt lat="47.75935" lon="6.57421">
        <ele>329.296</ele>
        <time>2015-06-13T12:59:28.653Z</time>
      </trkpt>
      <trkpt lat="47.75931" lon="6.57428">
        <ele>328.69</ele>
        <time>2015-06-13T12:59:29.653Z</time>
      </trkpt>
      <trkpt lat="47.75927" lon="6.57433">
        <ele>328.508</ele>
        <time>2015-06-13T12:59:30.653Z</time>
      </trkpt>
      <trkpt lat="47.75923" lon="6.5744">
        <ele>328.468</ele>
        <time>2015-06-13T12:59:31.651Z</time>
      </trkpt>
      <trkpt lat="47.75925" lon="6.5745">
        <ele>327.851</ele>
        <time>2015-06-13T12:59:32.65Z</time>
      </trkpt>
      <trkpt lat="47.75925" lon="6.57461">
        <ele>327.4</ele>
        <time>2015-06-13T12:59:33.652Z</time>
      </trkpt>
      <trkpt lat="47.75928" lon="6.57466">
        <ele>327.352</ele>
        <time>2015-06-13T12:59:34.677Z</time>
      </trkpt>
      <trkpt lat="47.75931" lon="6.57474">
        <ele>327.734</ele>
        <time>2015-06-13T12:59:35.655Z</time>
      </trkpt>
      <trkpt lat="47.75934" lon="6.57481">
        <ele>328.604</ele>
        <time>2015-06-13T12:59:36.66Z</time>
      </trkpt>
      <trkpt lat="47.75937" lon="6.57487">
        <ele>329.583</ele>
        <time>2015-06-13T12:59:37.661Z</time>
      </trkpt>
      <trkpt lat="47.75939" lon="6.57496">
        <ele>330.639</ele>
        <time>2015-06-13T12:59:38.654Z</time>
      </trkpt>
      <trkpt lat="47.75942" lon="6.57506">
        <ele>331.795</ele>
        <time>2015-06-13T12:59:39.661Z</time>
      </trkpt>
      <trkpt lat="47.75944" lon="6.57515">
        <ele>332.413</ele>
        <time>2015-06-13T12:59:40.652Z</time>
      </trkpt>
      <trkpt lat="47.75946" lon="6.57524">
        <ele>332.974</ele>
        <time>2015-06-13T12:59:41.614Z</time>
      </trkpt>
      <trkpt lat="47.75949" lon="6.57533">
        <ele>333.718</ele>
        <time>2015-06-13T12:59:42.653Z</time>
      </trkpt>
      <trkpt lat="47.75952" lon="6.57543">
        <ele>334.633</ele>
        <time>2015-06-13T12:59:43.659Z</time>
      </trkpt>
      <trkpt lat="47.75956" lon="6.57553">
        <ele>335.67</ele>
        <time>2015-06-13T12:59:44.659Z</time>
      </trkpt>
      <trkpt lat="47.75958" lon="6.57562">
        <ele>335.962</ele>
        <time>2015-06-13T12:59:45.683Z</time>
      </trkpt>
      <trkpt lat="47.7596" lon="6.57571">
        <ele>336.106</ele>
        <time>2015-06-13T12:59:46.658Z</time>
      </trkpt>
      <trkpt lat="47.75964" lon="6.57577">
        <ele>336.372</ele>
        <time>2015-06-13T12:59:47.658Z</time>
      </trkpt>
      <trkpt lat="47.75966" lon="6.57585">
        <ele>336.418</ele>
        <time>2015-06-13T12:59:48.658Z</time>
      </trkpt>
      <trkpt lat="47.75968" lon="6.57594">
        <ele>335.935</ele>
        <time>2015-06-13T12:59:49.658Z</time>
      </trkpt>
      <trkpt lat="47.75969" lon="6.57601">
        <ele>335.51</ele>
        <time>2015-06-13T12:59:50.66Z</time>
      </trkpt>
      <trkpt lat="47.75971" lon="6.57609">
        <ele>335.05</ele>
        <time>2015-06-13T12:59:51.659Z</time>
      </trkpt>
      <trkpt lat="47.75974" lon="6.57619">
        <ele>334.269</ele>
        <time>2015-06-13T12:59:52.628Z</time>
      </trkpt>
      <trkpt lat="47.75975" lon="6.57628">
        <ele>333.597</ele>
        <time>2015-06-13T12:59:53.659Z</time>
      </trkpt>
      <trkpt lat="47.75977" lon="6.57634">
        <ele>333.046</ele>
        <time>2015-06-13T12:59:54.652Z</time>
      </trkpt>
      <trkpt lat="47.75978" lon="6.57642">
        <ele>332.581</ele>
        <time>2015-06-13T12:59:55.659Z</time>
      </trkpt>
      <trkpt lat="47.75979" lon="6.57651">
        <ele>331.986</ele>
        <time>2015-06-13T12:59:56.69Z</time>
      </trkpt>
      <trkpt lat="47.75981" lon="6.5766">
        <ele>331.382</ele>
        <time>2015-06-13T12:59:57.828Z</time>
      </trkpt>
      <trkpt lat="47.75981" lon="6.57671">
        <ele>330.475</ele>
        <time>2015-06-13T12:59:58.66Z</time>
      </trkpt>
      <trkpt lat="47.75982" lon="6.57683">
        <ele>328.905</ele>
        <time>2015-06-13T12:59:59.659Z</time>
      </trkpt>
      <trkpt lat="47.75982" lon="6.57697">
        <ele>327.621</ele>
        <time>2015-06-13T13:00:00.617Z</time>
      </trkpt>
      <trkpt lat="47.7598" lon="6.57702">
        <ele>327.599</ele>
        <time>2015-06-13T13:00:01.659Z</time>
      </trkpt>
      <trkpt lat="47.75978" lon="6.5771">
        <ele>327.981</ele>
        <time>2015-06-13T13:00:02.686Z</time>
      </trkpt>
      <trkpt lat="47.75977" lon="6.5772">
        <ele>328.528</ele>
        <time>2015-06-13T13:00:03.658Z</time>
      </trkpt>
      <trkpt lat="47.75976" lon="6.57728">
        <ele>328.406</ele>
        <time>2015-06-13T13:00:04.659Z</time>
      </trkpt>
      <trkpt lat="47.75972" lon="6.57735">
        <ele>327.529</ele>
        <time>2015-06-13T13:00:05.659Z</time>
      </trkpt>
      <trkpt lat="47.75971" lon="6.57742">
        <ele>327.011</ele>
        <time>2015-06-13T13:00:06.659Z</time>
      </trkpt>
      <trkpt lat="47.75969" lon="6.57753">
        <ele>326.73</ele>
        <time>2015-06-13T13:00:07.635Z</time>
      </trkpt>
      <trkpt lat="47.75966" lon="6.57762">
        <ele>326.91</ele>
        <time>2015-06-13T13:00:08.651Z</time>
      </trkpt>
      <trkpt lat="47.75961" lon="6.57768">
        <ele>326.63</ele>
        <time>2015-06-13T13:00:09.658Z</time>
      </trkpt>
      <trkpt lat="47.75959" lon="6.57774">
        <ele>326.896</ele>
        <time>2015-06-13T13:00:10.652Z</time>
      </trkpt>
      <trkpt lat="47.75955" lon="6.57781">
        <ele>326.815</ele>
        <time>2015-06-13T13:00:11.666Z</time>
      </trkpt>
      <trkpt lat="47.75951" lon="6.5779">
        <ele>326.741</ele>
        <time>2015-06-13T13:00:12.684Z</time>
      </trkpt>
      <trkpt lat="47.75949" lon="6.57797">
        <ele>326.58</ele>
        <time>2015-06-13T13:00:13.659Z</time>
      </trkpt>
      <trkpt lat="47.75947" lon="6.57804">
        <ele>326.481</ele>
        <time>2015-06-13T13:00:14.655Z</time>
      </trkpt>
      <trkpt lat="47.75942" lon="6.5781">
        <ele>325.911</ele>
        <time>2015-06-13T13:00:15.635Z</time>
      </trkpt>
      <trkpt lat="47.7594" lon="6.57818">
        <ele>325.749</ele>
        <time>2015-06-13T13:00:16.651Z</time>
      </trkpt>
      <trkpt lat="47.75936" lon="6.57822">
        <ele>325.495</ele>
        <time>2015-06-13T13:00:17.651Z</time>
      </trkpt>
      <trkpt lat="47.75932" lon="6.57829">
        <ele>325.189</ele>
        <time>2015-06-13T13:00:18.651Z</time>
      </trkpt>
      <trkpt lat="47.7593" lon="6.57838">
        <ele>324.9</ele>
        <time>2015-06-13T13:00:19.658Z</time>
      </trkpt>
      <trkpt lat="47.75928" lon="6.57846">
        <ele>324.705</ele>
        <time>2015-06-13T13:00:20.644Z</time>
      </trkpt>
      <trkpt lat="47.75925" lon="6.57853">
        <ele>324.67</ele>
        <time>2015-06-13T13:00:21.659Z</time>
      </trkpt>
      <trkpt lat="47.75922" lon="6.57859">
        <ele>324.764</ele>
        <time>2015-06-13T13:00:22.652Z</time>
      </trkpt>
      <trkpt lat="47.75919" lon="6.57865">
        <ele>325.255</ele>
        <time>2015-06-13T13:00:23.642Z</time>
      </trkpt>
      <trkpt lat="47.75917" lon="6.57872">
        <ele>325.778</ele>
        <time>2015-06-13T13:00:24.652Z</time>
      </trkpt>
      <trkpt lat="47.75914" lon="6.5788">
        <ele>326.611</ele>
        <time>2015-06-13T13:00:25.664Z</time>
      </trkpt>
      <trkpt lat="47.75912" lon="6.57888">
        <ele>327.266</ele>
        <time>2015-06-13T13:00:26.651Z</time>
      </trkpt>
      <trkpt lat="47.75908" lon="6.57897">
        <ele>328.943</ele>
        <time>2015-06-13T13:00:27.652Z</time>
      </trkpt>
      <trkpt lat="47.75903" lon="6.57904">
        <ele>330.227</ele>
        <time>2015-06-13T13:00:28.659Z</time>
      </trkpt>
      <trkpt lat="47.75899" lon="6.5791">
        <ele>331.157</ele>
        <time>2015-06-13T13:00:29.651Z</time>
      </trkpt>
      <trkpt lat="47.75897" lon="6.57915">
        <ele>331.824</ele>
        <time>2015-06-13T13:00:30.658Z</time>
      </trkpt>
      <trkpt lat="47.75891" lon="6.57921">
        <ele>331.747</ele>
        <time>2015-06-13T13:00:31.659Z</time>
      </trkpt>
      <trkpt lat="47.75886" lon="6.57929">
        <ele>331.335</ele>
        <time>2015-06-13T13:00:32.659Z</time>
      </trkpt>
      <trkpt lat="47.75881" lon="6.57936">
        <ele>331.36</ele>
        <time>2015-06-13T13:00:33.659Z</time>
      </trkpt>
      <trkpt lat="47.75881" lon="6.57948">
        <ele>331.005</ele>
        <time>2015-06-13T13:00:34.651Z</time>
      </trkpt>
      <trkpt lat="47.75877" lon="6.5796">
        <ele>331.889</ele>
        <time>2015-06-13T13:00:37.659Z</time>
      </trkpt>
      <trkpt lat="47.7587" lon="6.57959">
        <ele>332.399</ele>
        <time>2015-06-13T13:00:38.653Z</time>
      </trkpt>
      <trkpt lat="47.75867" lon="6.57971">
        <ele>332.785</ele>
        <time>2015-06-13T13:00:46.658Z</time>
      </trkpt>
      <trkpt lat="47.75866" lon="6.57974">
        <ele>332.893</ele>
        <time>2015-06-13T13:00:47.658Z</time>
      </trkpt>
      <trkpt lat="47.75861" lon="6.57984">
        <ele>333.413</ele>
        <time>2015-06-13T13:00:56.659Z</time>
      </trkpt>
      <trkpt lat="47.75859" lon="6.57986">
        <ele>333.503</ele>
        <time>2015-06-13T13:00:57.659Z</time>
      </trkpt>
      <trkpt lat="47.75854" lon="6.57996">
        <ele>333.849</ele>
        <time>2015-06-13T13:00:59.649Z</time>
      </trkpt>
      <trkpt lat="47.75851" lon="6.58001">
        <ele>334.025</ele>
        <time>2015-06-13T13:01:00.711Z</time>
      </trkpt>
      <trkpt lat="47.75847" lon="6.58006">
        <ele>334.102</ele>
        <time>2015-06-13T13:01:01.656Z</time>
      </trkpt>
      <trkpt lat="47.75843" lon="6.58011">
        <ele>334.137</ele>
        <time>2015-06-13T13:01:02.666Z</time>
      </trkpt>
      <trkpt lat="47.7584" lon="6.58016">
        <ele>334.127</ele>
        <time>2015-06-13T13:01:03.664Z</time>
      </trkpt>
      <trkpt lat="47.75836" lon="6.58021">
        <ele>334.069</ele>
        <time>2015-06-13T13:01:04.655Z</time>
      </trkpt>
      <trkpt lat="47.7583" lon="6.58029">
        <ele>333.931</ele>
        <time>2015-06-13T13:01:06.656Z</time>
      </trkpt>
      <trkpt lat="47.75828" lon="6.58033">
        <ele>333.674</ele>
        <time>2015-06-13T13:01:07.781Z</time>
      </trkpt>
      <trkpt lat="47.75828" lon="6.58045">
        <ele>332.882</ele>
        <time>2015-06-13T13:01:15.657Z</time>
      </trkpt>
      <trkpt lat="47.75826" lon="6.58047">
        <ele>332.829</ele>
        <time>2015-06-13T13:01:16.683Z</time>
      </trkpt>
      <trkpt lat="47.75821" lon="6.58057">
        <ele>332.407</ele>
        <time>2015-06-13T13:01:18.671Z</time>
      </trkpt>
      <trkpt lat="47.75818" lon="6.58062">
        <ele>332.195</ele>
        <time>2015-06-13T13:01:19.651Z</time>
      </trkpt>
      <trkpt lat="47.75815" lon="6.58068">
        <ele>331.93</ele>
        <time>2015-06-13T13:01:20.688Z</time>
      </trkpt>
      <trkpt lat="47.75812" lon="6.58073">
        <ele>331.653</ele>
        <time>2015-06-13T13:01:21.658Z</time>
      </trkpt>
      <trkpt lat="47.75809" lon="6.58079">
        <ele>331.306</ele>
        <time>2015-06-13T13:01:22.687Z</time>
      </trkpt>
      <trkpt lat="47.75806" lon="6.58085">
        <ele>330.999</ele>
        <time>2015-06-13T13:01:23.591Z</time>
      </trkpt>
      <trkpt lat="47.75803" lon="6.58091">
        <ele>331.022</ele>
        <time>2015-06-13T13:01:24.65Z</time>
      </trkpt>
      <trkpt lat="47.75797" lon="6.581">
        <ele>331.176</ele>
        <time>2015-06-13T13:01:25.635Z</time>
      </trkpt>
      <trkpt lat="47.75792" lon="6.58105">
        <ele>331.373</ele>
        <time>2015-06-13T13:01:26.667Z</time>
      </trkpt>
      <trkpt lat="47.75786" lon="6.58109">
        <ele>331.642</ele>
        <time>2015-06-13T13:01:27.659Z</time>
      </trkpt>
      <trkpt lat="47.75781" lon="6.58114">
        <ele>331.784</ele>
        <time>2015-06-13T13:01:28.66Z</time>
      </trkpt>
      <trkpt lat="47.75778" lon="6.58115">
        <ele>331.835</ele>
        <time>2015-06-13T13:01:29.656Z</time>
      </trkpt>
      <trkpt lat="47.75775" lon="6.58117">
        <ele>331.167</ele>
        <time>2015-06-13T13:01:30.658Z</time>
      </trkpt>
      <trkpt lat="47.75768" lon="6.58121">
        <ele>329.837</ele>
        <time>2015-06-13T13:01:31.661Z</time>
      </trkpt>
      <trkpt lat="47.75764" lon="6.58124">
        <ele>329.192</ele>
        <time>2015-06-13T13:01:32.659Z</time>
      </trkpt>
      <trkpt lat="47.75757" lon="6.58127">
        <ele>328.272</ele>
        <time>2015-06-13T13:01:33.66Z</time>
      </trkpt>
      <trkpt lat="47.7575" lon="6.58126">
        <ele>327.101</ele>
        <time>2015-06-13T13:01:35.659Z</time>
      </trkpt>
      <trkpt lat="47.75746" lon="6.58129">
        <ele>326.869</ele>
        <time>2015-06-13T13:01:36.659Z</time>
      </trkpt>
      <trkpt lat="47.75741" lon="6.58131">
        <ele>326.337</ele>
        <time>2015-06-13T13:01:37.682Z</time>
      </trkpt>
      <trkpt lat="47.75736" lon="6.58134">
        <ele>325.744</ele>
        <time>2015-06-13T13:01:38.66Z</time>
      </trkpt>
      <trkpt lat="47.7573" lon="6.58136">
        <ele>325.05</ele>
        <time>2015-06-13T13:01:39.733Z</time>
      </trkpt>
      <trkpt lat="47.75723" lon="6.58137">
        <ele>324.165</ele>
        <time>2015-06-13T13:01:40.66Z</time>
      </trkpt>
      <trkpt lat="47.75719" lon="6.58138">
        <ele>324.126</ele>
        <time>2015-06-13T13:01:41.658Z</time>
      </trkpt>
      <trkpt lat="47.75713" lon="6.58141">
        <ele>324.303</ele>
        <time>2015-06-13T13:01:42.651Z</time>
      </trkpt>
      <trkpt lat="47.75707" lon="6.58144">
        <ele>324.448</ele>
        <time>2015-06-13T13:01:43.658Z</time>
      </trkpt>
      <trkpt lat="47.757" lon="6.5815">
        <ele>324.476</ele>
        <time>2015-06-13T13:01:44.66Z</time>
      </trkpt>
      <trkpt lat="47.75694" lon="6.58158">
        <ele>324.425</ele>
        <time>2015-06-13T13:01:46.658Z</time>
      </trkpt>
      <trkpt lat="47.7569" lon="6.58161">
        <ele>324.723</ele>
        <time>2015-06-13T13:01:47.659Z</time>
      </trkpt>
      <trkpt lat="47.75686" lon="6.58163">
        <ele>325.134</ele>
        <time>2015-06-13T13:01:48.659Z</time>
      </trkpt>
      <trkpt lat="47.75681" lon="6.58165">
        <ele>325.557</ele>
        <time>2015-06-13T13:01:49.658Z</time>
      </trkpt>
      <trkpt lat="47.75675" lon="6.58165">
        <ele>326.231</ele>
        <time>2015-06-13T13:01:51.659Z</time>
      </trkpt>
      <trkpt lat="47.75669" lon="6.58167">
        <ele>326.73</ele>
        <time>2015-06-13T13:01:52.659Z</time>
      </trkpt>
      <trkpt lat="47.75662" lon="6.5817">
        <ele>326.908</ele>
        <time>2015-06-13T13:01:54.651Z</time>
      </trkpt>
      <trkpt lat="47.75653" lon="6.58166">
        <ele>327.024</ele>
        <time>2015-06-13T13:01:55.837Z</time>
      </trkpt>
      <trkpt lat="47.75643" lon="6.58165">
        <ele>327.018</ele>
        <time>2015-06-13T13:01:56.659Z</time>
      </trkpt>
      <trkpt lat="47.75636" lon="6.58167">
        <ele>327.115</ele>
        <time>2015-06-13T13:01:58.683Z</time>
      </trkpt>
      <trkpt lat="47.75629" lon="6.58167">
        <ele>327.348</ele>
        <time>2015-06-13T13:01:59.658Z</time>
      </trkpt>
      <trkpt lat="47.75624" lon="6.58165">
        <ele>327.504</ele>
        <time>2015-06-13T13:02:00.658Z</time>
      </trkpt>
      <trkpt lat="47.75617" lon="6.58162">
        <ele>327.656</ele>
        <time>2015-06-13T13:02:01.647Z</time>
      </trkpt>
      <trkpt lat="47.75609" lon="6.58159">
        <ele>327.634</ele>
        <time>2015-06-13T13:02:02.653Z</time>
      </trkpt>
      <trkpt lat="47.75605" lon="6.58157">
        <ele>327.396</ele>
        <time>2015-06-13T13:02:03.651Z</time>
      </trkpt>
      <trkpt lat="47.75599" lon="6.58155">
        <ele>327.144</ele>
        <time>2015-06-13T13:02:04.658Z</time>
      </trkpt>
      <trkpt lat="47.7559" lon="6.58154">
        <ele>326.788</ele>
        <time>2015-06-13T13:02:05.658Z</time>
      </trkpt>
      <trkpt lat="47.75582" lon="6.58153">
        <ele>326.385</ele>
        <time>2015-06-13T13:02:07.683Z</time>
      </trkpt>
      <trkpt lat="47.75576" lon="6.58152">
        <ele>325.945</ele>
        <time>2015-06-13T13:02:08.653Z</time>
      </trkpt>
      <trkpt lat="47.7557" lon="6.58151">
        <ele>325.565</ele>
        <time>2015-06-13T13:02:09.636Z</time>
      </trkpt>
      <trkpt lat="47.75566" lon="6.5815">
        <ele>325.253</ele>
        <time>2015-06-13T13:02:10.65Z</time>
      </trkpt>
      <trkpt lat="47.75558" lon="6.58151">
        <ele>324.761</ele>
        <time>2015-06-13T13:02:11.651Z</time>
      </trkpt>
      <trkpt lat="47.75553" lon="6.58151">
        <ele>324.335</ele>
        <time>2015-06-13T13:02:12.652Z</time>
      </trkpt>
      <trkpt lat="47.75546" lon="6.58153">
        <ele>323.431</ele>
        <time>2015-06-13T13:02:14.672Z</time>
      </trkpt>
      <trkpt lat="47.75541" lon="6.58153">
        <ele>322.857</ele>
        <time>2015-06-13T13:02:15.666Z</time>
      </trkpt>
      <trkpt lat="47.75535" lon="6.58154">
        <ele>322.193</ele>
        <time>2015-06-13T13:02:16.659Z</time>
      </trkpt>
      <trkpt lat="47.75529" lon="6.58153">
        <ele>321.598</ele>
        <time>2015-06-13T13:02:17.659Z</time>
      </trkpt>
      <trkpt lat="47.75522" lon="6.58156">
        <ele>321.465</ele>
        <time>2015-06-13T13:02:18.652Z</time>
      </trkpt>
      <trkpt lat="47.75515" lon="6.58156">
        <ele>321.827</ele>
        <time>2015-06-13T13:02:19.655Z</time>
      </trkpt>
      <trkpt lat="47.75509" lon="6.5816">
        <ele>322.076</ele>
        <time>2015-06-13T13:02:21.662Z</time>
      </trkpt>
      <trkpt lat="47.75507" lon="6.58163">
        <ele>322.263</ele>
        <time>2015-06-13T13:02:22.656Z</time>
      </trkpt>
      <trkpt lat="47.75503" lon="6.58174">
        <ele>322.762</ele>
        <time>2015-06-13T13:02:24.691Z</time>
      </trkpt>
      <trkpt lat="47.75506" lon="6.58183">
        <ele>322.87</ele>
        <time>2015-06-13T13:02:25.667Z</time>
      </trkpt>
      <trkpt lat="47.755" lon="6.58193">
        <ele>323.003</ele>
        <time>2015-06-13T13:02:27.637Z</time>
      </trkpt>
      <trkpt lat="47.75497" lon="6.582">
        <ele>324.316</ele>
        <time>2015-06-13T13:02:28.658Z</time>
      </trkpt>
      <trkpt lat="47.75495" lon="6.58213">
        <ele>326.822</ele>
        <time>2015-06-13T13:02:30.614Z</time>
      </trkpt>
      <trkpt lat="47.75494" lon="6.58219">
        <ele>328.002</ele>
        <time>2015-06-13T13:02:31.665Z</time>
      </trkpt>
      <trkpt lat="47.75496" lon="6.58226">
        <ele>328.709</ele>
        <time>2015-06-13T13:02:33.674Z</time>
      </trkpt>
      <trkpt lat="47.75496" lon="6.58234">
        <ele>329.344</ele>
        <time>2015-06-13T13:02:34.674Z</time>
      </trkpt>
      <trkpt lat="47.75497" lon="6.5824">
        <ele>329.63</ele>
        <time>2015-06-13T13:02:36.653Z</time>
      </trkpt>
      <trkpt lat="47.75497" lon="6.58249">
        <ele>330.379</ele>
        <time>2015-06-13T13:02:37.661Z</time>
      </trkpt>
      <trkpt lat="47.75496" lon="6.58259">
        <ele>331.603</ele>
        <time>2015-06-13T13:02:38.659Z</time>
      </trkpt>
      <trkpt lat="47.75496" lon="6.58267">
        <ele>332.584</ele>
        <time>2015-06-13T13:02:39.653Z</time>
      </trkpt>
      <trkpt lat="47.75497" lon="6.58276">
        <ele>333.265</ele>
        <time>2015-06-13T13:02:40.66Z</time>
      </trkpt>
      <trkpt lat="47.75496" lon="6.58285">
        <ele>333.882</ele>
        <time>2015-06-13T13:02:41.661Z</time>
      </trkpt>
      <trkpt lat="47.75494" lon="6.58293">
        <ele>334.472</ele>
        <time>2015-06-13T13:02:43.659Z</time>
      </trkpt>
      <trkpt lat="47.75493" lon="6.58301">
        <ele>334.846</ele>
        <time>2015-06-13T13:02:44.654Z</time>
      </trkpt>
      <trkpt lat="47.75492" lon="6.58309">
        <ele>335.361</ele>
        <time>2015-06-13T13:02:45.69Z</time>
      </trkpt>
      <trkpt lat="47.75493" lon="6.58321">
        <ele>336.029</ele>
        <time>2015-06-13T13:02:46.654Z</time>
      </trkpt>
      <trkpt lat="47.75485" lon="6.58326">
        <ele>337.261</ele>
        <time>2015-06-13T13:02:48.653Z</time>
      </trkpt>
      <trkpt lat="47.7548" lon="6.58325">
        <ele>337.731</ele>
        <time>2015-06-13T13:02:49.656Z</time>
      </trkpt>
      <trkpt lat="47.75472" lon="6.58322">
        <ele>338.619</ele>
        <time>2015-06-13T13:02:54.654Z</time>
      </trkpt>
      <trkpt lat="47.75471" lon="6.58323">
        <ele>338.638</ele>
        <time>2015-06-13T13:02:55.66Z</time>
      </trkpt>
      <trkpt lat="47.75479" lon="6.58319">
        <ele>337.63</ele>
        <time>2015-06-13T13:02:59.66Z</time>
      </trkpt>
      <trkpt lat="47.75482" lon="6.58317">
        <ele>337.185</ele>
        <time>2015-06-13T13:03:00.654Z</time>
      </trkpt>
      <trkpt lat="47.75488" lon="6.58314">
        <ele>336.18</ele>
        <time>2015-06-13T13:03:02.659Z</time>
      </trkpt>
      <trkpt lat="47.75491" lon="6.58312">
        <ele>335.685</ele>
        <time>2015-06-13T13:03:03.653Z</time>
      </trkpt>
      <trkpt lat="47.75496" lon="6.58304">
        <ele>334.469</ele>
        <time>2015-06-13T13:03:05.64Z</time>
      </trkpt>
      <trkpt lat="47.75499" lon="6.58299">
        <ele>333.903</ele>
        <time>2015-06-13T13:03:06.66Z</time>
      </trkpt>
      <trkpt lat="47.75504" lon="6.58291">
        <ele>333.468</ele>
        <time>2015-06-13T13:03:08.592Z</time>
      </trkpt>
      <trkpt lat="47.75508" lon="6.58288">
        <ele>333.319</ele>
        <time>2015-06-13T13:03:09.72Z</time>
      </trkpt>
      <trkpt lat="47.755" lon="6.58288">
        <ele>333.381</ele>
        <time>2015-06-13T13:03:14.654Z</time>
      </trkpt>
      <trkpt lat="47.75498" lon="6.58292">
        <ele>333.799</ele>
        <time>2015-06-13T13:03:15.651Z</time>
      </trkpt>
      <trkpt lat="47.75493" lon="6.58299">
        <ele>334.913</ele>
        <time>2015-06-13T13:03:17.66Z</time>
      </trkpt>
      <trkpt lat="47.75489" lon="6.583">
        <ele>335.511</ele>
        <time>2015-06-13T13:03:18.73Z</time>
      </trkpt>
      <trkpt lat="47.75484" lon="6.58301">
        <ele>336.198</ele>
        <time>2015-06-13T13:03:19.848Z</time>
      </trkpt>
      <trkpt lat="47.7548" lon="6.58301">
        <ele>336.895</ele>
        <time>2015-06-13T13:03:20.661Z</time>
      </trkpt>
      <trkpt lat="47.75471" lon="6.58302">
        <ele>337.959</ele>
        <time>2015-06-13T13:03:22.675Z</time>
      </trkpt>
      <trkpt lat="47.75467" lon="6.58303">
        <ele>337.782</ele>
        <time>2015-06-13T13:03:23.657Z</time>
      </trkpt>
      <trkpt lat="47.75459" lon="6.58302">
        <ele>337.462</ele>
        <time>2015-06-13T13:03:25.658Z</time>
      </trkpt>
      <trkpt lat="47.75455" lon="6.583">
        <ele>337.276</ele>
        <time>2015-06-13T13:03:26.661Z</time>
      </trkpt>
      <trkpt lat="47.7545" lon="6.58294">
        <ele>336.863</ele>
        <time>2015-06-13T13:03:28.652Z</time>
      </trkpt>
      <trkpt lat="47.75447" lon="6.58293">
        <ele>336.697</ele>
        <time>2015-06-13T13:03:29.659Z</time>
      </trkpt>
      <trkpt lat="47.75444" lon="6.58305">
        <ele>336.884</ele>
        <time>2015-06-13T13:03:33.704Z</time>
      </trkpt>
      <trkpt lat="47.75444" lon="6.58309">
        <ele>337.531</ele>
        <time>2015-06-13T13:03:34.664Z</time>
      </trkpt>
      <trkpt lat="47.75444" lon="6.58322">
        <ele>339.271</ele>
        <time>2015-06-13T13:03:36.665Z</time>
      </trkpt>
      <trkpt lat="47.75444" lon="6.58328">
        <ele>340.11</ele>
        <time>2015-06-13T13:03:37.644Z</time>
      </trkpt>
      <trkpt lat="47.75444" lon="6.58336">
        <ele>340.881</ele>
        <time>2015-06-13T13:03:38.658Z</time>
      </trkpt>
      <trkpt lat="47.75446" lon="6.58347">
        <ele>340.894</ele>
        <time>2015-06-13T13:03:39.659Z</time>
      </trkpt>
      <trkpt lat="47.75448" lon="6.58354">
        <ele>340.862</ele>
        <time>2015-06-13T13:03:40.652Z</time>
      </trkpt>
      <trkpt lat="47.75446" lon="6.58361">
        <ele>340.95</ele>
        <time>2015-06-13T13:03:41.652Z</time>
      </trkpt>
      <trkpt lat="47.75446" lon="6.58373">
        <ele>340.196</ele>
        <time>2015-06-13T13:03:43.664Z</time>
      </trkpt>
      <trkpt lat="47.75452" lon="6.58376">
        <ele>340.096</ele>
        <time>2015-06-13T13:03:44.659Z</time>
      </trkpt>
      <trkpt lat="47.75458" lon="6.58379">
        <ele>340.142</ele>
        <time>2015-06-13T13:03:45.658Z</time>
      </trkpt>
      <trkpt lat="47.75463" lon="6.58383">
        <ele>340.35</ele>
        <time>2015-06-13T13:03:46.652Z</time>
      </trkpt>
      <trkpt lat="47.75467" lon="6.58389">
        <ele>340.59</ele>
        <time>2015-06-13T13:03:47.65Z</time>
      </trkpt>
      <trkpt lat="47.7547" lon="6.58395">
        <ele>340.422</ele>
        <time>2015-06-13T13:03:48.651Z</time>
      </trkpt>
      <trkpt lat="47.75475" lon="6.58399">
        <ele>339.921</ele>
        <time>2015-06-13T13:03:49.681Z</time>
      </trkpt>
      <trkpt lat="47.75479" lon="6.58404">
        <ele>339.323</ele>
        <time>2015-06-13T13:03:50.659Z</time>
      </trkpt>
      <trkpt lat="47.75485" lon="6.58409">
        <ele>338.92</ele>
        <time>2015-06-13T13:03:51.672Z</time>
      </trkpt>
      <trkpt lat="47.7549" lon="6.58413">
        <ele>338.855</ele>
        <time>2015-06-13T13:03:52.657Z</time>
      </trkpt>
      <trkpt lat="47.75496" lon="6.58417">
        <ele>338.943</ele>
        <time>2015-06-13T13:03:53.679Z</time>
      </trkpt>
      <trkpt lat="47.755" lon="6.58423">
        <ele>338.566</ele>
        <time>2015-06-13T13:03:54.635Z</time>
      </trkpt>
      <trkpt lat="47.75507" lon="6.58428">
        <ele>337.043</ele>
        <time>2015-06-13T13:03:56.65Z</time>
      </trkpt>
      <trkpt lat="47.75512" lon="6.58432">
        <ele>335.931</ele>
        <time>2015-06-13T13:03:57.652Z</time>
      </trkpt>
      <trkpt lat="47.75517" lon="6.58436">
        <ele>334.942</ele>
        <time>2015-06-13T13:03:58.651Z</time>
      </trkpt>
      <trkpt lat="47.75524" lon="6.58438">
        <ele>333.815</ele>
        <time>2015-06-13T13:03:59.651Z</time>
      </trkpt>
      <trkpt lat="47.75529" lon="6.58442">
        <ele>332.96</ele>
        <time>2015-06-13T13:04:00.652Z</time>
      </trkpt>
      <trkpt lat="47.75535" lon="6.58445">
        <ele>332.252</ele>
        <time>2015-06-13T13:04:01.651Z</time>
      </trkpt>
      <trkpt lat="47.75541" lon="6.58448">
        <ele>331.503</ele>
        <time>2015-06-13T13:04:02.615Z</time>
      </trkpt>
      <trkpt lat="47.75546" lon="6.5845">
        <ele>331</ele>
        <time>2015-06-13T13:04:03.65Z</time>
      </trkpt>
      <trkpt lat="47.75551" lon="6.58451">
        <ele>330.626</ele>
        <time>2015-06-13T13:04:04.659Z</time>
      </trkpt>
      <trkpt lat="47.75556" lon="6.58452">
        <ele>330.226</ele>
        <time>2015-06-13T13:04:05.658Z</time>
      </trkpt>
      <trkpt lat="47.7556" lon="6.58453">
        <ele>329.618</ele>
        <time>2015-06-13T13:04:06.65Z</time>
      </trkpt>
      <trkpt lat="47.75565" lon="6.58454">
        <ele>329.027</ele>
        <time>2015-06-13T13:04:07.698Z</time>
      </trkpt>
      <trkpt lat="47.7557" lon="6.58455">
        <ele>328.25</ele>
        <time>2015-06-13T13:04:08.651Z</time>
      </trkpt>
      <trkpt lat="47.75574" lon="6.58456">
        <ele>327.785</ele>
        <time>2015-06-13T13:04:09.652Z</time>
      </trkpt>
      <trkpt lat="47.75579" lon="6.58457">
        <ele>327.072</ele>
        <time>2015-06-13T13:04:10.834Z</time>
      </trkpt>
      <trkpt lat="47.75586" lon="6.58458">
        <ele>326.566</ele>
        <time>2015-06-13T13:04:11.659Z</time>
      </trkpt>
      <trkpt lat="47.75591" lon="6.58457">
        <ele>326.714</ele>
        <time>2015-06-13T13:04:12.669Z</time>
      </trkpt>
      <trkpt lat="47.75597" lon="6.58458">
        <ele>326.966</ele>
        <time>2015-06-13T13:04:13.658Z</time>
      </trkpt>
      <trkpt lat="47.75603" lon="6.58457">
        <ele>327.164</ele>
        <time>2015-06-13T13:04:14.659Z</time>
      </trkpt>
      <trkpt lat="47.75608" lon="6.58459">
        <ele>327.441</ele>
        <time>2015-06-13T13:04:15.659Z</time>
      </trkpt>
      <trkpt lat="47.75614" lon="6.58462">
        <ele>327.563</ele>
        <time>2015-06-13T13:04:16.659Z</time>
      </trkpt>
      <trkpt lat="47.75618" lon="6.58464">
        <ele>327.686</ele>
        <time>2015-06-13T13:04:17.651Z</time>
      </trkpt>
      <trkpt lat="47.75623" lon="6.58468">
        <ele>328.013</ele>
        <time>2015-06-13T13:04:18.651Z</time>
      </trkpt>
      <trkpt lat="47.75628" lon="6.5847">
        <ele>328.368</ele>
        <time>2015-06-13T13:04:19.651Z</time>
      </trkpt>
      <trkpt lat="47.75631" lon="6.58475">
        <ele>328.73</ele>
        <time>2015-06-13T13:04:20.651Z</time>
      </trkpt>
      <trkpt lat="47.75634" lon="6.58481">
        <ele>328.879</ele>
        <time>2015-06-13T13:04:21.676Z</time>
      </trkpt>
      <trkpt lat="47.75642" lon="6.58488">
        <ele>329.25</ele>
        <time>2015-06-13T13:04:23.658Z</time>
      </trkpt>
      <trkpt lat="47.75647" lon="6.58491">
        <ele>329.782</ele>
        <time>2015-06-13T13:04:24.653Z</time>
      </trkpt>
      <trkpt lat="47.75651" lon="6.58495">
        <ele>330.225</ele>
        <time>2015-06-13T13:04:26.661Z</time>
      </trkpt>
      <trkpt lat="47.75656" lon="6.58495">
        <ele>330.727</ele>
        <time>2015-06-13T13:04:27.651Z</time>
      </trkpt>
      <trkpt lat="47.75665" lon="6.58495">
        <ele>331.624</ele>
        <time>2015-06-13T13:04:29.653Z</time>
      </trkpt>
      <trkpt lat="47.7567" lon="6.58496">
        <ele>332.173</ele>
        <time>2015-06-13T13:04:30.659Z</time>
      </trkpt>
      <trkpt lat="47.75674" lon="6.58494">
        <ele>332.623</ele>
        <time>2015-06-13T13:04:31.66Z</time>
      </trkpt>
      <trkpt lat="47.7568" lon="6.58494">
        <ele>333.231</ele>
        <time>2015-06-13T13:04:32.662Z</time>
      </trkpt>
      <trkpt lat="47.75686" lon="6.58495">
        <ele>333.858</ele>
        <time>2015-06-13T13:04:33.667Z</time>
      </trkpt>
      <trkpt lat="47.75693" lon="6.58496">
        <ele>334.664</ele>
        <time>2015-06-13T13:04:34.659Z</time>
      </trkpt>
      <trkpt lat="47.75695" lon="6.58498">
        <ele>334.98</ele>
        <time>2015-06-13T13:04:35.659Z</time>
      </trkpt>
      <trkpt lat="47.75702" lon="6.585">
        <ele>335.546</ele>
        <time>2015-06-13T13:04:36.662Z</time>
      </trkpt>
      <trkpt lat="47.75708" lon="6.58504">
        <ele>335.992</ele>
        <time>2015-06-13T13:04:37.66Z</time>
      </trkpt>
      <trkpt lat="47.75713" lon="6.58509">
        <ele>336.231</ele>
        <time>2015-06-13T13:04:38.652Z</time>
      </trkpt>
      <trkpt lat="47.75719" lon="6.58514">
        <ele>336.359</ele>
        <time>2015-06-13T13:04:39.659Z</time>
      </trkpt>
      <trkpt lat="47.75722" lon="6.58517">
        <ele>336.377</ele>
        <time>2015-06-13T13:04:40.659Z</time>
      </trkpt>
      <trkpt lat="47.75725" lon="6.5852">
        <ele>336.312</ele>
        <time>2015-06-13T13:04:41.662Z</time>
      </trkpt>
      <trkpt lat="47.75731" lon="6.58522">
        <ele>336.287</ele>
        <time>2015-06-13T13:04:42.659Z</time>
      </trkpt>
      <trkpt lat="47.75737" lon="6.58524">
        <ele>336.23</ele>
        <time>2015-06-13T13:04:43.615Z</time>
      </trkpt>
      <trkpt lat="47.75742" lon="6.58525">
        <ele>336.166</ele>
        <time>2015-06-13T13:04:44.66Z</time>
      </trkpt>
      <trkpt lat="47.75749" lon="6.58528">
        <ele>336.02</ele>
        <time>2015-06-13T13:04:45.652Z</time>
      </trkpt>
      <trkpt lat="47.75754" lon="6.58528">
        <ele>335.701</ele>
        <time>2015-06-13T13:04:46.651Z</time>
      </trkpt>
      <trkpt lat="47.75759" lon="6.5853">
        <ele>335.28</ele>
        <time>2015-06-13T13:04:47.674Z</time>
      </trkpt>
      <trkpt lat="47.75765" lon="6.5853">
        <ele>334.852</ele>
        <time>2015-06-13T13:04:48.675Z</time>
      </trkpt>
      <trkpt lat="47.75772" lon="6.58535">
        <ele>334.388</ele>
        <time>2015-06-13T13:04:50.668Z</time>
      </trkpt>
      <trkpt lat="47.75777" lon="6.58537">
        <ele>334.077</ele>
        <time>2015-06-13T13:04:51.659Z</time>
      </trkpt>
      <trkpt lat="47.75784" lon="6.58543">
        <ele>334.445</ele>
        <time>2015-06-13T13:04:53.658Z</time>
      </trkpt>
      <trkpt lat="47.75788" lon="6.58546">
        <ele>334.651</ele>
        <time>2015-06-13T13:04:54.652Z</time>
      </trkpt>
      <trkpt lat="47.75794" lon="6.58549">
        <ele>334.85</ele>
        <time>2015-06-13T13:04:55.658Z</time>
      </trkpt>
      <trkpt lat="47.75797" lon="6.5855">
        <ele>334.989</ele>
        <time>2015-06-13T13:04:56.658Z</time>
      </trkpt>
      <trkpt lat="47.75805" lon="6.58551">
        <ele>335.287</ele>
        <time>2015-06-13T13:04:58.652Z</time>
      </trkpt>
      <trkpt lat="47.75811" lon="6.58552">
        <ele>335.801</ele>
        <time>2015-06-13T13:04:59.666Z</time>
      </trkpt>
      <trkpt lat="47.75816" lon="6.58553">
        <ele>336.262</ele>
        <time>2015-06-13T13:05:00.643Z</time>
      </trkpt>
      <trkpt lat="47.75822" lon="6.58552">
        <ele>336.915</ele>
        <time>2015-06-13T13:05:01.658Z</time>
      </trkpt>
      <trkpt lat="47.75827" lon="6.58554">
        <ele>337.375</ele>
        <time>2015-06-13T13:05:02.651Z</time>
      </trkpt>
      <trkpt lat="47.75831" lon="6.58554">
        <ele>337.829</ele>
        <time>2015-06-13T13:05:03.651Z</time>
      </trkpt>
      <trkpt lat="47.75837" lon="6.58554">
        <ele>338.688</ele>
        <time>2015-06-13T13:05:04.68Z</time>
      </trkpt>
      <trkpt lat="47.75841" lon="6.58554">
        <ele>339.391</ele>
        <time>2015-06-13T13:05:05.65Z</time>
      </trkpt>
      <trkpt lat="47.75846" lon="6.58554">
        <ele>340.168</ele>
        <time>2015-06-13T13:05:06.651Z</time>
      </trkpt>
      <trkpt lat="47.75853" lon="6.58552">
        <ele>341.309</ele>
        <time>2015-06-13T13:05:07.684Z</time>
      </trkpt>
      <trkpt lat="47.7586" lon="6.58552">
        <ele>342.438</ele>
        <time>2015-06-13T13:05:08.648Z</time>
      </trkpt>
      <trkpt lat="47.75867" lon="6.58552">
        <ele>343.139</ele>
        <time>2015-06-13T13:05:09.651Z</time>
      </trkpt>
      <trkpt lat="47.75872" lon="6.58552">
        <ele>343.696</ele>
        <time>2015-06-13T13:05:10.646Z</time>
      </trkpt>
      <trkpt lat="47.75879" lon="6.58552">
        <ele>344.296</ele>
        <time>2015-06-13T13:05:11.671Z</time>
      </trkpt>
      <trkpt lat="47.75886" lon="6.58551">
        <ele>344.839</ele>
        <time>2015-06-13T13:05:12.651Z</time>
      </trkpt>
      <trkpt lat="47.75891" lon="6.58553">
        <ele>345.511</ele>
        <time>2015-06-13T13:05:13.65Z</time>
      </trkpt>
      <trkpt lat="47.75896" lon="6.58552">
        <ele>345.147</ele>
        <time>2015-06-13T13:05:14.651Z</time>
      </trkpt>
      <trkpt lat="47.75902" lon="6.58551">
        <ele>344.636</ele>
        <time>2015-06-13T13:05:15.667Z</time>
      </trkpt>
      <trkpt lat="47.7591" lon="6.5855">
        <ele>344.204</ele>
        <time>2015-06-13T13:05:17.652Z</time>
      </trkpt>
      <trkpt lat="47.75914" lon="6.58548">
        <ele>343.696</ele>
        <time>2015-06-13T13:05:18.658Z</time>
      </trkpt>
      <trkpt lat="47.75917" lon="6.58548">
        <ele>343.585</ele>
        <time>2015-06-13T13:05:19.651Z</time>
      </trkpt>
      <trkpt lat="47.75926" lon="6.58549">
        <ele>342.915</ele>
        <time>2015-06-13T13:05:20.675Z</time>
      </trkpt>
      <trkpt lat="47.75932" lon="6.58548">
        <ele>342.313</ele>
        <time>2015-06-13T13:05:21.657Z</time>
      </trkpt>
      <trkpt lat="47.75937" lon="6.58546">
        <ele>341.872</ele>
        <time>2015-06-13T13:05:22.633Z</time>
      </trkpt>
      <trkpt lat="47.75945" lon="6.58545">
        <ele>341.462</ele>
        <time>2015-06-13T13:05:24.65Z</time>
      </trkpt>
      <trkpt lat="47.75955" lon="6.58542">
        <ele>343.613</ele>
        <time>2015-06-13T13:05:25.651Z</time>
      </trkpt>
      <trkpt lat="47.75962" lon="6.58541">
        <ele>344.945</ele>
        <time>2015-06-13T13:05:26.658Z</time>
      </trkpt>
      <trkpt lat="47.75967" lon="6.5854">
        <ele>345.92</ele>
        <time>2015-06-13T13:05:27.658Z</time>
      </trkpt>
      <trkpt lat="47.75976" lon="6.58537">
        <ele>347.331</ele>
        <time>2015-06-13T13:05:28.658Z</time>
      </trkpt>
      <trkpt lat="47.75985" lon="6.58534">
        <ele>348.856</ele>
        <time>2015-06-13T13:05:30.665Z</time>
      </trkpt>
      <trkpt lat="47.75988" lon="6.58535">
        <ele>349.408</ele>
        <time>2015-06-13T13:05:31.666Z</time>
      </trkpt>
      <trkpt lat="47.75994" lon="6.58533">
        <ele>350.855</ele>
        <time>2015-06-13T13:05:32.687Z</time>
      </trkpt>
      <trkpt lat="47.76001" lon="6.5853">
        <ele>352.658</ele>
        <time>2015-06-13T13:05:33.651Z</time>
      </trkpt>
      <trkpt lat="47.76003" lon="6.58524">
        <ele>351.682</ele>
        <time>2015-06-13T13:05:34.652Z</time>
      </trkpt>
      <trkpt lat="47.76009" lon="6.58523">
        <ele>351.455</ele>
        <time>2015-06-13T13:05:35.732Z</time>
      </trkpt>
      <trkpt lat="47.76018" lon="6.58521">
        <ele>351.213</ele>
        <time>2015-06-13T13:05:37.659Z</time>
      </trkpt>
      <trkpt lat="47.76022" lon="6.58521">
        <ele>351.358</ele>
        <time>2015-06-13T13:05:38.659Z</time>
      </trkpt>
      <trkpt lat="47.76027" lon="6.58518">
        <ele>351.302</ele>
        <time>2015-06-13T13:05:39.658Z</time>
      </trkpt>
      <trkpt lat="47.7603" lon="6.58515">
        <ele>351.153</ele>
        <time>2015-06-13T13:05:40.651Z</time>
      </trkpt>
      <trkpt lat="47.76038" lon="6.58512">
        <ele>351.25</ele>
        <time>2015-06-13T13:05:42.653Z</time>
      </trkpt>
      <trkpt lat="47.7604" lon="6.58513">
        <ele>351.34</ele>
        <time>2015-06-13T13:05:43.66Z</time>
      </trkpt>
      <trkpt lat="47.76045" lon="6.58514">
        <ele>351.635</ele>
        <time>2015-06-13T13:05:44.637Z</time>
      </trkpt>
      <trkpt lat="47.76051" lon="6.58511">
        <ele>351.599</ele>
        <time>2015-06-13T13:05:45.659Z</time>
      </trkpt>
      <trkpt lat="47.76059" lon="6.58507">
        <ele>351.133</ele>
        <time>2015-06-13T13:05:46.658Z</time>
      </trkpt>
      <trkpt lat="47.76069" lon="6.58503">
        <ele>350.108</ele>
        <time>2015-06-13T13:05:47.681Z</time>
      </trkpt>
      <trkpt lat="47.76077" lon="6.58503">
        <ele>349.434</ele>
        <time>2015-06-13T13:05:49.66Z</time>
      </trkpt>
      <trkpt lat="47.76084" lon="6.58502">
        <ele>348.919</ele>
        <time>2015-06-13T13:05:50.651Z</time>
      </trkpt>
      <trkpt lat="47.7609" lon="6.58506">
        <ele>348.574</ele>
        <time>2015-06-13T13:05:52.652Z</time>
      </trkpt>
      <trkpt lat="47.761" lon="6.58507">
        <ele>348.311</ele>
        <time>2015-06-13T13:05:53.651Z</time>
      </trkpt>
      <trkpt lat="47.76107" lon="6.58508">
        <ele>348.093</ele>
        <time>2015-06-13T13:05:54.657Z</time>
      </trkpt>
      <trkpt lat="47.76114" lon="6.58509">
        <ele>347.649</ele>
        <time>2015-06-13T13:05:55.657Z</time>
      </trkpt>
      <trkpt lat="47.76121" lon="6.58509">
        <ele>346.651</ele>
        <time>2015-06-13T13:05:56.659Z</time>
      </trkpt>
      <trkpt lat="47.76129" lon="6.58511">
        <ele>345.585</ele>
        <time>2015-06-13T13:05:57.658Z</time>
      </trkpt>
      <trkpt lat="47.76134" lon="6.58513">
        <ele>344.753</ele>
        <time>2015-06-13T13:05:58.682Z</time>
      </trkpt>
      <trkpt lat="47.76146" lon="6.58512">
        <ele>343.638</ele>
        <time>2015-06-13T13:05:59.652Z</time>
      </trkpt>
      <trkpt lat="47.7615" lon="6.58513">
        <ele>343.221</ele>
        <time>2015-06-13T13:06:00.65Z</time>
      </trkpt>
      <trkpt lat="47.76155" lon="6.58512">
        <ele>342.962</ele>
        <time>2015-06-13T13:06:01.651Z</time>
      </trkpt>
      <trkpt lat="47.76158" lon="6.58509">
        <ele>343.005</ele>
        <time>2015-06-13T13:06:02.658Z</time>
      </trkpt>
      <trkpt lat="47.76165" lon="6.58505">
        <ele>342.774</ele>
        <time>2015-06-13T13:06:03.657Z</time>
      </trkpt>
      <trkpt lat="47.76173" lon="6.58502">
        <ele>343.346</ele>
        <time>2015-06-13T13:06:06.653Z</time>
      </trkpt>
      <trkpt lat="47.76181" lon="6.58498">
        <ele>344.472</ele>
        <time>2015-06-13T13:06:07.701Z</time>
      </trkpt>
      <trkpt lat="47.76189" lon="6.58493">
        <ele>345.93</ele>
        <time>2015-06-13T13:06:08.652Z</time>
      </trkpt>
      <trkpt lat="47.76194" lon="6.58491">
        <ele>346.653</ele>
        <time>2015-06-13T13:06:09.675Z</time>
      </trkpt>
      <trkpt lat="47.762" lon="6.58489">
        <ele>346.907</ele>
        <time>2015-06-13T13:06:10.652Z</time>
      </trkpt>
      <trkpt lat="47.76208" lon="6.58488">
        <ele>346.9</ele>
        <time>2015-06-13T13:06:12.831Z</time>
      </trkpt>
      <trkpt lat="47.76214" lon="6.58486">
        <ele>347.152</ele>
        <time>2015-06-13T13:06:13.659Z</time>
      </trkpt>
      <trkpt lat="47.76221" lon="6.58483">
        <ele>347.45</ele>
        <time>2015-06-13T13:06:15.66Z</time>
      </trkpt>
      <trkpt lat="47.76225" lon="6.58479">
        <ele>347.296</ele>
        <time>2015-06-13T13:06:16.656Z</time>
      </trkpt>
      <trkpt lat="47.76228" lon="6.58478">
        <ele>346.716</ele>
        <time>2015-06-13T13:06:17.659Z</time>
      </trkpt>
      <trkpt lat="47.76236" lon="6.58475">
        <ele>344.938</ele>
        <time>2015-06-13T13:06:18.652Z</time>
      </trkpt>
      <trkpt lat="47.76242" lon="6.58468">
        <ele>343.655</ele>
        <time>2015-06-13T13:06:20.743Z</time>
      </trkpt>
      <trkpt lat="47.76246" lon="6.58465">
        <ele>342.409</ele>
        <time>2015-06-13T13:06:21.653Z</time>
      </trkpt>
      <trkpt lat="47.76254" lon="6.58459">
        <ele>340.991</ele>
        <time>2015-06-13T13:06:23.653Z</time>
      </trkpt>
      <trkpt lat="47.76262" lon="6.58455">
        <ele>339.995</ele>
        <time>2015-06-13T13:06:24.659Z</time>
      </trkpt>
      <trkpt lat="47.76269" lon="6.58461">
        <ele>339.222</ele>
        <time>2015-06-13T13:06:27.651Z</time>
      </trkpt>
      <trkpt lat="47.7627" lon="6.58466">
        <ele>339.24</ele>
        <time>2015-06-13T13:06:28.653Z</time>
      </trkpt>
      <trkpt lat="47.76273" lon="6.58475">
        <ele>339.582</ele>
        <time>2015-06-13T13:06:30.652Z</time>
      </trkpt>
      <trkpt lat="47.76274" lon="6.58479">
        <ele>339.934</ele>
        <time>2015-06-13T13:06:31.683Z</time>
      </trkpt>
      <trkpt lat="47.76276" lon="6.58488">
        <ele>340.766</ele>
        <time>2015-06-13T13:06:33.658Z</time>
      </trkpt>
      <trkpt lat="47.76277" lon="6.58493">
        <ele>341.223</ele>
        <time>2015-06-13T13:06:34.651Z</time>
      </trkpt>
      <trkpt lat="47.76279" lon="6.58503">
        <ele>341.62</ele>
        <time>2015-06-13T13:06:36.652Z</time>
      </trkpt>
      <trkpt lat="47.76281" lon="6.58508">
        <ele>341.419</ele>
        <time>2015-06-13T13:06:37.651Z</time>
      </trkpt>
      <trkpt lat="47.76283" lon="6.58518">
        <ele>341.095</ele>
        <time>2015-06-13T13:06:39.659Z</time>
      </trkpt>
      <trkpt lat="47.76285" lon="6.58523">
        <ele>340.814</ele>
        <time>2015-06-13T13:06:40.651Z</time>
      </trkpt>
      <trkpt lat="47.76289" lon="6.58531">
        <ele>338.919</ele>
        <time>2015-06-13T13:06:42.676Z</time>
      </trkpt>
      <trkpt lat="47.76292" lon="6.58534">
        <ele>337.29</ele>
        <time>2015-06-13T13:06:43.659Z</time>
      </trkpt>
      <trkpt lat="47.76298" lon="6.58541">
        <ele>334.269</ele>
        <time>2015-06-13T13:06:45.659Z</time>
      </trkpt>
      <trkpt lat="47.76302" lon="6.58543">
        <ele>333.08</ele>
        <time>2015-06-13T13:06:46.659Z</time>
      </trkpt>
      <trkpt lat="47.7631" lon="6.58542">
        <ele>332.15</ele>
        <time>2015-06-13T13:06:51.659Z</time>
      </trkpt>
      <trkpt lat="47.76311" lon="6.58543">
        <ele>332.136</ele>
        <time>2015-06-13T13:06:52.639Z</time>
      </trkpt>
      <trkpt lat="47.76319" lon="6.58547">
        <ele>332.104</ele>
        <time>2015-06-13T13:06:56.686Z</time>
      </trkpt>
      <trkpt lat="47.76322" lon="6.58548">
        <ele>332.125</ele>
        <time>2015-06-13T13:06:57.686Z</time>
      </trkpt>
      <trkpt lat="47.76329" lon="6.58552">
        <ele>332.082</ele>
        <time>2015-06-13T13:07:00.655Z</time>
      </trkpt>
      <trkpt lat="47.76331" lon="6.58555">
        <ele>331.985</ele>
        <time>2015-06-13T13:07:01.634Z</time>
      </trkpt>
      <trkpt lat="47.76339" lon="6.58562">
        <ele>333.296</ele>
        <time>2015-06-13T13:07:04.664Z</time>
      </trkpt>
      <trkpt lat="47.76341" lon="6.58564">
        <ele>333.714</ele>
        <time>2015-06-13T13:07:05.651Z</time>
      </trkpt>
      <trkpt lat="47.76349" lon="6.58571">
        <ele>334.635</ele>
        <time>2015-06-13T13:07:08.658Z</time>
      </trkpt>
      <trkpt lat="47.76352" lon="6.58573">
        <ele>334.895</ele>
        <time>2015-06-13T13:07:09.657Z</time>
      </trkpt>
      <trkpt lat="47.7636" lon="6.58574">
        <ele>335.293</ele>
        <time>2015-06-13T13:07:11.665Z</time>
      </trkpt>
      <trkpt lat="47.76364" lon="6.58574">
        <ele>335.634</ele>
        <time>2015-06-13T13:07:12.686Z</time>
      </trkpt>
      <trkpt lat="47.76371" lon="6.58576">
        <ele>336.43</ele>
        <time>2015-06-13T13:07:14.681Z</time>
      </trkpt>
      <trkpt lat="47.76376" lon="6.58578">
        <ele>336.974</ele>
        <time>2015-06-13T13:07:15.658Z</time>
      </trkpt>
      <trkpt lat="47.7638" lon="6.5858">
        <ele>337.599</ele>
        <time>2015-06-13T13:07:16.659Z</time>
      </trkpt>
      <trkpt lat="47.76384" lon="6.58583">
        <ele>338.279</ele>
        <time>2015-06-13T13:07:17.658Z</time>
      </trkpt>
      <trkpt lat="47.76387" lon="6.58587">
        <ele>339.388</ele>
        <time>2015-06-13T13:07:18.666Z</time>
      </trkpt>
      <trkpt lat="47.76391" lon="6.58591">
        <ele>340.904</ele>
        <time>2015-06-13T13:07:19.668Z</time>
      </trkpt>
      <trkpt lat="47.76396" lon="6.58595">
        <ele>342.254</ele>
        <time>2015-06-13T13:07:20.644Z</time>
      </trkpt>
      <trkpt lat="47.76399" lon="6.586">
        <ele>343.218</ele>
        <time>2015-06-13T13:07:21.648Z</time>
      </trkpt>
      <trkpt lat="47.76404" lon="6.58605">
        <ele>343.846</ele>
        <time>2015-06-13T13:07:22.669Z</time>
      </trkpt>
      <trkpt lat="47.76414" lon="6.58617">
        <ele>344.994</ele>
        <time>2015-06-13T13:07:23.665Z</time>
      </trkpt>
      <trkpt lat="47.7642" lon="6.58622">
        <ele>346.759</ele>
        <time>2015-06-13T13:07:24.672Z</time>
      </trkpt>
      <trkpt lat="47.76425" lon="6.58625">
        <ele>348.836</ele>
        <time>2015-06-13T13:07:25.657Z</time>
      </trkpt>
      <trkpt lat="47.76431" lon="6.58629">
        <ele>350.841</ele>
        <time>2015-06-13T13:07:26.659Z</time>
      </trkpt>
      <trkpt lat="47.76437" lon="6.58633">
        <ele>352.798</ele>
        <time>2015-06-13T13:07:27.659Z</time>
      </trkpt>
      <trkpt lat="47.76443" lon="6.58638">
        <ele>354.669</ele>
        <time>2015-06-13T13:07:28.659Z</time>
      </trkpt>
      <trkpt lat="47.76448" lon="6.58644">
        <ele>354.397</ele>
        <time>2015-06-13T13:07:29.658Z</time>
      </trkpt>
      <trkpt lat="47.76454" lon="6.58645">
        <ele>354.092</ele>
        <time>2015-06-13T13:07:30.681Z</time>
      </trkpt>
      <trkpt lat="47.76462" lon="6.58645">
        <ele>353.858</ele>
        <time>2015-06-13T13:07:31.658Z</time>
      </trkpt>
      <trkpt lat="47.76466" lon="6.58648">
        <ele>353.511</ele>
        <time>2015-06-13T13:07:32.658Z</time>
      </trkpt>
      <trkpt lat="47.76473" lon="6.58653">
        <ele>353.006</ele>
        <time>2015-06-13T13:07:33.651Z</time>
      </trkpt>
      <trkpt lat="47.76477" lon="6.58659">
        <ele>352.451</ele>
        <time>2015-06-13T13:07:34.651Z</time>
      </trkpt>
      <trkpt lat="47.76481" lon="6.58663">
        <ele>352.031</ele>
        <time>2015-06-13T13:07:35.657Z</time>
      </trkpt>
      <trkpt lat="47.76486" lon="6.58668">
        <ele>351.328</ele>
        <time>2015-06-13T13:07:36.658Z</time>
      </trkpt>
      <trkpt lat="47.76492" lon="6.58669">
        <ele>350.88</ele>
        <time>2015-06-13T13:07:37.658Z</time>
      </trkpt>
      <trkpt lat="47.76499" lon="6.58674">
        <ele>349.726</ele>
        <time>2015-06-13T13:07:39.658Z</time>
      </trkpt>
      <trkpt lat="47.76503" lon="6.58677">
        <ele>348.724</ele>
        <time>2015-06-13T13:07:40.657Z</time>
      </trkpt>
      <trkpt lat="47.76508" lon="6.58681">
        <ele>347.589</ele>
        <time>2015-06-13T13:07:41.659Z</time>
      </trkpt>
      <trkpt lat="47.76513" lon="6.58684">
        <ele>346.74</ele>
        <time>2015-06-13T13:07:42.652Z</time>
      </trkpt>
      <trkpt lat="47.76518" lon="6.58686">
        <ele>346.068</ele>
        <time>2015-06-13T13:07:43.652Z</time>
      </trkpt>
      <trkpt lat="47.76523" lon="6.58689">
        <ele>345.515</ele>
        <time>2015-06-13T13:07:44.652Z</time>
      </trkpt>
      <trkpt lat="47.76527" lon="6.58698">
        <ele>344.46</ele>
        <time>2015-06-13T13:07:46.658Z</time>
      </trkpt>
      <trkpt lat="47.76529" lon="6.58702">
        <ele>343.938</ele>
        <time>2015-06-13T13:07:47.65Z</time>
      </trkpt>
      <trkpt lat="47.76532" lon="6.58713">
        <ele>342.685</ele>
        <time>2015-06-13T13:07:49.659Z</time>
      </trkpt>
      <trkpt lat="47.76533" lon="6.58717">
        <ele>342.274</ele>
        <time>2015-06-13T13:07:50.657Z</time>
      </trkpt>
      <trkpt lat="47.76538" lon="6.58727">
        <ele>341.806</ele>
        <time>2015-06-13T13:07:52.651Z</time>
      </trkpt>
      <trkpt lat="47.7654" lon="6.58732">
        <ele>341.841</ele>
        <time>2015-06-13T13:07:53.658Z</time>
      </trkpt>
      <trkpt lat="47.76547" lon="6.5874">
        <ele>342.232</ele>
        <time>2015-06-13T13:07:55.658Z</time>
      </trkpt>
      <trkpt lat="47.7655" lon="6.58743">
        <ele>342.547</ele>
        <time>2015-06-13T13:07:56.658Z</time>
      </trkpt>
      <trkpt lat="47.76557" lon="6.58747">
        <ele>343.217</ele>
        <time>2015-06-13T13:07:58.652Z</time>
      </trkpt>
      <trkpt lat="47.7656" lon="6.58748">
        <ele>343.505</ele>
        <time>2015-06-13T13:07:59.658Z</time>
      </trkpt>
      <trkpt lat="47.76567" lon="6.58751">
        <ele>344.198</ele>
        <time>2015-06-13T13:08:02.655Z</time>
      </trkpt>
      <trkpt lat="47.7657" lon="6.58753">
        <ele>344.446</ele>
        <time>2015-06-13T13:08:03.644Z</time>
      </trkpt>
      <trkpt lat="47.76577" lon="6.58761">
        <ele>345.012</ele>
        <time>2015-06-13T13:08:06.657Z</time>
      </trkpt>
      <trkpt lat="47.76579" lon="6.58764">
        <ele>345.116</ele>
        <time>2015-06-13T13:08:07.707Z</time>
      </trkpt>
      <trkpt lat="47.76583" lon="6.58772">
        <ele>345.171</ele>
        <time>2015-06-13T13:08:09.651Z</time>
      </trkpt>
      <trkpt lat="47.76585" lon="6.58777">
        <ele>345.076</ele>
        <time>2015-06-13T13:08:10.659Z</time>
      </trkpt>
      <trkpt lat="47.76587" lon="6.58787">
        <ele>345.152</ele>
        <time>2015-06-13T13:08:12.654Z</time>
      </trkpt>
      <trkpt lat="47.76587" lon="6.58792">
        <ele>345.223</ele>
        <time>2015-06-13T13:08:13.678Z</time>
      </trkpt>
      <trkpt lat="47.76589" lon="6.58804">
        <ele>345.396</ele>
        <time>2015-06-13T13:08:15.651Z</time>
      </trkpt>
      <trkpt lat="47.7659" lon="6.58811">
        <ele>345.665</ele>
        <time>2015-06-13T13:08:16.658Z</time>
      </trkpt>
      <trkpt lat="47.76591" lon="6.58823">
        <ele>346.176</ele>
        <time>2015-06-13T13:08:18.692Z</time>
      </trkpt>
      <trkpt lat="47.76592" lon="6.58829">
        <ele>346.446</ele>
        <time>2015-06-13T13:08:19.651Z</time>
      </trkpt>
      <trkpt lat="47.76592" lon="6.58841">
        <ele>346.715</ele>
        <time>2015-06-13T13:08:21.659Z</time>
      </trkpt>
      <trkpt lat="47.76592" lon="6.58846">
        <ele>346.806</ele>
        <time>2015-06-13T13:08:22.657Z</time>
      </trkpt>
      <trkpt lat="47.76594" lon="6.58857">
        <ele>347.054</ele>
        <time>2015-06-13T13:08:25.675Z</time>
      </trkpt>
      <trkpt lat="47.76594" lon="6.58861">
        <ele>347.118</ele>
        <time>2015-06-13T13:08:26.657Z</time>
      </trkpt>
      <trkpt lat="47.76595" lon="6.58874">
        <ele>347.967</ele>
        <time>2015-06-13T13:08:29.685Z</time>
      </trkpt>
      <trkpt lat="47.76594" lon="6.58878">
        <ele>348.169</ele>
        <time>2015-06-13T13:08:30.657Z</time>
      </trkpt>
      <trkpt lat="47.76592" lon="6.58889">
        <ele>348.62</ele>
        <time>2015-06-13T13:08:33.658Z</time>
      </trkpt>
      <trkpt lat="47.76591" lon="6.58892">
        <ele>348.786</ele>
        <time>2015-06-13T13:08:34.686Z</time>
      </trkpt>
      <trkpt lat="47.76591" lon="6.58905">
        <ele>349.795</ele>
        <time>2015-06-13T13:08:37.658Z</time>
      </trkpt>
      <trkpt lat="47.76592" lon="6.5891">
        <ele>350.219</ele>
        <time>2015-06-13T13:08:38.658Z</time>
      </trkpt>
      <trkpt lat="47.76594" lon="6.58916">
        <ele>350.591</ele>
        <time>2015-06-13T13:08:39.675Z</time>
      </trkpt>
      <trkpt lat="47.76597" lon="6.58923">
        <ele>350.058</ele>
        <time>2015-06-13T13:08:40.656Z</time>
      </trkpt>
      <trkpt lat="47.766" lon="6.58929">
        <ele>349.602</ele>
        <time>2015-06-13T13:08:41.663Z</time>
      </trkpt>
      <trkpt lat="47.76603" lon="6.58935">
        <ele>349.217</ele>
        <time>2015-06-13T13:08:42.613Z</time>
      </trkpt>
      <trkpt lat="47.76609" lon="6.58944">
        <ele>348.942</ele>
        <time>2015-06-13T13:08:44.658Z</time>
      </trkpt>
      <trkpt lat="47.76613" lon="6.58945">
        <ele>348.758</ele>
        <time>2015-06-13T13:08:45.683Z</time>
      </trkpt>
      <trkpt lat="47.7662" lon="6.58945">
        <ele>347.421</ele>
        <time>2015-06-13T13:08:48.861Z</time>
      </trkpt>
      <trkpt lat="47.76622" lon="6.58944">
        <ele>346.99</ele>
        <time>2015-06-13T13:08:49.675Z</time>
      </trkpt>
      <trkpt lat="47.7663" lon="6.58947">
        <ele>345.702</ele>
        <time>2015-06-13T13:08:52.682Z</time>
      </trkpt>
      <trkpt lat="47.76633" lon="6.58945">
        <ele>345.013</ele>
        <time>2015-06-13T13:08:53.682Z</time>
      </trkpt>
      <trkpt lat="47.7664" lon="6.58943">
        <ele>344.498</ele>
        <time>2015-06-13T13:08:55.679Z</time>
      </trkpt>
      <trkpt lat="47.76644" lon="6.58942">
        <ele>345.506</ele>
        <time>2015-06-13T13:08:56.695Z</time>
      </trkpt>
      <trkpt lat="47.76652" lon="6.58938">
        <ele>347.588</ele>
        <time>2015-06-13T13:08:59.656Z</time>
      </trkpt>
      <trkpt lat="47.76655" lon="6.58938">
        <ele>348.158</ele>
        <time>2015-06-13T13:09:00.658Z</time>
      </trkpt>
      <trkpt lat="47.76661" lon="6.58933">
        <ele>350.404</ele>
        <time>2015-06-13T13:09:03.661Z</time>
      </trkpt>
      <trkpt lat="47.76664" lon="6.58931">
        <ele>351.417</ele>
        <time>2015-06-13T13:09:04.665Z</time>
      </trkpt>
      <trkpt lat="47.76671" lon="6.58926">
        <ele>353.832</ele>
        <time>2015-06-13T13:09:07.725Z</time>
      </trkpt>
      <trkpt lat="47.76673" lon="6.58925">
        <ele>354.602</ele>
        <time>2015-06-13T13:09:08.657Z</time>
      </trkpt>
      <trkpt lat="47.76679" lon="6.58919">
        <ele>356.447</ele>
        <time>2015-06-13T13:09:10.612Z</time>
      </trkpt>
      <trkpt lat="47.76681" lon="6.58917">
        <ele>357.124</ele>
        <time>2015-06-13T13:09:11.658Z</time>
      </trkpt>
      <trkpt lat="47.76688" lon="6.58913">
        <ele>358.041</ele>
        <time>2015-06-13T13:09:15.651Z</time>
      </trkpt>
      <trkpt lat="47.76691" lon="6.58914">
        <ele>358.413</ele>
        <time>2015-06-13T13:09:16.639Z</time>
      </trkpt>
      <trkpt lat="47.76696" lon="6.58915">
        <ele>358.944</ele>
        <time>2015-06-13T13:09:18.67Z</time>
      </trkpt>
      <trkpt lat="47.767" lon="6.58917">
        <ele>358.994</ele>
        <time>2015-06-13T13:09:19.623Z</time>
      </trkpt>
      <trkpt lat="47.76704" lon="6.58918">
        <ele>359</ele>
        <time>2015-06-13T13:09:20.651Z</time>
      </trkpt>
      <trkpt lat="47.7671" lon="6.58917">
        <ele>359.017</ele>
        <time>2015-06-13T13:09:21.661Z</time>
      </trkpt>
      <trkpt lat="47.76716" lon="6.58917">
        <ele>359.034</ele>
        <time>2015-06-13T13:09:22.651Z</time>
      </trkpt>
      <trkpt lat="47.76737" lon="6.58923">
        <ele>358.501</ele>
        <time>2015-06-13T13:09:23.651Z</time>
      </trkpt>
      <trkpt lat="47.76745" lon="6.58921">
        <ele>357.742</ele>
        <time>2015-06-13T13:09:25.672Z</time>
      </trkpt>
      <trkpt lat="47.76747" lon="6.5892">
        <ele>357.563</ele>
        <time>2015-06-13T13:09:26.679Z</time>
      </trkpt>
      <trkpt lat="47.76755" lon="6.58914">
        <ele>356.8</ele>
        <time>2015-06-13T13:09:33.657Z</time>
      </trkpt>
      <trkpt lat="47.76756" lon="6.58913">
        <ele>356.717</ele>
        <time>2015-06-13T13:09:34.65Z</time>
      </trkpt>
      <trkpt lat="47.76763" lon="6.58907">
        <ele>356.023</ele>
        <time>2015-06-13T13:09:43.66Z</time>
      </trkpt>
      <trkpt lat="47.76764" lon="6.58907">
        <ele>355.981</ele>
        <time>2015-06-13T13:09:44.657Z</time>
      </trkpt>
      <trkpt lat="47.7677" lon="6.589">
        <ele>354.894</ele>
        <time>2015-06-13T13:09:48.657Z</time>
      </trkpt>
      <trkpt lat="47.76772" lon="6.58897">
        <ele>354.421</ele>
        <time>2015-06-13T13:09:49.664Z</time>
      </trkpt>
      <trkpt lat="47.76776" lon="6.58887">
        <ele>353.118</ele>
        <time>2015-06-13T13:09:52.651Z</time>
      </trkpt>
      <trkpt lat="47.76778" lon="6.58885">
        <ele>353.021</ele>
        <time>2015-06-13T13:09:53.651Z</time>
      </trkpt>
      <trkpt lat="47.76785" lon="6.58881">
        <ele>353.515</ele>
        <time>2015-06-13T13:09:57.74Z</time>
      </trkpt>
      <trkpt lat="47.76787" lon="6.5888">
        <ele>353.634</ele>
        <time>2015-06-13T13:09:58.829Z</time>
      </trkpt>
      <trkpt lat="47.76794" lon="6.58877">
        <ele>353.996</ele>
        <time>2015-06-13T13:10:01.657Z</time>
      </trkpt>
      <trkpt lat="47.76797" lon="6.58877">
        <ele>354.192</ele>
        <time>2015-06-13T13:10:02.675Z</time>
      </trkpt>
      <trkpt lat="47.76804" lon="6.58875">
        <ele>354.436</ele>
        <time>2015-06-13T13:10:04.657Z</time>
      </trkpt>
      <trkpt lat="47.76807" lon="6.58874">
        <ele>354.503</ele>
        <time>2015-06-13T13:10:05.682Z</time>
      </trkpt>
      <trkpt lat="47.76813" lon="6.58866">
        <ele>354.452</ele>
        <time>2015-06-13T13:10:08.655Z</time>
      </trkpt>
      <trkpt lat="47.76815" lon="6.58864">
        <ele>354.304</ele>
        <time>2015-06-13T13:10:09.659Z</time>
      </trkpt>
      <trkpt lat="47.76817" lon="6.58854">
        <ele>353.756</ele>
        <time>2015-06-13T13:10:11.665Z</time>
      </trkpt>
      <trkpt lat="47.76819" lon="6.58849">
        <ele>353.563</ele>
        <time>2015-06-13T13:10:12.674Z</time>
      </trkpt>
      <trkpt lat="47.76823" lon="6.58839">
        <ele>353.092</ele>
        <time>2015-06-13T13:10:14.658Z</time>
      </trkpt>
      <trkpt lat="47.76825" lon="6.58835">
        <ele>352.809</ele>
        <time>2015-06-13T13:10:15.657Z</time>
      </trkpt>
      <trkpt lat="47.76831" lon="6.58829">
        <ele>353.182</ele>
        <time>2015-06-13T13:10:17.617Z</time>
      </trkpt>
      <trkpt lat="47.76834" lon="6.58828">
        <ele>353.504</ele>
        <time>2015-06-13T13:10:18.665Z</time>
      </trkpt>
      <trkpt lat="47.76842" lon="6.58824">
        <ele>354.835</ele>
        <time>2015-06-13T13:10:21.69Z</time>
      </trkpt>
      <trkpt lat="47.76845" lon="6.58823">
        <ele>355.296</ele>
        <time>2015-06-13T13:10:22.657Z</time>
      </trkpt>
      <trkpt lat="47.76852" lon="6.58817">
        <ele>356.469</ele>
        <time>2015-06-13T13:10:25.66Z</time>
      </trkpt>
      <trkpt lat="47.76854" lon="6.58815">
        <ele>356.745</ele>
        <time>2015-06-13T13:10:26.692Z</time>
      </trkpt>
      <trkpt lat="47.76852" lon="6.58805">
        <ele>357.063</ele>
        <time>2015-06-13T13:10:30.68Z</time>
      </trkpt>
      <trkpt lat="47.76851" lon="6.58802">
        <ele>357.18</ele>
        <time>2015-06-13T13:10:31.678Z</time>
      </trkpt>
      <trkpt lat="47.7685" lon="6.58791">
        <ele>357.975</ele>
        <time>2015-06-13T13:10:34.656Z</time>
      </trkpt>
      <trkpt lat="47.76851" lon="6.58788">
        <ele>358.338</ele>
        <time>2015-06-13T13:10:35.667Z</time>
      </trkpt>
      <trkpt lat="47.76854" lon="6.58776">
        <ele>359.884</ele>
        <time>2015-06-13T13:10:39.617Z</time>
      </trkpt>
      <trkpt lat="47.76856" lon="6.58773">
        <ele>360.471</ele>
        <time>2015-06-13T13:10:40.66Z</time>
      </trkpt>
      <trkpt lat="47.76859" lon="6.58764">
        <ele>361.981</ele>
        <time>2015-06-13T13:10:42.666Z</time>
      </trkpt>
      <trkpt lat="47.76859" lon="6.58759">
        <ele>362.463</ele>
        <time>2015-06-13T13:10:43.686Z</time>
      </trkpt>
      <trkpt lat="47.76855" lon="6.58749">
        <ele>362.787</ele>
        <time>2015-06-13T13:10:47.686Z</time>
      </trkpt>
      <trkpt lat="47.76855" lon="6.58746">
        <ele>363.076</ele>
        <time>2015-06-13T13:10:48.66Z</time>
      </trkpt>
      <trkpt lat="47.76857" lon="6.58736">
        <ele>364.624</ele>
        <time>2015-06-13T13:10:51.657Z</time>
      </trkpt>
      <trkpt lat="47.76859" lon="6.58733">
        <ele>365.238</ele>
        <time>2015-06-13T13:10:52.659Z</time>
      </trkpt>
      <trkpt lat="47.76866" lon="6.58737">
        <ele>366.467</ele>
        <time>2015-06-13T13:11:01.67Z</time>
      </trkpt>
      <trkpt lat="47.76868" lon="6.58737">
        <ele>366.72</ele>
        <time>2015-06-13T13:11:02.66Z</time>
      </trkpt>
      <trkpt lat="47.76874" lon="6.58738">
        <ele>368.014</ele>
        <time>2015-06-13T13:11:07.733Z</time>
      </trkpt>
      <trkpt lat="47.76878" lon="6.58738">
        <ele>368.789</ele>
        <time>2015-06-13T13:11:08.713Z</time>
      </trkpt>
      <trkpt lat="47.76887" lon="6.58739">
        <ele>370.563</ele>
        <time>2015-06-13T13:11:11.657Z</time>
      </trkpt>
      <trkpt lat="47.76887" lon="6.5874">
        <ele>370.573</ele>
        <time>2015-06-13T13:11:12.64Z</time>
      </trkpt>
      <trkpt lat="47.7689" lon="6.58751">
        <ele>371.181</ele>
        <time>2015-06-13T13:11:17.672Z</time>
      </trkpt>
      <trkpt lat="47.76891" lon="6.58753">
        <ele>371.105</ele>
        <time>2015-06-13T13:11:18.661Z</time>
      </trkpt>
      <trkpt lat="47.76894" lon="6.58765">
        <ele>371.225</ele>
        <time>2015-06-13T13:11:24.659Z</time>
      </trkpt>
      <trkpt lat="47.76896" lon="6.58766">
        <ele>371.449</ele>
        <time>2015-06-13T13:11:25.678Z</time>
      </trkpt>
      <trkpt lat="47.76902" lon="6.5877">
        <ele>372.976</ele>
        <time>2015-06-13T13:11:28.667Z</time>
      </trkpt>
      <trkpt lat="47.76904" lon="6.58771">
        <ele>373.416</ele>
        <time>2015-06-13T13:11:29.686Z</time>
      </trkpt>
      <trkpt lat="47.76911" lon="6.58777">
        <ele>375.463</ele>
        <time>2015-06-13T13:11:33.674Z</time>
      </trkpt>
      <trkpt lat="47.76914" lon="6.58778">
        <ele>376.309</ele>
        <time>2015-06-13T13:11:34.657Z</time>
      </trkpt>
      <trkpt lat="47.76922" lon="6.58783">
        <ele>378.101</ele>
        <time>2015-06-13T13:11:37.666Z</time>
      </trkpt>
      <trkpt lat="47.76924" lon="6.58786">
        <ele>378.592</ele>
        <time>2015-06-13T13:11:38.658Z</time>
      </trkpt>
      <trkpt lat="47.76932" lon="6.58785">
        <ele>379.603</ele>
        <time>2015-06-13T13:11:42.65Z</time>
      </trkpt>
      <trkpt lat="47.76935" lon="6.58787">
        <ele>380.014</ele>
        <time>2015-06-13T13:11:43.662Z</time>
      </trkpt>
      <trkpt lat="47.7694" lon="6.58792">
        <ele>380.921</ele>
        <time>2015-06-13T13:11:45.665Z</time>
      </trkpt>
      <trkpt lat="47.76944" lon="6.58795">
        <ele>381.554</ele>
        <time>2015-06-13T13:11:46.657Z</time>
      </trkpt>
      <trkpt lat="47.76949" lon="6.58798">
        <ele>382.458</ele>
        <time>2015-06-13T13:11:47.668Z</time>
      </trkpt>
      <trkpt lat="47.76952" lon="6.58802">
        <ele>383.094</ele>
        <time>2015-06-13T13:11:48.657Z</time>
      </trkpt>
      <trkpt lat="47.76957" lon="6.5881">
        <ele>383.488</ele>
        <time>2015-06-13T13:11:50.662Z</time>
      </trkpt>
      <trkpt lat="47.76959" lon="6.58812">
        <ele>383.57</ele>
        <time>2015-06-13T13:11:51.689Z</time>
      </trkpt>
      <trkpt lat="47.76968" lon="6.58816">
        <ele>384.473</ele>
        <time>2015-06-13T13:11:55.658Z</time>
      </trkpt>
      <trkpt lat="47.76969" lon="6.58819">
        <ele>384.576</ele>
        <time>2015-06-13T13:11:56.657Z</time>
      </trkpt>
      <trkpt lat="47.76976" lon="6.58829">
        <ele>383.835</ele>
        <time>2015-06-13T13:11:59.698Z</time>
      </trkpt>
      <trkpt lat="47.76978" lon="6.58832">
        <ele>383.332</ele>
        <time>2015-06-13T13:12:00.657Z</time>
      </trkpt>
      <trkpt lat="47.76982" lon="6.5884">
        <ele>382.66</ele>
        <time>2015-06-13T13:12:04.677Z</time>
      </trkpt>
      <trkpt lat="47.76983" lon="6.58843">
        <ele>382.611</ele>
        <time>2015-06-13T13:12:05.655Z</time>
      </trkpt>
      <trkpt lat="47.76985" lon="6.58854">
        <ele>382.47</ele>
        <time>2015-06-13T13:12:08.672Z</time>
      </trkpt>
      <trkpt lat="47.76987" lon="6.58856">
        <ele>382.34</ele>
        <time>2015-06-13T13:12:09.657Z</time>
      </trkpt>
      <trkpt lat="47.76992" lon="6.58864">
        <ele>381.963</ele>
        <time>2015-06-13T13:12:13.656Z</time>
      </trkpt>
      <trkpt lat="47.76993" lon="6.5887">
        <ele>382.144</ele>
        <time>2015-06-13T13:12:14.664Z</time>
      </trkpt>
      <trkpt lat="47.76994" lon="6.58881">
        <ele>382.598</ele>
        <time>2015-06-13T13:12:16.672Z</time>
      </trkpt>
      <trkpt lat="47.76994" lon="6.58884">
        <ele>382.76</ele>
        <time>2015-06-13T13:12:17.658Z</time>
      </trkpt>
      <trkpt lat="47.76994" lon="6.58897">
        <ele>382.938</ele>
        <time>2015-06-13T13:12:21.666Z</time>
      </trkpt>
      <trkpt lat="47.76994" lon="6.58899">
        <ele>382.924</ele>
        <time>2015-06-13T13:12:22.592Z</time>
      </trkpt>
      <trkpt lat="47.76998" lon="6.58908">
        <ele>382.953</ele>
        <time>2015-06-13T13:12:24.658Z</time>
      </trkpt>
      <trkpt lat="47.77001" lon="6.58914">
        <ele>382.765</ele>
        <time>2015-06-13T13:12:25.656Z</time>
      </trkpt>
      <trkpt lat="47.77004" lon="6.58922">
        <ele>381.776</ele>
        <time>2015-06-13T13:12:26.677Z</time>
      </trkpt>
      <trkpt lat="47.77007" lon="6.5893">
        <ele>380.656</ele>
        <time>2015-06-13T13:12:27.665Z</time>
      </trkpt>
      <trkpt lat="47.77009" lon="6.58939">
        <ele>379.798</ele>
        <time>2015-06-13T13:12:28.664Z</time>
      </trkpt>
      <trkpt lat="47.77012" lon="6.58956">
        <ele>378.098</ele>
        <time>2015-06-13T13:12:29.659Z</time>
      </trkpt>
      <trkpt lat="47.77016" lon="6.58965">
        <ele>376.961</ele>
        <time>2015-06-13T13:12:30.657Z</time>
      </trkpt>
      <trkpt lat="47.77018" lon="6.58971">
        <ele>376.156</ele>
        <time>2015-06-13T13:12:31.658Z</time>
      </trkpt>
      <trkpt lat="47.77022" lon="6.5898">
        <ele>375.138</ele>
        <time>2015-06-13T13:12:32.683Z</time>
      </trkpt>
      <trkpt lat="47.77025" lon="6.58982">
        <ele>374.791</ele>
        <time>2015-06-13T13:12:33.667Z</time>
      </trkpt>
      <trkpt lat="47.77031" lon="6.58984">
        <ele>374.883</ele>
        <time>2015-06-13T13:12:34.657Z</time>
      </trkpt>
      <trkpt lat="47.77037" lon="6.58989">
        <ele>375.569</ele>
        <time>2015-06-13T13:12:35.651Z</time>
      </trkpt>
      <trkpt lat="47.77042" lon="6.58996">
        <ele>376.77</ele>
        <time>2015-06-13T13:12:38.658Z</time>
      </trkpt>
      <trkpt lat="47.77046" lon="6.58997">
        <ele>377.652</ele>
        <time>2015-06-13T13:12:39.674Z</time>
      </trkpt>
      <trkpt lat="47.77047" lon="6.59008">
        <ele>377.455</ele>
        <time>2015-06-13T13:12:41.651Z</time>
      </trkpt>
      <trkpt lat="47.77047" lon="6.59014">
        <ele>376.818</ele>
        <time>2015-06-13T13:12:42.658Z</time>
      </trkpt>
      <trkpt lat="47.77048" lon="6.59026">
        <ele>376.108</ele>
        <time>2015-06-13T13:12:46.658Z</time>
      </trkpt>
      <trkpt lat="47.77048" lon="6.59029">
        <ele>375.772</ele>
        <time>2015-06-13T13:12:47.661Z</time>
      </trkpt>
      <trkpt lat="47.7705" lon="6.59041">
        <ele>374.777</ele>
        <time>2015-06-13T13:12:50.687Z</time>
      </trkpt>
      <trkpt lat="47.77051" lon="6.59045">
        <ele>374.61</ele>
        <time>2015-06-13T13:12:51.831Z</time>
      </trkpt>
      <trkpt lat="47.77058" lon="6.59054">
        <ele>375.402</ele>
        <time>2015-06-13T13:12:54.658Z</time>
      </trkpt>
      <trkpt lat="47.77061" lon="6.59057">
        <ele>375.388</ele>
        <time>2015-06-13T13:12:55.652Z</time>
      </trkpt>
      <trkpt lat="47.77065" lon="6.59064">
        <ele>374.724</ele>
        <time>2015-06-13T13:12:57.658Z</time>
      </trkpt>
      <trkpt lat="47.77067" lon="6.59069">
        <ele>374.369</ele>
        <time>2015-06-13T13:12:58.651Z</time>
      </trkpt>
      <trkpt lat="47.77073" lon="6.59074">
        <ele>374.833</ele>
        <time>2015-06-13T13:13:00.649Z</time>
      </trkpt>
      <trkpt lat="47.77077" lon="6.59075">
        <ele>375.395</ele>
        <time>2015-06-13T13:13:01.651Z</time>
      </trkpt>
      <trkpt lat="47.77081" lon="6.59073">
        <ele>376.284</ele>
        <time>2015-06-13T13:13:02.658Z</time>
      </trkpt>
      <trkpt lat="47.77086" lon="6.59073">
        <ele>377.079</ele>
        <time>2015-06-13T13:13:03.649Z</time>
      </trkpt>
      <trkpt lat="47.77094" lon="6.5907">
        <ele>378.263</ele>
        <time>2015-06-13T13:13:05.658Z</time>
      </trkpt>
      <trkpt lat="47.77097" lon="6.5907">
        <ele>378.654</ele>
        <time>2015-06-13T13:13:06.673Z</time>
      </trkpt>
      <trkpt lat="47.77102" lon="6.59077">
        <ele>379.404</ele>
        <time>2015-06-13T13:13:10.658Z</time>
      </trkpt>
      <trkpt lat="47.77103" lon="6.5908">
        <ele>379.556</ele>
        <time>2015-06-13T13:13:11.652Z</time>
      </trkpt>
      <trkpt lat="47.77109" lon="6.59089">
        <ele>380.65</ele>
        <time>2015-06-13T13:13:16.651Z</time>
      </trkpt>
      <trkpt lat="47.7711" lon="6.59091">
        <ele>380.839</ele>
        <time>2015-06-13T13:13:17.658Z</time>
      </trkpt>
      <trkpt lat="47.77114" lon="6.59102">
        <ele>381.751</ele>
        <time>2015-06-13T13:13:21.652Z</time>
      </trkpt>
      <trkpt lat="47.77116" lon="6.59104">
        <ele>382.055</ele>
        <time>2015-06-13T13:13:22.675Z</time>
      </trkpt>
      <trkpt lat="47.77121" lon="6.59113">
        <ele>383.236</ele>
        <time>2015-06-13T13:13:26.651Z</time>
      </trkpt>
      <trkpt lat="47.77121" lon="6.59115">
        <ele>383.531</ele>
        <time>2015-06-13T13:13:27.651Z</time>
      </trkpt>
      <trkpt lat="47.77127" lon="6.59121">
        <ele>385.245</ele>
        <time>2015-06-13T13:13:32.897Z</time>
      </trkpt>
      <trkpt lat="47.77129" lon="6.59123">
        <ele>385.713</ele>
        <time>2015-06-13T13:13:33.675Z</time>
      </trkpt>
      <trkpt lat="47.77136" lon="6.5913">
        <ele>387.628</ele>
        <time>2015-06-13T13:13:39.635Z</time>
      </trkpt>
      <trkpt lat="47.77135" lon="6.59133">
        <ele>387.743</ele>
        <time>2015-06-13T13:13:40.681Z</time>
      </trkpt>
      <trkpt lat="47.77137" lon="6.59145">
        <ele>388.884</ele>
        <time>2015-06-13T13:13:44.672Z</time>
      </trkpt>
      <trkpt lat="47.77138" lon="6.59147">
        <ele>389.096</ele>
        <time>2015-06-13T13:13:45.657Z</time>
      </trkpt>
      <trkpt lat="47.77142" lon="6.59155">
        <ele>390.472</ele>
        <time>2015-06-13T13:13:48.657Z</time>
      </trkpt>
      <trkpt lat="47.77144" lon="6.59159">
        <ele>391.175</ele>
        <time>2015-06-13T13:13:49.666Z</time>
      </trkpt>
      <trkpt lat="47.77148" lon="6.59167">
        <ele>392.706</ele>
        <time>2015-06-13T13:13:51.657Z</time>
      </trkpt>
      <trkpt lat="47.77151" lon="6.59172">
        <ele>393.115</ele>
        <time>2015-06-13T13:13:52.667Z</time>
      </trkpt>
      <trkpt lat="47.77154" lon="6.59179">
        <ele>393.417</ele>
        <time>2015-06-13T13:13:53.679Z</time>
      </trkpt>
      <trkpt lat="47.77157" lon="6.59186">
        <ele>393.691</ele>
        <time>2015-06-13T13:13:54.651Z</time>
      </trkpt>
      <trkpt lat="47.77162" lon="6.59203">
        <ele>393.056</ele>
        <time>2015-06-13T13:13:55.657Z</time>
      </trkpt>
      <trkpt lat="47.77163" lon="6.59213">
        <ele>392.294</ele>
        <time>2015-06-13T13:13:57.68Z</time>
      </trkpt>
      <trkpt lat="47.77164" lon="6.59217">
        <ele>392.196</ele>
        <time>2015-06-13T13:13:58.673Z</time>
      </trkpt>
      <trkpt lat="47.77171" lon="6.59224">
        <ele>391.679</ele>
        <time>2015-06-13T13:14:01.637Z</time>
      </trkpt>
      <trkpt lat="47.77168" lon="6.59232">
        <ele>390.914</ele>
        <time>2015-06-13T13:14:02.678Z</time>
      </trkpt>
      <trkpt lat="47.77173" lon="6.5924">
        <ele>389.974</ele>
        <time>2015-06-13T13:14:04.683Z</time>
      </trkpt>
      <trkpt lat="47.7718" lon="6.59246">
        <ele>389.393</ele>
        <time>2015-06-13T13:14:05.677Z</time>
      </trkpt>
      <trkpt lat="47.77185" lon="6.59253">
        <ele>389.033</ele>
        <time>2015-06-13T13:14:07.728Z</time>
      </trkpt>
      <trkpt lat="47.77188" lon="6.59258">
        <ele>389.068</ele>
        <time>2015-06-13T13:14:08.659Z</time>
      </trkpt>
      <trkpt lat="47.7719" lon="6.59263">
        <ele>389.068</ele>
        <time>2015-06-13T13:14:09.68Z</time>
      </trkpt>
      <trkpt lat="47.77193" lon="6.59268">
        <ele>389.024</ele>
        <time>2015-06-13T13:14:10.658Z</time>
      </trkpt>
      <trkpt lat="47.77197" lon="6.59273">
        <ele>389.066</ele>
        <time>2015-06-13T13:14:11.677Z</time>
      </trkpt>
      <trkpt lat="47.772" lon="6.59277">
        <ele>389.196</ele>
        <time>2015-06-13T13:14:12.68Z</time>
      </trkpt>
      <trkpt lat="47.77207" lon="6.59281">
        <ele>389.325</ele>
        <time>2015-06-13T13:14:14.666Z</time>
      </trkpt>
      <trkpt lat="47.77211" lon="6.59282">
        <ele>389.448</ele>
        <time>2015-06-13T13:14:15.656Z</time>
      </trkpt>
      <trkpt lat="47.77218" lon="6.59274">
        <ele>389.726</ele>
        <time>2015-06-13T13:14:21.657Z</time>
      </trkpt>
      <trkpt lat="47.77218" lon="6.59273">
        <ele>389.699</ele>
        <time>2015-06-13T13:14:22.636Z</time>
      </trkpt>
      <trkpt lat="47.77221" lon="6.59262">
        <ele>389.4</ele>
        <time>2015-06-13T13:14:29.619Z</time>
      </trkpt>
      <trkpt lat="47.77223" lon="6.59261">
        <ele>389.513</ele>
        <time>2015-06-13T13:14:30.657Z</time>
      </trkpt>
      <trkpt lat="47.77232" lon="6.59265">
        <ele>390.372</ele>
        <time>2015-06-13T13:14:34.685Z</time>
      </trkpt>
      <trkpt lat="47.77233" lon="6.59266">
        <ele>390.554</ele>
        <time>2015-06-13T13:14:35.655Z</time>
      </trkpt>
      <trkpt lat="47.77242" lon="6.59268">
        <ele>391.284</ele>
        <time>2015-06-13T13:14:40.657Z</time>
      </trkpt>
      <trkpt lat="47.77244" lon="6.59269">
        <ele>391.509</ele>
        <time>2015-06-13T13:14:41.657Z</time>
      </trkpt>
      <trkpt lat="47.7725" lon="6.59272">
        <ele>392</ele>
        <time>2015-06-13T13:14:43.589Z</time>
      </trkpt>
      <trkpt lat="47.77254" lon="6.59272">
        <ele>392</ele>
        <time>2015-06-13T13:14:44.657Z</time>
      </trkpt>
      <trkpt lat="47.7726" lon="6.59273">
        <ele>392</ele>
        <time>2015-06-13T13:14:46.69Z</time>
      </trkpt>
      <trkpt lat="47.77263" lon="6.59272">
        <ele>392</ele>
        <time>2015-06-13T13:14:47.658Z</time>
      </trkpt>
      <trkpt lat="47.77269" lon="6.59263">
        <ele>392</ele>
        <time>2015-06-13T13:14:53.665Z</time>
      </trkpt>
      <trkpt lat="47.7727" lon="6.59262">
        <ele>392</ele>
        <time>2015-06-13T13:14:54.658Z</time>
      </trkpt>
      <trkpt lat="47.77277" lon="6.59254">
        <ele>392</ele>
        <time>2015-06-13T13:14:59.657Z</time>
      </trkpt>
      <trkpt lat="47.77279" lon="6.59254">
        <ele>392.153</ele>
        <time>2015-06-13T13:15:00.656Z</time>
      </trkpt>
      <trkpt lat="47.77286" lon="6.59252">
        <ele>393.709</ele>
        <time>2015-06-13T13:15:04.593Z</time>
      </trkpt>
      <trkpt lat="47.77288" lon="6.59253">
        <ele>394.235</ele>
        <time>2015-06-13T13:15:05.583Z</time>
      </trkpt>
      <trkpt lat="47.77296" lon="6.59251">
        <ele>395.931</ele>
        <time>2015-06-13T13:15:19.618Z</time>
      </trkpt>
      <trkpt lat="47.77298" lon="6.59254">
        <ele>396.192</ele>
        <time>2015-06-13T13:15:20.689Z</time>
      </trkpt>
      <trkpt lat="47.7729" lon="6.59259">
        <ele>394.483</ele>
        <time>2015-06-13T13:15:24.869Z</time>
      </trkpt>
      <trkpt lat="47.77288" lon="6.59259">
        <ele>394.044</ele>
        <time>2015-06-13T13:15:25.764Z</time>
      </trkpt>
      <trkpt lat="47.77279" lon="6.59259">
        <ele>392.23</ele>
        <time>2015-06-13T13:15:28.672Z</time>
      </trkpt>
      <trkpt lat="47.77276" lon="6.59256">
        <ele>392</ele>
        <time>2015-06-13T13:15:29.724Z</time>
      </trkpt>
      <trkpt lat="47.77269" lon="6.59249">
        <ele>392.095</ele>
        <time>2015-06-13T13:15:32.657Z</time>
      </trkpt>
      <trkpt lat="47.77266" lon="6.5925">
        <ele>392</ele>
        <time>2015-06-13T13:15:33.655Z</time>
      </trkpt>
      <trkpt lat="47.77258" lon="6.59252">
        <ele>392</ele>
        <time>2015-06-13T13:15:36.677Z</time>
      </trkpt>
      <trkpt lat="47.77255" lon="6.59255">
        <ele>392</ele>
        <time>2015-06-13T13:15:37.664Z</time>
      </trkpt>
      <trkpt lat="47.77252" lon="6.59264">
        <ele>392</ele>
        <time>2015-06-13T13:15:39.661Z</time>
      </trkpt>
      <trkpt lat="47.77251" lon="6.5927">
        <ele>392</ele>
        <time>2015-06-13T13:15:40.66Z</time>
      </trkpt>
      <trkpt lat="47.7725" lon="6.5928">
        <ele>391.978</ele>
        <time>2015-06-13T13:15:42.672Z</time>
      </trkpt>
      <trkpt lat="47.77249" lon="6.59284">
        <ele>391.944</ele>
        <time>2015-06-13T13:15:43.695Z</time>
      </trkpt>
      <trkpt lat="47.77251" lon="6.59296">
        <ele>392.071</ele>
        <time>2015-06-13T13:15:46.65Z</time>
      </trkpt>
      <trkpt lat="47.77251" lon="6.59301">
        <ele>392.098</ele>
        <time>2015-06-13T13:15:47.86Z</time>
      </trkpt>
      <trkpt lat="47.7725" lon="6.59312">
        <ele>391.946</ele>
        <time>2015-06-13T13:15:49.659Z</time>
      </trkpt>
      <trkpt lat="47.77249" lon="6.59317">
        <ele>391.816</ele>
        <time>2015-06-13T13:15:50.659Z</time>
      </trkpt>
      <trkpt lat="47.77249" lon="6.59327">
        <ele>391.713</ele>
        <time>2015-06-13T13:15:52.672Z</time>
      </trkpt>
      <trkpt lat="47.77248" lon="6.59332">
        <ele>391.665</ele>
        <time>2015-06-13T13:15:53.688Z</time>
      </trkpt>
      <trkpt lat="47.77248" lon="6.59342">
        <ele>391.209</ele>
        <time>2015-06-13T13:15:55.651Z</time>
      </trkpt>
      <trkpt lat="47.77247" lon="6.59347">
        <ele>390.892</ele>
        <time>2015-06-13T13:15:56.652Z</time>
      </trkpt>
      <trkpt lat="47.77247" lon="6.59357">
        <ele>390.572</ele>
        <time>2015-06-13T13:15:58.651Z</time>
      </trkpt>
      <trkpt lat="47.77248" lon="6.59361">
        <ele>390.622</ele>
        <time>2015-06-13T13:15:59.636Z</time>
      </trkpt>
      <trkpt lat="47.77252" lon="6.5937">
        <ele>388.972</ele>
        <time>2015-06-13T13:16:02.658Z</time>
      </trkpt>
      <trkpt lat="47.77254" lon="6.59374">
        <ele>388.127</ele>
        <time>2015-06-13T13:16:03.658Z</time>
      </trkpt>
      <trkpt lat="47.77259" lon="6.59382">
        <ele>386.348</ele>
        <time>2015-06-13T13:16:05.656Z</time>
      </trkpt>
      <trkpt lat="47.77261" lon="6.59385">
        <ele>385.805</ele>
        <time>2015-06-13T13:16:06.68Z</time>
      </trkpt>
      <trkpt lat="47.77269" lon="6.59388">
        <ele>385.228</ele>
        <time>2015-06-13T13:16:11.666Z</time>
      </trkpt>
      <trkpt lat="47.7727" lon="6.59387">
        <ele>385.378</ele>
        <time>2015-06-13T13:16:12.657Z</time>
      </trkpt>
      <trkpt lat="47.77279" lon="6.59389">
        <ele>385.008</ele>
        <time>2015-06-13T13:16:20.685Z</time>
      </trkpt>
      <trkpt lat="47.7728" lon="6.5939">
        <ele>385</ele>
        <time>2015-06-13T13:16:21.669Z</time>
      </trkpt>
      <trkpt lat="47.77288" lon="6.5939">
        <ele>385.3</ele>
        <time>2015-06-13T13:16:29.617Z</time>
      </trkpt>
      <trkpt lat="47.7729" lon="6.5939">
        <ele>385.388</ele>
        <time>2015-06-13T13:16:30.659Z</time>
      </trkpt>
      <trkpt lat="47.77297" lon="6.59387">
        <ele>385.899</ele>
        <time>2015-06-13T13:16:32.606Z</time>
      </trkpt>
      <trkpt lat="47.773" lon="6.59386">
        <ele>386.12</ele>
        <time>2015-06-13T13:16:33.657Z</time>
      </trkpt>
      <trkpt lat="47.77306" lon="6.59386">
        <ele>386.393</ele>
        <time>2015-06-13T13:16:35.667Z</time>
      </trkpt>
      <trkpt lat="47.77309" lon="6.59385">
        <ele>386.746</ele>
        <time>2015-06-13T13:16:36.658Z</time>
      </trkpt>
      <trkpt lat="47.77315" lon="6.59384">
        <ele>387.395</ele>
        <time>2015-06-13T13:16:38.656Z</time>
      </trkpt>
      <trkpt lat="47.77319" lon="6.59384">
        <ele>387.793</ele>
        <time>2015-06-13T13:16:39.61Z</time>
      </trkpt>
      <trkpt lat="47.77328" lon="6.5938">
        <ele>389.356</ele>
        <time>2015-06-13T13:16:43.664Z</time>
      </trkpt>
      <trkpt lat="47.7733" lon="6.59379">
        <ele>389.795</ele>
        <time>2015-06-13T13:16:44.625Z</time>
      </trkpt>
      <trkpt lat="47.77337" lon="6.59377">
        <ele>391.272</ele>
        <time>2015-06-13T13:16:47.665Z</time>
      </trkpt>
      <trkpt lat="47.77339" lon="6.59378">
        <ele>391.781</ele>
        <time>2015-06-13T13:16:48.665Z</time>
      </trkpt>
      <trkpt lat="47.77345" lon="6.59387">
        <ele>392.104</ele>
        <time>2015-06-13T13:16:55.683Z</time>
      </trkpt>
      <trkpt lat="47.77347" lon="6.59386">
        <ele>392.622</ele>
        <time>2015-06-13T13:16:56.667Z</time>
      </trkpt>
      <trkpt lat="47.77355" lon="6.59383">
        <ele>395.536</ele>
        <time>2015-06-13T13:17:02.653Z</time>
      </trkpt>
      <trkpt lat="47.77356" lon="6.59384">
        <ele>395.754</ele>
        <time>2015-06-13T13:17:03.653Z</time>
      </trkpt>
      <trkpt lat="47.77364" lon="6.59383">
        <ele>397.814</ele>
        <time>2015-06-13T13:17:09.653Z</time>
      </trkpt>
      <trkpt lat="47.77365" lon="6.59382">
        <ele>398.138</ele>
        <time>2015-06-13T13:17:10.654Z</time>
      </trkpt>
      <trkpt lat="47.77373" lon="6.59383">
        <ele>399.744</ele>
        <time>2015-06-13T13:17:16.668Z</time>
      </trkpt>
      <trkpt lat="47.77375" lon="6.59384">
        <ele>400.144</ele>
        <time>2015-06-13T13:17:17.685Z</time>
      </trkpt>
      <trkpt lat="47.77382" lon="6.59387">
        <ele>401.609</ele>
        <time>2015-06-13T13:17:21.693Z</time>
      </trkpt>
      <trkpt lat="47.77384" lon="6.59388">
        <ele>401.933</ele>
        <time>2015-06-13T13:17:22.674Z</time>
      </trkpt>
      <trkpt lat="47.77392" lon="6.59387">
        <ele>403.395</ele>
        <time>2015-06-13T13:17:26.668Z</time>
      </trkpt>
      <trkpt lat="47.77395" lon="6.59387">
        <ele>403.762</ele>
        <time>2015-06-13T13:17:27.621Z</time>
      </trkpt>
      <trkpt lat="47.77403" lon="6.59383">
        <ele>404.994</ele>
        <time>2015-06-13T13:17:29.645Z</time>
      </trkpt>
      <trkpt lat="47.77405" lon="6.59384">
        <ele>405.203</ele>
        <time>2015-06-13T13:17:30.651Z</time>
      </trkpt>
      <trkpt lat="47.77407" lon="6.59393">
        <ele>404.468</ele>
        <time>2015-06-13T13:17:32.65Z</time>
      </trkpt>
      <trkpt lat="47.77408" lon="6.59398">
        <ele>404.109</ele>
        <time>2015-06-13T13:17:33.682Z</time>
      </trkpt>
      <trkpt lat="47.7741" lon="6.5941">
        <ele>403.422</ele>
        <time>2015-06-13T13:17:36.662Z</time>
      </trkpt>
      <trkpt lat="47.77411" lon="6.59414">
        <ele>403.22</ele>
        <time>2015-06-13T13:17:37.692Z</time>
      </trkpt>
      <trkpt lat="47.77415" lon="6.59424">
        <ele>403.126</ele>
        <time>2015-06-13T13:17:40.66Z</time>
      </trkpt>
      <trkpt lat="47.77417" lon="6.59427">
        <ele>403.302</ele>
        <time>2015-06-13T13:17:41.672Z</time>
      </trkpt>
      <trkpt lat="47.77422" lon="6.59431">
        <ele>403.388</ele>
        <time>2015-06-13T13:17:43.665Z</time>
      </trkpt>
      <trkpt lat="47.77426" lon="6.59434">
        <ele>403.424</ele>
        <time>2015-06-13T13:17:44.583Z</time>
      </trkpt>
      <trkpt lat="47.77429" lon="6.59437">
        <ele>403.467</ele>
        <time>2015-06-13T13:17:45.67Z</time>
      </trkpt>
      <trkpt lat="47.77434" lon="6.5944">
        <ele>403.604</ele>
        <time>2015-06-13T13:17:46.659Z</time>
      </trkpt>
      <trkpt lat="47.77445" lon="6.5944">
        <ele>404.311</ele>
        <time>2015-06-13T13:17:47.593Z</time>
      </trkpt>
      <trkpt lat="47.7745" lon="6.59443">
        <ele>404.266</ele>
        <time>2015-06-13T13:17:48.596Z</time>
      </trkpt>
      <trkpt lat="47.77456" lon="6.59447">
        <ele>404.274</ele>
        <time>2015-06-13T13:17:49.592Z</time>
      </trkpt>
      <trkpt lat="47.77461" lon="6.5945">
        <ele>404.314</ele>
        <time>2015-06-13T13:17:51.658Z</time>
      </trkpt>
      <trkpt lat="47.77465" lon="6.59452">
        <ele>404.397</ele>
        <time>2015-06-13T13:17:52.652Z</time>
      </trkpt>
      <trkpt lat="47.77465" lon="6.5946">
        <ele>404.015</ele>
        <time>2015-06-13T13:17:53.654Z</time>
      </trkpt>
      <trkpt lat="47.77468" lon="6.59465">
        <ele>404.014</ele>
        <time>2015-06-13T13:17:54.647Z</time>
      </trkpt>
      <trkpt lat="47.77474" lon="6.59472">
        <ele>404.024</ele>
        <time>2015-06-13T13:17:56.653Z</time>
      </trkpt>
      <trkpt lat="47.77476" lon="6.59478">
        <ele>402.861</ele>
        <time>2015-06-13T13:17:57.653Z</time>
      </trkpt>
      <trkpt lat="47.77479" lon="6.5949">
        <ele>400.66</ele>
        <time>2015-06-13T13:18:03.681Z</time>
      </trkpt>
      <trkpt lat="47.7748" lon="6.59492">
        <ele>400.255</ele>
        <time>2015-06-13T13:18:04.639Z</time>
      </trkpt>
      <trkpt lat="47.77483" lon="6.59503">
        <ele>398.769</ele>
        <time>2015-06-13T13:18:08.652Z</time>
      </trkpt>
      <trkpt lat="47.77484" lon="6.59504">
        <ele>398.761</ele>
        <time>2015-06-13T13:18:09.612Z</time>
      </trkpt>
      <trkpt lat="47.77489" lon="6.59515">
        <ele>398.358</ele>
        <time>2015-06-13T13:18:16.651Z</time>
      </trkpt>
      <trkpt lat="47.7749" lon="6.59516">
        <ele>398.344</ele>
        <time>2015-06-13T13:18:17.614Z</time>
      </trkpt>
      <trkpt lat="47.77496" lon="6.59526">
        <ele>398.41</ele>
        <time>2015-06-13T13:18:22.654Z</time>
      </trkpt>
      <trkpt lat="47.77498" lon="6.59528">
        <ele>398.592</ele>
        <time>2015-06-13T13:18:23.633Z</time>
      </trkpt>
      <trkpt lat="47.77504" lon="6.59533">
        <ele>397.978</ele>
        <time>2015-06-13T13:18:27.651Z</time>
      </trkpt>
      <trkpt lat="47.77506" lon="6.59533">
        <ele>397.866</ele>
        <time>2015-06-13T13:18:28.834Z</time>
      </trkpt>
      <trkpt lat="47.77514" lon="6.59534">
        <ele>397.666</ele>
        <time>2015-06-13T13:18:32.657Z</time>
      </trkpt>
      <trkpt lat="47.77517" lon="6.59535">
        <ele>397.601</ele>
        <time>2015-06-13T13:18:33.652Z</time>
      </trkpt>
      <trkpt lat="47.77524" lon="6.59539">
        <ele>397.71</ele>
        <time>2015-06-13T13:18:36.654Z</time>
      </trkpt>
      <trkpt lat="47.77526" lon="6.59541">
        <ele>397.856</ele>
        <time>2015-06-13T13:18:37.654Z</time>
      </trkpt>
      <trkpt lat="47.77533" lon="6.59546">
        <ele>399.18</ele>
        <time>2015-06-13T13:18:40.66Z</time>
      </trkpt>
      <trkpt lat="47.77534" lon="6.59548">
        <ele>399.652</ele>
        <time>2015-06-13T13:18:41.683Z</time>
      </trkpt>
      <trkpt lat="47.7754" lon="6.59555">
        <ele>401.07</ele>
        <time>2015-06-13T13:18:44.653Z</time>
      </trkpt>
      <trkpt lat="47.77542" lon="6.59557">
        <ele>401.672</ele>
        <time>2015-06-13T13:18:45.659Z</time>
      </trkpt>
      <trkpt lat="47.77547" lon="6.59562">
        <ele>402.849</ele>
        <time>2015-06-13T13:18:47.66Z</time>
      </trkpt>
      <trkpt lat="47.7755" lon="6.59563">
        <ele>403.339</ele>
        <time>2015-06-13T13:18:48.66Z</time>
      </trkpt>
      <trkpt lat="47.77556" lon="6.59567">
        <ele>404.005</ele>
        <time>2015-06-13T13:18:50.67Z</time>
      </trkpt>
      <trkpt lat="47.77559" lon="6.59569">
        <ele>404.382</ele>
        <time>2015-06-13T13:18:51.622Z</time>
      </trkpt>
      <trkpt lat="47.77566" lon="6.59575">
        <ele>405.618</ele>
        <time>2015-06-13T13:18:54.656Z</time>
      </trkpt>
      <trkpt lat="47.77569" lon="6.59579">
        <ele>406.107</ele>
        <time>2015-06-13T13:18:55.661Z</time>
      </trkpt>
      <trkpt lat="47.77572" lon="6.59587">
        <ele>406.847</ele>
        <time>2015-06-13T13:18:57.668Z</time>
      </trkpt>
      <trkpt lat="47.77573" lon="6.59592">
        <ele>406.788</ele>
        <time>2015-06-13T13:18:58.672Z</time>
      </trkpt>
      <trkpt lat="47.77574" lon="6.59605">
        <ele>406.291</ele>
        <time>2015-06-13T13:18:59.698Z</time>
      </trkpt>
      <trkpt lat="47.77576" lon="6.59611">
        <ele>406.012</ele>
        <time>2015-06-13T13:19:00.634Z</time>
      </trkpt>
      <trkpt lat="47.77577" lon="6.59618">
        <ele>404.798</ele>
        <time>2015-06-13T13:19:01.037Z</time>
      </trkpt>
      <trkpt lat="47.7758" lon="6.59624">
        <ele>403.758</ele>
        <time>2015-06-13T13:19:02.128Z</time>
      </trkpt>
      <trkpt lat="47.77585" lon="6.59631">
        <ele>402.53</ele>
        <time>2015-06-13T13:19:04.152Z</time>
      </trkpt>
      <trkpt lat="47.77587" lon="6.59635">
        <ele>402.128</ele>
        <time>2015-06-13T13:19:05.056Z</time>
      </trkpt>
      <trkpt lat="47.77592" lon="6.59642">
        <ele>402.198</ele>
        <time>2015-06-13T13:19:07.141Z</time>
      </trkpt>
      <trkpt lat="47.77593" lon="6.59645">
        <ele>402.172</ele>
        <time>2015-06-13T13:19:08.037Z</time>
      </trkpt>
      <trkpt lat="47.77598" lon="6.59654">
        <ele>401.734</ele>
        <time>2015-06-13T13:19:11.126Z</time>
      </trkpt>
      <trkpt lat="47.776" lon="6.59657">
        <ele>401.386</ele>
        <time>2015-06-13T13:19:12.032Z</time>
      </trkpt>
      <trkpt lat="47.77601" lon="6.5967">
        <ele>400.24</ele>
        <time>2015-06-13T13:19:16.097Z</time>
      </trkpt>
      <trkpt lat="47.77603" lon="6.59674">
        <ele>400.499</ele>
        <time>2015-06-13T13:19:17.114Z</time>
      </trkpt>
      <trkpt lat="47.77607" lon="6.59683">
        <ele>401.176</ele>
        <time>2015-06-13T13:19:20.102Z</time>
      </trkpt>
      <trkpt lat="47.77608" lon="6.59686">
        <ele>401.385</ele>
        <time>2015-06-13T13:19:21.1Z</time>
      </trkpt>
      <trkpt lat="47.77613" lon="6.59696">
        <ele>401.67</ele>
        <time>2015-06-13T13:19:24.089Z</time>
      </trkpt>
      <trkpt lat="47.77615" lon="6.59698">
        <ele>401.47</ele>
        <time>2015-06-13T13:19:25.102Z</time>
      </trkpt>
      <trkpt lat="47.77619" lon="6.59707">
        <ele>401.062</ele>
        <time>2015-06-13T13:19:29.099Z</time>
      </trkpt>
      <trkpt lat="47.77617" lon="6.59712">
        <ele>401.707</ele>
        <time>2015-06-13T13:19:30.058Z</time>
      </trkpt>
      <trkpt lat="47.77614" lon="6.59721">
        <ele>403.142</ele>
        <time>2015-06-13T13:19:32.102Z</time>
      </trkpt>
      <trkpt lat="47.7761" lon="6.59724">
        <ele>404.075</ele>
        <time>2015-06-13T13:19:33.133Z</time>
      </trkpt>
      <trkpt lat="47.77607" lon="6.59733">
        <ele>404.37</ele>
        <time>2015-06-13T13:19:35.134Z</time>
      </trkpt>
      <trkpt lat="47.77608" lon="6.59738">
        <ele>404.561</ele>
        <time>2015-06-13T13:19:36.104Z</time>
      </trkpt>
      <trkpt lat="47.77611" lon="6.59746">
        <ele>404.83</ele>
        <time>2015-06-13T13:19:38.132Z</time>
      </trkpt>
      <trkpt lat="47.77614" lon="6.5975">
        <ele>403.792</ele>
        <time>2015-06-13T13:19:39.104Z</time>
      </trkpt>
      <trkpt lat="47.7762" lon="6.59755">
        <ele>401.215</ele>
        <time>2015-06-13T13:19:41.097Z</time>
      </trkpt>
      <trkpt lat="47.77624" lon="6.59757">
        <ele>399.989</ele>
        <time>2015-06-13T13:19:42.096Z</time>
      </trkpt>
      <trkpt lat="47.7763" lon="6.59763">
        <ele>398.447</ele>
        <time>2015-06-13T13:19:44.128Z</time>
      </trkpt>
      <trkpt lat="47.77632" lon="6.59766">
        <ele>398.023</ele>
        <time>2015-06-13T13:19:45.092Z</time>
      </trkpt>
      <trkpt lat="47.77638" lon="6.59773">
        <ele>397.262</ele>
        <time>2015-06-13T13:19:48.103Z</time>
      </trkpt>
      <trkpt lat="47.7764" lon="6.59776">
        <ele>397.615</ele>
        <time>2015-06-13T13:19:49.096Z</time>
      </trkpt>
      <trkpt lat="47.77643" lon="6.59785">
        <ele>397.639</ele>
        <time>2015-06-13T13:19:52.099Z</time>
      </trkpt>
      <trkpt lat="47.77645" lon="6.59788">
        <ele>397.652</ele>
        <time>2015-06-13T13:19:53.099Z</time>
      </trkpt>
      <trkpt lat="47.7765" lon="6.59795">
        <ele>397.989</ele>
        <time>2015-06-13T13:19:56.112Z</time>
      </trkpt>
      <trkpt lat="47.77651" lon="6.59798">
        <ele>398.13</ele>
        <time>2015-06-13T13:19:57.116Z</time>
      </trkpt>
      <trkpt lat="47.77655" lon="6.59808">
        <ele>399</ele>
        <time>2015-06-13T13:20:00.175Z</time>
      </trkpt>
      <trkpt lat="47.77656" lon="6.59811">
        <ele>399.432</ele>
        <time>2015-06-13T13:20:01.038Z</time>
      </trkpt>
      <trkpt lat="47.7766" lon="6.5982">
        <ele>400.88</ele>
        <time>2015-06-13T13:20:04.06Z</time>
      </trkpt>
      <trkpt lat="47.77662" lon="6.59822">
        <ele>401.445</ele>
        <time>2015-06-13T13:20:05.11Z</time>
      </trkpt>
      <trkpt lat="47.7767" lon="6.59827">
        <ele>403.26</ele>
        <time>2015-06-13T13:20:09.128Z</time>
      </trkpt>
      <trkpt lat="47.77672" lon="6.59826">
        <ele>403.646</ele>
        <time>2015-06-13T13:20:10.104Z</time>
      </trkpt>
      <trkpt lat="47.77679" lon="6.59825">
        <ele>404.916</ele>
        <time>2015-06-13T13:20:13.113Z</time>
      </trkpt>
      <trkpt lat="47.77682" lon="6.59825">
        <ele>405.5</ele>
        <time>2015-06-13T13:20:14.11Z</time>
      </trkpt>
      <trkpt lat="47.7769" lon="6.59825">
        <ele>407.198</ele>
        <time>2015-06-13T13:20:17.08Z</time>
      </trkpt>
      <trkpt lat="47.77692" lon="6.59825">
        <ele>407.566</ele>
        <time>2015-06-13T13:20:18.104Z</time>
      </trkpt>
      <trkpt lat="47.77696" lon="6.59822">
        <ele>408.032</ele>
        <time>2015-06-13T13:20:19.127Z</time>
      </trkpt>
      <trkpt lat="47.777" lon="6.5982">
        <ele>408.364</ele>
        <time>2015-06-13T13:20:20.105Z</time>
      </trkpt>
      <trkpt lat="47.77708" lon="6.59814">
        <ele>408.893</ele>
        <time>2015-06-13T13:20:22.116Z</time>
      </trkpt>
      <trkpt lat="47.77711" lon="6.59812">
        <ele>409.138</ele>
        <time>2015-06-13T13:20:23.071Z</time>
      </trkpt>
      <trkpt lat="47.77719" lon="6.59809">
        <ele>409.84</ele>
        <time>2015-06-13T13:20:25.125Z</time>
      </trkpt>
      <trkpt lat="47.77723" lon="6.59808">
        <ele>410.234</ele>
        <time>2015-06-13T13:20:26.113Z</time>
      </trkpt>
      <trkpt lat="47.77727" lon="6.59806">
        <ele>410.377</ele>
        <time>2015-06-13T13:20:27.134Z</time>
      </trkpt>
      <trkpt lat="47.77732" lon="6.59804">
        <ele>410.586</ele>
        <time>2015-06-13T13:20:28.103Z</time>
      </trkpt>
      <trkpt lat="47.77737" lon="6.59803">
        <ele>410.892</ele>
        <time>2015-06-13T13:20:29.097Z</time>
      </trkpt>
      <trkpt lat="47.77743" lon="6.59803">
        <ele>411.355</ele>
        <time>2015-06-13T13:20:30.112Z</time>
      </trkpt>
      <trkpt lat="47.77749" lon="6.59803">
        <ele>411.826</ele>
        <time>2015-06-13T13:20:31.112Z</time>
      </trkpt>
      <trkpt lat="47.77754" lon="6.59803">
        <ele>411.78</ele>
        <time>2015-06-13T13:20:32.136Z</time>
      </trkpt>
      <trkpt lat="47.77759" lon="6.59804">
        <ele>411.645</ele>
        <time>2015-06-13T13:20:33.104Z</time>
      </trkpt>
      <trkpt lat="47.77764" lon="6.59804">
        <ele>411.473</ele>
        <time>2015-06-13T13:20:34.126Z</time>
      </trkpt>
      <trkpt lat="47.77769" lon="6.59803">
        <ele>411.284</ele>
        <time>2015-06-13T13:20:35.105Z</time>
      </trkpt>
      <trkpt lat="47.77774" lon="6.59803">
        <ele>411.11</ele>
        <time>2015-06-13T13:20:36.078Z</time>
      </trkpt>
      <trkpt lat="47.7778" lon="6.59803">
        <ele>410.908</ele>
        <time>2015-06-13T13:20:37.104Z</time>
      </trkpt>
      <trkpt lat="47.77785" lon="6.59804">
        <ele>410.719</ele>
        <time>2015-06-13T13:20:38.103Z</time>
      </trkpt>
      <trkpt lat="47.7779" lon="6.59806">
        <ele>410.553</ele>
        <time>2015-06-13T13:20:39.145Z</time>
      </trkpt>
      <trkpt lat="47.77802" lon="6.59809">
        <ele>410.378</ele>
        <time>2015-06-13T13:20:40.104Z</time>
      </trkpt>
      <trkpt lat="47.77809" lon="6.59813">
        <ele>410.483</ele>
        <time>2015-06-13T13:20:42.133Z</time>
      </trkpt>
      <trkpt lat="47.77813" lon="6.59815">
        <ele>410.611</ele>
        <time>2015-06-13T13:20:43.029Z</time>
      </trkpt>
      <trkpt lat="47.77814" lon="6.59816">
        <ele>410.63</ele>
        <time>2015-06-13T13:20:44.098Z</time>
      </trkpt>
      <trkpt lat="47.77823" lon="6.59814">
        <ele>410.409</ele>
        <time>2015-06-13T13:20:45.098Z</time>
      </trkpt>
      <trkpt lat="47.77831" lon="6.59818">
        <ele>410.479</ele>
        <time>2015-06-13T13:20:48.098Z</time>
      </trkpt>
      <trkpt lat="47.77837" lon="6.59815">
        <ele>411.102</ele>
        <time>2015-06-13T13:20:49.096Z</time>
      </trkpt>
      <trkpt lat="47.77842" lon="6.59816">
        <ele>412.504</ele>
        <time>2015-06-13T13:20:52.096Z</time>
      </trkpt>
      <trkpt lat="47.77846" lon="6.59817">
        <ele>413.383</ele>
        <time>2015-06-13T13:20:53.12Z</time>
      </trkpt>
      <trkpt lat="47.77854" lon="6.59818">
        <ele>415.23</ele>
        <time>2015-06-13T13:20:55.098Z</time>
      </trkpt>
      <trkpt lat="47.77857" lon="6.59823">
        <ele>415.985</ele>
        <time>2015-06-13T13:20:56.097Z</time>
      </trkpt>
      <trkpt lat="47.77863" lon="6.59821">
        <ele>416.857</ele>
        <time>2015-06-13T13:20:57.096Z</time>
      </trkpt>
      <trkpt lat="47.77868" lon="6.59822">
        <ele>416.504</ele>
        <time>2015-06-13T13:20:58.097Z</time>
      </trkpt>
      <trkpt lat="47.77873" lon="6.59824">
        <ele>416.151</ele>
        <time>2015-06-13T13:20:59.098Z</time>
      </trkpt>
      <trkpt lat="47.77877" lon="6.59825">
        <ele>415.87</ele>
        <time>2015-06-13T13:21:00.128Z</time>
      </trkpt>
      <trkpt lat="47.77881" lon="6.59827">
        <ele>415.539</ele>
        <time>2015-06-13T13:21:01.096Z</time>
      </trkpt>
      <trkpt lat="47.77886" lon="6.59829">
        <ele>415.208</ele>
        <time>2015-06-13T13:21:02.098Z</time>
      </trkpt>
      <trkpt lat="47.77891" lon="6.59831">
        <ele>414.701</ele>
        <time>2015-06-13T13:21:03.097Z</time>
      </trkpt>
      <trkpt lat="47.77896" lon="6.59835">
        <ele>413.902</ele>
        <time>2015-06-13T13:21:04.096Z</time>
      </trkpt>
      <trkpt lat="47.779" lon="6.59841">
        <ele>413.574</ele>
        <time>2015-06-13T13:21:05.088Z</time>
      </trkpt>
      <trkpt lat="47.77906" lon="6.59854">
        <ele>413.567</ele>
        <time>2015-06-13T13:21:06.106Z</time>
      </trkpt>
      <trkpt lat="47.77909" lon="6.59859">
        <ele>413.646</ele>
        <time>2015-06-13T13:21:07.131Z</time>
      </trkpt>
      <trkpt lat="47.77911" lon="6.59867">
        <ele>413.972</ele>
        <time>2015-06-13T13:21:08.096Z</time>
      </trkpt>
      <trkpt lat="47.77916" lon="6.59874">
        <ele>413.999</ele>
        <time>2015-06-13T13:21:09.12Z</time>
      </trkpt>
      <trkpt lat="47.77916" lon="6.59879">
        <ele>414.393</ele>
        <time>2015-06-13T13:21:10.096Z</time>
      </trkpt>
      <trkpt lat="47.77918" lon="6.5989">
        <ele>414.675</ele>
        <time>2015-06-13T13:21:12.098Z</time>
      </trkpt>
      <trkpt lat="47.77919" lon="6.59895">
        <ele>414.475</ele>
        <time>2015-06-13T13:21:13.099Z</time>
      </trkpt>
      <trkpt lat="47.77916" lon="6.59898">
        <ele>415.391</ele>
        <time>2015-06-13T13:21:14.097Z</time>
      </trkpt>
      <trkpt lat="47.7791" lon="6.599">
        <ele>416.351</ele>
        <time>2015-06-13T13:21:15.098Z</time>
      </trkpt>
      <trkpt lat="47.77915" lon="6.59911">
        <ele>416.172</ele>
        <time>2015-06-13T13:21:19.097Z</time>
      </trkpt>
      <trkpt lat="47.77915" lon="6.59914">
        <ele>416.156</ele>
        <time>2015-06-13T13:21:20.119Z</time>
      </trkpt>
      <trkpt lat="47.77919" lon="6.59925">
        <ele>415.983</ele>
        <time>2015-06-13T13:21:23.075Z</time>
      </trkpt>
      <trkpt lat="47.77922" lon="6.59929">
        <ele>415.833</ele>
        <time>2015-06-13T13:21:24.096Z</time>
      </trkpt>
      <trkpt lat="47.77928" lon="6.59938">
        <ele>415.671</ele>
        <time>2015-06-13T13:21:26.098Z</time>
      </trkpt>
      <trkpt lat="47.77931" lon="6.59942">
        <ele>415.736</ele>
        <time>2015-06-13T13:21:27.098Z</time>
      </trkpt>
      <trkpt lat="47.77937" lon="6.59951">
        <ele>415.98</ele>
        <time>2015-06-13T13:21:29.098Z</time>
      </trkpt>
      <trkpt lat="47.7794" lon="6.59956">
        <ele>416.25</ele>
        <time>2015-06-13T13:21:30.063Z</time>
      </trkpt>
      <trkpt lat="47.77944" lon="6.59966">
        <ele>417.101</ele>
        <time>2015-06-13T13:21:32.098Z</time>
      </trkpt>
      <trkpt lat="47.77946" lon="6.59971">
        <ele>417.616</ele>
        <time>2015-06-13T13:21:33.098Z</time>
      </trkpt>
      <trkpt lat="47.77949" lon="6.59982">
        <ele>417.135</ele>
        <time>2015-06-13T13:21:35.137Z</time>
      </trkpt>
      <trkpt lat="47.77951" lon="6.59988">
        <ele>416.894</ele>
        <time>2015-06-13T13:21:36.121Z</time>
      </trkpt>
      <trkpt lat="47.77954" lon="6.59997">
        <ele>416.672</ele>
        <time>2015-06-13T13:21:38.097Z</time>
      </trkpt>
      <trkpt lat="47.77954" lon="6.60002">
        <ele>416.836</ele>
        <time>2015-06-13T13:21:39.097Z</time>
      </trkpt>
      <trkpt lat="47.77956" lon="6.60015">
        <ele>418.182</ele>
        <time>2015-06-13T13:21:42.103Z</time>
      </trkpt>
      <trkpt lat="47.77957" lon="6.60019">
        <ele>418.575</ele>
        <time>2015-06-13T13:21:43.114Z</time>
      </trkpt>
      <trkpt lat="47.77954" lon="6.60029">
        <ele>419.754</ele>
        <time>2015-06-13T13:21:52.128Z</time>
      </trkpt>
      <trkpt lat="47.77955" lon="6.60033">
        <ele>419.916</ele>
        <time>2015-06-13T13:21:53.055Z</time>
      </trkpt>
      <trkpt lat="47.77954" lon="6.60042">
        <ele>420.493</ele>
        <time>2015-06-13T13:21:56.11Z</time>
      </trkpt>
      <trkpt lat="47.77955" lon="6.60046">
        <ele>420.677</ele>
        <time>2015-06-13T13:21:57.098Z</time>
      </trkpt>
      <trkpt lat="47.77959" lon="6.60056">
        <ele>420.958</ele>
        <time>2015-06-13T13:22:00.124Z</time>
      </trkpt>
      <trkpt lat="47.77962" lon="6.60059">
        <ele>420.817</ele>
        <time>2015-06-13T13:22:01.095Z</time>
      </trkpt>
      <trkpt lat="47.77968" lon="6.60063">
        <ele>420.337</ele>
        <time>2015-06-13T13:22:03.128Z</time>
      </trkpt>
      <trkpt lat="47.77971" lon="6.60065">
        <ele>420.094</ele>
        <time>2015-06-13T13:22:04.125Z</time>
      </trkpt>
      <trkpt lat="47.77977" lon="6.60069">
        <ele>420.322</ele>
        <time>2015-06-13T13:22:06.096Z</time>
      </trkpt>
      <trkpt lat="47.77981" lon="6.60071">
        <ele>420.69</ele>
        <time>2015-06-13T13:22:07.149Z</time>
      </trkpt>
      <trkpt lat="47.77987" lon="6.60075">
        <ele>421.69</ele>
        <time>2015-06-13T13:22:09.097Z</time>
      </trkpt>
      <trkpt lat="47.77989" lon="6.60077">
        <ele>422.286</ele>
        <time>2015-06-13T13:22:10.106Z</time>
      </trkpt>
      <trkpt lat="47.77997" lon="6.60083">
        <ele>424.355</ele>
        <time>2015-06-13T13:22:14.119Z</time>
      </trkpt>
      <trkpt lat="47.77998" lon="6.60084">
        <ele>424.68</ele>
        <time>2015-06-13T13:22:15.104Z</time>
      </trkpt>
      <trkpt lat="47.78005" lon="6.60088">
        <ele>423.593</ele>
        <time>2015-06-13T13:22:18.105Z</time>
      </trkpt>
      <trkpt lat="47.78008" lon="6.60091">
        <ele>422.872</ele>
        <time>2015-06-13T13:22:19.104Z</time>
      </trkpt>
      <trkpt lat="47.78015" lon="6.60095">
        <ele>421.134</ele>
        <time>2015-06-13T13:22:22.105Z</time>
      </trkpt>
      <trkpt lat="47.78017" lon="6.60096">
        <ele>420.7</ele>
        <time>2015-06-13T13:22:23.126Z</time>
      </trkpt>
      <trkpt lat="47.78022" lon="6.60106">
        <ele>419.922</ele>
        <time>2015-06-13T13:22:30.118Z</time>
      </trkpt>
      <trkpt lat="47.78025" lon="6.60107">
        <ele>419.472</ele>
        <time>2015-06-13T13:22:31.078Z</time>
      </trkpt>
      <trkpt lat="47.78032" lon="6.60112">
        <ele>418.979</ele>
        <time>2015-06-13T13:22:34.102Z</time>
      </trkpt>
      <trkpt lat="47.78035" lon="6.60113">
        <ele>419.288</ele>
        <time>2015-06-13T13:22:35.102Z</time>
      </trkpt>
      <trkpt lat="47.78042" lon="6.60122">
        <ele>421.517</ele>
        <time>2015-06-13T13:22:39.112Z</time>
      </trkpt>
      <trkpt lat="47.78042" lon="6.60125">
        <ele>422.131</ele>
        <time>2015-06-13T13:22:40.119Z</time>
      </trkpt>
      <trkpt lat="47.78045" lon="6.60135">
        <ele>424.011</ele>
        <time>2015-06-13T13:22:44.112Z</time>
      </trkpt>
      <trkpt lat="47.78047" lon="6.60137">
        <ele>423.991</ele>
        <time>2015-06-13T13:22:45.124Z</time>
      </trkpt>
      <trkpt lat="47.78055" lon="6.60139">
        <ele>422.089</ele>
        <time>2015-06-13T13:22:48.116Z</time>
      </trkpt>
      <trkpt lat="47.78058" lon="6.60139">
        <ele>421.86</ele>
        <time>2015-06-13T13:22:49.12Z</time>
      </trkpt>
      <trkpt lat="47.78065" lon="6.60147">
        <ele>421.63</ele>
        <time>2015-06-13T13:22:52.129Z</time>
      </trkpt>
      <trkpt lat="47.78067" lon="6.6015">
        <ele>421.505</ele>
        <time>2015-06-13T13:22:53.126Z</time>
      </trkpt>
      <trkpt lat="47.78073" lon="6.60153">
        <ele>420.766</ele>
        <time>2015-06-13T13:22:55.107Z</time>
      </trkpt>
      <trkpt lat="47.78076" lon="6.60156">
        <ele>420.468</ele>
        <time>2015-06-13T13:22:56.119Z</time>
      </trkpt>
      <trkpt lat="47.78077" lon="6.60169">
        <ele>420.39</ele>
        <time>2015-06-13T13:22:59.126Z</time>
      </trkpt>
      <trkpt lat="47.78075" lon="6.60174">
        <ele>421.298</ele>
        <time>2015-06-13T13:23:00.185Z</time>
      </trkpt>
      <trkpt lat="47.78074" lon="6.60185">
        <ele>422.914</ele>
        <time>2015-06-13T13:23:03.13Z</time>
      </trkpt>
      <trkpt lat="47.78072" lon="6.6019">
        <ele>423.833</ele>
        <time>2015-06-13T13:23:04.121Z</time>
      </trkpt>
      <trkpt lat="47.78067" lon="6.60198">
        <ele>425.847</ele>
        <time>2015-06-13T13:23:06.08Z</time>
      </trkpt>
      <trkpt lat="47.78064" lon="6.60201">
        <ele>426.874</ele>
        <time>2015-06-13T13:23:07.159Z</time>
      </trkpt>
      <trkpt lat="47.7806" lon="6.60219">
        <ele>429.451</ele>
        <time>2015-06-13T13:23:13.096Z</time>
      </trkpt>
      <trkpt lat="47.78059" lon="6.60231">
        <ele>431.058</ele>
        <time>2015-06-13T13:23:17.11Z</time>
      </trkpt>
      <trkpt lat="47.7806" lon="6.60234">
        <ele>431.062</ele>
        <time>2015-06-13T13:23:18.11Z</time>
      </trkpt>
      <trkpt lat="47.78062" lon="6.60246">
        <ele>431.84</ele>
        <time>2015-06-13T13:23:23.116Z</time>
      </trkpt>
      <trkpt lat="47.78064" lon="6.60247">
        <ele>431.616</ele>
        <time>2015-06-13T13:23:24.096Z</time>
      </trkpt>
      <trkpt lat="47.78069" lon="6.6025">
        <ele>430.7</ele>
        <time>2015-06-13T13:23:27.097Z</time>
      </trkpt>
      <trkpt lat="47.78073" lon="6.60252">
        <ele>429.901</ele>
        <time>2015-06-13T13:23:28.095Z</time>
      </trkpt>
      <trkpt lat="47.7808" lon="6.60255">
        <ele>428.542</ele>
        <time>2015-06-13T13:23:30.104Z</time>
      </trkpt>
      <trkpt lat="47.78083" lon="6.60258">
        <ele>428.296</ele>
        <time>2015-06-13T13:23:31.098Z</time>
      </trkpt>
      <trkpt lat="47.78088" lon="6.60267">
        <ele>427.783</ele>
        <time>2015-06-13T13:23:34.267Z</time>
      </trkpt>
      <trkpt lat="47.78089" lon="6.6027">
        <ele>427.661</ele>
        <time>2015-06-13T13:23:35.131Z</time>
      </trkpt>
      <trkpt lat="47.78095" lon="6.60278">
        <ele>426.283</ele>
        <time>2015-06-13T13:23:38.101Z</time>
      </trkpt>
      <trkpt lat="47.78097" lon="6.60281">
        <ele>426.085</ele>
        <time>2015-06-13T13:23:39.105Z</time>
      </trkpt>
      <trkpt lat="47.78104" lon="6.60287">
        <ele>425.152</ele>
        <time>2015-06-13T13:23:41.102Z</time>
      </trkpt>
      <trkpt lat="47.78108" lon="6.60289">
        <ele>424.526</ele>
        <time>2015-06-13T13:23:42.102Z</time>
      </trkpt>
      <trkpt lat="47.78114" lon="6.60294">
        <ele>424.392</ele>
        <time>2015-06-13T13:23:44.305Z</time>
      </trkpt>
      <trkpt lat="47.78117" lon="6.60297">
        <ele>424.583</ele>
        <time>2015-06-13T13:23:45.103Z</time>
      </trkpt>
      <trkpt lat="47.78123" lon="6.60302">
        <ele>424.83</ele>
        <time>2015-06-13T13:23:47.105Z</time>
      </trkpt>
      <trkpt lat="47.78127" lon="6.60304">
        <ele>424.68</ele>
        <time>2015-06-13T13:23:48.106Z</time>
      </trkpt>
      <trkpt lat="47.78135" lon="6.60307">
        <ele>423.977</ele>
        <time>2015-06-13T13:23:50.137Z</time>
      </trkpt>
      <trkpt lat="47.78138" lon="6.6031">
        <ele>424.009</ele>
        <time>2015-06-13T13:23:51.12Z</time>
      </trkpt>
      <trkpt lat="47.78143" lon="6.60315">
        <ele>425.327</ele>
        <time>2015-06-13T13:23:53.096Z</time>
      </trkpt>
      <trkpt lat="47.78146" lon="6.60317">
        <ele>426.178</ele>
        <time>2015-06-13T13:23:54.035Z</time>
      </trkpt>
      <trkpt lat="47.78154" lon="6.60321">
        <ele>428.007</ele>
        <time>2015-06-13T13:23:57.104Z</time>
      </trkpt>
      <trkpt lat="47.78157" lon="6.60322">
        <ele>428.474</ele>
        <time>2015-06-13T13:23:58.112Z</time>
      </trkpt>
      <trkpt lat="47.78164" lon="6.60329">
        <ele>430.228</ele>
        <time>2015-06-13T13:24:03.109Z</time>
      </trkpt>
      <trkpt lat="47.78166" lon="6.6033">
        <ele>430.584</ele>
        <time>2015-06-13T13:24:04.055Z</time>
      </trkpt>
      <trkpt lat="47.7817" lon="6.60339">
        <ele>431.32</ele>
        <time>2015-06-13T13:24:09.095Z</time>
      </trkpt>
      <trkpt lat="47.7817" lon="6.60342">
        <ele>431.443</ele>
        <time>2015-06-13T13:24:10.092Z</time>
      </trkpt>
      <trkpt lat="47.78172" lon="6.60353">
        <ele>431.875</ele>
        <time>2015-06-13T13:24:14.11Z</time>
      </trkpt>
      <trkpt lat="47.78172" lon="6.60356">
        <ele>432.001</ele>
        <time>2015-06-13T13:24:15.118Z</time>
      </trkpt>
      <trkpt lat="47.78179" lon="6.60364">
        <ele>432.604</ele>
        <time>2015-06-13T13:24:20.09Z</time>
      </trkpt>
      <trkpt lat="47.7818" lon="6.60365">
        <ele>432.662</ele>
        <time>2015-06-13T13:24:21.105Z</time>
      </trkpt>
      <trkpt lat="47.78188" lon="6.60361">
        <ele>432.746</ele>
        <time>2015-06-13T13:24:27.122Z</time>
      </trkpt>
      <trkpt lat="47.78189" lon="6.6036">
        <ele>432.778</ele>
        <time>2015-06-13T13:24:28.058Z</time>
      </trkpt>
      <trkpt lat="47.78197" lon="6.6036">
        <ele>432.798</ele>
        <time>2015-06-13T13:24:33.065Z</time>
      </trkpt>
      <trkpt lat="47.782" lon="6.60358">
        <ele>432.484</ele>
        <time>2015-06-13T13:24:34.127Z</time>
      </trkpt>
      <trkpt lat="47.78208" lon="6.60356">
        <ele>431.865</ele>
        <time>2015-06-13T13:24:36.097Z</time>
      </trkpt>
      <trkpt lat="47.7821" lon="6.60356">
        <ele>431.678</ele>
        <time>2015-06-13T13:24:37.119Z</time>
      </trkpt>
      <trkpt lat="47.78217" lon="6.60359">
        <ele>431.293</ele>
        <time>2015-06-13T13:24:41.112Z</time>
      </trkpt>
      <trkpt lat="47.7822" lon="6.60359">
        <ele>431.109</ele>
        <time>2015-06-13T13:24:42.072Z</time>
      </trkpt>
      <trkpt lat="47.78227" lon="6.6036">
        <ele>430.953</ele>
        <time>2015-06-13T13:24:46.037Z</time>
      </trkpt>
      <trkpt lat="47.78229" lon="6.60361">
        <ele>430.986</ele>
        <time>2015-06-13T13:24:47.103Z</time>
      </trkpt>
      <trkpt lat="47.78235" lon="6.60366">
        <ele>431.573</ele>
        <time>2015-06-13T13:24:50.104Z</time>
      </trkpt>
      <trkpt lat="47.78237" lon="6.60368">
        <ele>431.892</ele>
        <time>2015-06-13T13:24:51.126Z</time>
      </trkpt>
      <trkpt lat="47.78245" lon="6.60372">
        <ele>432.481</ele>
        <time>2015-06-13T13:24:54.128Z</time>
      </trkpt>
      <trkpt lat="47.78248" lon="6.60373">
        <ele>432.675</ele>
        <time>2015-06-13T13:24:55.119Z</time>
      </trkpt>
      <trkpt lat="47.78255" lon="6.60376">
        <ele>433.436</ele>
        <time>2015-06-13T13:24:57.104Z</time>
      </trkpt>
      <trkpt lat="47.78257" lon="6.60379">
        <ele>433.892</ele>
        <time>2015-06-13T13:24:58.073Z</time>
      </trkpt>
      <trkpt lat="47.78264" lon="6.60381">
        <ele>434.497</ele>
        <time>2015-06-13T13:25:00.137Z</time>
      </trkpt>
      <trkpt lat="47.78267" lon="6.60382">
        <ele>434.693</ele>
        <time>2015-06-13T13:25:01.11Z</time>
      </trkpt>
      <trkpt lat="47.78272" lon="6.60382">
        <ele>434.98</ele>
        <time>2015-06-13T13:25:03.102Z</time>
      </trkpt>
      <trkpt lat="47.78276" lon="6.60381">
        <ele>435.032</ele>
        <time>2015-06-13T13:25:04.096Z</time>
      </trkpt>
      <trkpt lat="47.78284" lon="6.60379">
        <ele>434.311</ele>
        <time>2015-06-13T13:25:08.119Z</time>
      </trkpt>
      <trkpt lat="47.78285" lon="6.6038">
        <ele>434.265</ele>
        <time>2015-06-13T13:25:09.103Z</time>
      </trkpt>
      <trkpt lat="47.78292" lon="6.60381">
        <ele>433.683</ele>
        <time>2015-06-13T13:25:13.105Z</time>
      </trkpt>
      <trkpt lat="47.78297" lon="6.6038">
        <ele>433.182</ele>
        <time>2015-06-13T13:25:14.076Z</time>
      </trkpt>
      <trkpt lat="47.78303" lon="6.60378">
        <ele>432.495</ele>
        <time>2015-06-13T13:25:15.104Z</time>
      </trkpt>
      <trkpt lat="47.78309" lon="6.60376">
        <ele>431.699</ele>
        <time>2015-06-13T13:25:16.112Z</time>
      </trkpt>
      <trkpt lat="47.78315" lon="6.60376">
        <ele>430.795</ele>
        <time>2015-06-13T13:25:17.104Z</time>
      </trkpt>
      <trkpt lat="47.78322" lon="6.60376">
        <ele>429.974</ele>
        <time>2015-06-13T13:25:18.104Z</time>
      </trkpt>
      <trkpt lat="47.78327" lon="6.60377">
        <ele>429.352</ele>
        <time>2015-06-13T13:25:19.104Z</time>
      </trkpt>
      <trkpt lat="47.78333" lon="6.6038">
        <ele>428.712</ele>
        <time>2015-06-13T13:25:20.104Z</time>
      </trkpt>
      <trkpt lat="47.78338" lon="6.60384">
        <ele>429.229</ele>
        <time>2015-06-13T13:25:21.1Z</time>
      </trkpt>
      <trkpt lat="47.78343" lon="6.60387">
        <ele>429.691</ele>
        <time>2015-06-13T13:25:22.118Z</time>
      </trkpt>
      <trkpt lat="47.7835" lon="6.60394">
        <ele>429.715</ele>
        <time>2015-06-13T13:25:24.096Z</time>
      </trkpt>
      <trkpt lat="47.78352" lon="6.60398">
        <ele>429.402</ele>
        <time>2015-06-13T13:25:25.058Z</time>
      </trkpt>
      <trkpt lat="47.78356" lon="6.60404">
        <ele>428.586</ele>
        <time>2015-06-13T13:25:27.094Z</time>
      </trkpt>
      <trkpt lat="47.7836" lon="6.60405">
        <ele>428.154</ele>
        <time>2015-06-13T13:25:28.095Z</time>
      </trkpt>
      <trkpt lat="47.78365" lon="6.60406">
        <ele>427.926</ele>
        <time>2015-06-13T13:25:29.053Z</time>
      </trkpt>
      <trkpt lat="47.7837" lon="6.60405">
        <ele>427.964</ele>
        <time>2015-06-13T13:25:30.072Z</time>
      </trkpt>
      <trkpt lat="47.78375" lon="6.60404">
        <ele>428</ele>
        <time>2015-06-13T13:25:31.132Z</time>
      </trkpt>
      <trkpt lat="47.78379" lon="6.60403">
        <ele>428.074</ele>
        <time>2015-06-13T13:25:32.103Z</time>
      </trkpt>
      <trkpt lat="47.78384" lon="6.60402">
        <ele>428.207</ele>
        <time>2015-06-13T13:25:33.104Z</time>
      </trkpt>
      <trkpt lat="47.78389" lon="6.604">
        <ele>428.382</ele>
        <time>2015-06-13T13:25:34.11Z</time>
      </trkpt>
      <trkpt lat="47.78394" lon="6.60399">
        <ele>428.786</ele>
        <time>2015-06-13T13:25:35.138Z</time>
      </trkpt>
      <trkpt lat="47.78399" lon="6.60398">
        <ele>429.173</ele>
        <time>2015-06-13T13:25:36.114Z</time>
      </trkpt>
      <trkpt lat="47.78404" lon="6.60397">
        <ele>429.527</ele>
        <time>2015-06-13T13:25:37.096Z</time>
      </trkpt>
      <trkpt lat="47.78409" lon="6.60396">
        <ele>429.845</ele>
        <time>2015-06-13T13:25:38.103Z</time>
      </trkpt>
      <trkpt lat="47.78417" lon="6.60395">
        <ele>430.302</ele>
        <time>2015-06-13T13:25:40.105Z</time>
      </trkpt>
      <trkpt lat="47.78421" lon="6.60396">
        <ele>430.331</ele>
        <time>2015-06-13T13:25:41.094Z</time>
      </trkpt>
      <trkpt lat="47.78428" lon="6.60399">
        <ele>430.195</ele>
        <time>2015-06-13T13:25:44.093Z</time>
      </trkpt>
      <trkpt lat="47.78431" lon="6.60403">
        <ele>429.996</ele>
        <time>2015-06-13T13:25:45.118Z</time>
      </trkpt>
      <trkpt lat="47.78437" lon="6.60409">
        <ele>429.867</ele>
        <time>2015-06-13T13:25:47.099Z</time>
      </trkpt>
      <trkpt lat="47.78439" lon="6.6041">
        <ele>429.949</ele>
        <time>2015-06-13T13:25:48.097Z</time>
      </trkpt>
      <trkpt lat="47.78446" lon="6.60417">
        <ele>430.2</ele>
        <time>2015-06-13T13:25:51.098Z</time>
      </trkpt>
      <trkpt lat="47.78447" lon="6.60421">
        <ele>430.298</ele>
        <time>2015-06-13T13:25:52.116Z</time>
      </trkpt>
      <trkpt lat="47.78448" lon="6.6043">
        <ele>430.352</ele>
        <time>2015-06-13T13:25:54.096Z</time>
      </trkpt>
      <trkpt lat="47.78448" lon="6.60435">
        <ele>430.384</ele>
        <time>2015-06-13T13:25:55.096Z</time>
      </trkpt>
      <trkpt lat="47.78449" lon="6.60444">
        <ele>430.46</ele>
        <time>2015-06-13T13:25:57.104Z</time>
      </trkpt>
      <trkpt lat="47.78449" lon="6.60449">
        <ele>430.237</ele>
        <time>2015-06-13T13:25:58.102Z</time>
      </trkpt>
      <trkpt lat="47.78449" lon="6.60462">
        <ele>429.678</ele>
        <time>2015-06-13T13:26:01.1Z</time>
      </trkpt>
      <trkpt lat="47.78449" lon="6.60466">
        <ele>429.417</ele>
        <time>2015-06-13T13:26:02.123Z</time>
      </trkpt>
      <trkpt lat="47.78448" lon="6.60475">
        <ele>428.642</ele>
        <time>2015-06-13T13:26:04.129Z</time>
      </trkpt>
      <trkpt lat="47.78447" lon="6.60479">
        <ele>428.091</ele>
        <time>2015-06-13T13:26:05.111Z</time>
      </trkpt>
      <trkpt lat="47.78445" lon="6.60491">
        <ele>426.763</ele>
        <time>2015-06-13T13:26:08.103Z</time>
      </trkpt>
      <trkpt lat="47.78445" lon="6.60495">
        <ele>426.428</ele>
        <time>2015-06-13T13:26:09.103Z</time>
      </trkpt>
      <trkpt lat="47.78443" lon="6.60504">
        <ele>426.118</ele>
        <time>2015-06-13T13:26:11.096Z</time>
      </trkpt>
      <trkpt lat="47.78441" lon="6.60507">
        <ele>426.245</ele>
        <time>2015-06-13T13:26:12.105Z</time>
      </trkpt>
      <trkpt lat="47.78434" lon="6.60516">
        <ele>426.184</ele>
        <time>2015-06-13T13:26:16.135Z</time>
      </trkpt>
      <trkpt lat="47.78433" lon="6.60517">
        <ele>426.11</ele>
        <time>2015-06-13T13:26:17.105Z</time>
      </trkpt>
      <trkpt lat="47.78428" lon="6.60527">
        <ele>426.149</ele>
        <time>2015-06-13T13:26:21.124Z</time>
      </trkpt>
      <trkpt lat="47.78427" lon="6.60529">
        <ele>426.241</ele>
        <time>2015-06-13T13:26:22.12Z</time>
      </trkpt>
      <trkpt lat="47.7842" lon="6.60534">
        <ele>426.256</ele>
        <time>2015-06-13T13:26:29.103Z</time>
      </trkpt>
      <trkpt lat="47.78419" lon="6.60537">
        <ele>426.693</ele>
        <time>2015-06-13T13:26:30.103Z</time>
      </trkpt>
      <trkpt lat="47.7842" lon="6.60547">
        <ele>428.243</ele>
        <time>2015-06-13T13:26:33.098Z</time>
      </trkpt>
      <trkpt lat="47.78421" lon="6.60552">
        <ele>428.848</ele>
        <time>2015-06-13T13:26:34.096Z</time>
      </trkpt>
      <trkpt lat="47.78424" lon="6.6056">
        <ele>429.045</ele>
        <time>2015-06-13T13:26:36.097Z</time>
      </trkpt>
      <trkpt lat="47.78424" lon="6.60567">
        <ele>429.041</ele>
        <time>2015-06-13T13:26:37.027Z</time>
      </trkpt>
      <trkpt lat="47.78425" lon="6.6058">
        <ele>429.105</ele>
        <time>2015-06-13T13:26:39.038Z</time>
      </trkpt>
      <trkpt lat="47.78425" lon="6.60586">
        <ele>429.498</ele>
        <time>2015-06-13T13:26:40.027Z</time>
      </trkpt>
      <trkpt lat="47.78426" lon="6.60593">
        <ele>430.33</ele>
        <time>2015-06-13T13:26:41.029Z</time>
      </trkpt>
      <trkpt lat="47.78428" lon="6.60601">
        <ele>431.36</ele>
        <time>2015-06-13T13:26:42.034Z</time>
      </trkpt>
      <trkpt lat="47.78429" lon="6.60609">
        <ele>432.314</ele>
        <time>2015-06-13T13:26:43.025Z</time>
      </trkpt>
      <trkpt lat="47.7843" lon="6.60615">
        <ele>433.272</ele>
        <time>2015-06-13T13:26:44.027Z</time>
      </trkpt>
      <trkpt lat="47.78431" lon="6.60627">
        <ele>435.655</ele>
        <time>2015-06-13T13:26:47.029Z</time>
      </trkpt>
      <trkpt lat="47.78431" lon="6.6063">
        <ele>436.295</ele>
        <time>2015-06-13T13:26:48.032Z</time>
      </trkpt>
      <trkpt lat="47.78436" lon="6.60637">
        <ele>437.674</ele>
        <time>2015-06-13T13:26:51.041Z</time>
      </trkpt>
      <trkpt lat="47.78438" lon="6.60639">
        <ele>438.079</ele>
        <time>2015-06-13T13:26:52.036Z</time>
      </trkpt>
      <trkpt lat="47.78444" lon="6.60646">
        <ele>440.102</ele>
        <time>2015-06-13T13:26:55.028Z</time>
      </trkpt>
      <trkpt lat="47.78447" lon="6.60648">
        <ele>440.652</ele>
        <time>2015-06-13T13:26:56.032Z</time>
      </trkpt>
      <trkpt lat="47.78454" lon="6.60649">
        <ele>441.451</ele>
        <time>2015-06-13T13:26:58.066Z</time>
      </trkpt>
      <trkpt lat="47.78457" lon="6.6065">
        <ele>441.776</ele>
        <time>2015-06-13T13:26:59.027Z</time>
      </trkpt>
      <trkpt lat="47.78463" lon="6.60652">
        <ele>442.734</ele>
        <time>2015-06-13T13:27:01.03Z</time>
      </trkpt>
      <trkpt lat="47.78466" lon="6.60653">
        <ele>443.321</ele>
        <time>2015-06-13T13:27:02.027Z</time>
      </trkpt>
      <trkpt lat="47.78473" lon="6.60656">
        <ele>444.069</ele>
        <time>2015-06-13T13:27:04.022Z</time>
      </trkpt>
      <trkpt lat="47.78476" lon="6.60656">
        <ele>443.679</ele>
        <time>2015-06-13T13:27:05.041Z</time>
      </trkpt>
      <trkpt lat="47.78485" lon="6.60653">
        <ele>441.766</ele>
        <time>2015-06-13T13:27:09.037Z</time>
      </trkpt>
      <trkpt lat="47.78487" lon="6.60651">
        <ele>441.105</ele>
        <time>2015-06-13T13:27:10.027Z</time>
      </trkpt>
      <trkpt lat="47.78493" lon="6.60645">
        <ele>438.969</ele>
        <time>2015-06-13T13:27:12.029Z</time>
      </trkpt>
      <trkpt lat="47.78496" lon="6.60641">
        <ele>437.845</ele>
        <time>2015-06-13T13:27:13.024Z</time>
      </trkpt>
      <trkpt lat="47.78502" lon="6.60635">
        <ele>436.804</ele>
        <time>2015-06-13T13:27:15.025Z</time>
      </trkpt>
      <trkpt lat="47.78505" lon="6.60634">
        <ele>436.895</ele>
        <time>2015-06-13T13:27:16.042Z</time>
      </trkpt>
      <trkpt lat="47.78513" lon="6.60632">
        <ele>437.662</ele>
        <time>2015-06-13T13:27:19.135Z</time>
      </trkpt>
      <trkpt lat="47.78516" lon="6.60631">
        <ele>437.954</ele>
        <time>2015-06-13T13:27:20.096Z</time>
      </trkpt>
      <trkpt lat="47.78522" lon="6.60628">
        <ele>438.22</ele>
        <time>2015-06-13T13:27:22.095Z</time>
      </trkpt>
      <trkpt lat="47.78525" lon="6.60627">
        <ele>438.586</ele>
        <time>2015-06-13T13:27:23.069Z</time>
      </trkpt>
      <trkpt lat="47.78531" lon="6.60628">
        <ele>439.363</ele>
        <time>2015-06-13T13:27:25.081Z</time>
      </trkpt>
      <trkpt lat="47.78535" lon="6.60629">
        <ele>439.807</ele>
        <time>2015-06-13T13:27:26.11Z</time>
      </trkpt>
      <trkpt lat="47.7854" lon="6.60631">
        <ele>440.465</ele>
        <time>2015-06-13T13:27:27.12Z</time>
      </trkpt>
      <trkpt lat="47.78545" lon="6.60631">
        <ele>440.913</ele>
        <time>2015-06-13T13:27:28.128Z</time>
      </trkpt>
      <trkpt lat="47.7855" lon="6.60632">
        <ele>441.326</ele>
        <time>2015-06-13T13:27:29.104Z</time>
      </trkpt>
      <trkpt lat="47.78554" lon="6.60634">
        <ele>441.732</ele>
        <time>2015-06-13T13:27:30.106Z</time>
      </trkpt>
      <trkpt lat="47.78561" lon="6.60637">
        <ele>442.144</ele>
        <time>2015-06-13T13:27:32.112Z</time>
      </trkpt>
      <trkpt lat="47.78565" lon="6.60638">
        <ele>442.288</ele>
        <time>2015-06-13T13:27:33.103Z</time>
      </trkpt>
      <trkpt lat="47.78573" lon="6.6064">
        <ele>442.632</ele>
        <time>2015-06-13T13:27:36.104Z</time>
      </trkpt>
      <trkpt lat="47.78576" lon="6.60642">
        <ele>442.729</ele>
        <time>2015-06-13T13:27:37.126Z</time>
      </trkpt>
      <trkpt lat="47.78582" lon="6.60645">
        <ele>442.938</ele>
        <time>2015-06-13T13:27:39.103Z</time>
      </trkpt>
      <trkpt lat="47.78584" lon="6.60648">
        <ele>442.815</ele>
        <time>2015-06-13T13:27:40.104Z</time>
      </trkpt>
      <trkpt lat="47.78589" lon="6.60654">
        <ele>441.792</ele>
        <time>2015-06-13T13:27:42.103Z</time>
      </trkpt>
      <trkpt lat="47.78592" lon="6.60656">
        <ele>441.264</ele>
        <time>2015-06-13T13:27:43.102Z</time>
      </trkpt>
      <trkpt lat="47.78597" lon="6.60666">
        <ele>440.045</ele>
        <time>2015-06-13T13:27:46.104Z</time>
      </trkpt>
      <trkpt lat="47.78597" lon="6.60671">
        <ele>440.356</ele>
        <time>2015-06-13T13:27:47.132Z</time>
      </trkpt>
      <trkpt lat="47.78598" lon="6.60683">
        <ele>441.433</ele>
        <time>2015-06-13T13:27:49.094Z</time>
      </trkpt>
      <trkpt lat="47.78597" lon="6.60689">
        <ele>442.097</ele>
        <time>2015-06-13T13:27:50.142Z</time>
      </trkpt>
      <trkpt lat="47.78596" lon="6.60696">
        <ele>442.946</ele>
        <time>2015-06-13T13:27:51.095Z</time>
      </trkpt>
      <trkpt lat="47.78594" lon="6.60704">
        <ele>443.935</ele>
        <time>2015-06-13T13:27:52.103Z</time>
      </trkpt>
      <trkpt lat="47.78592" lon="6.60718">
        <ele>445.658</ele>
        <time>2015-06-13T13:27:53.061Z</time>
      </trkpt>
      <trkpt lat="47.78596" lon="6.60727">
        <ele>446.148</ele>
        <time>2015-06-13T13:27:54.151Z</time>
      </trkpt>
      <trkpt lat="47.78598" lon="6.60731">
        <ele>446.429</ele>
        <time>2015-06-13T13:27:55.056Z</time>
      </trkpt>
      <trkpt lat="47.78604" lon="6.60737">
        <ele>446.342</ele>
        <time>2015-06-13T13:27:56.097Z</time>
      </trkpt>
      <trkpt lat="47.78608" lon="6.60742">
        <ele>446.418</ele>
        <time>2015-06-13T13:27:57.098Z</time>
      </trkpt>
      <trkpt lat="47.78614" lon="6.60746">
        <ele>446.196</ele>
        <time>2015-06-13T13:27:59.091Z</time>
      </trkpt>
      <trkpt lat="47.78623" lon="6.60749">
        <ele>445.543</ele>
        <time>2015-06-13T13:28:00.131Z</time>
      </trkpt>
      <trkpt lat="47.78629" lon="6.60754">
        <ele>445.345</ele>
        <time>2015-06-13T13:28:02.096Z</time>
      </trkpt>
      <trkpt lat="47.7863" lon="6.6076">
        <ele>445.673</ele>
        <time>2015-06-13T13:28:03.095Z</time>
      </trkpt>
      <trkpt lat="47.78634" lon="6.60766">
        <ele>445.741</ele>
        <time>2015-06-13T13:28:04.097Z</time>
      </trkpt>
      <trkpt lat="47.78639" lon="6.6077">
        <ele>445.421</ele>
        <time>2015-06-13T13:28:05.118Z</time>
      </trkpt>
      <trkpt lat="47.78646" lon="6.60772">
        <ele>444.802</ele>
        <time>2015-06-13T13:28:06.098Z</time>
      </trkpt>
      <trkpt lat="47.78653" lon="6.6078">
        <ele>444.413</ele>
        <time>2015-06-13T13:28:07.135Z</time>
      </trkpt>
      <trkpt lat="47.78658" lon="6.60785">
        <ele>443.691</ele>
        <time>2015-06-13T13:28:08.101Z</time>
      </trkpt>
      <trkpt lat="47.78666" lon="6.60789">
        <ele>443.051</ele>
        <time>2015-06-13T13:28:09.09Z</time>
      </trkpt>
      <trkpt lat="47.78672" lon="6.60794">
        <ele>443</ele>
        <time>2015-06-13T13:28:10.096Z</time>
      </trkpt>
      <trkpt lat="47.78678" lon="6.608">
        <ele>443</ele>
        <time>2015-06-13T13:28:11.094Z</time>
      </trkpt>
      <trkpt lat="47.78684" lon="6.60803">
        <ele>443</ele>
        <time>2015-06-13T13:28:12.096Z</time>
      </trkpt>
      <trkpt lat="47.78688" lon="6.60808">
        <ele>442.656</ele>
        <time>2015-06-13T13:28:13.097Z</time>
      </trkpt>
      <trkpt lat="47.78694" lon="6.6081">
        <ele>442.195</ele>
        <time>2015-06-13T13:28:14.096Z</time>
      </trkpt>
      <trkpt lat="47.78698" lon="6.60813">
        <ele>440.362</ele>
        <time>2015-06-13T13:28:15.097Z</time>
      </trkpt>
      <trkpt lat="47.78706" lon="6.60814">
        <ele>437.75</ele>
        <time>2015-06-13T13:28:19.097Z</time>
      </trkpt>
      <trkpt lat="47.78708" lon="6.60813">
        <ele>437.113</ele>
        <time>2015-06-13T13:28:20.096Z</time>
      </trkpt>
      <trkpt lat="47.78716" lon="6.60817">
        <ele>434.159</ele>
        <time>2015-06-13T13:28:24.096Z</time>
      </trkpt>
      <trkpt lat="47.78717" lon="6.60818">
        <ele>433.777</ele>
        <time>2015-06-13T13:28:25.06Z</time>
      </trkpt>
      <trkpt lat="47.78724" lon="6.60818">
        <ele>432</ele>
        <time>2015-06-13T13:28:28.097Z</time>
      </trkpt>
      <trkpt lat="47.78727" lon="6.60817">
        <ele>432</ele>
        <time>2015-06-13T13:28:29.097Z</time>
      </trkpt>
      <trkpt lat="47.78735" lon="6.60816">
        <ele>432</ele>
        <time>2015-06-13T13:28:32.097Z</time>
      </trkpt>
      <trkpt lat="47.78738" lon="6.60816">
        <ele>432</ele>
        <time>2015-06-13T13:28:33.096Z</time>
      </trkpt>
      <trkpt lat="47.78747" lon="6.60816">
        <ele>432</ele>
        <time>2015-06-13T13:28:36.112Z</time>
      </trkpt>
      <trkpt lat="47.7875" lon="6.60814">
        <ele>432</ele>
        <time>2015-06-13T13:28:37.097Z</time>
      </trkpt>
      <trkpt lat="47.78756" lon="6.60807">
        <ele>432.952</ele>
        <time>2015-06-13T13:28:40.098Z</time>
      </trkpt>
      <trkpt lat="47.78758" lon="6.60806">
        <ele>433.143</ele>
        <time>2015-06-13T13:28:41.097Z</time>
      </trkpt>
      <trkpt lat="47.78764" lon="6.60803">
        <ele>433.932</ele>
        <time>2015-06-13T13:28:43.096Z</time>
      </trkpt>
      <trkpt lat="47.78768" lon="6.60802">
        <ele>434.478</ele>
        <time>2015-06-13T13:28:44.097Z</time>
      </trkpt>
      <trkpt lat="47.78777" lon="6.608">
        <ele>435.495</ele>
        <time>2015-06-13T13:28:46.097Z</time>
      </trkpt>
      <trkpt lat="47.7878" lon="6.608">
        <ele>436.058</ele>
        <time>2015-06-13T13:28:47.097Z</time>
      </trkpt>
      <trkpt lat="47.78787" lon="6.60798">
        <ele>437.166</ele>
        <time>2015-06-13T13:28:49.097Z</time>
      </trkpt>
      <trkpt lat="47.78791" lon="6.60797">
        <ele>437.721</ele>
        <time>2015-06-13T13:28:50.098Z</time>
      </trkpt>
      <trkpt lat="47.78797" lon="6.60799">
        <ele>439.002</ele>
        <time>2015-06-13T13:28:52.102Z</time>
      </trkpt>
      <trkpt lat="47.788" lon="6.608">
        <ele>439.622</ele>
        <time>2015-06-13T13:28:53.123Z</time>
      </trkpt>
      <trkpt lat="47.78808" lon="6.60806">
        <ele>441.298</ele>
        <time>2015-06-13T13:28:56.104Z</time>
      </trkpt>
      <trkpt lat="47.7881" lon="6.6081">
        <ele>441.679</ele>
        <time>2015-06-13T13:28:57.111Z</time>
      </trkpt>
      <trkpt lat="47.78813" lon="6.60818">
        <ele>442.449</ele>
        <time>2015-06-13T13:28:59.102Z</time>
      </trkpt>
      <trkpt lat="47.78814" lon="6.60823">
        <ele>442.826</ele>
        <time>2015-06-13T13:29:00.154Z</time>
      </trkpt>
      <trkpt lat="47.78817" lon="6.60835">
        <ele>443.569</ele>
        <time>2015-06-13T13:29:02.085Z</time>
      </trkpt>
      <trkpt lat="47.78819" lon="6.6084">
        <ele>443.962</ele>
        <time>2015-06-13T13:29:03.132Z</time>
      </trkpt>
      <trkpt lat="47.78821" lon="6.60849">
        <ele>444.6</ele>
        <time>2015-06-13T13:29:05.113Z</time>
      </trkpt>
      <trkpt lat="47.78823" lon="6.60853">
        <ele>444.843</ele>
        <time>2015-06-13T13:29:06.103Z</time>
      </trkpt>
      <trkpt lat="47.78827" lon="6.60863">
        <ele>445.345</ele>
        <time>2015-06-13T13:29:09.096Z</time>
      </trkpt>
      <trkpt lat="47.78827" lon="6.60866">
        <ele>445.449</ele>
        <time>2015-06-13T13:29:10.103Z</time>
      </trkpt>
      <trkpt lat="47.7883" lon="6.60873">
        <ele>445.641</ele>
        <time>2015-06-13T13:29:12.116Z</time>
      </trkpt>
      <trkpt lat="47.78833" lon="6.60877">
        <ele>445.597</ele>
        <time>2015-06-13T13:29:13.132Z</time>
      </trkpt>
      <trkpt lat="47.78837" lon="6.60882">
        <ele>445.28</ele>
        <time>2015-06-13T13:29:14.102Z</time>
      </trkpt>
      <trkpt lat="47.78841" lon="6.60887">
        <ele>444.898</ele>
        <time>2015-06-13T13:29:15.11Z</time>
      </trkpt>
      <trkpt lat="47.78847" lon="6.60896">
        <ele>444.653</ele>
        <time>2015-06-13T13:29:17.105Z</time>
      </trkpt>
      <trkpt lat="47.7885" lon="6.60901">
        <ele>444.718</ele>
        <time>2015-06-13T13:29:18.104Z</time>
      </trkpt>
      <trkpt lat="47.78853" lon="6.60906">
        <ele>444.522</ele>
        <time>2015-06-13T13:29:19.141Z</time>
      </trkpt>
      <trkpt lat="47.78856" lon="6.60912">
        <ele>444.599</ele>
        <time>2015-06-13T13:29:20.104Z</time>
      </trkpt>
      <trkpt lat="47.78862" lon="6.60915">
        <ele>443.918</ele>
        <time>2015-06-13T13:29:22.125Z</time>
      </trkpt>
      <trkpt lat="47.78868" lon="6.60914">
        <ele>444.377</ele>
        <time>2015-06-13T13:29:23.106Z</time>
      </trkpt>
      <trkpt lat="47.78874" lon="6.60917">
        <ele>444.951</ele>
        <time>2015-06-13T13:29:25.105Z</time>
      </trkpt>
      <trkpt lat="47.78877" lon="6.6092">
        <ele>445.089</ele>
        <time>2015-06-13T13:29:26.105Z</time>
      </trkpt>
      <trkpt lat="47.78885" lon="6.60926">
        <ele>444.995</ele>
        <time>2015-06-13T13:29:28.104Z</time>
      </trkpt>
      <trkpt lat="47.78889" lon="6.60927">
        <ele>444.939</ele>
        <time>2015-06-13T13:29:29.133Z</time>
      </trkpt>
      <trkpt lat="47.78895" lon="6.60931">
        <ele>443.55</ele>
        <time>2015-06-13T13:29:31.102Z</time>
      </trkpt>
      <trkpt lat="47.78899" lon="6.60933">
        <ele>442.944</ele>
        <time>2015-06-13T13:29:32.112Z</time>
      </trkpt>
      <trkpt lat="47.78906" lon="6.60937">
        <ele>441.884</ele>
        <time>2015-06-13T13:29:34.104Z</time>
      </trkpt>
      <trkpt lat="47.7891" lon="6.6094">
        <ele>441.512</ele>
        <time>2015-06-13T13:29:35.141Z</time>
      </trkpt>
      <trkpt lat="47.78915" lon="6.60945">
        <ele>441.298</ele>
        <time>2015-06-13T13:29:37.038Z</time>
      </trkpt>
      <trkpt lat="47.78918" lon="6.60948">
        <ele>442.169</ele>
        <time>2015-06-13T13:29:38.104Z</time>
      </trkpt>
      <trkpt lat="47.78922" lon="6.60957">
        <ele>444.825</ele>
        <time>2015-06-13T13:29:41.104Z</time>
      </trkpt>
      <trkpt lat="47.78923" lon="6.60959">
        <ele>445.457</ele>
        <time>2015-06-13T13:29:42.096Z</time>
      </trkpt>
      <trkpt lat="47.7893" lon="6.60964">
        <ele>446.902</ele>
        <time>2015-06-13T13:29:45.087Z</time>
      </trkpt>
      <trkpt lat="47.78934" lon="6.60965">
        <ele>447.26</ele>
        <time>2015-06-13T13:29:46.104Z</time>
      </trkpt>
      <trkpt lat="47.78938" lon="6.60966">
        <ele>447.595</ele>
        <time>2015-06-13T13:29:47.144Z</time>
      </trkpt>
      <trkpt lat="47.78943" lon="6.60966">
        <ele>447.933</ele>
        <time>2015-06-13T13:29:48.109Z</time>
      </trkpt>
      <trkpt lat="47.78949" lon="6.60968">
        <ele>448.335</ele>
        <time>2015-06-13T13:29:49.12Z</time>
      </trkpt>
      <trkpt lat="47.78955" lon="6.6097">
        <ele>448.738</ele>
        <time>2015-06-13T13:29:50.079Z</time>
      </trkpt>
      <trkpt lat="47.7896" lon="6.60973">
        <ele>449.11</ele>
        <time>2015-06-13T13:29:51.116Z</time>
      </trkpt>
      <trkpt lat="47.78964" lon="6.60976">
        <ele>449.536</ele>
        <time>2015-06-13T13:29:52.103Z</time>
      </trkpt>
      <trkpt lat="47.78972" lon="6.60982">
        <ele>449.981</ele>
        <time>2015-06-13T13:29:54.104Z</time>
      </trkpt>
      <trkpt lat="47.78975" lon="6.60985">
        <ele>449.511</ele>
        <time>2015-06-13T13:29:55.132Z</time>
      </trkpt>
      <trkpt lat="47.7898" lon="6.60991">
        <ele>448.68</ele>
        <time>2015-06-13T13:29:57.104Z</time>
      </trkpt>
      <trkpt lat="47.78982" lon="6.60994">
        <ele>448.363</ele>
        <time>2015-06-13T13:29:58.05Z</time>
      </trkpt>
      <trkpt lat="47.78986" lon="6.61003">
        <ele>448.128</ele>
        <time>2015-06-13T13:30:02.128Z</time>
      </trkpt>
      <trkpt lat="47.78987" lon="6.61006">
        <ele>448.057</ele>
        <time>2015-06-13T13:30:03.103Z</time>
      </trkpt>
      <trkpt lat="47.78992" lon="6.61016">
        <ele>448.288</ele>
        <time>2015-06-13T13:30:07.153Z</time>
      </trkpt>
      <trkpt lat="47.78993" lon="6.61019">
        <ele>448.51</ele>
        <time>2015-06-13T13:30:08.126Z</time>
      </trkpt>
      <trkpt lat="47.78995" lon="6.61027">
        <ele>449.353</ele>
        <time>2015-06-13T13:30:10.132Z</time>
      </trkpt>
      <trkpt lat="47.78997" lon="6.61034">
        <ele>450.801</ele>
        <time>2015-06-13T13:30:11.132Z</time>
      </trkpt>
      <trkpt lat="47.78999" lon="6.61041">
        <ele>452.283</ele>
        <time>2015-06-13T13:30:12.078Z</time>
      </trkpt>
      <trkpt lat="47.79001" lon="6.61049">
        <ele>453.648</ele>
        <time>2015-06-13T13:30:13.125Z</time>
      </trkpt>
      <trkpt lat="47.79002" lon="6.61055">
        <ele>454.637</ele>
        <time>2015-06-13T13:30:14.103Z</time>
      </trkpt>
      <trkpt lat="47.79004" lon="6.61062">
        <ele>454.322</ele>
        <time>2015-06-13T13:30:15.104Z</time>
      </trkpt>
      <trkpt lat="47.79005" lon="6.61069">
        <ele>454.019</ele>
        <time>2015-06-13T13:30:16.105Z</time>
      </trkpt>
      <trkpt lat="47.79006" lon="6.61075">
        <ele>453.785</ele>
        <time>2015-06-13T13:30:17.104Z</time>
      </trkpt>
      <trkpt lat="47.79006" lon="6.61088">
        <ele>454.592</ele>
        <time>2015-06-13T13:30:20.111Z</time>
      </trkpt>
      <trkpt lat="47.79006" lon="6.61092">
        <ele>455.562</ele>
        <time>2015-06-13T13:30:21.116Z</time>
      </trkpt>
      <trkpt lat="47.79004" lon="6.61103">
        <ele>458.076</ele>
        <time>2015-06-13T13:30:23.251Z</time>
      </trkpt>
      <trkpt lat="47.79004" lon="6.61108">
        <ele>459.423</ele>
        <time>2015-06-13T13:30:24.103Z</time>
      </trkpt>
      <trkpt lat="47.79001" lon="6.61116">
        <ele>459.929</ele>
        <time>2015-06-13T13:30:26.079Z</time>
      </trkpt>
      <trkpt lat="47.78999" lon="6.61122">
        <ele>458.989</ele>
        <time>2015-06-13T13:30:27.101Z</time>
      </trkpt>
      <trkpt lat="47.78996" lon="6.61134">
        <ele>457.332</ele>
        <time>2015-06-13T13:30:29.065Z</time>
      </trkpt>
      <trkpt lat="47.78994" lon="6.6114">
        <ele>456.767</ele>
        <time>2015-06-13T13:30:30.107Z</time>
      </trkpt>
      <trkpt lat="47.78994" lon="6.61152">
        <ele>456.324</ele>
        <time>2015-06-13T13:30:32.112Z</time>
      </trkpt>
      <trkpt lat="47.78994" lon="6.61157">
        <ele>456.046</ele>
        <time>2015-06-13T13:30:33.102Z</time>
      </trkpt>
      <trkpt lat="47.78995" lon="6.6117">
        <ele>455.216</ele>
        <time>2015-06-13T13:30:35.105Z</time>
      </trkpt>
      <trkpt lat="47.78996" lon="6.61176">
        <ele>454.577</ele>
        <time>2015-06-13T13:30:36.118Z</time>
      </trkpt>
      <trkpt lat="47.78998" lon="6.61183">
        <ele>453.447</ele>
        <time>2015-06-13T13:30:37.095Z</time>
      </trkpt>
      <trkpt lat="47.79" lon="6.6119">
        <ele>451.805</ele>
        <time>2015-06-13T13:30:38.148Z</time>
      </trkpt>
      <trkpt lat="47.79002" lon="6.61197">
        <ele>450.75</ele>
        <time>2015-06-13T13:30:39.103Z</time>
      </trkpt>
      <trkpt lat="47.79005" lon="6.61205">
        <ele>449.79</ele>
        <time>2015-06-13T13:30:40.103Z</time>
      </trkpt>
      <trkpt lat="47.79007" lon="6.61211">
        <ele>448.817</ele>
        <time>2015-06-13T13:30:41.102Z</time>
      </trkpt>
      <trkpt lat="47.7901" lon="6.61218">
        <ele>447.552</ele>
        <time>2015-06-13T13:30:42.111Z</time>
      </trkpt>
      <trkpt lat="47.79011" lon="6.61225">
        <ele>446.614</ele>
        <time>2015-06-13T13:30:43.103Z</time>
      </trkpt>
      <trkpt lat="47.79011" lon="6.61231">
        <ele>446.14</ele>
        <time>2015-06-13T13:30:44.118Z</time>
      </trkpt>
      <trkpt lat="47.79013" lon="6.61243">
        <ele>445.217</ele>
        <time>2015-06-13T13:30:46.103Z</time>
      </trkpt>
      <trkpt lat="47.79013" lon="6.61249">
        <ele>444.703</ele>
        <time>2015-06-13T13:30:47.121Z</time>
      </trkpt>
      <trkpt lat="47.79015" lon="6.6126">
        <ele>444.46</ele>
        <time>2015-06-13T13:30:49.109Z</time>
      </trkpt>
      <trkpt lat="47.79015" lon="6.61265">
        <ele>444.417</ele>
        <time>2015-06-13T13:30:50.108Z</time>
      </trkpt>
      <trkpt lat="47.79015" lon="6.61276">
        <ele>444.62</ele>
        <time>2015-06-13T13:30:52.125Z</time>
      </trkpt>
      <trkpt lat="47.79015" lon="6.61281">
        <ele>444.484</ele>
        <time>2015-06-13T13:30:53.117Z</time>
      </trkpt>
      <trkpt lat="47.79011" lon="6.61291">
        <ele>444.772</ele>
        <time>2015-06-13T13:30:56.114Z</time>
      </trkpt>
      <trkpt lat="47.79009" lon="6.61296">
        <ele>445.175</ele>
        <time>2015-06-13T13:30:57.102Z</time>
      </trkpt>
      <trkpt lat="47.79004" lon="6.61306">
        <ele>445.792</ele>
        <time>2015-06-13T13:30:59.103Z</time>
      </trkpt>
      <trkpt lat="47.79001" lon="6.6131">
        <ele>446.139</ele>
        <time>2015-06-13T13:31:00.136Z</time>
      </trkpt>
      <trkpt lat="47.78997" lon="6.61319">
        <ele>445.954</ele>
        <time>2015-06-13T13:31:02.136Z</time>
      </trkpt>
      <trkpt lat="47.78994" lon="6.61324">
        <ele>445.766</ele>
        <time>2015-06-13T13:31:03.122Z</time>
      </trkpt>
      <trkpt lat="47.78989" lon="6.61332">
        <ele>445.7</ele>
        <time>2015-06-13T13:31:05.077Z</time>
      </trkpt>
      <trkpt lat="47.78986" lon="6.61336">
        <ele>445.744</ele>
        <time>2015-06-13T13:31:06.092Z</time>
      </trkpt>
      <trkpt lat="47.78981" lon="6.61344">
        <ele>446.331</ele>
        <time>2015-06-13T13:31:08.14Z</time>
      </trkpt>
      <trkpt lat="47.78979" lon="6.61349">
        <ele>446.658</ele>
        <time>2015-06-13T13:31:09.107Z</time>
      </trkpt>
      <trkpt lat="47.78977" lon="6.61361">
        <ele>447.268</ele>
        <time>2015-06-13T13:31:11.111Z</time>
      </trkpt>
      <trkpt lat="47.78977" lon="6.61372">
        <ele>446.262</ele>
        <time>2015-06-13T13:31:12.106Z</time>
      </trkpt>
      <trkpt lat="47.78973" lon="6.61382">
        <ele>447.139</ele>
        <time>2015-06-13T13:31:13.125Z</time>
      </trkpt>
      <trkpt lat="47.78969" lon="6.61391">
        <ele>447.75</ele>
        <time>2015-06-13T13:31:14.137Z</time>
      </trkpt>
      <trkpt lat="47.78969" lon="6.61398">
        <ele>446.87</ele>
        <time>2015-06-13T13:31:15.164Z</time>
      </trkpt>
      <trkpt lat="47.7897" lon="6.61406">
        <ele>445.395</ele>
        <time>2015-06-13T13:31:16.104Z</time>
      </trkpt>
      <trkpt lat="47.78972" lon="6.61413">
        <ele>443.735</ele>
        <time>2015-06-13T13:31:17.126Z</time>
      </trkpt>
      <trkpt lat="47.78975" lon="6.61419">
        <ele>442.071</ele>
        <time>2015-06-13T13:31:18.103Z</time>
      </trkpt>
      <trkpt lat="47.78976" lon="6.61426">
        <ele>441.167</ele>
        <time>2015-06-13T13:31:19.097Z</time>
      </trkpt>
      <trkpt lat="47.78977" lon="6.61435">
        <ele>440.692</ele>
        <time>2015-06-13T13:31:20.097Z</time>
      </trkpt>
      <trkpt lat="47.78976" lon="6.61445">
        <ele>440.85</ele>
        <time>2015-06-13T13:31:21.098Z</time>
      </trkpt>
      <trkpt lat="47.78976" lon="6.61456">
        <ele>443.027</ele>
        <time>2015-06-13T13:31:22.097Z</time>
      </trkpt>
      <trkpt lat="47.78975" lon="6.61468">
        <ele>445.775</ele>
        <time>2015-06-13T13:31:23.286Z</time>
      </trkpt>
      <trkpt lat="47.78974" lon="6.61477">
        <ele>447.204</ele>
        <time>2015-06-13T13:31:24.097Z</time>
      </trkpt>
      <trkpt lat="47.78974" lon="6.61485">
        <ele>448.294</ele>
        <time>2015-06-13T13:31:25.097Z</time>
      </trkpt>
      <trkpt lat="47.78973" lon="6.61494">
        <ele>449.156</ele>
        <time>2015-06-13T13:31:26.096Z</time>
      </trkpt>
      <trkpt lat="47.78973" lon="6.61503">
        <ele>450.181</ele>
        <time>2015-06-13T13:31:27.098Z</time>
      </trkpt>
      <trkpt lat="47.78973" lon="6.61515">
        <ele>451.867</ele>
        <time>2015-06-13T13:31:28.097Z</time>
      </trkpt>
      <trkpt lat="47.78974" lon="6.61523">
        <ele>452.706</ele>
        <time>2015-06-13T13:31:29.098Z</time>
      </trkpt>
      <trkpt lat="47.78974" lon="6.61532">
        <ele>454.402</ele>
        <time>2015-06-13T13:31:30.098Z</time>
      </trkpt>
      <trkpt lat="47.78979" lon="6.61537">
        <ele>454.02</ele>
        <time>2015-06-13T13:31:32.097Z</time>
      </trkpt>
      <trkpt lat="47.78982" lon="6.61543">
        <ele>454.161</ele>
        <time>2015-06-13T13:31:33.097Z</time>
      </trkpt>
      <trkpt lat="47.78989" lon="6.61555">
        <ele>454.607</ele>
        <time>2015-06-13T13:31:34.098Z</time>
      </trkpt>
      <trkpt lat="47.79001" lon="6.61566">
        <ele>453.091</ele>
        <time>2015-06-13T13:31:35.096Z</time>
      </trkpt>
      <trkpt lat="47.79005" lon="6.61575">
        <ele>454.243</ele>
        <time>2015-06-13T13:31:36.096Z</time>
      </trkpt>
      <trkpt lat="47.79006" lon="6.61588">
        <ele>455.044</ele>
        <time>2015-06-13T13:31:37.112Z</time>
      </trkpt>
      <trkpt lat="47.79011" lon="6.61596">
        <ele>454.922</ele>
        <time>2015-06-13T13:31:38.097Z</time>
      </trkpt>
      <trkpt lat="47.79016" lon="6.61607">
        <ele>454.735</ele>
        <time>2015-06-13T13:31:39.096Z</time>
      </trkpt>
      <trkpt lat="47.79019" lon="6.61617">
        <ele>454.258</ele>
        <time>2015-06-13T13:31:40.094Z</time>
      </trkpt>
      <trkpt lat="47.79021" lon="6.61627">
        <ele>453.443</ele>
        <time>2015-06-13T13:31:41.136Z</time>
      </trkpt>
      <trkpt lat="47.79022" lon="6.61643">
        <ele>452.187</ele>
        <time>2015-06-13T13:31:42.109Z</time>
      </trkpt>
      <trkpt lat="47.7902" lon="6.61659">
        <ele>451.485</ele>
        <time>2015-06-13T13:31:43.097Z</time>
      </trkpt>
      <trkpt lat="47.79031" lon="6.61678">
        <ele>449.606</ele>
        <time>2015-06-13T13:31:44.096Z</time>
      </trkpt>
      <trkpt lat="47.79037" lon="6.61692">
        <ele>448.844</ele>
        <time>2015-06-13T13:31:45.122Z</time>
      </trkpt>
      <trkpt lat="47.79042" lon="6.61709">
        <ele>446.664</ele>
        <time>2015-06-13T13:31:46.096Z</time>
      </trkpt>
      <trkpt lat="47.79047" lon="6.61727">
        <ele>443.888</ele>
        <time>2015-06-13T13:31:47.097Z</time>
      </trkpt>
      <trkpt lat="47.79023" lon="6.61747">
        <ele>443.158</ele>
        <time>2015-06-13T13:31:48.095Z</time>
      </trkpt>
      <trkpt lat="47.79022" lon="6.6176">
        <ele>442.1</ele>
        <time>2015-06-13T13:31:49.095Z</time>
      </trkpt>
      <trkpt lat="47.79022" lon="6.61772">
        <ele>440.674</ele>
        <time>2015-06-13T13:31:50.094Z</time>
      </trkpt>
      <trkpt lat="47.79017" lon="6.61788">
        <ele>442.961</ele>
        <time>2015-06-13T13:31:51.096Z</time>
      </trkpt>
      <trkpt lat="47.7902" lon="6.61804">
        <ele>442.614</ele>
        <time>2015-06-13T13:31:52.121Z</time>
      </trkpt>
      <trkpt lat="47.79025" lon="6.61812">
        <ele>441.438</ele>
        <time>2015-06-13T13:31:53.095Z</time>
      </trkpt>
      <trkpt lat="47.79028" lon="6.61826">
        <ele>441.44</ele>
        <time>2015-06-13T13:31:54.099Z</time>
      </trkpt>
      <trkpt lat="47.79031" lon="6.61837">
        <ele>441.895</ele>
        <time>2015-06-13T13:31:55.098Z</time>
      </trkpt>
      <trkpt lat="47.79028" lon="6.61849">
        <ele>442.021</ele>
        <time>2015-06-13T13:31:56.106Z</time>
      </trkpt>
      <trkpt lat="47.7903" lon="6.61856">
        <ele>441.934</ele>
        <time>2015-06-13T13:31:57.096Z</time>
      </trkpt>
      <trkpt lat="47.79032" lon="6.61861">
        <ele>441.848</ele>
        <time>2015-06-13T13:31:58.098Z</time>
      </trkpt>
      <trkpt lat="47.79035" lon="6.61866">
        <ele>441.602</ele>
        <time>2015-06-13T13:31:59.071Z</time>
      </trkpt>
      <trkpt lat="47.79038" lon="6.61873">
        <ele>441.367</ele>
        <time>2015-06-13T13:32:00.123Z</time>
      </trkpt>
      <trkpt lat="47.79043" lon="6.61878">
        <ele>441.189</ele>
        <time>2015-06-13T13:32:01.094Z</time>
      </trkpt>
      <trkpt lat="47.79047" lon="6.61887">
        <ele>441.016</ele>
        <time>2015-06-13T13:32:02.095Z</time>
      </trkpt>
      <trkpt lat="47.7905" lon="6.619">
        <ele>441.921</ele>
        <time>2015-06-13T13:32:03.108Z</time>
      </trkpt>
      <trkpt lat="47.7905" lon="6.61916">
        <ele>443.318</ele>
        <time>2015-06-13T13:32:04.095Z</time>
      </trkpt>
      <trkpt lat="47.79055" lon="6.61926">
        <ele>442.636</ele>
        <time>2015-06-13T13:32:05.096Z</time>
      </trkpt>
      <trkpt lat="47.7906" lon="6.61936">
        <ele>441.09</ele>
        <time>2015-06-13T13:32:06.094Z</time>
      </trkpt>
      <trkpt lat="47.79062" lon="6.6195">
        <ele>438.876</ele>
        <time>2015-06-13T13:32:07.126Z</time>
      </trkpt>
      <trkpt lat="47.79062" lon="6.61962">
        <ele>436.563</ele>
        <time>2015-06-13T13:32:08.097Z</time>
      </trkpt>
      <trkpt lat="47.79062" lon="6.61971">
        <ele>434.714</ele>
        <time>2015-06-13T13:32:09.095Z</time>
      </trkpt>
      <trkpt lat="47.79062" lon="6.61987">
        <ele>434.857</ele>
        <time>2015-06-13T13:32:10.096Z</time>
      </trkpt>
      <trkpt lat="47.79058" lon="6.62">
        <ele>435.064</ele>
        <time>2015-06-13T13:32:11.104Z</time>
      </trkpt>
      <trkpt lat="47.79057" lon="6.62006">
        <ele>435.242</ele>
        <time>2015-06-13T13:32:12.095Z</time>
      </trkpt>
      <trkpt lat="47.79054" lon="6.62012">
        <ele>435.5</ele>
        <time>2015-06-13T13:32:13.096Z</time>
      </trkpt>
      <trkpt lat="47.79053" lon="6.62022">
        <ele>435.785</ele>
        <time>2015-06-13T13:32:14.098Z</time>
      </trkpt>
      <trkpt lat="47.79049" lon="6.62029">
        <ele>435.676</ele>
        <time>2015-06-13T13:32:15.103Z</time>
      </trkpt>
      <trkpt lat="47.79045" lon="6.62037">
        <ele>434.963</ele>
        <time>2015-06-13T13:32:16.103Z</time>
      </trkpt>
      <trkpt lat="47.79041" lon="6.62044">
        <ele>434.283</ele>
        <time>2015-06-13T13:32:17.103Z</time>
      </trkpt>
      <trkpt lat="47.79037" lon="6.62053">
        <ele>433.541</ele>
        <time>2015-06-13T13:32:18.128Z</time>
      </trkpt>
      <trkpt lat="47.79034" lon="6.62062">
        <ele>431.985</ele>
        <time>2015-06-13T13:32:19.098Z</time>
      </trkpt>
      <trkpt lat="47.79029" lon="6.62073">
        <ele>429.856</ele>
        <time>2015-06-13T13:32:20.098Z</time>
      </trkpt>
      <trkpt lat="47.79023" lon="6.62085">
        <ele>428.376</ele>
        <time>2015-06-13T13:32:21.098Z</time>
      </trkpt>
      <trkpt lat="47.7902" lon="6.62088">
        <ele>428.534</ele>
        <time>2015-06-13T13:32:22.098Z</time>
      </trkpt>
      <trkpt lat="47.79016" lon="6.62099">
        <ele>427.454</ele>
        <time>2015-06-13T13:32:23.098Z</time>
      </trkpt>
      <trkpt lat="47.79015" lon="6.62109">
        <ele>426.23</ele>
        <time>2015-06-13T13:32:24.098Z</time>
      </trkpt>
      <trkpt lat="47.79015" lon="6.62121">
        <ele>426.114</ele>
        <time>2015-06-13T13:32:25.098Z</time>
      </trkpt>
      <trkpt lat="47.79014" lon="6.62132">
        <ele>426.677</ele>
        <time>2015-06-13T13:32:26.104Z</time>
      </trkpt>
      <trkpt lat="47.79017" lon="6.62146">
        <ele>425.901</ele>
        <time>2015-06-13T13:32:27.097Z</time>
      </trkpt>
      <trkpt lat="47.7902" lon="6.62156">
        <ele>424.897</ele>
        <time>2015-06-13T13:32:28.098Z</time>
      </trkpt>
      <trkpt lat="47.79019" lon="6.62172">
        <ele>424.489</ele>
        <time>2015-06-13T13:32:29.098Z</time>
      </trkpt>
      <trkpt lat="47.79019" lon="6.62188">
        <ele>424.15</ele>
        <time>2015-06-13T13:32:30.097Z</time>
      </trkpt>
      <trkpt lat="47.79022" lon="6.62204">
        <ele>423.406</ele>
        <time>2015-06-13T13:32:31.098Z</time>
      </trkpt>
      <trkpt lat="47.79023" lon="6.62219">
        <ele>422.355</ele>
        <time>2015-06-13T13:32:32.098Z</time>
      </trkpt>
      <trkpt lat="47.79023" lon="6.62231">
        <ele>420.251</ele>
        <time>2015-06-13T13:32:33.097Z</time>
      </trkpt>
      <trkpt lat="47.79025" lon="6.62248">
        <ele>416.723</ele>
        <time>2015-06-13T13:32:34.119Z</time>
      </trkpt>
      <trkpt lat="47.79026" lon="6.62265">
        <ele>411.779</ele>
        <time>2015-06-13T13:32:35.098Z</time>
      </trkpt>
      <trkpt lat="47.79031" lon="6.62284">
        <ele>407.123</ele>
        <time>2015-06-13T13:32:36.097Z</time>
      </trkpt>
      <trkpt lat="47.79031" lon="6.62305">
        <ele>403.657</ele>
        <time>2015-06-13T13:32:37.098Z</time>
      </trkpt>
      <trkpt lat="47.79033" lon="6.62313">
        <ele>403.468</ele>
        <time>2015-06-13T13:32:38.098Z</time>
      </trkpt>
      <trkpt lat="47.79039" lon="6.62317">
        <ele>404.415</ele>
        <time>2015-06-13T13:32:39.096Z</time>
      </trkpt>
      <trkpt lat="47.79048" lon="6.6232">
        <ele>406.017</ele>
        <time>2015-06-13T13:32:42.096Z</time>
      </trkpt>
      <trkpt lat="47.79049" lon="6.62324">
        <ele>406.013</ele>
        <time>2015-06-13T13:32:43.097Z</time>
      </trkpt>
      <trkpt lat="47.79055" lon="6.62334">
        <ele>406.787</ele>
        <time>2015-06-13T13:32:49.096Z</time>
      </trkpt>
      <trkpt lat="47.79056" lon="6.62336">
        <ele>406.954</ele>
        <time>2015-06-13T13:32:50.118Z</time>
      </trkpt>
      <trkpt lat="47.79063" lon="6.62344">
        <ele>407.731</ele>
        <time>2015-06-13T13:32:56.092Z</time>
      </trkpt>
      <trkpt lat="47.79064" lon="6.62346">
        <ele>407.818</ele>
        <time>2015-06-13T13:32:57.095Z</time>
      </trkpt>
      <trkpt lat="47.7907" lon="6.62356">
        <ele>408.188</ele>
        <time>2015-06-13T13:33:02.091Z</time>
      </trkpt>
      <trkpt lat="47.79071" lon="6.62358">
        <ele>408.358</ele>
        <time>2015-06-13T13:33:03.096Z</time>
      </trkpt>
      <trkpt lat="47.79078" lon="6.62365">
        <ele>409.519</ele>
        <time>2015-06-13T13:33:08.097Z</time>
      </trkpt>
      <trkpt lat="47.79079" lon="6.62366">
        <ele>409.807</ele>
        <time>2015-06-13T13:33:09.123Z</time>
      </trkpt>
      <trkpt lat="47.79085" lon="6.62375">
        <ele>411.119</ele>
        <time>2015-06-13T13:33:14.099Z</time>
      </trkpt>
      <trkpt lat="47.79085" lon="6.62376">
        <ele>411.293</ele>
        <time>2015-06-13T13:33:15.12Z</time>
      </trkpt>
      <trkpt lat="47.79094" lon="6.62379">
        <ele>412.18</ele>
        <time>2015-06-13T13:33:23.127Z</time>
      </trkpt>
      <trkpt lat="47.79096" lon="6.62379">
        <ele>412.383</ele>
        <time>2015-06-13T13:33:24.112Z</time>
      </trkpt>
      <trkpt lat="47.79104" lon="6.62375">
        <ele>413.239</ele>
        <time>2015-06-13T13:33:28.06Z</time>
      </trkpt>
      <trkpt lat="47.79106" lon="6.62372">
        <ele>413.58</ele>
        <time>2015-06-13T13:33:29.104Z</time>
      </trkpt>
      <trkpt lat="47.79113" lon="6.62366">
        <ele>414.934</ele>
        <time>2015-06-13T13:33:32.111Z</time>
      </trkpt>
      <trkpt lat="47.79115" lon="6.62365">
        <ele>415.496</ele>
        <time>2015-06-13T13:33:33.133Z</time>
      </trkpt>
      <trkpt lat="47.79123" lon="6.62362">
        <ele>417.08</ele>
        <time>2015-06-13T13:33:37.099Z</time>
      </trkpt>
      <trkpt lat="47.79125" lon="6.62362">
        <ele>417.389</ele>
        <time>2015-06-13T13:33:38.119Z</time>
      </trkpt>
      <trkpt lat="47.79131" lon="6.62372">
        <ele>417.778</ele>
        <time>2015-06-13T13:33:43.1Z</time>
      </trkpt>
      <trkpt lat="47.79132" lon="6.62373">
        <ele>417.897</ele>
        <time>2015-06-13T13:33:44.099Z</time>
      </trkpt>
      <trkpt lat="47.79134" lon="6.62384">
        <ele>417.425</ele>
        <time>2015-06-13T13:33:48.1Z</time>
      </trkpt>
      <trkpt lat="47.79134" lon="6.62386">
        <ele>417.278</ele>
        <time>2015-06-13T13:33:49.124Z</time>
      </trkpt>
      <trkpt lat="47.7914" lon="6.62394">
        <ele>417.48</ele>
        <time>2015-06-13T13:33:57.105Z</time>
      </trkpt>
      <trkpt lat="47.79142" lon="6.62394">
        <ele>418.164</ele>
        <time>2015-06-13T13:33:58.125Z</time>
      </trkpt>
      <trkpt lat="47.7915" lon="6.62395">
        <ele>420.828</ele>
        <time>2015-06-13T13:34:01.113Z</time>
      </trkpt>
      <trkpt lat="47.79152" lon="6.62395">
        <ele>421.656</ele>
        <time>2015-06-13T13:34:02.098Z</time>
      </trkpt>
      <trkpt lat="47.79161" lon="6.62396">
        <ele>424.77</ele>
        <time>2015-06-13T13:34:05.094Z</time>
      </trkpt>
      <trkpt lat="47.79165" lon="6.62395">
        <ele>426.084</ele>
        <time>2015-06-13T13:34:06.1Z</time>
      </trkpt>
      <trkpt lat="47.79172" lon="6.62395">
        <ele>428.612</ele>
        <time>2015-06-13T13:34:08.103Z</time>
      </trkpt>
      <trkpt lat="47.79177" lon="6.62396">
        <ele>429.841</ele>
        <time>2015-06-13T13:34:09.101Z</time>
      </trkpt>
      <trkpt lat="47.79183" lon="6.62397">
        <ele>431.556</ele>
        <time>2015-06-13T13:34:11.136Z</time>
      </trkpt>
      <trkpt lat="47.79186" lon="6.62396">
        <ele>432.522</ele>
        <time>2015-06-13T13:34:12.103Z</time>
      </trkpt>
      <trkpt lat="47.79191" lon="6.62392">
        <ele>434.756</ele>
        <time>2015-06-13T13:34:14.102Z</time>
      </trkpt>
      <trkpt lat="47.79194" lon="6.62389">
        <ele>435.86</ele>
        <time>2015-06-13T13:34:15.111Z</time>
      </trkpt>
      <trkpt lat="47.79197" lon="6.62377">
        <ele>436.801</ele>
        <time>2015-06-13T13:34:18.115Z</time>
      </trkpt>
      <trkpt lat="47.792" lon="6.62373">
        <ele>437.386</ele>
        <time>2015-06-13T13:34:19.105Z</time>
      </trkpt>
      <trkpt lat="47.79202" lon="6.62361">
        <ele>438.902</ele>
        <time>2015-06-13T13:34:23.104Z</time>
      </trkpt>
      <trkpt lat="47.79203" lon="6.62358">
        <ele>439.429</ele>
        <time>2015-06-13T13:34:24.113Z</time>
      </trkpt>
      <trkpt lat="47.79209" lon="6.62351">
        <ele>441.307</ele>
        <time>2015-06-13T13:34:27.105Z</time>
      </trkpt>
      <trkpt lat="47.79211" lon="6.6235">
        <ele>441.814</ele>
        <time>2015-06-13T13:34:28.113Z</time>
      </trkpt>
      <trkpt lat="47.79218" lon="6.62356">
        <ele>443.302</ele>
        <time>2015-06-13T13:34:37.106Z</time>
      </trkpt>
      <trkpt lat="47.79219" lon="6.62358">
        <ele>443.457</ele>
        <time>2015-06-13T13:34:38.097Z</time>
      </trkpt>
      <trkpt lat="47.79222" lon="6.62369">
        <ele>441.961</ele>
        <time>2015-06-13T13:34:43.107Z</time>
      </trkpt>
      <trkpt lat="47.79223" lon="6.62372">
        <ele>441.164</ele>
        <time>2015-06-13T13:34:44.32Z</time>
      </trkpt>
      <trkpt lat="47.79226" lon="6.62381">
        <ele>439.032</ele>
        <time>2015-06-13T13:34:46.14Z</time>
      </trkpt>
      <trkpt lat="47.79227" lon="6.62385">
        <ele>438.159</ele>
        <time>2015-06-13T13:34:47.119Z</time>
      </trkpt>
      <trkpt lat="47.79228" lon="6.62398">
        <ele>436.899</ele>
        <time>2015-06-13T13:34:50.116Z</time>
      </trkpt>
      <trkpt lat="47.79229" lon="6.62401">
        <ele>436.72</ele>
        <time>2015-06-13T13:34:51.096Z</time>
      </trkpt>
      <trkpt lat="47.79234" lon="6.6241">
        <ele>436.13</ele>
        <time>2015-06-13T13:34:54.104Z</time>
      </trkpt>
      <trkpt lat="47.79235" lon="6.62414">
        <ele>435.789</ele>
        <time>2015-06-13T13:34:55.101Z</time>
      </trkpt>
      <trkpt lat="47.79239" lon="6.62423">
        <ele>434.944</ele>
        <time>2015-06-13T13:34:58.103Z</time>
      </trkpt>
      <trkpt lat="47.79241" lon="6.62426">
        <ele>434.648</ele>
        <time>2015-06-13T13:34:59.095Z</time>
      </trkpt>
      <trkpt lat="47.79244" lon="6.62438">
        <ele>433.709</ele>
        <time>2015-06-13T13:35:02.104Z</time>
      </trkpt>
      <trkpt lat="47.79244" lon="6.62442">
        <ele>433.446</ele>
        <time>2015-06-13T13:35:03.111Z</time>
      </trkpt>
      <trkpt lat="47.79245" lon="6.62451">
        <ele>432.8</ele>
        <time>2015-06-13T13:35:06.101Z</time>
      </trkpt>
      <trkpt lat="47.79247" lon="6.62455">
        <ele>432.527</ele>
        <time>2015-06-13T13:35:07.202Z</time>
      </trkpt>
      <trkpt lat="47.79251" lon="6.62464">
        <ele>431.713</ele>
        <time>2015-06-13T13:35:10.119Z</time>
      </trkpt>
      <trkpt lat="47.79253" lon="6.62466">
        <ele>431.759</ele>
        <time>2015-06-13T13:35:11.101Z</time>
      </trkpt>
      <trkpt lat="47.79259" lon="6.62471">
        <ele>432.264</ele>
        <time>2015-06-13T13:35:14.111Z</time>
      </trkpt>
      <trkpt lat="47.79261" lon="6.62473">
        <ele>432.599</ele>
        <time>2015-06-13T13:35:15.134Z</time>
      </trkpt>
      <trkpt lat="47.79266" lon="6.62481">
        <ele>434.222</ele>
        <time>2015-06-13T13:35:19.102Z</time>
      </trkpt>
      <trkpt lat="47.79268" lon="6.62483">
        <ele>434.636</ele>
        <time>2015-06-13T13:35:20.103Z</time>
      </trkpt>
      <trkpt lat="47.79274" lon="6.62493">
        <ele>436.11</ele>
        <time>2015-06-13T13:35:25.039Z</time>
      </trkpt>
      <trkpt lat="47.79274" lon="6.62494">
        <ele>436.272</ele>
        <time>2015-06-13T13:35:26.111Z</time>
      </trkpt>
      <trkpt lat="47.79275" lon="6.62495">
        <ele>436.43</ele>
        <time>2015-06-13T13:35:27.107Z</time>
      </trkpt>
      <trkpt lat="47.79482" lon="6.62378">
        <ele>470.926</ele>
        <time>2015-06-13T13:37:45.117Z</time>
      </trkpt>
      <trkpt lat="47.79489" lon="6.62382">
        <ele>470.378</ele>
        <time>2015-06-13T13:38:07.153Z</time>
      </trkpt>
      <trkpt lat="47.7949" lon="6.62382">
        <ele>470.355</ele>
        <time>2015-06-13T13:38:08.104Z</time>
      </trkpt>
      <trkpt lat="47.79497" lon="6.62383">
        <ele>470.293</ele>
        <time>2015-06-13T13:38:12.104Z</time>
      </trkpt>
      <trkpt lat="47.79503" lon="6.62377">
        <ele>470.735</ele>
        <time>2015-06-13T13:38:16.122Z</time>
      </trkpt>
      <trkpt lat="47.79506" lon="6.62371">
        <ele>470.365</ele>
        <time>2015-06-13T13:38:17.101Z</time>
      </trkpt>
      <trkpt lat="47.7951" lon="6.62366">
        <ele>469.641</ele>
        <time>2015-06-13T13:38:18.1Z</time>
      </trkpt>
      <trkpt lat="47.79516" lon="6.62357">
        <ele>466.851</ele>
        <time>2015-06-13T13:38:20.164Z</time>
      </trkpt>
      <trkpt lat="47.7956" lon="6.62282">
        <ele>466.738</ele>
        <time>2015-06-13T13:38:59.1Z</time>
      </trkpt>
      <trkpt lat="47.79568" lon="6.62279">
        <ele>468.159</ele>
        <time>2015-06-13T13:39:02.435Z</time>
      </trkpt>
      <trkpt lat="47.7957" lon="6.62277">
        <ele>468.723</ele>
        <time>2015-06-13T13:39:03.095Z</time>
      </trkpt>
      <trkpt lat="47.79574" lon="6.62269">
        <ele>470.354</ele>
        <time>2015-06-13T13:39:15.282Z</time>
      </trkpt>
      <trkpt lat="47.79629" lon="6.62216">
        <ele>470.754</ele>
        <time>2015-06-13T13:39:33.229Z</time>
      </trkpt>
      <trkpt lat="47.79642" lon="6.6221">
        <ele>468.26</ele>
        <time>2015-06-13T13:39:34.119Z</time>
      </trkpt>
      <trkpt lat="47.79706" lon="6.62187">
        <ele>467.205</ele>
        <time>2015-06-13T13:39:58.061Z</time>
      </trkpt>
      <trkpt lat="47.79713" lon="6.62192">
        <ele>466.079</ele>
        <time>2015-06-13T13:40:03.104Z</time>
      </trkpt>
      <trkpt lat="47.79715" lon="6.62191">
        <ele>465.901</ele>
        <time>2015-06-13T13:40:04.124Z</time>
      </trkpt>
      <trkpt lat="47.79719" lon="6.62186">
        <ele>465.463</ele>
        <time>2015-06-13T13:40:05.143Z</time>
      </trkpt>
      <trkpt lat="47.79723" lon="6.62182">
        <ele>464.683</ele>
        <time>2015-06-13T13:40:06.096Z</time>
      </trkpt>
      <trkpt lat="47.7973" lon="6.62174">
        <ele>462.545</ele>
        <time>2015-06-13T13:40:08.101Z</time>
      </trkpt>
      <trkpt lat="47.79731" lon="6.6217">
        <ele>462.318</ele>
        <time>2015-06-13T13:40:09.124Z</time>
      </trkpt>
      <trkpt lat="47.7973" lon="6.62158">
        <ele>463.208</ele>
        <time>2015-06-13T13:40:12.1Z</time>
      </trkpt>
      <trkpt lat="47.7973" lon="6.62155">
        <ele>463.6</ele>
        <time>2015-06-13T13:40:13.102Z</time>
      </trkpt>
      <trkpt lat="47.79726" lon="6.62146">
        <ele>465.284</ele>
        <time>2015-06-13T13:40:15.11Z</time>
      </trkpt>
      <trkpt lat="47.79724" lon="6.62141">
        <ele>466.215</ele>
        <time>2015-06-13T13:40:16.102Z</time>
      </trkpt>
      <trkpt lat="47.7972" lon="6.6213">
        <ele>467.897</ele>
        <time>2015-06-13T13:40:19.096Z</time>
      </trkpt>
      <trkpt lat="47.79718" lon="6.62126">
        <ele>468.241</ele>
        <time>2015-06-13T13:40:20.097Z</time>
      </trkpt>
      <trkpt lat="47.79718" lon="6.62116">
        <ele>468.657</ele>
        <time>2015-06-13T13:40:24.102Z</time>
      </trkpt>
      <trkpt lat="47.79716" lon="6.62112">
        <ele>468.771</ele>
        <time>2015-06-13T13:40:25.101Z</time>
      </trkpt>
      <trkpt lat="47.79713" lon="6.62101">
        <ele>468.159</ele>
        <time>2015-06-13T13:40:27.056Z</time>
      </trkpt>
      <trkpt lat="47.79711" lon="6.62093">
        <ele>467.836</ele>
        <time>2015-06-13T13:40:28.102Z</time>
      </trkpt>
      <trkpt lat="47.79708" lon="6.62085">
        <ele>467.55</ele>
        <time>2015-06-13T13:40:29.101Z</time>
      </trkpt>
      <trkpt lat="47.79707" lon="6.62077">
        <ele>467.666</ele>
        <time>2015-06-13T13:40:30.102Z</time>
      </trkpt>
      <trkpt lat="47.79707" lon="6.6207">
        <ele>467.827</ele>
        <time>2015-06-13T13:40:31.113Z</time>
      </trkpt>
      <trkpt lat="47.79707" lon="6.62063">
        <ele>467.972</ele>
        <time>2015-06-13T13:40:32.133Z</time>
      </trkpt>
      <trkpt lat="47.79706" lon="6.62052">
        <ele>468.062</ele>
        <time>2015-06-13T13:40:34.108Z</time>
      </trkpt>
      <trkpt lat="47.79706" lon="6.62047">
        <ele>467.885</ele>
        <time>2015-06-13T13:40:35.123Z</time>
      </trkpt>
      <trkpt lat="47.79706" lon="6.62037">
        <ele>467.486</ele>
        <time>2015-06-13T13:40:37.112Z</time>
      </trkpt>
      <trkpt lat="47.79706" lon="6.62032">
        <ele>467.313</ele>
        <time>2015-06-13T13:40:38.141Z</time>
      </trkpt>
      <trkpt lat="47.79707" lon="6.62021">
        <ele>466.995</ele>
        <time>2015-06-13T13:40:40.109Z</time>
      </trkpt>
      <trkpt lat="47.79707" lon="6.62016">
        <ele>466.899</ele>
        <time>2015-06-13T13:40:41.11Z</time>
      </trkpt>
      <trkpt lat="47.79708" lon="6.62005">
        <ele>466.664</ele>
        <time>2015-06-13T13:40:43.109Z</time>
      </trkpt>
      <trkpt lat="47.79709" lon="6.62002">
        <ele>466.427</ele>
        <time>2015-06-13T13:40:44.11Z</time>
      </trkpt>
      <trkpt lat="47.79714" lon="6.61994">
        <ele>465.339</ele>
        <time>2015-06-13T13:40:47.113Z</time>
      </trkpt>
      <trkpt lat="47.79714" lon="6.61987">
        <ele>464.754</ele>
        <time>2015-06-13T13:40:48.05Z</time>
      </trkpt>
      <trkpt lat="47.79714" lon="6.61973">
        <ele>463.665</ele>
        <time>2015-06-13T13:40:50.109Z</time>
      </trkpt>
      <trkpt lat="47.79714" lon="6.61966">
        <ele>463.444</ele>
        <time>2015-06-13T13:40:51.13Z</time>
      </trkpt>
      <trkpt lat="47.79714" lon="6.61959">
        <ele>463.244</ele>
        <time>2015-06-13T13:40:52.108Z</time>
      </trkpt>
      <trkpt lat="47.79714" lon="6.6195">
        <ele>463.079</ele>
        <time>2015-06-13T13:40:53.133Z</time>
      </trkpt>
      <trkpt lat="47.79712" lon="6.61941">
        <ele>463.25</ele>
        <time>2015-06-13T13:40:54.134Z</time>
      </trkpt>
      <trkpt lat="47.79711" lon="6.61931">
        <ele>463.557</ele>
        <time>2015-06-13T13:40:55.132Z</time>
      </trkpt>
      <trkpt lat="47.79708" lon="6.61904">
        <ele>465.166</ele>
        <time>2015-06-13T13:40:56.107Z</time>
      </trkpt>
      <trkpt lat="47.79712" lon="6.61897">
        <ele>464.741</ele>
        <time>2015-06-13T13:40:57.105Z</time>
      </trkpt>
      <trkpt lat="47.79712" lon="6.61891">
        <ele>465.178</ele>
        <time>2015-06-13T13:40:58.117Z</time>
      </trkpt>
      <trkpt lat="47.7971" lon="6.61882">
        <ele>465.794</ele>
        <time>2015-06-13T13:40:59.1Z</time>
      </trkpt>
      <trkpt lat="47.79708" lon="6.61877">
        <ele>466.318</ele>
        <time>2015-06-13T13:41:00.112Z</time>
      </trkpt>
      <trkpt lat="47.79693" lon="6.61829">
        <ele>465.652</ele>
        <time>2015-06-13T13:41:05.085Z</time>
      </trkpt>
      <trkpt lat="47.79689" lon="6.61819">
        <ele>464.511</ele>
        <time>2015-06-13T13:41:07.164Z</time>
      </trkpt>
      <trkpt lat="47.79689" lon="6.61814">
        <ele>463.791</ele>
        <time>2015-06-13T13:41:08.096Z</time>
      </trkpt>
      <trkpt lat="47.79685" lon="6.61809">
        <ele>463.516</ele>
        <time>2015-06-13T13:41:09.092Z</time>
      </trkpt>
      <trkpt lat="47.79681" lon="6.61806">
        <ele>463.938</ele>
        <time>2015-06-13T13:41:10.127Z</time>
      </trkpt>
      <trkpt lat="47.79683" lon="6.61793">
        <ele>463.02</ele>
        <time>2015-06-13T13:41:13.096Z</time>
      </trkpt>
      <trkpt lat="47.7968" lon="6.61789">
        <ele>463.553</ele>
        <time>2015-06-13T13:41:14.096Z</time>
      </trkpt>
      <trkpt lat="47.79676" lon="6.61779">
        <ele>463.978</ele>
        <time>2015-06-13T13:41:15.097Z</time>
      </trkpt>
      <trkpt lat="47.79669" lon="6.61771">
        <ele>466.046</ele>
        <time>2015-06-13T13:41:16.095Z</time>
      </trkpt>
      <trkpt lat="47.79665" lon="6.61764">
        <ele>467.329</ele>
        <time>2015-06-13T13:41:18.093Z</time>
      </trkpt>
      <trkpt lat="47.79662" lon="6.61758">
        <ele>468.103</ele>
        <time>2015-06-13T13:41:19.103Z</time>
      </trkpt>
      <trkpt lat="47.79661" lon="6.61751">
        <ele>468.814</ele>
        <time>2015-06-13T13:41:20.098Z</time>
      </trkpt>
      <trkpt lat="47.79658" lon="6.61745">
        <ele>469.743</ele>
        <time>2015-06-13T13:41:21.097Z</time>
      </trkpt>
      <trkpt lat="47.79653" lon="6.61729">
        <ele>471.853</ele>
        <time>2015-06-13T13:41:22.098Z</time>
      </trkpt>
      <trkpt lat="47.79649" lon="6.61725">
        <ele>472.961</ele>
        <time>2015-06-13T13:41:23.049Z</time>
      </trkpt>
      <trkpt lat="47.79643" lon="6.61716">
        <ele>474.182</ele>
        <time>2015-06-13T13:41:24.287Z</time>
      </trkpt>
      <trkpt lat="47.7963" lon="6.61703">
        <ele>470.105</ele>
        <time>2015-06-13T13:41:25.1Z</time>
      </trkpt>
      <trkpt lat="47.7961" lon="6.61677">
        <ele>453.066</ele>
        <time>2015-06-13T13:41:26.099Z</time>
      </trkpt>
      <trkpt lat="47.79603" lon="6.6168">
        <ele>452.059</ele>
        <time>2015-06-13T13:41:29.097Z</time>
      </trkpt>
      <trkpt lat="47.79599" lon="6.61694">
        <ele>453.765</ele>
        <time>2015-06-13T13:41:30.097Z</time>
      </trkpt>
      <trkpt lat="47.79591" lon="6.61698">
        <ele>451.017</ele>
        <time>2015-06-13T13:41:32.098Z</time>
      </trkpt>
      <trkpt lat="47.7959" lon="6.61702">
        <ele>451.019</ele>
        <time>2015-06-13T13:41:33.096Z</time>
      </trkpt>
      <trkpt lat="47.79585" lon="6.61706">
        <ele>449.19</ele>
        <time>2015-06-13T13:41:34.102Z</time>
      </trkpt>
      <trkpt lat="47.79581" lon="6.61708">
        <ele>447.874</ele>
        <time>2015-06-13T13:41:35.122Z</time>
      </trkpt>
      <trkpt lat="47.79576" lon="6.61714">
        <ele>446.861</ele>
        <time>2015-06-13T13:41:37.098Z</time>
      </trkpt>
      <trkpt lat="47.79572" lon="6.61716">
        <ele>445.997</ele>
        <time>2015-06-13T13:41:38.097Z</time>
      </trkpt>
      <trkpt lat="47.79566" lon="6.61722">
        <ele>444.323</ele>
        <time>2015-06-13T13:41:40.098Z</time>
      </trkpt>
      <trkpt lat="47.79562" lon="6.61725">
        <ele>443.551</ele>
        <time>2015-06-13T13:41:41.097Z</time>
      </trkpt>
      <trkpt lat="47.79554" lon="6.61729">
        <ele>441.732</ele>
        <time>2015-06-13T13:41:43.096Z</time>
      </trkpt>
      <trkpt lat="47.79549" lon="6.61732">
        <ele>441.858</ele>
        <time>2015-06-13T13:41:44.094Z</time>
      </trkpt>
      <trkpt lat="47.79544" lon="6.6174">
        <ele>442.409</ele>
        <time>2015-06-13T13:41:46.118Z</time>
      </trkpt>
      <trkpt lat="47.7954" lon="6.61746">
        <ele>442.602</ele>
        <time>2015-06-13T13:41:47.095Z</time>
      </trkpt>
      <trkpt lat="47.79465" lon="6.61711">
        <ele>444.91</ele>
        <time>2015-06-13T13:42:02.119Z</time>
      </trkpt>
      <trkpt lat="47.79469" lon="6.61701">
        <ele>444.374</ele>
        <time>2015-06-13T13:42:04.101Z</time>
      </trkpt>
      <trkpt lat="47.79467" lon="6.61695">
        <ele>443.809</ele>
        <time>2015-06-13T13:42:05.096Z</time>
      </trkpt>
      <trkpt lat="47.79467" lon="6.61689">
        <ele>442.901</ele>
        <time>2015-06-13T13:42:06.101Z</time>
      </trkpt>
      <trkpt lat="47.79465" lon="6.61681">
        <ele>441.817</ele>
        <time>2015-06-13T13:42:07.152Z</time>
      </trkpt>
      <trkpt lat="47.79468" lon="6.61671">
        <ele>440.078</ele>
        <time>2015-06-13T13:42:09.102Z</time>
      </trkpt>
      <trkpt lat="47.79465" lon="6.61655">
        <ele>437.886</ele>
        <time>2015-06-13T13:42:10.096Z</time>
      </trkpt>
      <trkpt lat="47.79467" lon="6.61645">
        <ele>436.304</ele>
        <time>2015-06-13T13:42:11.095Z</time>
      </trkpt>
      <trkpt lat="47.79471" lon="6.61636">
        <ele>434.709</ele>
        <time>2015-06-13T13:42:12.097Z</time>
      </trkpt>
      <trkpt lat="47.79474" lon="6.6162">
        <ele>432.376</ele>
        <time>2015-06-13T13:42:13.099Z</time>
      </trkpt>
      <trkpt lat="47.79485" lon="6.61614">
        <ele>432.26</ele>
        <time>2015-06-13T13:42:14.098Z</time>
      </trkpt>
      <trkpt lat="47.79471" lon="6.61592">
        <ele>428.192</ele>
        <time>2015-06-13T13:42:15.097Z</time>
      </trkpt>
      <trkpt lat="47.79478" lon="6.61586">
        <ele>429.073</ele>
        <time>2015-06-13T13:42:16.117Z</time>
      </trkpt>
      <trkpt lat="47.7948" lon="6.6157">
        <ele>427.829</ele>
        <time>2015-06-13T13:42:17.098Z</time>
      </trkpt>
      <trkpt lat="47.79476" lon="6.61566">
        <ele>426.277</ele>
        <time>2015-06-13T13:42:18.123Z</time>
      </trkpt>
      <trkpt lat="47.79482" lon="6.61552">
        <ele>426.331</ele>
        <time>2015-06-13T13:42:19.094Z</time>
      </trkpt>
      <trkpt lat="47.79487" lon="6.6154">
        <ele>425.434</ele>
        <time>2015-06-13T13:42:20.062Z</time>
      </trkpt>
      <trkpt lat="47.79497" lon="6.61532">
        <ele>424.912</ele>
        <time>2015-06-13T13:42:21.1Z</time>
      </trkpt>
      <trkpt lat="47.79505" lon="6.61526">
        <ele>424.801</ele>
        <time>2015-06-13T13:42:22.101Z</time>
      </trkpt>
      <trkpt lat="47.79513" lon="6.61513">
        <ele>424.164</ele>
        <time>2015-06-13T13:42:23.099Z</time>
      </trkpt>
      <trkpt lat="47.79519" lon="6.61502">
        <ele>423.016</ele>
        <time>2015-06-13T13:42:24.098Z</time>
      </trkpt>
      <trkpt lat="47.79526" lon="6.61491">
        <ele>421.264</ele>
        <time>2015-06-13T13:42:25.085Z</time>
      </trkpt>
      <trkpt lat="47.79535" lon="6.61485">
        <ele>421.953</ele>
        <time>2015-06-13T13:42:26.098Z</time>
      </trkpt>
      <trkpt lat="47.79546" lon="6.61477">
        <ele>423.061</ele>
        <time>2015-06-13T13:42:27.099Z</time>
      </trkpt>
      <trkpt lat="47.79555" lon="6.61469">
        <ele>424.456</ele>
        <time>2015-06-13T13:42:28.099Z</time>
      </trkpt>
      <trkpt lat="47.79571" lon="6.61449">
        <ele>425.027</ele>
        <time>2015-06-13T13:42:30.125Z</time>
      </trkpt>
      <trkpt lat="47.79575" lon="6.61437">
        <ele>422.89</ele>
        <time>2015-06-13T13:42:31.098Z</time>
      </trkpt>
      <trkpt lat="47.79582" lon="6.61421">
        <ele>419.226</ele>
        <time>2015-06-13T13:42:32.098Z</time>
      </trkpt>
      <trkpt lat="47.79592" lon="6.61407">
        <ele>421.985</ele>
        <time>2015-06-13T13:42:33.099Z</time>
      </trkpt>
      <trkpt lat="47.79595" lon="6.61393">
        <ele>421.326</ele>
        <time>2015-06-13T13:42:34.123Z</time>
      </trkpt>
      <trkpt lat="47.79604" lon="6.6133">
        <ele>420.154</ele>
        <time>2015-06-13T13:42:39.098Z</time>
      </trkpt>
      <trkpt lat="47.79604" lon="6.61313">
        <ele>415.805</ele>
        <time>2015-06-13T13:42:40.099Z</time>
      </trkpt>
      <trkpt lat="47.79601" lon="6.61294">
        <ele>411.215</ele>
        <time>2015-06-13T13:42:41.099Z</time>
      </trkpt>
      <trkpt lat="47.79619" lon="6.61298">
        <ele>413.806</ele>
        <time>2015-06-13T13:42:42.099Z</time>
      </trkpt>
      <trkpt lat="47.79625" lon="6.61286">
        <ele>410.578</ele>
        <time>2015-06-13T13:42:43.099Z</time>
      </trkpt>
      <trkpt lat="47.79632" lon="6.61275">
        <ele>407.422</ele>
        <time>2015-06-13T13:42:44.107Z</time>
      </trkpt>
      <trkpt lat="47.79635" lon="6.61256">
        <ele>403.188</ele>
        <time>2015-06-13T13:42:45.099Z</time>
      </trkpt>
      <trkpt lat="47.79642" lon="6.61246">
        <ele>402.186</ele>
        <time>2015-06-13T13:42:46.099Z</time>
      </trkpt>
      <trkpt lat="47.79649" lon="6.61234">
        <ele>402.258</ele>
        <time>2015-06-13T13:42:47.099Z</time>
      </trkpt>
      <trkpt lat="47.79656" lon="6.61227">
        <ele>403.029</ele>
        <time>2015-06-13T13:42:48.099Z</time>
      </trkpt>
      <trkpt lat="47.79663" lon="6.61214">
        <ele>403.508</ele>
        <time>2015-06-13T13:42:49.099Z</time>
      </trkpt>
      <trkpt lat="47.7967" lon="6.61199">
        <ele>403.832</ele>
        <time>2015-06-13T13:42:50.121Z</time>
      </trkpt>
      <trkpt lat="47.79675" lon="6.61179">
        <ele>402.612</ele>
        <time>2015-06-13T13:42:51.098Z</time>
      </trkpt>
      <trkpt lat="47.7968" lon="6.61163">
        <ele>401.096</ele>
        <time>2015-06-13T13:42:52.099Z</time>
      </trkpt>
      <trkpt lat="47.79684" lon="6.6114">
        <ele>399.077</ele>
        <time>2015-06-13T13:42:53.098Z</time>
      </trkpt>
      <trkpt lat="47.79688" lon="6.61122">
        <ele>399.594</ele>
        <time>2015-06-13T13:42:54.095Z</time>
      </trkpt>
      <trkpt lat="47.79687" lon="6.61109">
        <ele>400.35</ele>
        <time>2015-06-13T13:42:55.096Z</time>
      </trkpt>
      <trkpt lat="47.79686" lon="6.61093">
        <ele>402.401</ele>
        <time>2015-06-13T13:42:56.095Z</time>
      </trkpt>
      <trkpt lat="47.79691" lon="6.61092">
        <ele>402.618</ele>
        <time>2015-06-13T13:42:57.098Z</time>
      </trkpt>
      <trkpt lat="47.797" lon="6.61085">
        <ele>403.795</ele>
        <time>2015-06-13T13:42:58.095Z</time>
      </trkpt>
      <trkpt lat="47.79704" lon="6.61075">
        <ele>405.572</ele>
        <time>2015-06-13T13:42:59.095Z</time>
      </trkpt>
      <trkpt lat="47.79706" lon="6.6107">
        <ele>406.346</ele>
        <time>2015-06-13T13:43:00.131Z</time>
      </trkpt>
      <trkpt lat="47.79712" lon="6.61061">
        <ele>407.984</ele>
        <time>2015-06-13T13:43:01.092Z</time>
      </trkpt>
      <trkpt lat="47.79707" lon="6.61057">
        <ele>408.83</ele>
        <time>2015-06-13T13:43:02.1Z</time>
      </trkpt>
      <trkpt lat="47.7969" lon="6.61042">
        <ele>411.342</ele>
        <time>2015-06-13T13:43:03.115Z</time>
      </trkpt>
      <trkpt lat="47.79686" lon="6.61039">
        <ele>411.189</ele>
        <time>2015-06-13T13:43:04.102Z</time>
      </trkpt>
      <trkpt lat="47.79683" lon="6.61032">
        <ele>411.775</ele>
        <time>2015-06-13T13:43:05.096Z</time>
      </trkpt>
      <trkpt lat="47.79678" lon="6.61025">
        <ele>411.806</ele>
        <time>2015-06-13T13:43:06.094Z</time>
      </trkpt>
      <trkpt lat="47.79672" lon="6.61024">
        <ele>410.68</ele>
        <time>2015-06-13T13:43:07.086Z</time>
      </trkpt>
      <trkpt lat="47.79664" lon="6.61021">
        <ele>410.284</ele>
        <time>2015-06-13T13:43:10.097Z</time>
      </trkpt>
      <trkpt lat="47.7966" lon="6.61017">
        <ele>410.66</ele>
        <time>2015-06-13T13:43:11.13Z</time>
      </trkpt>
      <trkpt lat="47.79651" lon="6.61017">
        <ele>410.445</ele>
        <time>2015-06-13T13:43:13.061Z</time>
      </trkpt>
      <trkpt lat="47.79645" lon="6.61017">
        <ele>410.241</ele>
        <time>2015-06-13T13:43:14.099Z</time>
      </trkpt>
      <trkpt lat="47.79638" lon="6.61015">
        <ele>410.003</ele>
        <time>2015-06-13T13:43:16.097Z</time>
      </trkpt>
      <trkpt lat="47.79633" lon="6.61015">
        <ele>410.025</ele>
        <time>2015-06-13T13:43:17.1Z</time>
      </trkpt>
      <trkpt lat="47.79631" lon="6.61007">
        <ele>409.848</ele>
        <time>2015-06-13T13:43:18.106Z</time>
      </trkpt>
      <trkpt lat="47.79626" lon="6.61001">
        <ele>409.576</ele>
        <time>2015-06-13T13:43:19.134Z</time>
      </trkpt>
      <trkpt lat="47.79622" lon="6.60994">
        <ele>409.361</ele>
        <time>2015-06-13T13:43:21.112Z</time>
      </trkpt>
      <trkpt lat="47.7962" lon="6.60987">
        <ele>408.964</ele>
        <time>2015-06-13T13:43:22.131Z</time>
      </trkpt>
      <trkpt lat="47.79617" lon="6.60975">
        <ele>407.728</ele>
        <time>2015-06-13T13:43:25.105Z</time>
      </trkpt>
      <trkpt lat="47.79616" lon="6.60972">
        <ele>407.265</ele>
        <time>2015-06-13T13:43:26.105Z</time>
      </trkpt>
      <trkpt lat="47.79616" lon="6.60959">
        <ele>407.431</ele>
        <time>2015-06-13T13:43:30.105Z</time>
      </trkpt>
      <trkpt lat="47.79617" lon="6.60957">
        <ele>407.814</ele>
        <time>2015-06-13T13:43:31.126Z</time>
      </trkpt>
      <trkpt lat="47.79622" lon="6.60947">
        <ele>409.465</ele>
        <time>2015-06-13T13:43:36.099Z</time>
      </trkpt>
      <trkpt lat="47.79624" lon="6.60945">
        <ele>410.013</ele>
        <time>2015-06-13T13:43:37.14Z</time>
      </trkpt>
      <trkpt lat="47.79628" lon="6.60937">
        <ele>412.005</ele>
        <time>2015-06-13T13:43:40.098Z</time>
      </trkpt>
      <trkpt lat="47.79629" lon="6.60934">
        <ele>412.459</ele>
        <time>2015-06-13T13:43:41.095Z</time>
      </trkpt>
      <trkpt lat="47.7963" lon="6.60922">
        <ele>413.383</ele>
        <time>2015-06-13T13:43:44.096Z</time>
      </trkpt>
      <trkpt lat="47.79629" lon="6.60917">
        <ele>413.534</ele>
        <time>2015-06-13T13:43:45.097Z</time>
      </trkpt>
      <trkpt lat="47.79627" lon="6.60905">
        <ele>413.542</ele>
        <time>2015-06-13T13:43:48.109Z</time>
      </trkpt>
      <trkpt lat="47.79627" lon="6.60901">
        <ele>413.613</ele>
        <time>2015-06-13T13:43:49.127Z</time>
      </trkpt>
      <trkpt lat="47.79626" lon="6.60889">
        <ele>413.76</ele>
        <time>2015-06-13T13:43:52.132Z</time>
      </trkpt>
      <trkpt lat="47.79627" lon="6.60885">
        <ele>414.319</ele>
        <time>2015-06-13T13:43:53.116Z</time>
      </trkpt>
      <trkpt lat="47.79628" lon="6.60873">
        <ele>415.696</ele>
        <time>2015-06-13T13:43:56.104Z</time>
      </trkpt>
      <trkpt lat="47.79628" lon="6.6087">
        <ele>416.093</ele>
        <time>2015-06-13T13:43:57.105Z</time>
      </trkpt>
      <trkpt lat="47.7963" lon="6.60858">
        <ele>417.816</ele>
        <time>2015-06-13T13:44:01.106Z</time>
      </trkpt>
      <trkpt lat="47.7963" lon="6.60854">
        <ele>418.266</ele>
        <time>2015-06-13T13:44:02.13Z</time>
      </trkpt>
      <trkpt lat="47.79631" lon="6.60844">
        <ele>419.804</ele>
        <time>2015-06-13T13:44:04.11Z</time>
      </trkpt>
      <trkpt lat="47.79633" lon="6.60839">
        <ele>420.829</ele>
        <time>2015-06-13T13:44:05.093Z</time>
      </trkpt>
      <trkpt lat="47.79636" lon="6.6083">
        <ele>422.888</ele>
        <time>2015-06-13T13:44:07.162Z</time>
      </trkpt>
      <trkpt lat="47.79638" lon="6.60826">
        <ele>424.045</ele>
        <time>2015-06-13T13:44:08.121Z</time>
      </trkpt>
      <trkpt lat="47.79642" lon="6.60814">
        <ele>427.12</ele>
        <time>2015-06-13T13:44:11.103Z</time>
      </trkpt>
      <trkpt lat="47.79642" lon="6.60809">
        <ele>427.815</ele>
        <time>2015-06-13T13:44:12.106Z</time>
      </trkpt>
      <trkpt lat="47.79643" lon="6.60798">
        <ele>428.26</ele>
        <time>2015-06-13T13:44:15.099Z</time>
      </trkpt>
      <trkpt lat="47.79643" lon="6.60796">
        <ele>428.274</ele>
        <time>2015-06-13T13:44:16.099Z</time>
      </trkpt>
      <trkpt lat="47.79646" lon="6.60784">
        <ele>428.551</ele>
        <time>2015-06-13T13:44:20.127Z</time>
      </trkpt>
      <trkpt lat="47.79648" lon="6.60782">
        <ele>428.89</ele>
        <time>2015-06-13T13:44:21.147Z</time>
      </trkpt>
      <trkpt lat="47.79653" lon="6.60772">
        <ele>429.507</ele>
        <time>2015-06-13T13:44:24.096Z</time>
      </trkpt>
      <trkpt lat="47.79653" lon="6.60766">
        <ele>429.23</ele>
        <time>2015-06-13T13:44:25.118Z</time>
      </trkpt>
      <trkpt lat="47.79654" lon="6.60754">
        <ele>428.515</ele>
        <time>2015-06-13T13:44:27.102Z</time>
      </trkpt>
      <trkpt lat="47.79655" lon="6.60748">
        <ele>428.106</ele>
        <time>2015-06-13T13:44:28.116Z</time>
      </trkpt>
      <trkpt lat="47.79652" lon="6.60737">
        <ele>426.659</ele>
        <time>2015-06-13T13:44:30.107Z</time>
      </trkpt>
      <trkpt lat="47.79649" lon="6.60731">
        <ele>425.498</ele>
        <time>2015-06-13T13:44:31.102Z</time>
      </trkpt>
      <trkpt lat="47.79646" lon="6.60727">
        <ele>424.196</ele>
        <time>2015-06-13T13:44:32.117Z</time>
      </trkpt>
      <trkpt lat="47.79642" lon="6.60722">
        <ele>422.729</ele>
        <time>2015-06-13T13:44:33.134Z</time>
      </trkpt>
      <trkpt lat="47.79603" lon="6.60698">
        <ele>415.895</ele>
        <time>2015-06-13T13:44:34.104Z</time>
      </trkpt>
      <trkpt lat="47.79596" lon="6.60691">
        <ele>414.533</ele>
        <time>2015-06-13T13:44:36.105Z</time>
      </trkpt>
      <trkpt lat="47.79593" lon="6.6069">
        <ele>413.978</ele>
        <time>2015-06-13T13:44:37.125Z</time>
      </trkpt>
      <trkpt lat="47.79587" lon="6.60689">
        <ele>413.042</ele>
        <time>2015-06-13T13:44:39.118Z</time>
      </trkpt>
      <trkpt lat="47.79578" lon="6.60691">
        <ele>412.558</ele>
        <time>2015-06-13T13:44:40.099Z</time>
      </trkpt>
      <trkpt lat="47.79573" lon="6.60689">
        <ele>412.303</ele>
        <time>2015-06-13T13:44:41.079Z</time>
      </trkpt>
      <trkpt lat="47.79568" lon="6.60686">
        <ele>412</ele>
        <time>2015-06-13T13:44:42.093Z</time>
      </trkpt>
      <trkpt lat="47.7956" lon="6.60686">
        <ele>411.779</ele>
        <time>2015-06-13T13:44:45.095Z</time>
      </trkpt>
      <trkpt lat="47.79556" lon="6.60682">
        <ele>411.574</ele>
        <time>2015-06-13T13:44:46.091Z</time>
      </trkpt>
      <trkpt lat="47.7955" lon="6.60678">
        <ele>411.959</ele>
        <time>2015-06-13T13:44:48.096Z</time>
      </trkpt>
      <trkpt lat="47.79548" lon="6.60674">
        <ele>412.181</ele>
        <time>2015-06-13T13:44:49.105Z</time>
      </trkpt>
      <trkpt lat="47.79545" lon="6.60666">
        <ele>412.427</ele>
        <time>2015-06-13T13:44:50.097Z</time>
      </trkpt>
      <trkpt lat="47.79543" lon="6.60659">
        <ele>412.322</ele>
        <time>2015-06-13T13:44:51.097Z</time>
      </trkpt>
      <trkpt lat="47.79541" lon="6.60653">
        <ele>412.035</ele>
        <time>2015-06-13T13:44:52.096Z</time>
      </trkpt>
      <trkpt lat="47.79539" lon="6.60646">
        <ele>411.602</ele>
        <time>2015-06-13T13:44:53.119Z</time>
      </trkpt>
      <trkpt lat="47.79538" lon="6.60639">
        <ele>410.999</ele>
        <time>2015-06-13T13:44:54.096Z</time>
      </trkpt>
      <trkpt lat="47.79541" lon="6.606">
        <ele>411.189</ele>
        <time>2015-06-13T13:44:55.097Z</time>
      </trkpt>
      <trkpt lat="47.79547" lon="6.60574">
        <ele>412.324</ele>
        <time>2015-06-13T13:44:56.111Z</time>
      </trkpt>
      <trkpt lat="47.79549" lon="6.60589">
        <ele>411.111</ele>
        <time>2015-06-13T13:44:57.1Z</time>
      </trkpt>
      <trkpt lat="47.79549" lon="6.6058">
        <ele>411.726</ele>
        <time>2015-06-13T13:44:58.099Z</time>
      </trkpt>
      <trkpt lat="47.79546" lon="6.60569">
        <ele>412.727</ele>
        <time>2015-06-13T13:44:59.098Z</time>
      </trkpt>
      <trkpt lat="47.79543" lon="6.60565">
        <ele>413.224</ele>
        <time>2015-06-13T13:45:00.134Z</time>
      </trkpt>
      <trkpt lat="47.79541" lon="6.60555">
        <ele>414.071</ele>
        <time>2015-06-13T13:45:01.097Z</time>
      </trkpt>
      <trkpt lat="47.79545" lon="6.60549">
        <ele>414.432</ele>
        <time>2015-06-13T13:45:02.097Z</time>
      </trkpt>
      <trkpt lat="47.79546" lon="6.60537">
        <ele>415.467</ele>
        <time>2015-06-13T13:45:03.105Z</time>
      </trkpt>
      <trkpt lat="47.79542" lon="6.60528">
        <ele>416.468</ele>
        <time>2015-06-13T13:45:05.096Z</time>
      </trkpt>
      <trkpt lat="47.79549" lon="6.6052">
        <ele>416.229</ele>
        <time>2015-06-13T13:45:06.097Z</time>
      </trkpt>
      <trkpt lat="47.79547" lon="6.6051">
        <ele>416.308</ele>
        <time>2015-06-13T13:45:07.105Z</time>
      </trkpt>
      <trkpt lat="47.79537" lon="6.6051">
        <ele>416.661</ele>
        <time>2015-06-13T13:45:08.098Z</time>
      </trkpt>
      <trkpt lat="47.79543" lon="6.60503">
        <ele>416.445</ele>
        <time>2015-06-13T13:45:09.096Z</time>
      </trkpt>
      <trkpt lat="47.7955" lon="6.60501">
        <ele>416.211</ele>
        <time>2015-06-13T13:45:10.092Z</time>
      </trkpt>
      <trkpt lat="47.79539" lon="6.60497">
        <ele>416.445</ele>
        <time>2015-06-13T13:45:11.089Z</time>
      </trkpt>
      <trkpt lat="47.79543" lon="6.60509">
        <ele>416.438</ele>
        <time>2015-06-13T13:45:12.099Z</time>
      </trkpt>
      <trkpt lat="47.79544" lon="6.60508">
        <ele>416.423</ele>
        <time>2015-06-13T13:45:13.099Z</time>
      </trkpt>
      <trkpt lat="47.79543" lon="6.60491">
        <ele>415.939</ele>
        <time>2015-06-13T13:45:14.098Z</time>
      </trkpt>
      <trkpt lat="47.79545" lon="6.60478">
        <ele>415.105</ele>
        <time>2015-06-13T13:45:15.059Z</time>
      </trkpt>
      <trkpt lat="47.79536" lon="6.60472">
        <ele>415.375</ele>
        <time>2015-06-13T13:45:16.099Z</time>
      </trkpt>
      <trkpt lat="47.79545" lon="6.60475">
        <ele>414.924</ele>
        <time>2015-06-13T13:45:18.098Z</time>
      </trkpt>
      <trkpt lat="47.79546" lon="6.60469">
        <ele>414.136</ele>
        <time>2015-06-13T13:45:19.119Z</time>
      </trkpt>
      <trkpt lat="47.79549" lon="6.60462">
        <ele>413.127</ele>
        <time>2015-06-13T13:45:20.142Z</time>
      </trkpt>
      <trkpt lat="47.79552" lon="6.60457">
        <ele>412.445</ele>
        <time>2015-06-13T13:45:21.1Z</time>
      </trkpt>
      <trkpt lat="47.79555" lon="6.60448">
        <ele>411.329</ele>
        <time>2015-06-13T13:45:23.099Z</time>
      </trkpt>
      <trkpt lat="47.79557" lon="6.60444">
        <ele>411.036</ele>
        <time>2015-06-13T13:45:24.099Z</time>
      </trkpt>
      <trkpt lat="47.7956" lon="6.60437">
        <ele>410.86</ele>
        <time>2015-06-13T13:45:26.098Z</time>
      </trkpt>
      <trkpt lat="47.79563" lon="6.60433">
        <ele>410.838</ele>
        <time>2015-06-13T13:45:27.099Z</time>
      </trkpt>
      <trkpt lat="47.79567" lon="6.60423">
        <ele>410.654</ele>
        <time>2015-06-13T13:45:29.103Z</time>
      </trkpt>
      <trkpt lat="47.79567" lon="6.60418">
        <ele>410.435</ele>
        <time>2015-06-13T13:45:30.098Z</time>
      </trkpt>
      <trkpt lat="47.79564" lon="6.60406">
        <ele>410.975</ele>
        <time>2015-06-13T13:45:33.096Z</time>
      </trkpt>
      <trkpt lat="47.79564" lon="6.60402">
        <ele>411.204</ele>
        <time>2015-06-13T13:45:34.093Z</time>
      </trkpt>
      <trkpt lat="47.79567" lon="6.60391">
        <ele>411.88</ele>
        <time>2015-06-13T13:45:37.096Z</time>
      </trkpt>
      <trkpt lat="47.79569" lon="6.60387">
        <ele>412.089</ele>
        <time>2015-06-13T13:45:38.103Z</time>
      </trkpt>
      <trkpt lat="47.79572" lon="6.6038">
        <ele>412.497</ele>
        <time>2015-06-13T13:45:40.102Z</time>
      </trkpt>
      <trkpt lat="47.79574" lon="6.60377">
        <ele>412.73</ele>
        <time>2015-06-13T13:45:41.113Z</time>
      </trkpt>
      <trkpt lat="47.79573" lon="6.60366">
        <ele>413.368</ele>
        <time>2015-06-13T13:45:50.106Z</time>
      </trkpt>
      <trkpt lat="47.79574" lon="6.60355">
        <ele>414.025</ele>
        <time>2015-06-13T13:45:51.078Z</time>
      </trkpt>
      <trkpt lat="47.79575" lon="6.60347">
        <ele>414.524</ele>
        <time>2015-06-13T13:45:52.119Z</time>
      </trkpt>
      <trkpt lat="47.79574" lon="6.6034">
        <ele>414.942</ele>
        <time>2015-06-13T13:45:53.104Z</time>
      </trkpt>
      <trkpt lat="47.79576" lon="6.60331">
        <ele>415.756</ele>
        <time>2015-06-13T13:45:55.099Z</time>
      </trkpt>
      <trkpt lat="47.79576" lon="6.60327">
        <ele>416.058</ele>
        <time>2015-06-13T13:45:56.104Z</time>
      </trkpt>
      <trkpt lat="47.79568" lon="6.60319">
        <ele>416.545</ele>
        <time>2015-06-13T13:45:59.111Z</time>
      </trkpt>
      <trkpt lat="47.79566" lon="6.60316">
        <ele>416.796</ele>
        <time>2015-06-13T13:46:00.159Z</time>
      </trkpt>
      <trkpt lat="47.79561" lon="6.60311">
        <ele>417.315</ele>
        <time>2015-06-13T13:46:02.098Z</time>
      </trkpt>
      <trkpt lat="47.79558" lon="6.60308">
        <ele>417.624</ele>
        <time>2015-06-13T13:46:03.099Z</time>
      </trkpt>
      <trkpt lat="47.79552" lon="6.603">
        <ele>419.369</ele>
        <time>2015-06-13T13:46:07.171Z</time>
      </trkpt>
      <trkpt lat="47.7955" lon="6.60298">
        <ele>419.793</ele>
        <time>2015-06-13T13:46:08.106Z</time>
      </trkpt>
      <trkpt lat="47.79544" lon="6.60291">
        <ele>421.593</ele>
        <time>2015-06-13T13:46:12.114Z</time>
      </trkpt>
      <trkpt lat="47.79543" lon="6.60289">
        <ele>422.01</ele>
        <time>2015-06-13T13:46:13.107Z</time>
      </trkpt>
      <trkpt lat="47.79539" lon="6.60277">
        <ele>423.925</ele>
        <time>2015-06-13T13:46:19.111Z</time>
      </trkpt>
      <trkpt lat="47.79539" lon="6.60276">
        <ele>424.084</ele>
        <time>2015-06-13T13:46:20.111Z</time>
      </trkpt>
      <trkpt lat="47.79534" lon="6.60265">
        <ele>426.175</ele>
        <time>2015-06-13T13:46:28.12Z</time>
      </trkpt>
      <trkpt lat="47.79534" lon="6.60264">
        <ele>426.258</ele>
        <time>2015-06-13T13:46:29.111Z</time>
      </trkpt>
      <trkpt lat="47.79527" lon="6.60257">
        <ele>427.977</ele>
        <time>2015-06-13T13:46:34.101Z</time>
      </trkpt>
      <trkpt lat="47.79523" lon="6.60256">
        <ele>428.266</ele>
        <time>2015-06-13T13:46:35.103Z</time>
      </trkpt>
      <trkpt lat="47.79516" lon="6.60252">
        <ele>428.823</ele>
        <time>2015-06-13T13:46:37.114Z</time>
      </trkpt>
      <trkpt lat="47.79513" lon="6.60249">
        <ele>429.035</ele>
        <time>2015-06-13T13:46:38.103Z</time>
      </trkpt>
      <trkpt lat="47.79505" lon="6.60245">
        <ele>429.446</ele>
        <time>2015-06-13T13:46:40.067Z</time>
      </trkpt>
      <trkpt lat="47.79501" lon="6.60244">
        <ele>429.63</ele>
        <time>2015-06-13T13:46:41.125Z</time>
      </trkpt>
      <trkpt lat="47.79492" lon="6.60243">
        <ele>428.45</ele>
        <time>2015-06-13T13:46:44.106Z</time>
      </trkpt>
      <trkpt lat="47.7949" lon="6.60242">
        <ele>428.183</ele>
        <time>2015-06-13T13:46:45.123Z</time>
      </trkpt>
      <trkpt lat="47.79485" lon="6.60231">
        <ele>428.128</ele>
        <time>2015-06-13T13:46:50.627Z</time>
      </trkpt>
      <trkpt lat="47.79484" lon="6.60226">
        <ele>428.259</ele>
        <time>2015-06-13T13:46:51.714Z</time>
      </trkpt>
      <trkpt lat="47.79478" lon="6.60217">
        <ele>427.325</ele>
        <time>2015-06-13T13:46:58.721Z</time>
      </trkpt>
      <trkpt lat="47.79477" lon="6.60214">
        <ele>427.1</ele>
        <time>2015-06-13T13:46:59.714Z</time>
      </trkpt>
      <trkpt lat="47.79472" lon="6.60203">
        <ele>426.588</ele>
        <time>2015-06-13T13:47:02.714Z</time>
      </trkpt>
      <trkpt lat="47.7947" lon="6.60199">
        <ele>426.478</ele>
        <time>2015-06-13T13:47:03.718Z</time>
      </trkpt>
      <trkpt lat="47.79466" lon="6.6019">
        <ele>426.362</ele>
        <time>2015-06-13T13:47:05.71Z</time>
      </trkpt>
      <trkpt lat="47.79464" lon="6.60186">
        <ele>426.324</ele>
        <time>2015-06-13T13:47:06.631Z</time>
      </trkpt>
      <trkpt lat="47.7946" lon="6.60181">
        <ele>426.156</ele>
        <time>2015-06-13T13:47:07.778Z</time>
      </trkpt>
      <trkpt lat="47.79457" lon="6.60177">
        <ele>426.094</ele>
        <time>2015-06-13T13:47:08.975Z</time>
      </trkpt>
      <trkpt lat="47.79451" lon="6.60169">
        <ele>426.313</ele>
        <time>2015-06-13T13:47:10.7Z</time>
      </trkpt>
      <trkpt lat="47.79448" lon="6.60164">
        <ele>426.476</ele>
        <time>2015-06-13T13:47:11.722Z</time>
      </trkpt>
      <trkpt lat="47.79443" lon="6.6016">
        <ele>426.371</ele>
        <time>2015-06-13T13:47:12.716Z</time>
      </trkpt>
      <trkpt lat="47.79439" lon="6.60157">
        <ele>426.219</ele>
        <time>2015-06-13T13:47:13.654Z</time>
      </trkpt>
      <trkpt lat="47.79435" lon="6.60154">
        <ele>426.035</ele>
        <time>2015-06-13T13:47:14.622Z</time>
      </trkpt>
      <trkpt lat="47.7943" lon="6.60152">
        <ele>425.805</ele>
        <time>2015-06-13T13:47:15.651Z</time>
      </trkpt>
      <trkpt lat="47.79425" lon="6.60149">
        <ele>425.427</ele>
        <time>2015-06-13T13:47:16.711Z</time>
      </trkpt>
      <trkpt lat="47.79421" lon="6.60146">
        <ele>425.11</ele>
        <time>2015-06-13T13:47:17.733Z</time>
      </trkpt>
      <trkpt lat="47.79413" lon="6.60143">
        <ele>424.856</ele>
        <time>2015-06-13T13:47:19.835Z</time>
      </trkpt>
      <trkpt lat="47.7941" lon="6.60141">
        <ele>424.928</ele>
        <time>2015-06-13T13:47:20.658Z</time>
      </trkpt>
      <trkpt lat="47.79404" lon="6.60138">
        <ele>424.98</ele>
        <time>2015-06-13T13:47:22.658Z</time>
      </trkpt>
      <trkpt lat="47.79401" lon="6.60137">
        <ele>424.965</ele>
        <time>2015-06-13T13:47:23.738Z</time>
      </trkpt>
      <trkpt lat="47.79393" lon="6.60134">
        <ele>424.857</ele>
        <time>2015-06-13T13:47:26.834Z</time>
      </trkpt>
      <trkpt lat="47.79391" lon="6.60133">
        <ele>424.816</ele>
        <time>2015-06-13T13:47:27.704Z</time>
      </trkpt>
      <trkpt lat="47.79382" lon="6.60132">
        <ele>426.716</ele>
        <time>2015-06-13T13:47:30.755Z</time>
      </trkpt>
      <trkpt lat="47.7938" lon="6.60131">
        <ele>427.396</ele>
        <time>2015-06-13T13:47:31.708Z</time>
      </trkpt>
      <trkpt lat="47.79372" lon="6.60127">
        <ele>429.273</ele>
        <time>2015-06-13T13:47:35.692Z</time>
      </trkpt>
      <trkpt lat="47.7937" lon="6.60126">
        <ele>429.781</ele>
        <time>2015-06-13T13:47:36.718Z</time>
      </trkpt>
      <trkpt lat="47.79363" lon="6.60123">
        <ele>431.323</ele>
        <time>2015-06-13T13:47:39.699Z</time>
      </trkpt>
      <trkpt lat="47.7936" lon="6.60123">
        <ele>431.922</ele>
        <time>2015-06-13T13:47:40.621Z</time>
      </trkpt>
      <trkpt lat="47.79354" lon="6.60122">
        <ele>433.236</ele>
        <time>2015-06-13T13:47:42.699Z</time>
      </trkpt>
      <trkpt lat="47.7935" lon="6.6012">
        <ele>433.858</ele>
        <time>2015-06-13T13:47:43.699Z</time>
      </trkpt>
      <trkpt lat="47.79345" lon="6.6011">
        <ele>433.967</ele>
        <time>2015-06-13T13:47:45.697Z</time>
      </trkpt>
      <trkpt lat="47.79344" lon="6.60104">
        <ele>433.98</ele>
        <time>2015-06-13T13:47:46.696Z</time>
      </trkpt>
      <trkpt lat="47.79342" lon="6.60096">
        <ele>433.812</ele>
        <time>2015-06-13T13:47:47.7Z</time>
      </trkpt>
      <trkpt lat="47.79345" lon="6.60082">
        <ele>432.735</ele>
        <time>2015-06-13T13:47:48.697Z</time>
      </trkpt>
      <trkpt lat="47.7934" lon="6.60078">
        <ele>432.994</ele>
        <time>2015-06-13T13:47:50.742Z</time>
      </trkpt>
      <trkpt lat="47.79331" lon="6.60074">
        <ele>433.314</ele>
        <time>2015-06-13T13:47:51.697Z</time>
      </trkpt>
      <trkpt lat="47.79323" lon="6.60068">
        <ele>433.882</ele>
        <time>2015-06-13T13:47:53.665Z</time>
      </trkpt>
      <trkpt lat="47.79322" lon="6.60064">
        <ele>433.928</ele>
        <time>2015-06-13T13:47:54.623Z</time>
      </trkpt>
      <trkpt lat="47.79315" lon="6.60056">
        <ele>434.919</ele>
        <time>2015-06-13T13:47:58.696Z</time>
      </trkpt>
      <trkpt lat="47.79313" lon="6.60055">
        <ele>435.493</ele>
        <time>2015-06-13T13:47:59.705Z</time>
      </trkpt>
      <trkpt lat="47.79305" lon="6.60054">
        <ele>436.871</ele>
        <time>2015-06-13T13:48:02.697Z</time>
      </trkpt>
      <trkpt lat="47.79302" lon="6.60053">
        <ele>436.678</ele>
        <time>2015-06-13T13:48:03.7Z</time>
      </trkpt>
      <trkpt lat="47.79294" lon="6.60048">
        <ele>436.259</ele>
        <time>2015-06-13T13:48:05.698Z</time>
      </trkpt>
      <trkpt lat="47.7929" lon="6.60045">
        <ele>436.111</ele>
        <time>2015-06-13T13:48:06.698Z</time>
      </trkpt>
      <trkpt lat="47.79284" lon="6.60037">
        <ele>435.913</ele>
        <time>2015-06-13T13:48:08.696Z</time>
      </trkpt>
      <trkpt lat="47.79282" lon="6.60031">
        <ele>435.875</ele>
        <time>2015-06-13T13:48:09.697Z</time>
      </trkpt>
      <trkpt lat="47.7928" lon="6.60025">
        <ele>435.953</ele>
        <time>2015-06-13T13:48:10.599Z</time>
      </trkpt>
      <trkpt lat="47.79277" lon="6.60018">
        <ele>436.104</ele>
        <time>2015-06-13T13:48:11.595Z</time>
      </trkpt>
      <trkpt lat="47.79274" lon="6.60012">
        <ele>436.549</ele>
        <time>2015-06-13T13:48:12.61Z</time>
      </trkpt>
      <trkpt lat="47.79271" lon="6.60006">
        <ele>437.107</ele>
        <time>2015-06-13T13:48:13.66Z</time>
      </trkpt>
      <trkpt lat="47.79268" lon="6.59999">
        <ele>437.816</ele>
        <time>2015-06-13T13:48:14.604Z</time>
      </trkpt>
      <trkpt lat="47.79265" lon="6.59993">
        <ele>438.684</ele>
        <time>2015-06-13T13:48:15.593Z</time>
      </trkpt>
      <trkpt lat="47.79261" lon="6.59987">
        <ele>439.941</ele>
        <time>2015-06-13T13:48:16.602Z</time>
      </trkpt>
      <trkpt lat="47.79253" lon="6.59978">
        <ele>442.742</ele>
        <time>2015-06-13T13:48:17.606Z</time>
      </trkpt>
      <trkpt lat="47.79256" lon="6.59968">
        <ele>442.621</ele>
        <time>2015-06-13T13:48:19.632Z</time>
      </trkpt>
      <trkpt lat="47.79255" lon="6.59962">
        <ele>443.523</ele>
        <time>2015-06-13T13:48:20.586Z</time>
      </trkpt>
      <trkpt lat="47.79257" lon="6.59951">
        <ele>443.755</ele>
        <time>2015-06-13T13:48:23.656Z</time>
      </trkpt>
      <trkpt lat="47.79263" lon="6.59954">
        <ele>441.778</ele>
        <time>2015-06-13T13:48:24.659Z</time>
      </trkpt>
      <trkpt lat="47.79278" lon="6.59966">
        <ele>436.705</ele>
        <time>2015-06-13T13:48:26.702Z</time>
      </trkpt>
      <trkpt lat="47.79275" lon="6.59957">
        <ele>438.336</ele>
        <time>2015-06-13T13:48:28.78Z</time>
      </trkpt>
      <trkpt lat="47.79207" lon="6.59803">
        <ele>444.051</ele>
        <time>2015-06-13T13:48:56.669Z</time>
      </trkpt>
      <trkpt lat="47.79147" lon="6.59745">
        <ele>442.665</ele>
        <time>2015-06-13T13:49:12.659Z</time>
      </trkpt>
      <trkpt lat="47.79139" lon="6.59745">
        <ele>441.142</ele>
        <time>2015-06-13T13:49:14.665Z</time>
      </trkpt>
      <trkpt lat="47.79136" lon="6.59745">
        <ele>440.618</ele>
        <time>2015-06-13T13:49:15.666Z</time>
      </trkpt>
      <trkpt lat="47.79127" lon="6.59744">
        <ele>438.971</ele>
        <time>2015-06-13T13:49:17.656Z</time>
      </trkpt>
      <trkpt lat="47.79122" lon="6.59742">
        <ele>437.859</ele>
        <time>2015-06-13T13:49:18.672Z</time>
      </trkpt>
      <trkpt lat="47.79112" lon="6.5974">
        <ele>436.085</ele>
        <time>2015-06-13T13:49:19.666Z</time>
      </trkpt>
      <trkpt lat="47.7911" lon="6.59733">
        <ele>435.384</ele>
        <time>2015-06-13T13:49:20.64Z</time>
      </trkpt>
      <trkpt lat="47.79102" lon="6.59726">
        <ele>435.805</ele>
        <time>2015-06-13T13:49:21.65Z</time>
      </trkpt>
      <trkpt lat="47.79095" lon="6.59721">
        <ele>436.936</ele>
        <time>2015-06-13T13:49:23.652Z</time>
      </trkpt>
      <trkpt lat="47.7909" lon="6.59715">
        <ele>437.728</ele>
        <time>2015-06-13T13:49:24.65Z</time>
      </trkpt>
      <trkpt lat="47.79087" lon="6.59712">
        <ele>438.322</ele>
        <time>2015-06-13T13:49:25.651Z</time>
      </trkpt>
      <trkpt lat="47.79085" lon="6.59703">
        <ele>438.628</ele>
        <time>2015-06-13T13:49:26.647Z</time>
      </trkpt>
      <trkpt lat="47.79086" lon="6.59697">
        <ele>438.466</ele>
        <time>2015-06-13T13:49:27.649Z</time>
      </trkpt>
      <trkpt lat="47.79082" lon="6.5969">
        <ele>438.798</ele>
        <time>2015-06-13T13:49:28.665Z</time>
      </trkpt>
      <trkpt lat="47.7908" lon="6.59682">
        <ele>438.498</ele>
        <time>2015-06-13T13:49:29.66Z</time>
      </trkpt>
      <trkpt lat="47.79081" lon="6.59674">
        <ele>438.242</ele>
        <time>2015-06-13T13:49:30.641Z</time>
      </trkpt>
      <trkpt lat="47.79081" lon="6.59664">
        <ele>437.616</ele>
        <time>2015-06-13T13:49:31.653Z</time>
      </trkpt>
      <trkpt lat="47.79087" lon="6.59657">
        <ele>436.069</ele>
        <time>2015-06-13T13:49:32.676Z</time>
      </trkpt>
      <trkpt lat="47.7909" lon="6.59648">
        <ele>434.681</ele>
        <time>2015-06-13T13:49:35.653Z</time>
      </trkpt>
      <trkpt lat="47.79093" lon="6.59642">
        <ele>433.974</ele>
        <time>2015-06-13T13:49:36.652Z</time>
      </trkpt>
      <trkpt lat="47.79095" lon="6.59636">
        <ele>433.81</ele>
        <time>2015-06-13T13:49:37.654Z</time>
      </trkpt>
      <trkpt lat="47.79104" lon="6.59576">
        <ele>439.275</ele>
        <time>2015-06-13T13:49:46.651Z</time>
      </trkpt>
      <trkpt lat="47.7911" lon="6.59567">
        <ele>439.858</ele>
        <time>2015-06-13T13:49:49.65Z</time>
      </trkpt>
      <trkpt lat="47.79111" lon="6.59565">
        <ele>439.988</ele>
        <time>2015-06-13T13:49:50.648Z</time>
      </trkpt>
      <trkpt lat="47.79112" lon="6.59554">
        <ele>439.913</ele>
        <time>2015-06-13T13:49:53.656Z</time>
      </trkpt>
      <trkpt lat="47.79111" lon="6.59549">
        <ele>439.479</ele>
        <time>2015-06-13T13:49:54.654Z</time>
      </trkpt>
      <trkpt lat="47.7911" lon="6.59542">
        <ele>438.902</ele>
        <time>2015-06-13T13:49:55.812Z</time>
      </trkpt>
      <trkpt lat="47.7911" lon="6.59534">
        <ele>438.257</ele>
        <time>2015-06-13T13:49:56.655Z</time>
      </trkpt>
      <trkpt lat="47.79109" lon="6.59526">
        <ele>437.797</ele>
        <time>2015-06-13T13:49:57.67Z</time>
      </trkpt>
      <trkpt lat="47.79109" lon="6.5952">
        <ele>438.277</ele>
        <time>2015-06-13T13:49:58.66Z</time>
      </trkpt>
      <trkpt lat="47.7911" lon="6.59512">
        <ele>438.826</ele>
        <time>2015-06-13T13:49:59.677Z</time>
      </trkpt>
      <trkpt lat="47.79111" lon="6.59505">
        <ele>439.643</ele>
        <time>2015-06-13T13:50:00.623Z</time>
      </trkpt>
      <trkpt lat="47.79113" lon="6.59498">
        <ele>440.11</ele>
        <time>2015-06-13T13:50:01.653Z</time>
      </trkpt>
      <trkpt lat="47.79115" lon="6.59492">
        <ele>440.144</ele>
        <time>2015-06-13T13:50:02.653Z</time>
      </trkpt>
      <trkpt lat="47.79115" lon="6.59485">
        <ele>440.044</ele>
        <time>2015-06-13T13:50:03.654Z</time>
      </trkpt>
      <trkpt lat="47.79115" lon="6.59479">
        <ele>439.96</ele>
        <time>2015-06-13T13:50:04.655Z</time>
      </trkpt>
      <trkpt lat="47.79113" lon="6.59472">
        <ele>439.94</ele>
        <time>2015-06-13T13:50:05.674Z</time>
      </trkpt>
      <trkpt lat="47.7911" lon="6.59466">
        <ele>439.036</ele>
        <time>2015-06-13T13:50:06.653Z</time>
      </trkpt>
      <trkpt lat="47.79106" lon="6.5946">
        <ele>437.718</ele>
        <time>2015-06-13T13:50:07.655Z</time>
      </trkpt>
      <trkpt lat="47.79102" lon="6.59453">
        <ele>436.451</ele>
        <time>2015-06-13T13:50:08.653Z</time>
      </trkpt>
      <trkpt lat="47.79091" lon="6.59432">
        <ele>433.581</ele>
        <time>2015-06-13T13:50:09.661Z</time>
      </trkpt>
      <trkpt lat="47.79088" lon="6.59422">
        <ele>433.13</ele>
        <time>2015-06-13T13:50:10.66Z</time>
      </trkpt>
      <trkpt lat="47.79086" lon="6.59414">
        <ele>432.979</ele>
        <time>2015-06-13T13:50:11.675Z</time>
      </trkpt>
      <trkpt lat="47.79087" lon="6.59402">
        <ele>432.881</ele>
        <time>2015-06-13T13:50:13.653Z</time>
      </trkpt>
      <trkpt lat="47.79087" lon="6.59396">
        <ele>432.794</ele>
        <time>2015-06-13T13:50:14.654Z</time>
      </trkpt>
      <trkpt lat="47.79088" lon="6.59389">
        <ele>432.69</ele>
        <time>2015-06-13T13:50:15.7Z</time>
      </trkpt>
      <trkpt lat="47.79086" lon="6.59381">
        <ele>432.546</ele>
        <time>2015-06-13T13:50:16.681Z</time>
      </trkpt>
      <trkpt lat="47.79092" lon="6.59373">
        <ele>431.811</ele>
        <time>2015-06-13T13:50:18.658Z</time>
      </trkpt>
      <trkpt lat="47.79096" lon="6.59367">
        <ele>431.296</ele>
        <time>2015-06-13T13:50:19.655Z</time>
      </trkpt>
      <trkpt lat="47.79101" lon="6.59358">
        <ele>430.811</ele>
        <time>2015-06-13T13:50:21.654Z</time>
      </trkpt>
      <trkpt lat="47.79106" lon="6.59358">
        <ele>430.506</ele>
        <time>2015-06-13T13:50:22.655Z</time>
      </trkpt>
      <trkpt lat="47.79112" lon="6.59354">
        <ele>430.629</ele>
        <time>2015-06-13T13:50:24.653Z</time>
      </trkpt>
      <trkpt lat="47.7911" lon="6.59344">
        <ele>431.225</ele>
        <time>2015-06-13T13:50:25.654Z</time>
      </trkpt>
      <trkpt lat="47.79112" lon="6.59336">
        <ele>431.847</ele>
        <time>2015-06-13T13:50:26.658Z</time>
      </trkpt>
      <trkpt lat="47.79112" lon="6.59325">
        <ele>433.434</ele>
        <time>2015-06-13T13:50:27.654Z</time>
      </trkpt>
      <trkpt lat="47.79113" lon="6.59316">
        <ele>434.933</ele>
        <time>2015-06-13T13:50:28.656Z</time>
      </trkpt>
      <trkpt lat="47.79108" lon="6.59305">
        <ele>436.572</ele>
        <time>2015-06-13T13:50:29.654Z</time>
      </trkpt>
      <trkpt lat="47.79111" lon="6.59296">
        <ele>436.232</ele>
        <time>2015-06-13T13:50:30.653Z</time>
      </trkpt>
      <trkpt lat="47.79116" lon="6.59293">
        <ele>435.602</ele>
        <time>2015-06-13T13:50:31.653Z</time>
      </trkpt>
      <trkpt lat="47.79118" lon="6.59282">
        <ele>434.893</ele>
        <time>2015-06-13T13:50:33.653Z</time>
      </trkpt>
      <trkpt lat="47.79123" lon="6.59275">
        <ele>434.56</ele>
        <time>2015-06-13T13:50:34.654Z</time>
      </trkpt>
      <trkpt lat="47.79128" lon="6.59268">
        <ele>434.472</ele>
        <time>2015-06-13T13:50:35.654Z</time>
      </trkpt>
      <trkpt lat="47.79129" lon="6.59259">
        <ele>434.543</ele>
        <time>2015-06-13T13:50:36.676Z</time>
      </trkpt>
      <trkpt lat="47.79134" lon="6.59255">
        <ele>434.719</ele>
        <time>2015-06-13T13:50:37.656Z</time>
      </trkpt>
      <trkpt lat="47.79141" lon="6.59255">
        <ele>434.902</ele>
        <time>2015-06-13T13:50:38.653Z</time>
      </trkpt>
      <trkpt lat="47.7914" lon="6.59242">
        <ele>434.758</ele>
        <time>2015-06-13T13:50:39.651Z</time>
      </trkpt>
      <trkpt lat="47.79143" lon="6.59234">
        <ele>434.761</ele>
        <time>2015-06-13T13:50:40.656Z</time>
      </trkpt>
      <trkpt lat="47.79143" lon="6.59221">
        <ele>434.51</ele>
        <time>2015-06-13T13:50:41.649Z</time>
      </trkpt>
      <trkpt lat="47.79147" lon="6.59217">
        <ele>435.23</ele>
        <time>2015-06-13T13:50:42.65Z</time>
      </trkpt>
      <trkpt lat="47.79147" lon="6.59206">
        <ele>435.85</ele>
        <time>2015-06-13T13:50:43.652Z</time>
      </trkpt>
      <trkpt lat="47.79146" lon="6.59195">
        <ele>436.473</ele>
        <time>2015-06-13T13:50:44.651Z</time>
      </trkpt>
      <trkpt lat="47.79145" lon="6.59182">
        <ele>436.333</ele>
        <time>2015-06-13T13:50:45.651Z</time>
      </trkpt>
      <trkpt lat="47.7915" lon="6.59182">
        <ele>436.589</ele>
        <time>2015-06-13T13:50:46.651Z</time>
      </trkpt>
      <trkpt lat="47.79147" lon="6.59159">
        <ele>435.848</ele>
        <time>2015-06-13T13:50:47.652Z</time>
      </trkpt>
      <trkpt lat="47.7914" lon="6.59151">
        <ele>434.914</ele>
        <time>2015-06-13T13:50:48.651Z</time>
      </trkpt>
      <trkpt lat="47.79134" lon="6.5915">
        <ele>434.314</ele>
        <time>2015-06-13T13:50:49.638Z</time>
      </trkpt>
      <trkpt lat="47.79129" lon="6.59137">
        <ele>433.651</ele>
        <time>2015-06-13T13:50:50.652Z</time>
      </trkpt>
      <trkpt lat="47.79116" lon="6.59125">
        <ele>432.091</ele>
        <time>2015-06-13T13:50:51.653Z</time>
      </trkpt>
      <trkpt lat="47.79109" lon="6.59122">
        <ele>430.85</ele>
        <time>2015-06-13T13:50:52.673Z</time>
      </trkpt>
      <trkpt lat="47.79106" lon="6.59109">
        <ele>429.878</ele>
        <time>2015-06-13T13:50:53.654Z</time>
      </trkpt>
      <trkpt lat="47.79104" lon="6.59096">
        <ele>431.024</ele>
        <time>2015-06-13T13:50:54.661Z</time>
      </trkpt>
      <trkpt lat="47.79097" lon="6.59087">
        <ele>432.047</ele>
        <time>2015-06-13T13:50:55.651Z</time>
      </trkpt>
      <trkpt lat="47.79092" lon="6.59073">
        <ele>433.597</ele>
        <time>2015-06-13T13:50:56.652Z</time>
      </trkpt>
      <trkpt lat="47.79109" lon="6.59081">
        <ele>432.164</ele>
        <time>2015-06-13T13:50:57.652Z</time>
      </trkpt>
      <trkpt lat="47.79113" lon="6.59071">
        <ele>432.546</ele>
        <time>2015-06-13T13:51:01.644Z</time>
      </trkpt>
      <trkpt lat="47.79114" lon="6.59069">
        <ele>432.641</ele>
        <time>2015-06-13T13:51:02.651Z</time>
      </trkpt>
      <trkpt lat="47.79119" lon="6.59059">
        <ele>432.976</ele>
        <time>2015-06-13T13:51:06.654Z</time>
      </trkpt>
      <trkpt lat="47.79119" lon="6.59057">
        <ele>432.996</ele>
        <time>2015-06-13T13:51:07.654Z</time>
      </trkpt>
      <trkpt lat="47.79124" lon="6.59046">
        <ele>433.47</ele>
        <time>2015-06-13T13:51:11.654Z</time>
      </trkpt>
      <trkpt lat="47.79124" lon="6.59042">
        <ele>433.562</ele>
        <time>2015-06-13T13:51:12.654Z</time>
      </trkpt>
      <trkpt lat="47.79127" lon="6.5903">
        <ele>433.554</ele>
        <time>2015-06-13T13:51:15.661Z</time>
      </trkpt>
      <trkpt lat="47.79128" lon="6.59027">
        <ele>433.182</ele>
        <time>2015-06-13T13:51:16.652Z</time>
      </trkpt>
      <trkpt lat="47.79132" lon="6.59019">
        <ele>431.525</ele>
        <time>2015-06-13T13:51:18.689Z</time>
      </trkpt>
      <trkpt lat="47.79134" lon="6.59016">
        <ele>430.47</ele>
        <time>2015-06-13T13:51:19.668Z</time>
      </trkpt>
      <trkpt lat="47.79138" lon="6.59007">
        <ele>428.221</ele>
        <time>2015-06-13T13:51:21.616Z</time>
      </trkpt>
      <trkpt lat="47.79141" lon="6.59002">
        <ele>427.447</ele>
        <time>2015-06-13T13:51:22.668Z</time>
      </trkpt>
      <trkpt lat="47.79147" lon="6.58994">
        <ele>428.387</ele>
        <time>2015-06-13T13:51:24.661Z</time>
      </trkpt>
      <trkpt lat="47.7915" lon="6.58989">
        <ele>429.526</ele>
        <time>2015-06-13T13:51:25.65Z</time>
      </trkpt>
      <trkpt lat="47.79154" lon="6.58983">
        <ele>431.172</ele>
        <time>2015-06-13T13:51:26.666Z</time>
      </trkpt>
      <trkpt lat="47.79156" lon="6.58977">
        <ele>432.965</ele>
        <time>2015-06-13T13:51:27.666Z</time>
      </trkpt>
      <trkpt lat="47.79156" lon="6.58967">
        <ele>435.078</ele>
        <time>2015-06-13T13:51:29.675Z</time>
      </trkpt>
      <trkpt lat="47.79152" lon="6.5896">
        <ele>435.531</ele>
        <time>2015-06-13T13:51:30.679Z</time>
      </trkpt>
      <trkpt lat="47.79148" lon="6.58953">
        <ele>435.79</ele>
        <time>2015-06-13T13:51:31.657Z</time>
      </trkpt>
      <trkpt lat="47.79145" lon="6.58947">
        <ele>436.179</ele>
        <time>2015-06-13T13:51:32.615Z</time>
      </trkpt>
      <trkpt lat="47.79142" lon="6.58937">
        <ele>436.193</ele>
        <time>2015-06-13T13:51:34.66Z</time>
      </trkpt>
      <trkpt lat="47.79139" lon="6.58931">
        <ele>435.977</ele>
        <time>2015-06-13T13:51:35.652Z</time>
      </trkpt>
      <trkpt lat="47.79136" lon="6.58925">
        <ele>435.984</ele>
        <time>2015-06-13T13:51:36.678Z</time>
      </trkpt>
      <trkpt lat="47.79133" lon="6.58919">
        <ele>435.962</ele>
        <time>2015-06-13T13:51:37.656Z</time>
      </trkpt>
      <trkpt lat="47.79125" lon="6.58904">
        <ele>435.506</ele>
        <time>2015-06-13T13:51:38.675Z</time>
      </trkpt>
      <trkpt lat="47.79121" lon="6.58893">
        <ele>435.262</ele>
        <time>2015-06-13T13:51:40.657Z</time>
      </trkpt>
      <trkpt lat="47.79122" lon="6.58889">
        <ele>435.593</ele>
        <time>2015-06-13T13:51:41.657Z</time>
      </trkpt>
      <trkpt lat="47.79125" lon="6.58881">
        <ele>436.844</ele>
        <time>2015-06-13T13:51:43.659Z</time>
      </trkpt>
      <trkpt lat="47.79124" lon="6.58875">
        <ele>437.359</ele>
        <time>2015-06-13T13:51:44.689Z</time>
      </trkpt>
      <trkpt lat="47.79128" lon="6.58867">
        <ele>439.124</ele>
        <time>2015-06-13T13:51:47.672Z</time>
      </trkpt>
      <trkpt lat="47.79134" lon="6.58868">
        <ele>440.587</ele>
        <time>2015-06-13T13:51:48.656Z</time>
      </trkpt>
      <trkpt lat="47.79136" lon="6.58859">
        <ele>442.298</ele>
        <time>2015-06-13T13:51:51.656Z</time>
      </trkpt>
      <trkpt lat="47.79137" lon="6.58854">
        <ele>442.546</ele>
        <time>2015-06-13T13:51:52.683Z</time>
      </trkpt>
      <trkpt lat="47.79137" lon="6.58845">
        <ele>442.711</ele>
        <time>2015-06-13T13:51:54.679Z</time>
      </trkpt>
      <trkpt lat="47.79138" lon="6.5884">
        <ele>442.921</ele>
        <time>2015-06-13T13:51:55.664Z</time>
      </trkpt>
      <trkpt lat="47.79142" lon="6.5883">
        <ele>443.369</ele>
        <time>2015-06-13T13:51:58.657Z</time>
      </trkpt>
      <trkpt lat="47.79144" lon="6.58826">
        <ele>443.596</ele>
        <time>2015-06-13T13:51:59.673Z</time>
      </trkpt>
      <trkpt lat="47.79151" lon="6.58818">
        <ele>444.395</ele>
        <time>2015-06-13T13:52:02.664Z</time>
      </trkpt>
      <trkpt lat="47.79154" lon="6.58816">
        <ele>444.687</ele>
        <time>2015-06-13T13:52:03.657Z</time>
      </trkpt>
      <trkpt lat="47.7916" lon="6.58817">
        <ele>445.115</ele>
        <time>2015-06-13T13:52:06.675Z</time>
      </trkpt>
      <trkpt lat="47.79163" lon="6.58818">
        <ele>445.256</ele>
        <time>2015-06-13T13:52:07.71Z</time>
      </trkpt>
      <trkpt lat="47.79169" lon="6.58823">
        <ele>445.712</ele>
        <time>2015-06-13T13:52:09.667Z</time>
      </trkpt>
      <trkpt lat="47.79172" lon="6.58825">
        <ele>446.043</ele>
        <time>2015-06-13T13:52:10.596Z</time>
      </trkpt>
      <trkpt lat="47.79179" lon="6.5883">
        <ele>446.874</ele>
        <time>2015-06-13T13:52:13.648Z</time>
      </trkpt>
      <trkpt lat="47.79182" lon="6.58832">
        <ele>447.173</ele>
        <time>2015-06-13T13:52:14.656Z</time>
      </trkpt>
      <trkpt lat="47.79189" lon="6.58837">
        <ele>447.912</ele>
        <time>2015-06-13T13:52:17.685Z</time>
      </trkpt>
      <trkpt lat="47.79191" lon="6.58839">
        <ele>448</ele>
        <time>2015-06-13T13:52:18.657Z</time>
      </trkpt>
      <trkpt lat="47.79198" lon="6.58842">
        <ele>448.908</ele>
        <time>2015-06-13T13:52:21.657Z</time>
      </trkpt>
      <trkpt lat="47.79201" lon="6.58843">
        <ele>449.22</ele>
        <time>2015-06-13T13:52:22.667Z</time>
      </trkpt>
      <trkpt lat="47.79208" lon="6.58848">
        <ele>450.19</ele>
        <time>2015-06-13T13:52:25.618Z</time>
      </trkpt>
      <trkpt lat="47.79212" lon="6.58849">
        <ele>450.652</ele>
        <time>2015-06-13T13:52:26.675Z</time>
      </trkpt>
      <trkpt lat="47.79219" lon="6.58851">
        <ele>451.895</ele>
        <time>2015-06-13T13:52:28.661Z</time>
      </trkpt>
      <trkpt lat="47.79223" lon="6.58852">
        <ele>452.281</ele>
        <time>2015-06-13T13:52:29.629Z</time>
      </trkpt>
      <trkpt lat="47.7923" lon="6.58855">
        <ele>451.296</ele>
        <time>2015-06-13T13:52:31.598Z</time>
      </trkpt>
      <trkpt lat="47.79233" lon="6.58857">
        <ele>450.795</ele>
        <time>2015-06-13T13:52:32.676Z</time>
      </trkpt>
      <trkpt lat="47.79239" lon="6.5886">
        <ele>449.935</ele>
        <time>2015-06-13T13:52:34.66Z</time>
      </trkpt>
      <trkpt lat="47.79243" lon="6.58861">
        <ele>449.494</ele>
        <time>2015-06-13T13:52:35.645Z</time>
      </trkpt>
      <trkpt lat="47.7925" lon="6.58865">
        <ele>447.644</ele>
        <time>2015-06-13T13:52:37.661Z</time>
      </trkpt>
      <trkpt lat="47.79253" lon="6.58866">
        <ele>446.478</ele>
        <time>2015-06-13T13:52:38.661Z</time>
      </trkpt>
      <trkpt lat="47.7926" lon="6.58871">
        <ele>444.037</ele>
        <time>2015-06-13T13:52:40.659Z</time>
      </trkpt>
      <trkpt lat="47.79263" lon="6.58874">
        <ele>442.788</ele>
        <time>2015-06-13T13:52:41.667Z</time>
      </trkpt>
      <trkpt lat="47.79268" lon="6.58882">
        <ele>440.917</ele>
        <time>2015-06-13T13:52:43.659Z</time>
      </trkpt>
      <trkpt lat="47.79271" lon="6.58886">
        <ele>440.196</ele>
        <time>2015-06-13T13:52:44.66Z</time>
      </trkpt>
      <trkpt lat="47.79277" lon="6.58894">
        <ele>440.465</ele>
        <time>2015-06-13T13:52:46.691Z</time>
      </trkpt>
      <trkpt lat="47.7928" lon="6.58898">
        <ele>441.021</ele>
        <time>2015-06-13T13:52:47.676Z</time>
      </trkpt>
      <trkpt lat="47.79285" lon="6.58905">
        <ele>441.971</ele>
        <time>2015-06-13T13:52:49.675Z</time>
      </trkpt>
      <trkpt lat="47.79287" lon="6.58909">
        <ele>442.468</ele>
        <time>2015-06-13T13:52:50.659Z</time>
      </trkpt>
      <trkpt lat="47.79295" lon="6.5891">
        <ele>442.929</ele>
        <time>2015-06-13T13:52:54.681Z</time>
      </trkpt>
      <trkpt lat="47.79298" lon="6.5891">
        <ele>443.015</ele>
        <time>2015-06-13T13:52:55.661Z</time>
      </trkpt>
      <trkpt lat="47.79303" lon="6.58905">
        <ele>442.68</ele>
        <time>2015-06-13T13:52:57.655Z</time>
      </trkpt>
      <trkpt lat="47.79305" lon="6.58902">
        <ele>442.389</ele>
        <time>2015-06-13T13:52:58.651Z</time>
      </trkpt>
      <trkpt lat="47.79308" lon="6.5889">
        <ele>441.794</ele>
        <time>2015-06-13T13:53:01.678Z</time>
      </trkpt>
      <trkpt lat="47.79308" lon="6.58886">
        <ele>441.748</ele>
        <time>2015-06-13T13:53:02.658Z</time>
      </trkpt>
      <trkpt lat="47.79309" lon="6.58873">
        <ele>441.604</ele>
        <time>2015-06-13T13:53:05.652Z</time>
      </trkpt>
      <trkpt lat="47.79308" lon="6.58869">
        <ele>441.374</ele>
        <time>2015-06-13T13:53:06.644Z</time>
      </trkpt>
      <trkpt lat="47.79309" lon="6.58857">
        <ele>441.298</ele>
        <time>2015-06-13T13:53:09.659Z</time>
      </trkpt>
      <trkpt lat="47.7931" lon="6.58854">
        <ele>441.266</ele>
        <time>2015-06-13T13:53:10.695Z</time>
      </trkpt>
      <trkpt lat="47.79313" lon="6.58845">
        <ele>440.995</ele>
        <time>2015-06-13T13:53:13.666Z</time>
      </trkpt>
      <trkpt lat="47.79314" lon="6.58842">
        <ele>440.942</ele>
        <time>2015-06-13T13:53:14.594Z</time>
      </trkpt>
      <trkpt lat="47.79318" lon="6.58835">
        <ele>440.563</ele>
        <time>2015-06-13T13:53:16.693Z</time>
      </trkpt>
      <trkpt lat="47.7932" lon="6.58831">
        <ele>440.408</ele>
        <time>2015-06-13T13:53:17.617Z</time>
      </trkpt>
      <trkpt lat="47.79322" lon="6.58818">
        <ele>440.183</ele>
        <time>2015-06-13T13:53:20.277Z</time>
      </trkpt>
      <trkpt lat="47.79324" lon="6.58814">
        <ele>440.156</ele>
        <time>2015-06-13T13:53:21.277Z</time>
      </trkpt>
      <trkpt lat="47.79328" lon="6.58803">
        <ele>440.715</ele>
        <time>2015-06-13T13:53:24.287Z</time>
      </trkpt>
      <trkpt lat="47.7933" lon="6.58799">
        <ele>441.344</ele>
        <time>2015-06-13T13:53:25.309Z</time>
      </trkpt>
      <trkpt lat="47.79337" lon="6.5879">
        <ele>443.081</ele>
        <time>2015-06-13T13:53:28.254Z</time>
      </trkpt>
      <trkpt lat="47.79338" lon="6.58787">
        <ele>443.584</ele>
        <time>2015-06-13T13:53:29.293Z</time>
      </trkpt>
      <trkpt lat="47.7934" lon="6.58776">
        <ele>444.827</ele>
        <time>2015-06-13T13:53:31.258Z</time>
      </trkpt>
      <trkpt lat="47.79339" lon="6.58772">
        <ele>445.372</ele>
        <time>2015-06-13T13:53:32.254Z</time>
      </trkpt>
      <trkpt lat="47.79335" lon="6.58762">
        <ele>447.334</ele>
        <time>2015-06-13T13:53:37.32Z</time>
      </trkpt>
      <trkpt lat="47.79336" lon="6.5876">
        <ele>447.847</ele>
        <time>2015-06-13T13:53:38.253Z</time>
      </trkpt>
      <trkpt lat="47.79338" lon="6.58747">
        <ele>449.883</ele>
        <time>2015-06-13T13:53:43.338Z</time>
      </trkpt>
      <trkpt lat="47.79338" lon="6.58744">
        <ele>450.125</ele>
        <time>2015-06-13T13:53:44.273Z</time>
      </trkpt>
      <trkpt lat="47.79342" lon="6.58734">
        <ele>450.966</ele>
        <time>2015-06-13T13:53:50.332Z</time>
      </trkpt>
      <trkpt lat="47.79342" lon="6.58732">
        <ele>451.283</ele>
        <time>2015-06-13T13:53:51.533Z</time>
      </trkpt>
      <trkpt lat="47.79338" lon="6.58719">
        <ele>452.951</ele>
        <time>2015-06-13T13:53:55.338Z</time>
      </trkpt>
      <trkpt lat="47.79337" lon="6.58714">
        <ele>453.606</ele>
        <time>2015-06-13T13:53:56.337Z</time>
      </trkpt>
      <trkpt lat="47.79336" lon="6.58706">
        <ele>454.596</ele>
        <time>2015-06-13T13:53:57.325Z</time>
      </trkpt>
      <trkpt lat="47.79334" lon="6.58698">
        <ele>455.536</ele>
        <time>2015-06-13T13:53:58.324Z</time>
      </trkpt>
      <trkpt lat="47.79331" lon="6.58686">
        <ele>457.058</ele>
        <time>2015-06-13T13:54:00.293Z</time>
      </trkpt>
      <trkpt lat="47.79332" lon="6.5868">
        <ele>457.611</ele>
        <time>2015-06-13T13:54:01.321Z</time>
      </trkpt>
      <trkpt lat="47.79334" lon="6.58668">
        <ele>458.765</ele>
        <time>2015-06-13T13:54:03.355Z</time>
      </trkpt>
      <trkpt lat="47.79337" lon="6.58664">
        <ele>458.647</ele>
        <time>2015-06-13T13:54:04.259Z</time>
      </trkpt>
      <trkpt lat="47.79343" lon="6.58657">
        <ele>457.97</ele>
        <time>2015-06-13T13:54:06.323Z</time>
      </trkpt>
      <trkpt lat="47.79344" lon="6.58653">
        <ele>457.736</ele>
        <time>2015-06-13T13:54:07.324Z</time>
      </trkpt>
      <trkpt lat="47.79346" lon="6.58644">
        <ele>457.308</ele>
        <time>2015-06-13T13:54:09.322Z</time>
      </trkpt>
      <trkpt lat="47.79346" lon="6.58639">
        <ele>457.11</ele>
        <time>2015-06-13T13:54:10.384Z</time>
      </trkpt>
      <trkpt lat="47.79346" lon="6.58629">
        <ele>454.639</ele>
        <time>2015-06-13T13:54:12.329Z</time>
      </trkpt>
      <trkpt lat="47.79347" lon="6.58624">
        <ele>453.332</ele>
        <time>2015-06-13T13:54:13.329Z</time>
      </trkpt>
      <trkpt lat="47.7935" lon="6.58616">
        <ele>450.964</ele>
        <time>2015-06-13T13:54:15.358Z</time>
      </trkpt>
      <trkpt lat="47.79351" lon="6.58611">
        <ele>449.712</ele>
        <time>2015-06-13T13:54:16.327Z</time>
      </trkpt>
      <trkpt lat="47.79356" lon="6.58606">
        <ele>448.589</ele>
        <time>2015-06-13T13:54:18.333Z</time>
      </trkpt>
      <trkpt lat="47.79359" lon="6.58604">
        <ele>448.215</ele>
        <time>2015-06-13T13:54:19.344Z</time>
      </trkpt>
      <trkpt lat="47.79365" lon="6.58596">
        <ele>447.074</ele>
        <time>2015-06-13T13:54:21.328Z</time>
      </trkpt>
      <trkpt lat="47.7937" lon="6.58592">
        <ele>446.285</ele>
        <time>2015-06-13T13:54:22.331Z</time>
      </trkpt>
      <trkpt lat="47.79375" lon="6.58588">
        <ele>445.529</ele>
        <time>2015-06-13T13:54:23.344Z</time>
      </trkpt>
      <trkpt lat="47.79381" lon="6.58586">
        <ele>444.795</ele>
        <time>2015-06-13T13:54:24.321Z</time>
      </trkpt>
      <trkpt lat="47.79388" lon="6.58583">
        <ele>444.086</ele>
        <time>2015-06-13T13:54:25.327Z</time>
      </trkpt>
      <trkpt lat="47.79412" lon="6.58577">
        <ele>446.917</ele>
        <time>2015-06-13T13:54:26.327Z</time>
      </trkpt>
      <trkpt lat="47.79416" lon="6.58572">
        <ele>447.135</ele>
        <time>2015-06-13T13:54:27.326Z</time>
      </trkpt>
      <trkpt lat="47.79424" lon="6.58567">
        <ele>445.385</ele>
        <time>2015-06-13T13:54:28.327Z</time>
      </trkpt>
      <trkpt lat="47.79466" lon="6.5851">
        <ele>443</ele>
        <time>2015-06-13T13:54:34.321Z</time>
      </trkpt>
      <trkpt lat="47.79472" lon="6.58498">
        <ele>443.26</ele>
        <time>2015-06-13T13:54:35.322Z</time>
      </trkpt>
      <trkpt lat="47.79477" lon="6.5849">
        <ele>444.237</ele>
        <time>2015-06-13T13:54:36.329Z</time>
      </trkpt>
      <trkpt lat="47.7948" lon="6.58481">
        <ele>445.045</ele>
        <time>2015-06-13T13:54:37.326Z</time>
      </trkpt>
      <trkpt lat="47.79481" lon="6.58469">
        <ele>445.673</ele>
        <time>2015-06-13T13:54:38.329Z</time>
      </trkpt>
      <trkpt lat="47.79493" lon="6.58459">
        <ele>445.252</ele>
        <time>2015-06-13T13:54:39.322Z</time>
      </trkpt>
      <trkpt lat="47.79503" lon="6.58454">
        <ele>444.798</ele>
        <time>2015-06-13T13:54:40.32Z</time>
      </trkpt>
      <trkpt lat="47.795" lon="6.5844">
        <ele>444.824</ele>
        <time>2015-06-13T13:54:41.321Z</time>
      </trkpt>
      <trkpt lat="47.79492" lon="6.58431">
        <ele>444.964</ele>
        <time>2015-06-13T13:54:42.323Z</time>
      </trkpt>
      <trkpt lat="47.79492" lon="6.58427">
        <ele>444.843</ele>
        <time>2015-06-13T13:54:43.322Z</time>
      </trkpt>
      <trkpt lat="47.79463" lon="6.58414">
        <ele>445.838</ele>
        <time>2015-06-13T13:54:44.314Z</time>
      </trkpt>
      <trkpt lat="47.79454" lon="6.58408">
        <ele>445.758</ele>
        <time>2015-06-13T13:54:45.299Z</time>
      </trkpt>
      <trkpt lat="47.79451" lon="6.58395">
        <ele>446.18</ele>
        <time>2015-06-13T13:54:46.321Z</time>
      </trkpt>
      <trkpt lat="47.79447" lon="6.58386">
        <ele>445.909</ele>
        <time>2015-06-13T13:54:48.344Z</time>
      </trkpt>
      <trkpt lat="47.79443" lon="6.58374">
        <ele>445.217</ele>
        <time>2015-06-13T13:54:49.319Z</time>
      </trkpt>
      <trkpt lat="47.79433" lon="6.58359">
        <ele>445.763</ele>
        <time>2015-06-13T13:54:50.32Z</time>
      </trkpt>
      <trkpt lat="47.79423" lon="6.58346">
        <ele>445.54</ele>
        <time>2015-06-13T13:54:51.324Z</time>
      </trkpt>
      <trkpt lat="47.79434" lon="6.58348">
        <ele>444.082</ele>
        <time>2015-06-13T13:54:52.325Z</time>
      </trkpt>
      <trkpt lat="47.79433" lon="6.58341">
        <ele>443.261</ele>
        <time>2015-06-13T13:54:53.325Z</time>
      </trkpt>
      <trkpt lat="47.79431" lon="6.58334">
        <ele>442.422</ele>
        <time>2015-06-13T13:54:54.339Z</time>
      </trkpt>
      <trkpt lat="47.79432" lon="6.58329">
        <ele>441.612</ele>
        <time>2015-06-13T13:54:55.323Z</time>
      </trkpt>
      <trkpt lat="47.79427" lon="6.58321">
        <ele>441.65</ele>
        <time>2015-06-13T13:54:56.324Z</time>
      </trkpt>
      <trkpt lat="47.79425" lon="6.58311">
        <ele>440.978</ele>
        <time>2015-06-13T13:54:59.332Z</time>
      </trkpt>
      <trkpt lat="47.79421" lon="6.58307">
        <ele>441.291</ele>
        <time>2015-06-13T13:55:00.328Z</time>
      </trkpt>
      <trkpt lat="47.79413" lon="6.58301">
        <ele>440.899</ele>
        <time>2015-06-13T13:55:04.326Z</time>
      </trkpt>
      <trkpt lat="47.7941" lon="6.58298">
        <ele>440.271</ele>
        <time>2015-06-13T13:55:05.288Z</time>
      </trkpt>
      <trkpt lat="47.79405" lon="6.58291">
        <ele>439.252</ele>
        <time>2015-06-13T13:55:07.389Z</time>
      </trkpt>
      <trkpt lat="47.79402" lon="6.58288">
        <ele>438.823</ele>
        <time>2015-06-13T13:55:08.346Z</time>
      </trkpt>
      <trkpt lat="47.79397" lon="6.5828">
        <ele>437.967</ele>
        <time>2015-06-13T13:55:10.355Z</time>
      </trkpt>
      <trkpt lat="47.79393" lon="6.58276">
        <ele>437.862</ele>
        <time>2015-06-13T13:55:11.326Z</time>
      </trkpt>
      <trkpt lat="47.79388" lon="6.58272">
        <ele>438.044</ele>
        <time>2015-06-13T13:55:12.326Z</time>
      </trkpt>
      <trkpt lat="47.79384" lon="6.58268">
        <ele>438.182</ele>
        <time>2015-06-13T13:55:13.327Z</time>
      </trkpt>
      <trkpt lat="47.7938" lon="6.58264">
        <ele>438.169</ele>
        <time>2015-06-13T13:55:14.325Z</time>
      </trkpt>
      <trkpt lat="47.79376" lon="6.58259">
        <ele>438.007</ele>
        <time>2015-06-13T13:55:15.324Z</time>
      </trkpt>
      <trkpt lat="47.79369" lon="6.58251">
        <ele>437.361</ele>
        <time>2015-06-13T13:55:17.325Z</time>
      </trkpt>
      <trkpt lat="47.79365" lon="6.58248">
        <ele>437.179</ele>
        <time>2015-06-13T13:55:18.35Z</time>
      </trkpt>
      <trkpt lat="47.79361" lon="6.58244">
        <ele>437.405</ele>
        <time>2015-06-13T13:55:19.326Z</time>
      </trkpt>
      <trkpt lat="47.79357" lon="6.5824">
        <ele>437.301</ele>
        <time>2015-06-13T13:55:20.331Z</time>
      </trkpt>
      <trkpt lat="47.79349" lon="6.58234">
        <ele>436.74</ele>
        <time>2015-06-13T13:55:22.333Z</time>
      </trkpt>
      <trkpt lat="47.79345" lon="6.58229">
        <ele>436.149</ele>
        <time>2015-06-13T13:55:23.323Z</time>
      </trkpt>
      <trkpt lat="47.79338" lon="6.58221">
        <ele>434.735</ele>
        <time>2015-06-13T13:55:25.323Z</time>
      </trkpt>
      <trkpt lat="47.79334" lon="6.58217">
        <ele>434.045</ele>
        <time>2015-06-13T13:55:26.323Z</time>
      </trkpt>
      <trkpt lat="47.79327" lon="6.58209">
        <ele>433.672</ele>
        <time>2015-06-13T13:55:27.322Z</time>
      </trkpt>
      <trkpt lat="47.79324" lon="6.58202">
        <ele>433.552</ele>
        <time>2015-06-13T13:55:28.316Z</time>
      </trkpt>
      <trkpt lat="47.7932" lon="6.58196">
        <ele>433.471</ele>
        <time>2015-06-13T13:55:30.323Z</time>
      </trkpt>
      <trkpt lat="47.79317" lon="6.5819">
        <ele>433.468</ele>
        <time>2015-06-13T13:55:31.313Z</time>
      </trkpt>
      <trkpt lat="47.79311" lon="6.58183">
        <ele>434.192</ele>
        <time>2015-06-13T13:55:33.325Z</time>
      </trkpt>
      <trkpt lat="47.79309" lon="6.58178">
        <ele>434.884</ele>
        <time>2015-06-13T13:55:34.358Z</time>
      </trkpt>
      <trkpt lat="47.79307" lon="6.58171">
        <ele>436.132</ele>
        <time>2015-06-13T13:55:35.324Z</time>
      </trkpt>
      <trkpt lat="47.79301" lon="6.58161">
        <ele>438.531</ele>
        <time>2015-06-13T13:55:36.326Z</time>
      </trkpt>
      <trkpt lat="47.793" lon="6.58153">
        <ele>439.36</ele>
        <time>2015-06-13T13:55:37.327Z</time>
      </trkpt>
      <trkpt lat="47.79287" lon="6.5815">
        <ele>441.412</ele>
        <time>2015-06-13T13:55:38.326Z</time>
      </trkpt>
      <trkpt lat="47.79277" lon="6.58139">
        <ele>441.68</ele>
        <time>2015-06-13T13:55:39.326Z</time>
      </trkpt>
      <trkpt lat="47.79274" lon="6.58137">
        <ele>440.094</ele>
        <time>2015-06-13T13:55:40.325Z</time>
      </trkpt>
      <trkpt lat="47.79272" lon="6.58128">
        <ele>438.888</ele>
        <time>2015-06-13T13:55:41.327Z</time>
      </trkpt>
      <trkpt lat="47.79269" lon="6.5812">
        <ele>437.897</ele>
        <time>2015-06-13T13:55:42.338Z</time>
      </trkpt>
      <trkpt lat="47.79267" lon="6.58111">
        <ele>437.624</ele>
        <time>2015-06-13T13:55:43.326Z</time>
      </trkpt>
      <trkpt lat="47.79267" lon="6.58103">
        <ele>438.745</ele>
        <time>2015-06-13T13:55:44.326Z</time>
      </trkpt>
      <trkpt lat="47.79271" lon="6.58095">
        <ele>440.671</ele>
        <time>2015-06-13T13:55:45.354Z</time>
      </trkpt>
      <trkpt lat="47.79273" lon="6.58082">
        <ele>443.229</ele>
        <time>2015-06-13T13:55:46.361Z</time>
      </trkpt>
      <trkpt lat="47.79273" lon="6.5807">
        <ele>442.522</ele>
        <time>2015-06-13T13:55:47.332Z</time>
      </trkpt>
      <trkpt lat="47.79274" lon="6.58059">
        <ele>441.83</ele>
        <time>2015-06-13T13:55:48.326Z</time>
      </trkpt>
      <trkpt lat="47.79274" lon="6.58048">
        <ele>439.773</ele>
        <time>2015-06-13T13:55:49.333Z</time>
      </trkpt>
      <trkpt lat="47.79268" lon="6.58037">
        <ele>436.658</ele>
        <time>2015-06-13T13:55:50.349Z</time>
      </trkpt>
      <trkpt lat="47.7926" lon="6.58025">
        <ele>433.583</ele>
        <time>2015-06-13T13:55:51.325Z</time>
      </trkpt>
      <trkpt lat="47.79255" lon="6.58014">
        <ele>430.838</ele>
        <time>2015-06-13T13:55:52.324Z</time>
      </trkpt>
      <trkpt lat="47.79253" lon="6.58005">
        <ele>428.978</ele>
        <time>2015-06-13T13:55:54.348Z</time>
      </trkpt>
      <trkpt lat="47.7925" lon="6.58001">
        <ele>428.036</ele>
        <time>2015-06-13T13:55:55.333Z</time>
      </trkpt>
      <trkpt lat="47.79242" lon="6.58003">
        <ele>427.204</ele>
        <time>2015-06-13T13:55:56.285Z</time>
      </trkpt>
      <trkpt lat="47.7924" lon="6.58002">
        <ele>426.797</ele>
        <time>2015-06-13T13:55:57.323Z</time>
      </trkpt>
      <trkpt lat="47.79234" lon="6.58">
        <ele>425.087</ele>
        <time>2015-06-13T13:56:01.341Z</time>
      </trkpt>
      <trkpt lat="47.79231" lon="6.58001">
        <ele>424.917</ele>
        <time>2015-06-13T13:56:02.331Z</time>
      </trkpt>
      <trkpt lat="47.79225" lon="6.58004">
        <ele>424.511</ele>
        <time>2015-06-13T13:56:04.348Z</time>
      </trkpt>
      <trkpt lat="47.79222" lon="6.58008">
        <ele>425.097</ele>
        <time>2015-06-13T13:56:05.345Z</time>
      </trkpt>
      <trkpt lat="47.79218" lon="6.58017">
        <ele>426.453</ele>
        <time>2015-06-13T13:56:09.332Z</time>
      </trkpt>
      <trkpt lat="47.79217" lon="6.58019">
        <ele>426.874</ele>
        <time>2015-06-13T13:56:10.311Z</time>
      </trkpt>
      <trkpt lat="47.79212" lon="6.58027">
        <ele>427.559</ele>
        <time>2015-06-13T13:56:13.322Z</time>
      </trkpt>
      <trkpt lat="47.79207" lon="6.58028">
        <ele>426.641</ele>
        <time>2015-06-13T13:56:14.331Z</time>
      </trkpt>
      <trkpt lat="47.79201" lon="6.58029">
        <ele>425.515</ele>
        <time>2015-06-13T13:56:15.295Z</time>
      </trkpt>
      <trkpt lat="47.79195" lon="6.58029">
        <ele>424.133</ele>
        <time>2015-06-13T13:56:16.423Z</time>
      </trkpt>
      <trkpt lat="47.79189" lon="6.58028">
        <ele>422.955</ele>
        <time>2015-06-13T13:56:17.331Z</time>
      </trkpt>
      <trkpt lat="47.79183" lon="6.58025">
        <ele>421.835</ele>
        <time>2015-06-13T13:56:18.328Z</time>
      </trkpt>
      <trkpt lat="47.79171" lon="6.58008">
        <ele>421.262</ele>
        <time>2015-06-13T13:56:19.343Z</time>
      </trkpt>
      <trkpt lat="47.79165" lon="6.57999">
        <ele>421.934</ele>
        <time>2015-06-13T13:56:21.337Z</time>
      </trkpt>
      <trkpt lat="47.79161" lon="6.57995">
        <ele>421.675</ele>
        <time>2015-06-13T13:56:22.332Z</time>
      </trkpt>
      <trkpt lat="47.79144" lon="6.57981">
        <ele>421.326</ele>
        <time>2015-06-13T13:56:23.319Z</time>
      </trkpt>
      <trkpt lat="47.79141" lon="6.57969">
        <ele>420.47</ele>
        <time>2015-06-13T13:56:24.338Z</time>
      </trkpt>
      <trkpt lat="47.79138" lon="6.57961">
        <ele>419.331</ele>
        <time>2015-06-13T13:56:25.372Z</time>
      </trkpt>
      <trkpt lat="47.79133" lon="6.57952">
        <ele>417.745</ele>
        <time>2015-06-13T13:56:26.344Z</time>
      </trkpt>
      <trkpt lat="47.79131" lon="6.57943">
        <ele>416.32</ele>
        <time>2015-06-13T13:56:27.352Z</time>
      </trkpt>
      <trkpt lat="47.79132" lon="6.57936">
        <ele>415.487</ele>
        <time>2015-06-13T13:56:29.326Z</time>
      </trkpt>
      <trkpt lat="47.79132" lon="6.57927">
        <ele>414.447</ele>
        <time>2015-06-13T13:56:30.326Z</time>
      </trkpt>
      <trkpt lat="47.79107" lon="6.5791">
        <ele>413.5</ele>
        <time>2015-06-13T13:56:31.344Z</time>
      </trkpt>
      <trkpt lat="47.79105" lon="6.57902">
        <ele>413.028</ele>
        <time>2015-06-13T13:56:32.261Z</time>
      </trkpt>
      <trkpt lat="47.79103" lon="6.57894">
        <ele>412.618</ele>
        <time>2015-06-13T13:56:33.333Z</time>
      </trkpt>
      <trkpt lat="47.79099" lon="6.57884">
        <ele>412.004</ele>
        <time>2015-06-13T13:56:35.34Z</time>
      </trkpt>
      <trkpt lat="47.79099" lon="6.57876">
        <ele>411.791</ele>
        <time>2015-06-13T13:56:36.329Z</time>
      </trkpt>
      <trkpt lat="47.79094" lon="6.57866">
        <ele>411.639</ele>
        <time>2015-06-13T13:56:39.327Z</time>
      </trkpt>
      <trkpt lat="47.79087" lon="6.57862">
        <ele>411.859</ele>
        <time>2015-06-13T13:56:40.32Z</time>
      </trkpt>
      <trkpt lat="47.79085" lon="6.57858">
        <ele>412.067</ele>
        <time>2015-06-13T13:56:41.337Z</time>
      </trkpt>
      <trkpt lat="47.79079" lon="6.57854">
        <ele>411.756</ele>
        <time>2015-06-13T13:56:42.333Z</time>
      </trkpt>
      <trkpt lat="47.79077" lon="6.57843">
        <ele>412.325</ele>
        <time>2015-06-13T13:56:43.326Z</time>
      </trkpt>
      <trkpt lat="47.79072" lon="6.57841">
        <ele>412.302</ele>
        <time>2015-06-13T13:56:44.325Z</time>
      </trkpt>
      <trkpt lat="47.79064" lon="6.57835">
        <ele>412.758</ele>
        <time>2015-06-13T13:56:46.33Z</time>
      </trkpt>
      <trkpt lat="47.79061" lon="6.57833">
        <ele>412.998</ele>
        <time>2015-06-13T13:56:47.326Z</time>
      </trkpt>
      <trkpt lat="47.79055" lon="6.57834">
        <ele>412.834</ele>
        <time>2015-06-13T13:56:48.341Z</time>
      </trkpt>
      <trkpt lat="47.79049" lon="6.57836">
        <ele>411.686</ele>
        <time>2015-06-13T13:56:49.325Z</time>
      </trkpt>
      <trkpt lat="47.79044" lon="6.57834">
        <ele>411.307</ele>
        <time>2015-06-13T13:56:50.326Z</time>
      </trkpt>
      <trkpt lat="47.7904" lon="6.57831">
        <ele>410.801</ele>
        <time>2015-06-13T13:56:51.325Z</time>
      </trkpt>
      <trkpt lat="47.79033" lon="6.57824">
        <ele>410.454</ele>
        <time>2015-06-13T13:56:53.327Z</time>
      </trkpt>
      <trkpt lat="47.79034" lon="6.57817">
        <ele>410.973</ele>
        <time>2015-06-13T13:56:54.325Z</time>
      </trkpt>
      <trkpt lat="47.79037" lon="6.57807">
        <ele>411.579</ele>
        <time>2015-06-13T13:56:56.325Z</time>
      </trkpt>
      <trkpt lat="47.79039" lon="6.57804">
        <ele>411.401</ele>
        <time>2015-06-13T13:56:57.323Z</time>
      </trkpt>
      <trkpt lat="47.79045" lon="6.57796">
        <ele>410.554</ele>
        <time>2015-06-13T13:56:59.346Z</time>
      </trkpt>
      <trkpt lat="47.79047" lon="6.57796">
        <ele>410.513</ele>
        <time>2015-06-13T13:57:00.334Z</time>
      </trkpt>
      <trkpt lat="47.79052" lon="6.57789">
        <ele>410.217</ele>
        <time>2015-06-13T13:57:01.323Z</time>
      </trkpt>
      <trkpt lat="47.79055" lon="6.57786">
        <ele>410.253</ele>
        <time>2015-06-13T13:57:02.288Z</time>
      </trkpt>
      <trkpt lat="47.79059" lon="6.57781">
        <ele>410.234</ele>
        <time>2015-06-13T13:57:03.322Z</time>
      </trkpt>
      <trkpt lat="47.79062" lon="6.57778">
        <ele>410.262</ele>
        <time>2015-06-13T13:57:04.321Z</time>
      </trkpt>
      <trkpt lat="47.79067" lon="6.57769">
        <ele>409.762</ele>
        <time>2015-06-13T13:57:06.322Z</time>
      </trkpt>
      <trkpt lat="47.79068" lon="6.57763">
        <ele>409.42</ele>
        <time>2015-06-13T13:57:07.305Z</time>
      </trkpt>
      <trkpt lat="47.79073" lon="6.57757">
        <ele>409.089</ele>
        <time>2015-06-13T13:57:08.322Z</time>
      </trkpt>
      <trkpt lat="47.79072" lon="6.57747">
        <ele>408.397</ele>
        <time>2015-06-13T13:57:09.323Z</time>
      </trkpt>
      <trkpt lat="47.79075" lon="6.57743">
        <ele>408.238</ele>
        <time>2015-06-13T13:57:10.324Z</time>
      </trkpt>
      <trkpt lat="47.79076" lon="6.57734">
        <ele>407.708</ele>
        <time>2015-06-13T13:57:11.337Z</time>
      </trkpt>
      <trkpt lat="47.79072" lon="6.57718">
        <ele>406.931</ele>
        <time>2015-06-13T13:57:12.324Z</time>
      </trkpt>
      <trkpt lat="47.79075" lon="6.57709">
        <ele>406.608</ele>
        <time>2015-06-13T13:57:13.326Z</time>
      </trkpt>
      <trkpt lat="47.79084" lon="6.57715">
        <ele>406.495</ele>
        <time>2015-06-13T13:57:14.326Z</time>
      </trkpt>
      <trkpt lat="47.79087" lon="6.57711">
        <ele>406.641</ele>
        <time>2015-06-13T13:57:15.326Z</time>
      </trkpt>
      <trkpt lat="47.79065" lon="6.57695">
        <ele>407.564</ele>
        <time>2015-06-13T13:57:16.333Z</time>
      </trkpt>
      <trkpt lat="47.79062" lon="6.57689">
        <ele>408.218</ele>
        <time>2015-06-13T13:57:20.326Z</time>
      </trkpt>
      <trkpt lat="47.79067" lon="6.5768">
        <ele>408.03</ele>
        <time>2015-06-13T13:57:21.345Z</time>
      </trkpt>
      <trkpt lat="47.79067" lon="6.57674">
        <ele>408.236</ele>
        <time>2015-06-13T13:57:22.329Z</time>
      </trkpt>
      <trkpt lat="47.79068" lon="6.57662">
        <ele>408.587</ele>
        <time>2015-06-13T13:57:23.326Z</time>
      </trkpt>
      <trkpt lat="47.79071" lon="6.57654">
        <ele>408.406</ele>
        <time>2015-06-13T13:57:24.325Z</time>
      </trkpt>
      <trkpt lat="47.79069" lon="6.57645">
        <ele>408.513</ele>
        <time>2015-06-13T13:57:25.38Z</time>
      </trkpt>
      <trkpt lat="47.79068" lon="6.57637">
        <ele>408.946</ele>
        <time>2015-06-13T13:57:26.328Z</time>
      </trkpt>
      <trkpt lat="47.79079" lon="6.57637">
        <ele>407.661</ele>
        <time>2015-06-13T13:57:27.327Z</time>
      </trkpt>
      <trkpt lat="47.79078" lon="6.57627">
        <ele>408.882</ele>
        <time>2015-06-13T13:57:29.326Z</time>
      </trkpt>
      <trkpt lat="47.79081" lon="6.57621">
        <ele>409.249</ele>
        <time>2015-06-13T13:57:30.325Z</time>
      </trkpt>
      <trkpt lat="47.79083" lon="6.57609">
        <ele>410.318</ele>
        <time>2015-06-13T13:57:32.284Z</time>
      </trkpt>
      <trkpt lat="47.79087" lon="6.57609">
        <ele>410.173</ele>
        <time>2015-06-13T13:57:33.325Z</time>
      </trkpt>
      <trkpt lat="47.7909" lon="6.57597">
        <ele>410.545</ele>
        <time>2015-06-13T13:57:35.286Z</time>
      </trkpt>
      <trkpt lat="47.7909" lon="6.57591">
        <ele>410.774</ele>
        <time>2015-06-13T13:57:36.326Z</time>
      </trkpt>
      <trkpt lat="47.79095" lon="6.57583">
        <ele>409.785</ele>
        <time>2015-06-13T13:57:38.327Z</time>
      </trkpt>
      <trkpt lat="47.79095" lon="6.57574">
        <ele>409.947</ele>
        <time>2015-06-13T13:57:39.325Z</time>
      </trkpt>
      <trkpt lat="47.79097" lon="6.57567">
        <ele>409.796</ele>
        <time>2015-06-13T13:57:40.326Z</time>
      </trkpt>
      <trkpt lat="47.79097" lon="6.57558">
        <ele>410.127</ele>
        <time>2015-06-13T13:57:41.355Z</time>
      </trkpt>
      <trkpt lat="47.79098" lon="6.5755">
        <ele>410.398</ele>
        <time>2015-06-13T13:57:42.345Z</time>
      </trkpt>
      <trkpt lat="47.79102" lon="6.57545">
        <ele>410.407</ele>
        <time>2015-06-13T13:57:43.343Z</time>
      </trkpt>
      <trkpt lat="47.79107" lon="6.57537">
        <ele>411.035</ele>
        <time>2015-06-13T13:57:44.297Z</time>
      </trkpt>
      <trkpt lat="47.79109" lon="6.57531">
        <ele>412.317</ele>
        <time>2015-06-13T13:57:45.348Z</time>
      </trkpt>
      <trkpt lat="47.79112" lon="6.57522">
        <ele>413.251</ele>
        <time>2015-06-13T13:57:47.324Z</time>
      </trkpt>
      <trkpt lat="47.79113" lon="6.57516">
        <ele>413.52</ele>
        <time>2015-06-13T13:57:48.527Z</time>
      </trkpt>
      <trkpt lat="47.79114" lon="6.57509">
        <ele>414.049</ele>
        <time>2015-06-13T13:57:49.323Z</time>
      </trkpt>
      <trkpt lat="47.79116" lon="6.57503">
        <ele>414.161</ele>
        <time>2015-06-13T13:57:50.321Z</time>
      </trkpt>
      <trkpt lat="47.79122" lon="6.57494">
        <ele>414.189</ele>
        <time>2015-06-13T13:57:52.342Z</time>
      </trkpt>
      <trkpt lat="47.79118" lon="6.57484">
        <ele>415.232</ele>
        <time>2015-06-13T13:57:53.323Z</time>
      </trkpt>
      <trkpt lat="47.79121" lon="6.57479">
        <ele>415.2</ele>
        <time>2015-06-13T13:57:54.324Z</time>
      </trkpt>
      <trkpt lat="47.79125" lon="6.57474">
        <ele>414.92</ele>
        <time>2015-06-13T13:57:55.322Z</time>
      </trkpt>
      <trkpt lat="47.79129" lon="6.57468">
        <ele>414.13</ele>
        <time>2015-06-13T13:57:56.324Z</time>
      </trkpt>
      <trkpt lat="47.79134" lon="6.57461">
        <ele>412.811</ele>
        <time>2015-06-13T13:57:57.326Z</time>
      </trkpt>
      <trkpt lat="47.79138" lon="6.57452">
        <ele>411.675</ele>
        <time>2015-06-13T13:57:59.325Z</time>
      </trkpt>
      <trkpt lat="47.79142" lon="6.57447">
        <ele>411.378</ele>
        <time>2015-06-13T13:58:00.327Z</time>
      </trkpt>
      <trkpt lat="47.79146" lon="6.57442">
        <ele>411.323</ele>
        <time>2015-06-13T13:58:01.324Z</time>
      </trkpt>
      <trkpt lat="47.7915" lon="6.57436">
        <ele>411.381</ele>
        <time>2015-06-13T13:58:02.322Z</time>
      </trkpt>
      <trkpt lat="47.79151" lon="6.57427">
        <ele>411.25</ele>
        <time>2015-06-13T13:58:03.325Z</time>
      </trkpt>
      <trkpt lat="47.79146" lon="6.57419">
        <ele>409.48</ele>
        <time>2015-06-13T13:58:04.326Z</time>
      </trkpt>
      <trkpt lat="47.79149" lon="6.57411">
        <ele>409.265</ele>
        <time>2015-06-13T13:58:05.324Z</time>
      </trkpt>
      <trkpt lat="47.79149" lon="6.57404">
        <ele>408.011</ele>
        <time>2015-06-13T13:58:06.325Z</time>
      </trkpt>
      <trkpt lat="47.79152" lon="6.57399">
        <ele>407.554</ele>
        <time>2015-06-13T13:58:07.292Z</time>
      </trkpt>
      <trkpt lat="47.79156" lon="6.57392">
        <ele>406.506</ele>
        <time>2015-06-13T13:58:08.327Z</time>
      </trkpt>
      <trkpt lat="47.79159" lon="6.57384">
        <ele>405.711</ele>
        <time>2015-06-13T13:58:10.326Z</time>
      </trkpt>
      <trkpt lat="47.7916" lon="6.5738">
        <ele>405.653</ele>
        <time>2015-06-13T13:58:11.347Z</time>
      </trkpt>
      <trkpt lat="47.79166" lon="6.57377">
        <ele>405.171</ele>
        <time>2015-06-13T13:58:13.347Z</time>
      </trkpt>
      <trkpt lat="47.79169" lon="6.57373">
        <ele>405.169</ele>
        <time>2015-06-13T13:58:14.322Z</time>
      </trkpt>
      <trkpt lat="47.79176" lon="6.57368">
        <ele>405.544</ele>
        <time>2015-06-13T13:58:16.327Z</time>
      </trkpt>
      <trkpt lat="47.79179" lon="6.57365">
        <ele>405.59</ele>
        <time>2015-06-13T13:58:17.326Z</time>
      </trkpt>
      <trkpt lat="47.79186" lon="6.57361">
        <ele>406.093</ele>
        <time>2015-06-13T13:58:19.327Z</time>
      </trkpt>
      <trkpt lat="47.79188" lon="6.57357">
        <ele>406.468</ele>
        <time>2015-06-13T13:58:20.325Z</time>
      </trkpt>
      <trkpt lat="47.79192" lon="6.5735">
        <ele>406.672</ele>
        <time>2015-06-13T13:58:22.332Z</time>
      </trkpt>
      <trkpt lat="47.79195" lon="6.57346">
        <ele>406.562</ele>
        <time>2015-06-13T13:58:23.324Z</time>
      </trkpt>
      <trkpt lat="47.792" lon="6.57337">
        <ele>407.771</ele>
        <time>2015-06-13T13:58:25.326Z</time>
      </trkpt>
      <trkpt lat="47.79203" lon="6.57333">
        <ele>408.356</ele>
        <time>2015-06-13T13:58:26.325Z</time>
      </trkpt>
      <trkpt lat="47.79208" lon="6.57323">
        <ele>407.889</ele>
        <time>2015-06-13T13:58:28.326Z</time>
      </trkpt>
      <trkpt lat="47.7921" lon="6.57317">
        <ele>407.127</ele>
        <time>2015-06-13T13:58:29.322Z</time>
      </trkpt>
      <trkpt lat="47.79212" lon="6.57312">
        <ele>406.122</ele>
        <time>2015-06-13T13:58:30.323Z</time>
      </trkpt>
      <trkpt lat="47.79215" lon="6.57305">
        <ele>404.718</ele>
        <time>2015-06-13T13:58:31.318Z</time>
      </trkpt>
      <trkpt lat="47.79219" lon="6.57299">
        <ele>404.694</ele>
        <time>2015-06-13T13:58:32.407Z</time>
      </trkpt>
      <trkpt lat="47.79224" lon="6.57295">
        <ele>404.948</ele>
        <time>2015-06-13T13:58:33.323Z</time>
      </trkpt>
      <trkpt lat="47.79228" lon="6.57294">
        <ele>405.956</ele>
        <time>2015-06-13T13:58:34.322Z</time>
      </trkpt>
      <trkpt lat="47.79233" lon="6.57288">
        <ele>406.558</ele>
        <time>2015-06-13T13:58:35.308Z</time>
      </trkpt>
      <trkpt lat="47.79237" lon="6.57287">
        <ele>407.078</ele>
        <time>2015-06-13T13:58:36.297Z</time>
      </trkpt>
      <trkpt lat="47.79243" lon="6.57284">
        <ele>407.714</ele>
        <time>2015-06-13T13:58:37.325Z</time>
      </trkpt>
      <trkpt lat="47.7925" lon="6.57278">
        <ele>407.164</ele>
        <time>2015-06-13T13:58:39.326Z</time>
      </trkpt>
      <trkpt lat="47.79255" lon="6.57272">
        <ele>406.397</ele>
        <time>2015-06-13T13:58:40.345Z</time>
      </trkpt>
      <trkpt lat="47.79261" lon="6.57267">
        <ele>405.916</ele>
        <time>2015-06-13T13:58:41.341Z</time>
      </trkpt>
      <trkpt lat="47.79265" lon="6.57262">
        <ele>405.233</ele>
        <time>2015-06-13T13:58:42.343Z</time>
      </trkpt>
      <trkpt lat="47.79271" lon="6.57256">
        <ele>404.187</ele>
        <time>2015-06-13T13:58:45.331Z</time>
      </trkpt>
      <trkpt lat="47.79276" lon="6.57255">
        <ele>403.971</ele>
        <time>2015-06-13T13:58:46.354Z</time>
      </trkpt>
      <trkpt lat="47.79284" lon="6.57246">
        <ele>403.103</ele>
        <time>2015-06-13T13:58:47.35Z</time>
      </trkpt>
      <trkpt lat="47.79287" lon="6.57236">
        <ele>402.856</ele>
        <time>2015-06-13T13:58:48.334Z</time>
      </trkpt>
      <trkpt lat="47.79293" lon="6.5723">
        <ele>403.439</ele>
        <time>2015-06-13T13:58:49.332Z</time>
      </trkpt>
      <trkpt lat="47.79297" lon="6.57223">
        <ele>404.18</ele>
        <time>2015-06-13T13:58:50.311Z</time>
      </trkpt>
      <trkpt lat="47.79302" lon="6.57211">
        <ele>404.827</ele>
        <time>2015-06-13T13:58:51.317Z</time>
      </trkpt>
      <trkpt lat="47.79306" lon="6.57207">
        <ele>405.432</ele>
        <time>2015-06-13T13:58:52.328Z</time>
      </trkpt>
      <trkpt lat="47.7931" lon="6.572">
        <ele>405.047</ele>
        <time>2015-06-13T13:58:53.327Z</time>
      </trkpt>
      <trkpt lat="47.79316" lon="6.57196">
        <ele>404.691</ele>
        <time>2015-06-13T13:58:54.326Z</time>
      </trkpt>
      <trkpt lat="47.79321" lon="6.57193">
        <ele>404.611</ele>
        <time>2015-06-13T13:58:55.353Z</time>
      </trkpt>
      <trkpt lat="47.79327" lon="6.57187">
        <ele>405.334</ele>
        <time>2015-06-13T13:58:57.327Z</time>
      </trkpt>
      <trkpt lat="47.7933" lon="6.57182">
        <ele>406.14</ele>
        <time>2015-06-13T13:58:58.326Z</time>
      </trkpt>
      <trkpt lat="47.79337" lon="6.57175">
        <ele>407</ele>
        <time>2015-06-13T13:59:01.339Z</time>
      </trkpt>
      <trkpt lat="47.79339" lon="6.5717">
        <ele>407.499</ele>
        <time>2015-06-13T13:59:02.322Z</time>
      </trkpt>
      <trkpt lat="47.79346" lon="6.57167">
        <ele>407.15</ele>
        <time>2015-06-13T13:59:05.326Z</time>
      </trkpt>
      <trkpt lat="47.79348" lon="6.57165">
        <ele>407.004</ele>
        <time>2015-06-13T13:59:06.337Z</time>
      </trkpt>
      <trkpt lat="47.79355" lon="6.57161">
        <ele>406.763</ele>
        <time>2015-06-13T13:59:09.327Z</time>
      </trkpt>
      <trkpt lat="47.79358" lon="6.57158">
        <ele>406.853</ele>
        <time>2015-06-13T13:59:10.325Z</time>
      </trkpt>
      <trkpt lat="47.79364" lon="6.57152">
        <ele>407.154</ele>
        <time>2015-06-13T13:59:12.325Z</time>
      </trkpt>
      <trkpt lat="47.79368" lon="6.57149">
        <ele>407.142</ele>
        <time>2015-06-13T13:59:13.326Z</time>
      </trkpt>
      <trkpt lat="47.79372" lon="6.57146">
        <ele>407.032</ele>
        <time>2015-06-13T13:59:14.341Z</time>
      </trkpt>
      <trkpt lat="47.79377" lon="6.57144">
        <ele>406.832</ele>
        <time>2015-06-13T13:59:15.313Z</time>
      </trkpt>
      <trkpt lat="47.79385" lon="6.5714">
        <ele>406.395</ele>
        <time>2015-06-13T13:59:17.345Z</time>
      </trkpt>
      <trkpt lat="47.79389" lon="6.5714">
        <ele>405.855</ele>
        <time>2015-06-13T13:59:18.325Z</time>
      </trkpt>
      <trkpt lat="47.79397" lon="6.57144">
        <ele>405.695</ele>
        <time>2015-06-13T13:59:20.287Z</time>
      </trkpt>
      <trkpt lat="47.79401" lon="6.57148">
        <ele>405.539</ele>
        <time>2015-06-13T13:59:21.329Z</time>
      </trkpt>
      <trkpt lat="47.79405" lon="6.57152">
        <ele>405.668</ele>
        <time>2015-06-13T13:59:22.325Z</time>
      </trkpt>
      <trkpt lat="47.79408" lon="6.57155">
        <ele>405.98</ele>
        <time>2015-06-13T13:59:23.324Z</time>
      </trkpt>
      <trkpt lat="47.79415" lon="6.57161">
        <ele>406.876</ele>
        <time>2015-06-13T13:59:25.35Z</time>
      </trkpt>
      <trkpt lat="47.79419" lon="6.57163">
        <ele>407.967</ele>
        <time>2015-06-13T13:59:26.323Z</time>
      </trkpt>
      <trkpt lat="47.79426" lon="6.57166">
        <ele>410.875</ele>
        <time>2015-06-13T13:59:28.332Z</time>
      </trkpt>
      <trkpt lat="47.79429" lon="6.57166">
        <ele>412.053</ele>
        <time>2015-06-13T13:59:29.322Z</time>
      </trkpt>
      <trkpt lat="47.79437" lon="6.57164">
        <ele>414.996</ele>
        <time>2015-06-13T13:59:32.325Z</time>
      </trkpt>
      <trkpt lat="47.79439" lon="6.57164">
        <ele>415.704</ele>
        <time>2015-06-13T13:59:33.35Z</time>
      </trkpt>
      <trkpt lat="47.79441" lon="6.57153">
        <ele>416.699</ele>
        <time>2015-06-13T13:59:43.339Z</time>
      </trkpt>
      <trkpt lat="47.79442" lon="6.5715">
        <ele>417.161</ele>
        <time>2015-06-13T13:59:44.348Z</time>
      </trkpt>
      <trkpt lat="47.79448" lon="6.57143">
        <ele>418.549</ele>
        <time>2015-06-13T13:59:47.325Z</time>
      </trkpt>
      <trkpt lat="47.7945" lon="6.5714">
        <ele>418.819</ele>
        <time>2015-06-13T13:59:48.346Z</time>
      </trkpt>
      <trkpt lat="47.79455" lon="6.57129">
        <ele>421.322</ele>
        <time>2015-06-13T13:59:51.334Z</time>
      </trkpt>
      <trkpt lat="47.79456" lon="6.57125">
        <ele>422.232</ele>
        <time>2015-06-13T13:59:52.333Z</time>
      </trkpt>
      <trkpt lat="47.79458" lon="6.57112">
        <ele>424.778</ele>
        <time>2015-06-13T13:59:55.335Z</time>
      </trkpt>
      <trkpt lat="47.79458" lon="6.57109">
        <ele>425.091</ele>
        <time>2015-06-13T13:59:56.336Z</time>
      </trkpt>
      <trkpt lat="47.79461" lon="6.57098">
        <ele>425.725</ele>
        <time>2015-06-13T13:59:59.361Z</time>
      </trkpt>
      <trkpt lat="47.79462" lon="6.57095">
        <ele>426.022</ele>
        <time>2015-06-13T14:00:00.307Z</time>
      </trkpt>
      <trkpt lat="47.79468" lon="6.57088">
        <ele>427.127</ele>
        <time>2015-06-13T14:00:03.33Z</time>
      </trkpt>
      <trkpt lat="47.79471" lon="6.57086">
        <ele>427.613</ele>
        <time>2015-06-13T14:00:04.33Z</time>
      </trkpt>
      <trkpt lat="47.79478" lon="6.57081">
        <ele>427.057</ele>
        <time>2015-06-13T14:00:07.328Z</time>
      </trkpt>
      <trkpt lat="47.7948" lon="6.57078">
        <ele>426.808</ele>
        <time>2015-06-13T14:00:08.351Z</time>
      </trkpt>
      <trkpt lat="47.79486" lon="6.5707">
        <ele>426.477</ele>
        <time>2015-06-13T14:00:12.33Z</time>
      </trkpt>
      <trkpt lat="47.79488" lon="6.57067">
        <ele>426.542</ele>
        <time>2015-06-13T14:00:13.351Z</time>
      </trkpt>
      <trkpt lat="47.79492" lon="6.5706">
        <ele>427.041</ele>
        <time>2015-06-13T14:00:15.356Z</time>
      </trkpt>
      <trkpt lat="47.79495" lon="6.57057">
        <ele>427.48</ele>
        <time>2015-06-13T14:00:16.328Z</time>
      </trkpt>
      <trkpt lat="47.79502" lon="6.57049">
        <ele>428.76</ele>
        <time>2015-06-13T14:00:21.334Z</time>
      </trkpt>
      <trkpt lat="47.79503" lon="6.57047">
        <ele>428.776</ele>
        <time>2015-06-13T14:00:22.365Z</time>
      </trkpt>
      <trkpt lat="47.79509" lon="6.57042">
        <ele>428.768</ele>
        <time>2015-06-13T14:00:25.347Z</time>
      </trkpt>
      <trkpt lat="47.79512" lon="6.5704">
        <ele>428.747</ele>
        <time>2015-06-13T14:00:26.373Z</time>
      </trkpt>
      <trkpt lat="47.79517" lon="6.57036">
        <ele>428.86</ele>
        <time>2015-06-13T14:00:28.34Z</time>
      </trkpt>
      <trkpt lat="47.7952" lon="6.57034">
        <ele>429.105</ele>
        <time>2015-06-13T14:00:29.332Z</time>
      </trkpt>
      <trkpt lat="47.79528" lon="6.57027">
        <ele>429.833</ele>
        <time>2015-06-13T14:00:32.349Z</time>
      </trkpt>
      <trkpt lat="47.7953" lon="6.57026">
        <ele>429.238</ele>
        <time>2015-06-13T14:00:33.284Z</time>
      </trkpt>
      <trkpt lat="47.79538" lon="6.57023">
        <ele>426.102</ele>
        <time>2015-06-13T14:00:37.373Z</time>
      </trkpt>
      <trkpt lat="47.79541" lon="6.5702">
        <ele>425.581</ele>
        <time>2015-06-13T14:00:38.331Z</time>
      </trkpt>
      <trkpt lat="47.79547" lon="6.57013">
        <ele>424.616</ele>
        <time>2015-06-13T14:00:40.385Z</time>
      </trkpt>
      <trkpt lat="47.7955" lon="6.57011">
        <ele>423.871</ele>
        <time>2015-06-13T14:00:41.346Z</time>
      </trkpt>
      <trkpt lat="47.79558" lon="6.57006">
        <ele>422.434</ele>
        <time>2015-06-13T14:00:44.358Z</time>
      </trkpt>
      <trkpt lat="47.79559" lon="6.57002">
        <ele>423.351</ele>
        <time>2015-06-13T14:00:45.356Z</time>
      </trkpt>
      <trkpt lat="47.79562" lon="6.56992">
        <ele>425.075</ele>
        <time>2015-06-13T14:00:48.331Z</time>
      </trkpt>
      <trkpt lat="47.79564" lon="6.5699">
        <ele>425.346</ele>
        <time>2015-06-13T14:00:49.432Z</time>
      </trkpt>
      <trkpt lat="47.79569" lon="6.56979">
        <ele>426.855</ele>
        <time>2015-06-13T14:00:52.338Z</time>
      </trkpt>
      <trkpt lat="47.79571" lon="6.56975">
        <ele>427.73</ele>
        <time>2015-06-13T14:00:53.331Z</time>
      </trkpt>
      <trkpt lat="47.79575" lon="6.56963">
        <ele>428.918</ele>
        <time>2015-06-13T14:00:56.353Z</time>
      </trkpt>
      <trkpt lat="47.79577" lon="6.5696">
        <ele>428.925</ele>
        <time>2015-06-13T14:00:57.332Z</time>
      </trkpt>
      <trkpt lat="47.79582" lon="6.5695">
        <ele>429.53</ele>
        <time>2015-06-13T14:01:00.309Z</time>
      </trkpt>
      <trkpt lat="47.79583" lon="6.56946">
        <ele>429.926</ele>
        <time>2015-06-13T14:01:01.309Z</time>
      </trkpt>
      <trkpt lat="47.79585" lon="6.56936">
        <ele>429.902</ele>
        <time>2015-06-13T14:01:03.338Z</time>
      </trkpt>
      <trkpt lat="47.79586" lon="6.56931">
        <ele>430.017</ele>
        <time>2015-06-13T14:01:04.394Z</time>
      </trkpt>
      <trkpt lat="47.79589" lon="6.56919">
        <ele>429.87</ele>
        <time>2015-06-13T14:01:08.352Z</time>
      </trkpt>
      <trkpt lat="47.79591" lon="6.56916">
        <ele>429.717</ele>
        <time>2015-06-13T14:01:09.345Z</time>
      </trkpt>
      <trkpt lat="47.79588" lon="6.56903">
        <ele>430.949</ele>
        <time>2015-06-13T14:01:13.345Z</time>
      </trkpt>
      <trkpt lat="47.79588" lon="6.569">
        <ele>431.31</ele>
        <time>2015-06-13T14:01:14.338Z</time>
      </trkpt>
      <trkpt lat="47.79587" lon="6.56892">
        <ele>431.705</ele>
        <time>2015-06-13T14:01:17.28Z</time>
      </trkpt>
      <trkpt lat="47.79596" lon="6.56863">
        <ele>430.593</ele>
        <time>2015-06-13T14:01:23.642Z</time>
      </trkpt>
      <trkpt lat="47.79603" lon="6.56864">
        <ele>429.273</ele>
        <time>2015-06-13T14:01:26.713Z</time>
      </trkpt>
      <trkpt lat="47.79605" lon="6.56864">
        <ele>428.865</ele>
        <time>2015-06-13T14:01:27.698Z</time>
      </trkpt>
      <trkpt lat="47.79613" lon="6.56864">
        <ele>427.533</ele>
        <time>2015-06-13T14:01:36.116Z</time>
      </trkpt>
      <trkpt lat="47.79615" lon="6.56863">
        <ele>427.509</ele>
        <time>2015-06-13T14:01:37.2Z</time>
      </trkpt>
      <trkpt lat="47.7962" lon="6.56853">
        <ele>428.662</ele>
        <time>2015-06-13T14:01:40.215Z</time>
      </trkpt>
      <trkpt lat="47.79622" lon="6.56849">
        <ele>429.159</ele>
        <time>2015-06-13T14:01:41.139Z</time>
      </trkpt>
      <trkpt lat="47.79626" lon="6.56839">
        <ele>430.523</ele>
        <time>2015-06-13T14:01:43.117Z</time>
      </trkpt>
      <trkpt lat="47.79629" lon="6.56835">
        <ele>431.118</ele>
        <time>2015-06-13T14:01:44.336Z</time>
      </trkpt>
      <trkpt lat="47.79632" lon="6.5683">
        <ele>431.474</ele>
        <time>2015-06-13T14:01:45.226Z</time>
      </trkpt>
      <trkpt lat="47.79635" lon="6.56824">
        <ele>431.801</ele>
        <time>2015-06-13T14:01:46.214Z</time>
      </trkpt>
      <trkpt lat="47.79638" lon="6.56814">
        <ele>432.453</ele>
        <time>2015-06-13T14:01:48.152Z</time>
      </trkpt>
      <trkpt lat="47.79639" lon="6.56808">
        <ele>432.849</ele>
        <time>2015-06-13T14:01:49.218Z</time>
      </trkpt>
      <trkpt lat="47.79639" lon="6.56797">
        <ele>433.957</ele>
        <time>2015-06-13T14:01:51.195Z</time>
      </trkpt>
      <trkpt lat="47.79639" lon="6.56791">
        <ele>434.573</ele>
        <time>2015-06-13T14:01:52.215Z</time>
      </trkpt>
      <trkpt lat="47.79641" lon="6.56781">
        <ele>435.764</ele>
        <time>2015-06-13T14:01:54.191Z</time>
      </trkpt>
      <trkpt lat="47.79641" lon="6.56777">
        <ele>436.29</ele>
        <time>2015-06-13T14:01:55.153Z</time>
      </trkpt>
      <trkpt lat="47.79643" lon="6.56767">
        <ele>437.456</ele>
        <time>2015-06-13T14:01:57.197Z</time>
      </trkpt>
      <trkpt lat="47.79643" lon="6.56762">
        <ele>437.993</ele>
        <time>2015-06-13T14:01:58.418Z</time>
      </trkpt>
      <trkpt lat="47.79644" lon="6.56752">
        <ele>439.188</ele>
        <time>2015-06-13T14:02:00.166Z</time>
      </trkpt>
      <trkpt lat="47.79647" lon="6.5675">
        <ele>439.58</ele>
        <time>2015-06-13T14:02:01.198Z</time>
      </trkpt>
      <trkpt lat="47.79655" lon="6.56755">
        <ele>439.595</ele>
        <time>2015-06-13T14:02:03.191Z</time>
      </trkpt>
      <trkpt lat="47.79658" lon="6.56759">
        <ele>439.354</ele>
        <time>2015-06-13T14:02:04.191Z</time>
      </trkpt>
      <trkpt lat="47.79663" lon="6.56767">
        <ele>438.958</ele>
        <time>2015-06-13T14:02:06.188Z</time>
      </trkpt>
      <trkpt lat="47.79667" lon="6.56771">
        <ele>438.752</ele>
        <time>2015-06-13T14:02:07.195Z</time>
      </trkpt>
      <trkpt lat="47.79674" lon="6.56782">
        <ele>436.71</ele>
        <time>2015-06-13T14:02:08.224Z</time>
      </trkpt>
      <trkpt lat="47.79676" lon="6.56792">
        <ele>435.259</ele>
        <time>2015-06-13T14:02:09.198Z</time>
      </trkpt>
      <trkpt lat="47.79681" lon="6.56801">
        <ele>433.553</ele>
        <time>2015-06-13T14:02:10.196Z</time>
      </trkpt>
      <trkpt lat="47.7968" lon="6.56816">
        <ele>431.337</ele>
        <time>2015-06-13T14:02:11.279Z</time>
      </trkpt>
      <trkpt lat="47.79683" lon="6.56831">
        <ele>428.789</ele>
        <time>2015-06-13T14:02:12.19Z</time>
      </trkpt>
      <trkpt lat="47.79691" lon="6.56846">
        <ele>428.008</ele>
        <time>2015-06-13T14:02:13.19Z</time>
      </trkpt>
      <trkpt lat="47.79695" lon="6.56859">
        <ele>427.999</ele>
        <time>2015-06-13T14:02:14.191Z</time>
      </trkpt>
      <trkpt lat="47.79699" lon="6.56872">
        <ele>428.457</ele>
        <time>2015-06-13T14:02:15.191Z</time>
      </trkpt>
      <trkpt lat="47.79698" lon="6.56893">
        <ele>429.186</ele>
        <time>2015-06-13T14:02:16.192Z</time>
      </trkpt>
      <trkpt lat="47.79703" lon="6.56906">
        <ele>429.66</ele>
        <time>2015-06-13T14:02:17.198Z</time>
      </trkpt>
      <trkpt lat="47.79702" lon="6.56922">
        <ele>429.684</ele>
        <time>2015-06-13T14:02:18.192Z</time>
      </trkpt>
      <trkpt lat="47.79704" lon="6.56939">
        <ele>429.493</ele>
        <time>2015-06-13T14:02:19.192Z</time>
      </trkpt>
      <trkpt lat="47.79706" lon="6.56953">
        <ele>428.767</ele>
        <time>2015-06-13T14:02:20.191Z</time>
      </trkpt>
      <trkpt lat="47.79711" lon="6.56963">
        <ele>427.82</ele>
        <time>2015-06-13T14:02:21.192Z</time>
      </trkpt>
      <trkpt lat="47.79715" lon="6.56975">
        <ele>426.662</ele>
        <time>2015-06-13T14:02:22.198Z</time>
      </trkpt>
      <trkpt lat="47.79721" lon="6.56986">
        <ele>426.471</ele>
        <time>2015-06-13T14:02:23.192Z</time>
      </trkpt>
      <trkpt lat="47.79726" lon="6.57">
        <ele>426.727</ele>
        <time>2015-06-13T14:02:24.191Z</time>
      </trkpt>
      <trkpt lat="47.79729" lon="6.5701">
        <ele>426.069</ele>
        <time>2015-06-13T14:02:25.191Z</time>
      </trkpt>
      <trkpt lat="47.79732" lon="6.5702">
        <ele>425.352</ele>
        <time>2015-06-13T14:02:26.191Z</time>
      </trkpt>
      <trkpt lat="47.79736" lon="6.5703">
        <ele>424.862</ele>
        <time>2015-06-13T14:02:27.19Z</time>
      </trkpt>
      <trkpt lat="47.79743" lon="6.57039">
        <ele>425.071</ele>
        <time>2015-06-13T14:02:28.191Z</time>
      </trkpt>
      <trkpt lat="47.79747" lon="6.57048">
        <ele>424.641</ele>
        <time>2015-06-13T14:02:29.214Z</time>
      </trkpt>
      <trkpt lat="47.79753" lon="6.57059">
        <ele>424.138</ele>
        <time>2015-06-13T14:02:30.19Z</time>
      </trkpt>
      <trkpt lat="47.79763" lon="6.57073">
        <ele>425.085</ele>
        <time>2015-06-13T14:02:31.188Z</time>
      </trkpt>
      <trkpt lat="47.79773" lon="6.57078">
        <ele>426.096</ele>
        <time>2015-06-13T14:02:32.188Z</time>
      </trkpt>
      <trkpt lat="47.79781" lon="6.57079">
        <ele>426.586</ele>
        <time>2015-06-13T14:02:33.188Z</time>
      </trkpt>
      <trkpt lat="47.79791" lon="6.5709">
        <ele>426.552</ele>
        <time>2015-06-13T14:02:34.199Z</time>
      </trkpt>
      <trkpt lat="47.79796" lon="6.57109">
        <ele>426.05</ele>
        <time>2015-06-13T14:02:35.188Z</time>
      </trkpt>
      <trkpt lat="47.79792" lon="6.5712">
        <ele>426.051</ele>
        <time>2015-06-13T14:02:37.188Z</time>
      </trkpt>
      <trkpt lat="47.798" lon="6.57133">
        <ele>424.174</ele>
        <time>2015-06-13T14:02:38.194Z</time>
      </trkpt>
      <trkpt lat="47.79805" lon="6.57145">
        <ele>422.839</ele>
        <time>2015-06-13T14:02:39.188Z</time>
      </trkpt>
      <trkpt lat="47.79808" lon="6.57151">
        <ele>422.467</ele>
        <time>2015-06-13T14:02:40.212Z</time>
      </trkpt>
      <trkpt lat="47.79811" lon="6.57164">
        <ele>422.056</ele>
        <time>2015-06-13T14:02:41.188Z</time>
      </trkpt>
      <trkpt lat="47.79818" lon="6.57173">
        <ele>422</ele>
        <time>2015-06-13T14:02:42.188Z</time>
      </trkpt>
      <trkpt lat="47.79824" lon="6.57186">
        <ele>422</ele>
        <time>2015-06-13T14:02:43.19Z</time>
      </trkpt>
      <trkpt lat="47.79823" lon="6.57192">
        <ele>422</ele>
        <time>2015-06-13T14:02:44.19Z</time>
      </trkpt>
      <trkpt lat="47.7983" lon="6.57201">
        <ele>422.09</ele>
        <time>2015-06-13T14:02:45.192Z</time>
      </trkpt>
      <trkpt lat="47.7984" lon="6.5721">
        <ele>422.343</ele>
        <time>2015-06-13T14:02:46.188Z</time>
      </trkpt>
      <trkpt lat="47.79863" lon="6.57221">
        <ele>422.987</ele>
        <time>2015-06-13T14:02:47.19Z</time>
      </trkpt>
      <trkpt lat="47.79871" lon="6.57237">
        <ele>424.56</ele>
        <time>2015-06-13T14:02:48.193Z</time>
      </trkpt>
      <trkpt lat="47.79871" lon="6.57247">
        <ele>425.19</ele>
        <time>2015-06-13T14:02:49.192Z</time>
      </trkpt>
      <trkpt lat="47.79863" lon="6.57256">
        <ele>424.429</ele>
        <time>2015-06-13T14:02:50.188Z</time>
      </trkpt>
      <trkpt lat="47.79868" lon="6.5727">
        <ele>423.454</ele>
        <time>2015-06-13T14:02:51.196Z</time>
      </trkpt>
      <trkpt lat="47.79866" lon="6.57274">
        <ele>422.8</ele>
        <time>2015-06-13T14:02:52.198Z</time>
      </trkpt>
      <trkpt lat="47.79878" lon="6.57281">
        <ele>423.129</ele>
        <time>2015-06-13T14:02:53.187Z</time>
      </trkpt>
      <trkpt lat="47.79883" lon="6.57289">
        <ele>421.726</ele>
        <time>2015-06-13T14:02:54.19Z</time>
      </trkpt>
      <trkpt lat="47.79892" lon="6.57299">
        <ele>418.99</ele>
        <time>2015-06-13T14:02:55.19Z</time>
      </trkpt>
      <trkpt lat="47.79901" lon="6.57307">
        <ele>415.472</ele>
        <time>2015-06-13T14:02:56.21Z</time>
      </trkpt>
      <trkpt lat="47.79908" lon="6.57313">
        <ele>412.995</ele>
        <time>2015-06-13T14:02:57.188Z</time>
      </trkpt>
      <trkpt lat="47.79915" lon="6.57314">
        <ele>412.018</ele>
        <time>2015-06-13T14:02:58.188Z</time>
      </trkpt>
      <trkpt lat="47.79927" lon="6.5732">
        <ele>411.031</ele>
        <time>2015-06-13T14:02:59.188Z</time>
      </trkpt>
      <trkpt lat="47.79936" lon="6.57317">
        <ele>411.685</ele>
        <time>2015-06-13T14:03:00.155Z</time>
      </trkpt>
      <trkpt lat="47.79942" lon="6.57315">
        <ele>412.23</ele>
        <time>2015-06-13T14:03:01.185Z</time>
      </trkpt>
      <trkpt lat="47.79953" lon="6.57319">
        <ele>412.283</ele>
        <time>2015-06-13T14:03:02.192Z</time>
      </trkpt>
      <trkpt lat="47.79957" lon="6.57324">
        <ele>411.936</ele>
        <time>2015-06-13T14:03:03.189Z</time>
      </trkpt>
      <trkpt lat="47.79962" lon="6.57327">
        <ele>411.825</ele>
        <time>2015-06-13T14:03:04.198Z</time>
      </trkpt>
      <trkpt lat="47.79967" lon="6.5733">
        <ele>411.985</ele>
        <time>2015-06-13T14:03:05.187Z</time>
      </trkpt>
      <trkpt lat="47.79974" lon="6.57331">
        <ele>412.426</ele>
        <time>2015-06-13T14:03:06.199Z</time>
      </trkpt>
      <trkpt lat="47.79978" lon="6.57336">
        <ele>412.09</ele>
        <time>2015-06-13T14:03:07.191Z</time>
      </trkpt>
      <trkpt lat="47.79984" lon="6.5734">
        <ele>411.885</ele>
        <time>2015-06-13T14:03:08.222Z</time>
      </trkpt>
      <trkpt lat="47.79991" lon="6.57341">
        <ele>411.88</ele>
        <time>2015-06-13T14:03:09.183Z</time>
      </trkpt>
      <trkpt lat="47.79998" lon="6.57346">
        <ele>411.246</ele>
        <time>2015-06-13T14:03:10.186Z</time>
      </trkpt>
      <trkpt lat="47.80003" lon="6.57352">
        <ele>410.108</ele>
        <time>2015-06-13T14:03:11.195Z</time>
      </trkpt>
      <trkpt lat="47.80009" lon="6.57356">
        <ele>409.032</ele>
        <time>2015-06-13T14:03:12.192Z</time>
      </trkpt>
      <trkpt lat="47.80015" lon="6.57358">
        <ele>408.111</ele>
        <time>2015-06-13T14:03:13.191Z</time>
      </trkpt>
      <trkpt lat="47.80023" lon="6.57352">
        <ele>408.736</ele>
        <time>2015-06-13T14:03:14.193Z</time>
      </trkpt>
      <trkpt lat="47.80031" lon="6.57343">
        <ele>410.102</ele>
        <time>2015-06-13T14:03:15.157Z</time>
      </trkpt>
      <trkpt lat="47.80035" lon="6.57344">
        <ele>409.46</ele>
        <time>2015-06-13T14:03:16.191Z</time>
      </trkpt>
      <trkpt lat="47.80041" lon="6.57342">
        <ele>409.285</ele>
        <time>2015-06-13T14:03:17.215Z</time>
      </trkpt>
      <trkpt lat="47.80047" lon="6.57338">
        <ele>409.567</ele>
        <time>2015-06-13T14:03:18.202Z</time>
      </trkpt>
      <trkpt lat="47.80055" lon="6.57335">
        <ele>409.597</ele>
        <time>2015-06-13T14:03:19.19Z</time>
      </trkpt>
      <trkpt lat="47.8006" lon="6.57334">
        <ele>408.659</ele>
        <time>2015-06-13T14:03:20.15Z</time>
      </trkpt>
      <trkpt lat="47.80066" lon="6.57333">
        <ele>407.514</ele>
        <time>2015-06-13T14:03:21.195Z</time>
      </trkpt>
      <trkpt lat="47.80072" lon="6.57337">
        <ele>405.379</ele>
        <time>2015-06-13T14:03:23.192Z</time>
      </trkpt>
      <trkpt lat="47.80075" lon="6.57337">
        <ele>404.624</ele>
        <time>2015-06-13T14:03:24.192Z</time>
      </trkpt>
      <trkpt lat="47.8008" lon="6.57337">
        <ele>403.268</ele>
        <time>2015-06-13T14:03:25.218Z</time>
      </trkpt>
      <trkpt lat="47.80084" lon="6.57342">
        <ele>402.174</ele>
        <time>2015-06-13T14:03:26.177Z</time>
      </trkpt>
      <trkpt lat="47.80092" lon="6.57329">
        <ele>405.402</ele>
        <time>2015-06-13T14:03:27.193Z</time>
      </trkpt>
      <trkpt lat="47.80099" lon="6.57324">
        <ele>407.426</ele>
        <time>2015-06-13T14:03:29.192Z</time>
      </trkpt>
      <trkpt lat="47.80102" lon="6.57324">
        <ele>407.597</ele>
        <time>2015-06-13T14:03:30.218Z</time>
      </trkpt>
      <trkpt lat="47.80114" lon="6.57309">
        <ele>412.286</ele>
        <time>2015-06-13T14:03:31.193Z</time>
      </trkpt>
      <trkpt lat="47.80118" lon="6.57312">
        <ele>411.961</ele>
        <time>2015-06-13T14:03:32.197Z</time>
      </trkpt>
      <trkpt lat="47.80123" lon="6.57331">
        <ele>408.584</ele>
        <time>2015-06-13T14:03:33.364Z</time>
      </trkpt>
      <trkpt lat="47.80123" lon="6.57341">
        <ele>408.105</ele>
        <time>2015-06-13T14:03:35.193Z</time>
      </trkpt>
      <trkpt lat="47.80132" lon="6.57352">
        <ele>410.423</ele>
        <time>2015-06-13T14:03:36.192Z</time>
      </trkpt>
      <trkpt lat="47.8014" lon="6.57354">
        <ele>412.563</ele>
        <time>2015-06-13T14:03:37.193Z</time>
      </trkpt>
      <trkpt lat="47.80145" lon="6.5736">
        <ele>412.962</ele>
        <time>2015-06-13T14:03:38.192Z</time>
      </trkpt>
      <trkpt lat="47.80148" lon="6.57369">
        <ele>412.209</ele>
        <time>2015-06-13T14:03:39.192Z</time>
      </trkpt>
      <trkpt lat="47.80141" lon="6.57382">
        <ele>410.12</ele>
        <time>2015-06-13T14:03:40.192Z</time>
      </trkpt>
      <trkpt lat="47.80142" lon="6.5739">
        <ele>409.22</ele>
        <time>2015-06-13T14:03:41.195Z</time>
      </trkpt>
      <trkpt lat="47.80141" lon="6.57397">
        <ele>408.494</ele>
        <time>2015-06-13T14:03:42.188Z</time>
      </trkpt>
      <trkpt lat="47.80141" lon="6.57408">
        <ele>407.52</ele>
        <time>2015-06-13T14:03:44.213Z</time>
      </trkpt>
      <trkpt lat="47.80144" lon="6.57412">
        <ele>408.07</ele>
        <time>2015-06-13T14:03:45.188Z</time>
      </trkpt>
      <trkpt lat="47.80149" lon="6.57424">
        <ele>409.776</ele>
        <time>2015-06-13T14:03:48.188Z</time>
      </trkpt>
      <trkpt lat="47.80149" lon="6.57428">
        <ele>410.218</ele>
        <time>2015-06-13T14:03:49.189Z</time>
      </trkpt>
      <trkpt lat="47.80146" lon="6.5744">
        <ele>410.472</ele>
        <time>2015-06-13T14:03:52.189Z</time>
      </trkpt>
      <trkpt lat="47.80145" lon="6.57444">
        <ele>410.763</ele>
        <time>2015-06-13T14:03:53.188Z</time>
      </trkpt>
      <trkpt lat="47.80144" lon="6.57453">
        <ele>411.406</ele>
        <time>2015-06-13T14:03:55.193Z</time>
      </trkpt>
      <trkpt lat="47.80144" lon="6.57458">
        <ele>411.932</ele>
        <time>2015-06-13T14:03:56.191Z</time>
      </trkpt>
      <trkpt lat="47.80146" lon="6.57468">
        <ele>413.173</ele>
        <time>2015-06-13T14:03:58.192Z</time>
      </trkpt>
      <trkpt lat="47.80147" lon="6.57474">
        <ele>413.578</ele>
        <time>2015-06-13T14:03:59.192Z</time>
      </trkpt>
      <trkpt lat="47.80149" lon="6.57486">
        <ele>413.682</ele>
        <time>2015-06-13T14:04:01.187Z</time>
      </trkpt>
      <trkpt lat="47.80151" lon="6.57492">
        <ele>413.653</ele>
        <time>2015-06-13T14:04:02.156Z</time>
      </trkpt>
      <trkpt lat="47.80152" lon="6.57499">
        <ele>413.55</ele>
        <time>2015-06-13T14:04:03.191Z</time>
      </trkpt>
      <trkpt lat="47.8015" lon="6.57507">
        <ele>413.385</ele>
        <time>2015-06-13T14:04:04.191Z</time>
      </trkpt>
      <trkpt lat="47.8015" lon="6.57517">
        <ele>413.098</ele>
        <time>2015-06-13T14:04:06.191Z</time>
      </trkpt>
      <trkpt lat="47.8015" lon="6.57523">
        <ele>412.932</ele>
        <time>2015-06-13T14:04:07.191Z</time>
      </trkpt>
      <trkpt lat="47.8015" lon="6.57534">
        <ele>412.973</ele>
        <time>2015-06-13T14:04:08.199Z</time>
      </trkpt>
      <trkpt lat="47.8015" lon="6.5754">
        <ele>413.236</ele>
        <time>2015-06-13T14:04:09.192Z</time>
      </trkpt>
      <trkpt lat="47.80154" lon="6.5755">
        <ele>412.606</ele>
        <time>2015-06-13T14:04:10.197Z</time>
      </trkpt>
      <trkpt lat="47.80152" lon="6.57554">
        <ele>413.163</ele>
        <time>2015-06-13T14:04:11.175Z</time>
      </trkpt>
      <trkpt lat="47.80156" lon="6.57562">
        <ele>411.747</ele>
        <time>2015-06-13T14:04:12.191Z</time>
      </trkpt>
      <trkpt lat="47.80163" lon="6.57569">
        <ele>409.883</ele>
        <time>2015-06-13T14:04:13.192Z</time>
      </trkpt>
      <trkpt lat="47.80165" lon="6.57573">
        <ele>409.075</ele>
        <time>2015-06-13T14:04:14.192Z</time>
      </trkpt>
      <trkpt lat="47.80172" lon="6.57578">
        <ele>408.312</ele>
        <time>2015-06-13T14:04:15.193Z</time>
      </trkpt>
      <trkpt lat="47.80178" lon="6.57585">
        <ele>408.042</ele>
        <time>2015-06-13T14:04:16.191Z</time>
      </trkpt>
      <trkpt lat="47.8018" lon="6.57592">
        <ele>408.163</ele>
        <time>2015-06-13T14:04:17.193Z</time>
      </trkpt>
      <trkpt lat="47.80185" lon="6.57596">
        <ele>408.033</ele>
        <time>2015-06-13T14:04:18.201Z</time>
      </trkpt>
      <trkpt lat="47.80189" lon="6.576">
        <ele>407.751</ele>
        <time>2015-06-13T14:04:19.188Z</time>
      </trkpt>
      <trkpt lat="47.80194" lon="6.57605">
        <ele>407.246</ele>
        <time>2015-06-13T14:04:20.212Z</time>
      </trkpt>
      <trkpt lat="47.80199" lon="6.57609">
        <ele>407.359</ele>
        <time>2015-06-13T14:04:21.213Z</time>
      </trkpt>
      <trkpt lat="47.80206" lon="6.57612">
        <ele>407.79</ele>
        <time>2015-06-13T14:04:23.193Z</time>
      </trkpt>
      <trkpt lat="47.80211" lon="6.57618">
        <ele>407.71</ele>
        <time>2015-06-13T14:04:24.192Z</time>
      </trkpt>
      <trkpt lat="47.80214" lon="6.57627">
        <ele>407.224</ele>
        <time>2015-06-13T14:04:25.189Z</time>
      </trkpt>
      <trkpt lat="47.80217" lon="6.57633">
        <ele>406.714</ele>
        <time>2015-06-13T14:04:26.192Z</time>
      </trkpt>
      <trkpt lat="47.80216" lon="6.57637">
        <ele>406.352</ele>
        <time>2015-06-13T14:04:27.191Z</time>
      </trkpt>
      <trkpt lat="47.80218" lon="6.57647">
        <ele>406.395</ele>
        <time>2015-06-13T14:04:28.187Z</time>
      </trkpt>
      <trkpt lat="47.80217" lon="6.57656">
        <ele>406.687</ele>
        <time>2015-06-13T14:04:29.188Z</time>
      </trkpt>
      <trkpt lat="47.80212" lon="6.57665">
        <ele>406.951</ele>
        <time>2015-06-13T14:04:30.166Z</time>
      </trkpt>
      <trkpt lat="47.80212" lon="6.57673">
        <ele>407.368</ele>
        <time>2015-06-13T14:04:31.188Z</time>
      </trkpt>
      <trkpt lat="47.8021" lon="6.5768">
        <ele>407.737</ele>
        <time>2015-06-13T14:04:32.188Z</time>
      </trkpt>
      <trkpt lat="47.80211" lon="6.57688">
        <ele>408.208</ele>
        <time>2015-06-13T14:04:34.194Z</time>
      </trkpt>
      <trkpt lat="47.80212" lon="6.57693">
        <ele>408.568</ele>
        <time>2015-06-13T14:04:35.167Z</time>
      </trkpt>
      <trkpt lat="47.80213" lon="6.57704">
        <ele>409.614</ele>
        <time>2015-06-13T14:04:39.191Z</time>
      </trkpt>
      <trkpt lat="47.80213" lon="6.57709">
        <ele>410.048</ele>
        <time>2015-06-13T14:04:40.185Z</time>
      </trkpt>
      <trkpt lat="47.80217" lon="6.57719">
        <ele>411.294</ele>
        <time>2015-06-13T14:04:43.191Z</time>
      </trkpt>
      <trkpt lat="47.80218" lon="6.57723">
        <ele>411.623</ele>
        <time>2015-06-13T14:04:44.192Z</time>
      </trkpt>
      <trkpt lat="47.80223" lon="6.57733">
        <ele>411.189</ele>
        <time>2015-06-13T14:04:47.191Z</time>
      </trkpt>
      <trkpt lat="47.80225" lon="6.57736">
        <ele>410.799</ele>
        <time>2015-06-13T14:04:48.224Z</time>
      </trkpt>
      <trkpt lat="47.80233" lon="6.57743">
        <ele>410.137</ele>
        <time>2015-06-13T14:04:51.191Z</time>
      </trkpt>
      <trkpt lat="47.80236" lon="6.57743">
        <ele>410.007</ele>
        <time>2015-06-13T14:04:52.192Z</time>
      </trkpt>
      <trkpt lat="47.80244" lon="6.57747">
        <ele>409.89</ele>
        <time>2015-06-13T14:04:54.19Z</time>
      </trkpt>
      <trkpt lat="47.80248" lon="6.57751">
        <ele>410</ele>
        <time>2015-06-13T14:04:55.19Z</time>
      </trkpt>
      <trkpt lat="47.80253" lon="6.57755">
        <ele>409.564</ele>
        <time>2015-06-13T14:04:56.191Z</time>
      </trkpt>
      <trkpt lat="47.80265" lon="6.5776">
        <ele>408.209</ele>
        <time>2015-06-13T14:04:57.19Z</time>
      </trkpt>
      <trkpt lat="47.80269" lon="6.57767">
        <ele>408.076</ele>
        <time>2015-06-13T14:04:58.188Z</time>
      </trkpt>
      <trkpt lat="47.80275" lon="6.57773">
        <ele>407.905</ele>
        <time>2015-06-13T14:04:59.203Z</time>
      </trkpt>
      <trkpt lat="47.80283" lon="6.57772">
        <ele>408.006</ele>
        <time>2015-06-13T14:05:01.188Z</time>
      </trkpt>
      <trkpt lat="47.80287" lon="6.57772">
        <ele>408.367</ele>
        <time>2015-06-13T14:05:02.195Z</time>
      </trkpt>
      <trkpt lat="47.80295" lon="6.5777">
        <ele>408.829</ele>
        <time>2015-06-13T14:05:04.189Z</time>
      </trkpt>
      <trkpt lat="47.803" lon="6.57766">
        <ele>409.065</ele>
        <time>2015-06-13T14:05:05.183Z</time>
      </trkpt>
      <trkpt lat="47.80303" lon="6.57755">
        <ele>408.953</ele>
        <time>2015-06-13T14:05:09.196Z</time>
      </trkpt>
      <trkpt lat="47.80302" lon="6.57752">
        <ele>408.713</ele>
        <time>2015-06-13T14:05:10.193Z</time>
      </trkpt>
      <trkpt lat="47.80305" lon="6.57742">
        <ele>408.679</ele>
        <time>2015-06-13T14:05:14.221Z</time>
      </trkpt>
      <trkpt lat="47.80307" lon="6.5774">
        <ele>409.081</ele>
        <time>2015-06-13T14:05:15.23Z</time>
      </trkpt>
      <trkpt lat="47.80312" lon="6.57736">
        <ele>410.943</ele>
        <time>2015-06-13T14:05:18.175Z</time>
      </trkpt>
      <trkpt lat="47.80316" lon="6.57736">
        <ele>412.17</ele>
        <time>2015-06-13T14:05:19.205Z</time>
      </trkpt>
      <trkpt lat="47.80322" lon="6.57731">
        <ele>413.876</ele>
        <time>2015-06-13T14:05:21.194Z</time>
      </trkpt>
      <trkpt lat="47.80325" lon="6.57728">
        <ele>414.613</ele>
        <time>2015-06-13T14:05:22.198Z</time>
      </trkpt>
      <trkpt lat="47.80331" lon="6.57722">
        <ele>416.165</ele>
        <time>2015-06-13T14:05:24.198Z</time>
      </trkpt>
      <trkpt lat="47.80333" lon="6.5772">
        <ele>416.718</ele>
        <time>2015-06-13T14:05:25.223Z</time>
      </trkpt>
      <trkpt lat="47.80336" lon="6.57718">
        <ele>416.789</ele>
        <time>2015-06-13T14:05:26.223Z</time>
      </trkpt>
      <trkpt lat="47.80345" lon="6.57717">
        <ele>418.06</ele>
        <time>2015-06-13T14:05:30.198Z</time>
      </trkpt>
      <trkpt lat="47.80351" lon="6.5772">
        <ele>419.2</ele>
        <time>2015-06-13T14:05:32.187Z</time>
      </trkpt>
      <trkpt lat="47.80354" lon="6.57722">
        <ele>419.903</ele>
        <time>2015-06-13T14:05:33.198Z</time>
      </trkpt>
      <trkpt lat="47.8036" lon="6.57727">
        <ele>421.092</ele>
        <time>2015-06-13T14:05:35.22Z</time>
      </trkpt>
      <trkpt lat="47.80362" lon="6.57729">
        <ele>421.436</ele>
        <time>2015-06-13T14:05:36.207Z</time>
      </trkpt>
      <trkpt lat="47.80371" lon="6.57728">
        <ele>420.332</ele>
        <time>2015-06-13T14:05:42.222Z</time>
      </trkpt>
      <trkpt lat="47.80372" lon="6.57727">
        <ele>420.112</ele>
        <time>2015-06-13T14:05:43.193Z</time>
      </trkpt>
      <trkpt lat="47.80387" lon="6.57718">
        <ele>417.746</ele>
        <time>2015-06-13T14:05:49.195Z</time>
      </trkpt>
      <trkpt lat="47.80394" lon="6.57714">
        <ele>416.484</ele>
        <time>2015-06-13T14:05:51.188Z</time>
      </trkpt>
      <trkpt lat="47.80397" lon="6.57714">
        <ele>415.985</ele>
        <time>2015-06-13T14:05:52.198Z</time>
      </trkpt>
      <trkpt lat="47.80405" lon="6.57711">
        <ele>414.873</ele>
        <time>2015-06-13T14:05:54.194Z</time>
      </trkpt>
      <trkpt lat="47.80409" lon="6.5771">
        <ele>414.378</ele>
        <time>2015-06-13T14:05:55.193Z</time>
      </trkpt>
      <trkpt lat="47.80415" lon="6.57706">
        <ele>413.736</ele>
        <time>2015-06-13T14:05:58.194Z</time>
      </trkpt>
      <trkpt lat="47.80418" lon="6.57706">
        <ele>413.704</ele>
        <time>2015-06-13T14:05:59.196Z</time>
      </trkpt>
      <trkpt lat="47.80424" lon="6.57708">
        <ele>414.575</ele>
        <time>2015-06-13T14:06:02.224Z</time>
      </trkpt>
      <trkpt lat="47.80427" lon="6.57709">
        <ele>414.914</ele>
        <time>2015-06-13T14:06:03.193Z</time>
      </trkpt>
      <trkpt lat="47.80433" lon="6.57709">
        <ele>415.814</ele>
        <time>2015-06-13T14:06:05.214Z</time>
      </trkpt>
      <trkpt lat="47.80436" lon="6.57709">
        <ele>416.235</ele>
        <time>2015-06-13T14:06:06.19Z</time>
      </trkpt>
      <trkpt lat="47.80442" lon="6.57718">
        <ele>416.746</ele>
        <time>2015-06-13T14:06:11.148Z</time>
      </trkpt>
      <trkpt lat="47.80443" lon="6.57718">
        <ele>416.958</ele>
        <time>2015-06-13T14:06:12.198Z</time>
      </trkpt>
      <trkpt lat="47.80451" lon="6.57719">
        <ele>418.872</ele>
        <time>2015-06-13T14:06:16.198Z</time>
      </trkpt>
      <trkpt lat="47.80454" lon="6.57718">
        <ele>419.546</ele>
        <time>2015-06-13T14:06:17.197Z</time>
      </trkpt>
      <trkpt lat="47.80462" lon="6.57712">
        <ele>421.895</ele>
        <time>2015-06-13T14:06:21.221Z</time>
      </trkpt>
      <trkpt lat="47.80464" lon="6.5771">
        <ele>422.589</ele>
        <time>2015-06-13T14:06:22.218Z</time>
      </trkpt>
      <trkpt lat="47.80468" lon="6.57703">
        <ele>424.243</ele>
        <time>2015-06-13T14:06:24.199Z</time>
      </trkpt>
      <trkpt lat="47.8047" lon="6.577">
        <ele>425.095</ele>
        <time>2015-06-13T14:06:25.149Z</time>
      </trkpt>
      <trkpt lat="47.80476" lon="6.5769">
        <ele>426.853</ele>
        <time>2015-06-13T14:06:28.198Z</time>
      </trkpt>
      <trkpt lat="47.80479" lon="6.57689">
        <ele>427.393</ele>
        <time>2015-06-13T14:06:29.198Z</time>
      </trkpt>
      <trkpt lat="47.80486" lon="6.57682">
        <ele>429.013</ele>
        <time>2015-06-13T14:06:34.199Z</time>
      </trkpt>
      <trkpt lat="47.80486" lon="6.57681">
        <ele>429.092</ele>
        <time>2015-06-13T14:06:35.202Z</time>
      </trkpt>
      <trkpt lat="47.80493" lon="6.57672">
        <ele>430.324</ele>
        <time>2015-06-13T14:06:42.364Z</time>
      </trkpt>
      <trkpt lat="47.80495" lon="6.57669">
        <ele>430.846</ele>
        <time>2015-06-13T14:06:43.205Z</time>
      </trkpt>
      <trkpt lat="47.80502" lon="6.57663">
        <ele>433.009</ele>
        <time>2015-06-13T14:06:45.194Z</time>
      </trkpt>
      <trkpt lat="47.80505" lon="6.5766">
        <ele>434.554</ele>
        <time>2015-06-13T14:06:46.203Z</time>
      </trkpt>
      <trkpt lat="47.80509" lon="6.57657">
        <ele>436.596</ele>
        <time>2015-06-13T14:06:47.195Z</time>
      </trkpt>
      <trkpt lat="47.80514" lon="6.57653">
        <ele>439.082</ele>
        <time>2015-06-13T14:06:48.196Z</time>
      </trkpt>
      <trkpt lat="47.80518" lon="6.57651">
        <ele>441.32</ele>
        <time>2015-06-13T14:06:49.216Z</time>
      </trkpt>
      <trkpt lat="47.80522" lon="6.57649">
        <ele>444.035</ele>
        <time>2015-06-13T14:06:50.194Z</time>
      </trkpt>
      <trkpt lat="47.80531" lon="6.57646">
        <ele>448.209</ele>
        <time>2015-06-13T14:06:52.203Z</time>
      </trkpt>
      <trkpt lat="47.80535" lon="6.57643">
        <ele>449.284</ele>
        <time>2015-06-13T14:06:53.197Z</time>
      </trkpt>
      <trkpt lat="47.80542" lon="6.57637">
        <ele>450.948</ele>
        <time>2015-06-13T14:06:57.204Z</time>
      </trkpt>
      <trkpt lat="47.80542" lon="6.57636">
        <ele>451.045</ele>
        <time>2015-06-13T14:06:58.198Z</time>
      </trkpt>
      <trkpt lat="47.80545" lon="6.57626">
        <ele>451.458</ele>
        <time>2015-06-13T14:07:00.16Z</time>
      </trkpt>
      <trkpt lat="47.80546" lon="6.57621">
        <ele>451.753</ele>
        <time>2015-06-13T14:07:01.197Z</time>
      </trkpt>
      <trkpt lat="47.80548" lon="6.5761">
        <ele>452.337</ele>
        <time>2015-06-13T14:07:04.197Z</time>
      </trkpt>
      <trkpt lat="47.80548" lon="6.57606">
        <ele>452.15</ele>
        <time>2015-06-13T14:07:05.23Z</time>
      </trkpt>
      <trkpt lat="47.80548" lon="6.57596">
        <ele>451.651</ele>
        <time>2015-06-13T14:07:08.198Z</time>
      </trkpt>
      <trkpt lat="47.80548" lon="6.57592">
        <ele>451.426</ele>
        <time>2015-06-13T14:07:09.214Z</time>
      </trkpt>
      <trkpt lat="47.80548" lon="6.57589">
        <ele>451.415</ele>
        <time>2015-06-13T14:07:10.202Z</time>
      </trkpt>
      <trkpt lat="47.80613" lon="6.57322">
        <ele>449.828</ele>
        <time>2015-06-13T14:08:24.212Z</time>
      </trkpt>
      <trkpt lat="47.8061" lon="6.57305">
        <ele>450.282</ele>
        <time>2015-06-13T14:08:25.198Z</time>
      </trkpt>
      <trkpt lat="47.80611" lon="6.57294">
        <ele>449.213</ele>
        <time>2015-06-13T14:08:27.187Z</time>
      </trkpt>
      <trkpt lat="47.80606" lon="6.57289">
        <ele>450.016</ele>
        <time>2015-06-13T14:08:28.201Z</time>
      </trkpt>
      <trkpt lat="47.80603" lon="6.57279">
        <ele>449.932</ele>
        <time>2015-06-13T14:08:29.212Z</time>
      </trkpt>
      <trkpt lat="47.80596" lon="6.5727">
        <ele>450.456</ele>
        <time>2015-06-13T14:08:30.2Z</time>
      </trkpt>
      <trkpt lat="47.80598" lon="6.57263">
        <ele>449.236</ele>
        <time>2015-06-13T14:08:31.197Z</time>
      </trkpt>
      <trkpt lat="47.80607" lon="6.57261">
        <ele>447</ele>
        <time>2015-06-13T14:08:32.213Z</time>
      </trkpt>
      <trkpt lat="47.80612" lon="6.57254">
        <ele>445.389</ele>
        <time>2015-06-13T14:08:33.199Z</time>
      </trkpt>
      <trkpt lat="47.80621" lon="6.5725">
        <ele>445.317</ele>
        <time>2015-06-13T14:08:34.202Z</time>
      </trkpt>
      <trkpt lat="47.80622" lon="6.57242">
        <ele>444.847</ele>
        <time>2015-06-13T14:08:35.197Z</time>
      </trkpt>
      <trkpt lat="47.80622" lon="6.57236">
        <ele>444.484</ele>
        <time>2015-06-13T14:08:36.212Z</time>
      </trkpt>
      <trkpt lat="47.80625" lon="6.57225">
        <ele>444.106</ele>
        <time>2015-06-13T14:08:38.198Z</time>
      </trkpt>
      <trkpt lat="47.80626" lon="6.5722">
        <ele>444.088</ele>
        <time>2015-06-13T14:08:39.199Z</time>
      </trkpt>
      <trkpt lat="47.80628" lon="6.57208">
        <ele>444.049</ele>
        <time>2015-06-13T14:08:41.221Z</time>
      </trkpt>
      <trkpt lat="47.80628" lon="6.57202">
        <ele>443.771</ele>
        <time>2015-06-13T14:08:42.198Z</time>
      </trkpt>
      <trkpt lat="47.80627" lon="6.57189">
        <ele>443.829</ele>
        <time>2015-06-13T14:08:44.221Z</time>
      </trkpt>
      <trkpt lat="47.8063" lon="6.57182">
        <ele>444.734</ele>
        <time>2015-06-13T14:08:45.204Z</time>
      </trkpt>
      <trkpt lat="47.80632" lon="6.57176">
        <ele>445.773</ele>
        <time>2015-06-13T14:08:46.202Z</time>
      </trkpt>
      <trkpt lat="47.80636" lon="6.57169">
        <ele>447.063</ele>
        <time>2015-06-13T14:08:47.206Z</time>
      </trkpt>
      <trkpt lat="47.80639" lon="6.57162">
        <ele>446.972</ele>
        <time>2015-06-13T14:08:48.208Z</time>
      </trkpt>
      <trkpt lat="47.80642" lon="6.57156">
        <ele>445.308</ele>
        <time>2015-06-13T14:08:49.199Z</time>
      </trkpt>
      <trkpt lat="47.80644" lon="6.57149">
        <ele>443.927</ele>
        <time>2015-06-13T14:08:50.197Z</time>
      </trkpt>
      <trkpt lat="47.80644" lon="6.57142">
        <ele>442.761</ele>
        <time>2015-06-13T14:08:51.235Z</time>
      </trkpt>
      <trkpt lat="47.80645" lon="6.57136">
        <ele>442.303</ele>
        <time>2015-06-13T14:08:52.207Z</time>
      </trkpt>
      <trkpt lat="47.80644" lon="6.57128">
        <ele>442.499</ele>
        <time>2015-06-13T14:08:53.204Z</time>
      </trkpt>
      <trkpt lat="47.80645" lon="6.57117">
        <ele>442.832</ele>
        <time>2015-06-13T14:08:55.134Z</time>
      </trkpt>
      <trkpt lat="47.80647" lon="6.57112">
        <ele>442.982</ele>
        <time>2015-06-13T14:08:56.196Z</time>
      </trkpt>
      <trkpt lat="47.80648" lon="6.57101">
        <ele>443.738</ele>
        <time>2015-06-13T14:08:58.194Z</time>
      </trkpt>
      <trkpt lat="47.80648" lon="6.57095">
        <ele>444.203</ele>
        <time>2015-06-13T14:08:59.189Z</time>
      </trkpt>
      <trkpt lat="47.80648" lon="6.57084">
        <ele>445.042</ele>
        <time>2015-06-13T14:09:01.195Z</time>
      </trkpt>
      <trkpt lat="47.80649" lon="6.57078">
        <ele>445.953</ele>
        <time>2015-06-13T14:09:02.163Z</time>
      </trkpt>
      <trkpt lat="47.80649" lon="6.57066">
        <ele>447.724</ele>
        <time>2015-06-13T14:09:04.195Z</time>
      </trkpt>
      <trkpt lat="47.80648" lon="6.5706">
        <ele>448.626</ele>
        <time>2015-06-13T14:09:05.152Z</time>
      </trkpt>
      <trkpt lat="47.80645" lon="6.57049">
        <ele>449.397</ele>
        <time>2015-06-13T14:09:07.196Z</time>
      </trkpt>
      <trkpt lat="47.80643" lon="6.57044">
        <ele>449.251</ele>
        <time>2015-06-13T14:09:08.198Z</time>
      </trkpt>
      <trkpt lat="47.80639" lon="6.57036">
        <ele>448.638</ele>
        <time>2015-06-13T14:09:11.221Z</time>
      </trkpt>
      <trkpt lat="47.80637" lon="6.57032">
        <ele>448.47</ele>
        <time>2015-06-13T14:09:12.199Z</time>
      </trkpt>
      <trkpt lat="47.80635" lon="6.5702">
        <ele>449.017</ele>
        <time>2015-06-13T14:09:15.217Z</time>
      </trkpt>
      <trkpt lat="47.80634" lon="6.57015">
        <ele>449.483</ele>
        <time>2015-06-13T14:09:16.132Z</time>
      </trkpt>
      <trkpt lat="47.80629" lon="6.57009">
        <ele>450.295</ele>
        <time>2015-06-13T14:09:17.198Z</time>
      </trkpt>
      <trkpt lat="47.80603" lon="6.56981">
        <ele>449.265</ele>
        <time>2015-06-13T14:09:18.227Z</time>
      </trkpt>
      <trkpt lat="47.8059" lon="6.56968">
        <ele>444.356</ele>
        <time>2015-06-13T14:09:19.197Z</time>
      </trkpt>
      <trkpt lat="47.80589" lon="6.56958">
        <ele>445.718</ele>
        <time>2015-06-13T14:09:22.196Z</time>
      </trkpt>
      <trkpt lat="47.80591" lon="6.56947">
        <ele>447.9</ele>
        <time>2015-06-13T14:09:23.192Z</time>
      </trkpt>
      <trkpt lat="47.80609" lon="6.56957">
        <ele>451.779</ele>
        <time>2015-06-13T14:09:24.201Z</time>
      </trkpt>
      <trkpt lat="47.80612" lon="6.56947">
        <ele>452.004</ele>
        <time>2015-06-13T14:09:27.194Z</time>
      </trkpt>
      <trkpt lat="47.80607" lon="6.56943">
        <ele>451.133</ele>
        <time>2015-06-13T14:09:28.194Z</time>
      </trkpt>
      <trkpt lat="47.80615" lon="6.56938">
        <ele>450.877</ele>
        <time>2015-06-13T14:09:31.193Z</time>
      </trkpt>
      <trkpt lat="47.80614" lon="6.56932">
        <ele>450.303</ele>
        <time>2015-06-13T14:09:32.194Z</time>
      </trkpt>
      <trkpt lat="47.80617" lon="6.56925">
        <ele>449.53</ele>
        <time>2015-06-13T14:09:33.185Z</time>
      </trkpt>
      <trkpt lat="47.8062" lon="6.5692">
        <ele>448.939</ele>
        <time>2015-06-13T14:09:34.192Z</time>
      </trkpt>
      <trkpt lat="47.80625" lon="6.56912">
        <ele>448.87</ele>
        <time>2015-06-13T14:09:36.182Z</time>
      </trkpt>
      <trkpt lat="47.80628" lon="6.56908">
        <ele>449.129</ele>
        <time>2015-06-13T14:09:37.29Z</time>
      </trkpt>
      <trkpt lat="47.80631" lon="6.56899">
        <ele>449.824</ele>
        <time>2015-06-13T14:09:39.192Z</time>
      </trkpt>
      <trkpt lat="47.80633" lon="6.56895">
        <ele>450.224</ele>
        <time>2015-06-13T14:09:40.188Z</time>
      </trkpt>
      <trkpt lat="47.80635" lon="6.56885">
        <ele>450.232</ele>
        <time>2015-06-13T14:09:43.19Z</time>
      </trkpt>
      <trkpt lat="47.80632" lon="6.5688">
        <ele>449.641</ele>
        <time>2015-06-13T14:09:44.188Z</time>
      </trkpt>
      <trkpt lat="47.80626" lon="6.56876">
        <ele>449.524</ele>
        <time>2015-06-13T14:09:46.188Z</time>
      </trkpt>
      <trkpt lat="47.80622" lon="6.56875">
        <ele>449.707</ele>
        <time>2015-06-13T14:09:47.188Z</time>
      </trkpt>
      <trkpt lat="47.80617" lon="6.56873">
        <ele>450.029</ele>
        <time>2015-06-13T14:09:48.212Z</time>
      </trkpt>
      <trkpt lat="47.80613" lon="6.5687">
        <ele>450.517</ele>
        <time>2015-06-13T14:09:49.19Z</time>
      </trkpt>
      <trkpt lat="47.80608" lon="6.56866">
        <ele>450.862</ele>
        <time>2015-06-13T14:09:50.191Z</time>
      </trkpt>
      <trkpt lat="47.80603" lon="6.56863">
        <ele>451.178</ele>
        <time>2015-06-13T14:09:51.202Z</time>
      </trkpt>
      <trkpt lat="47.80598" lon="6.5686">
        <ele>451.476</ele>
        <time>2015-06-13T14:09:52.194Z</time>
      </trkpt>
      <trkpt lat="47.80593" lon="6.56857">
        <ele>451.638</ele>
        <time>2015-06-13T14:09:53.229Z</time>
      </trkpt>
      <trkpt lat="47.80589" lon="6.56854">
        <ele>451.803</ele>
        <time>2015-06-13T14:09:54.191Z</time>
      </trkpt>
      <trkpt lat="47.80584" lon="6.56851">
        <ele>451.962</ele>
        <time>2015-06-13T14:09:55.192Z</time>
      </trkpt>
      <trkpt lat="47.8058" lon="6.56848">
        <ele>452.116</ele>
        <time>2015-06-13T14:09:56.192Z</time>
      </trkpt>
      <trkpt lat="47.80575" lon="6.56845">
        <ele>452.286</ele>
        <time>2015-06-13T14:09:57.198Z</time>
      </trkpt>
      <trkpt lat="47.80567" lon="6.56838">
        <ele>452.574</ele>
        <time>2015-06-13T14:09:58.188Z</time>
      </trkpt>
      <trkpt lat="47.80565" lon="6.56836">
        <ele>452.667</ele>
        <time>2015-06-13T14:09:59.188Z</time>
      </trkpt>
      <trkpt lat="47.80559" lon="6.5683">
        <ele>453.425</ele>
        <time>2015-06-13T14:10:00.153Z</time>
      </trkpt>
      <trkpt lat="47.80556" lon="6.56825">
        <ele>454.212</ele>
        <time>2015-06-13T14:10:01.196Z</time>
      </trkpt>
      <trkpt lat="47.80551" lon="6.56821">
        <ele>455.389</ele>
        <time>2015-06-13T14:10:02.188Z</time>
      </trkpt>
      <trkpt lat="47.80543" lon="6.56814">
        <ele>456.899</ele>
        <time>2015-06-13T14:10:04.116Z</time>
      </trkpt>
      <trkpt lat="47.80538" lon="6.56811">
        <ele>457.447</ele>
        <time>2015-06-13T14:10:05.189Z</time>
      </trkpt>
      <trkpt lat="47.80533" lon="6.56808">
        <ele>457.826</ele>
        <time>2015-06-13T14:10:06.209Z</time>
      </trkpt>
      <trkpt lat="47.80531" lon="6.56802">
        <ele>457.873</ele>
        <time>2015-06-13T14:10:07.188Z</time>
      </trkpt>
      <trkpt lat="47.80524" lon="6.56797">
        <ele>457.46</ele>
        <time>2015-06-13T14:10:09.192Z</time>
      </trkpt>
      <trkpt lat="47.8052" lon="6.56793">
        <ele>456.721</ele>
        <time>2015-06-13T14:10:10.184Z</time>
      </trkpt>
      <trkpt lat="47.80517" lon="6.56792">
        <ele>456.182</ele>
        <time>2015-06-13T14:10:11.189Z</time>
      </trkpt>
      <trkpt lat="47.8051" lon="6.56788">
        <ele>455.067</ele>
        <time>2015-06-13T14:10:12.188Z</time>
      </trkpt>
      <trkpt lat="47.80504" lon="6.56784">
        <ele>453.851</ele>
        <time>2015-06-13T14:10:14.208Z</time>
      </trkpt>
      <trkpt lat="47.80499" lon="6.56783">
        <ele>452.977</ele>
        <time>2015-06-13T14:10:15.188Z</time>
      </trkpt>
      <trkpt lat="47.80495" lon="6.5678">
        <ele>451.442</ele>
        <time>2015-06-13T14:10:16.188Z</time>
      </trkpt>
      <trkpt lat="47.80489" lon="6.5678">
        <ele>449.553</ele>
        <time>2015-06-13T14:10:17.146Z</time>
      </trkpt>
      <trkpt lat="47.80482" lon="6.5678">
        <ele>447.405</ele>
        <time>2015-06-13T14:10:18.188Z</time>
      </trkpt>
      <trkpt lat="47.8048" lon="6.56774">
        <ele>446.452</ele>
        <time>2015-06-13T14:10:19.19Z</time>
      </trkpt>
      <trkpt lat="47.80473" lon="6.56769">
        <ele>444.118</ele>
        <time>2015-06-13T14:10:21.196Z</time>
      </trkpt>
      <trkpt lat="47.8047" lon="6.56765">
        <ele>443.472</ele>
        <time>2015-06-13T14:10:22.195Z</time>
      </trkpt>
      <trkpt lat="47.80465" lon="6.56758">
        <ele>442.412</ele>
        <time>2015-06-13T14:10:24.212Z</time>
      </trkpt>
      <trkpt lat="47.80463" lon="6.56754">
        <ele>442.126</ele>
        <time>2015-06-13T14:10:25.2Z</time>
      </trkpt>
      <trkpt lat="47.80462" lon="6.56745">
        <ele>442.483</ele>
        <time>2015-06-13T14:10:27.215Z</time>
      </trkpt>
      <trkpt lat="47.80462" lon="6.5674">
        <ele>443.062</ele>
        <time>2015-06-13T14:10:28.191Z</time>
      </trkpt>
      <trkpt lat="47.80464" lon="6.5673">
        <ele>444.158</ele>
        <time>2015-06-13T14:10:30.199Z</time>
      </trkpt>
      <trkpt lat="47.80465" lon="6.56724">
        <ele>444.767</ele>
        <time>2015-06-13T14:10:31.208Z</time>
      </trkpt>
      <trkpt lat="47.80464" lon="6.56712">
        <ele>445.17</ele>
        <time>2015-06-13T14:10:33.202Z</time>
      </trkpt>
      <trkpt lat="47.80464" lon="6.56707">
        <ele>445.314</ele>
        <time>2015-06-13T14:10:34.207Z</time>
      </trkpt>
      <trkpt lat="47.80464" lon="6.56698">
        <ele>445.692</ele>
        <time>2015-06-13T14:10:36.227Z</time>
      </trkpt>
      <trkpt lat="47.80464" lon="6.56692">
        <ele>445.836</ele>
        <time>2015-06-13T14:10:37.198Z</time>
      </trkpt>
      <trkpt lat="47.80462" lon="6.56681">
        <ele>445.983</ele>
        <time>2015-06-13T14:10:39.199Z</time>
      </trkpt>
      <trkpt lat="47.80462" lon="6.56675">
        <ele>446.142</ele>
        <time>2015-06-13T14:10:40.245Z</time>
      </trkpt>
      <trkpt lat="47.80462" lon="6.56665">
        <ele>446.456</ele>
        <time>2015-06-13T14:10:42.197Z</time>
      </trkpt>
      <trkpt lat="47.80461" lon="6.5666">
        <ele>446.398</ele>
        <time>2015-06-13T14:10:43.205Z</time>
      </trkpt>
      <trkpt lat="47.80464" lon="6.56649">
        <ele>446.787</ele>
        <time>2015-06-13T14:10:46.206Z</time>
      </trkpt>
      <trkpt lat="47.80465" lon="6.56644">
        <ele>446.946</ele>
        <time>2015-06-13T14:10:47.192Z</time>
      </trkpt>
      <trkpt lat="47.80469" lon="6.56633">
        <ele>447.594</ele>
        <time>2015-06-13T14:10:50.195Z</time>
      </trkpt>
      <trkpt lat="47.8047" lon="6.56628">
        <ele>447.738</ele>
        <time>2015-06-13T14:10:51.258Z</time>
      </trkpt>
      <trkpt lat="47.80472" lon="6.56617">
        <ele>448.019</ele>
        <time>2015-06-13T14:10:53.2Z</time>
      </trkpt>
      <trkpt lat="47.80473" lon="6.56613">
        <ele>448.144</ele>
        <time>2015-06-13T14:10:54.198Z</time>
      </trkpt>
      <trkpt lat="47.80473" lon="6.56607">
        <ele>447.754</ele>
        <time>2015-06-13T14:10:57.199Z</time>
      </trkpt>
      <trkpt lat="47.80492" lon="6.56531">
        <ele>453.771</ele>
        <time>2015-06-13T14:11:28.197Z</time>
      </trkpt>
      <trkpt lat="47.80494" lon="6.56518">
        <ele>455.298</ele>
        <time>2015-06-13T14:11:35.16Z</time>
      </trkpt>
      <trkpt lat="47.80494" lon="6.56516">
        <ele>455.546</ele>
        <time>2015-06-13T14:11:36.21Z</time>
      </trkpt>
      <trkpt lat="47.80494" lon="6.56506">
        <ele>456.658</ele>
        <time>2015-06-13T14:11:40.197Z</time>
      </trkpt>
      <trkpt lat="47.80492" lon="6.56502">
        <ele>456.934</ele>
        <time>2015-06-13T14:11:41.132Z</time>
      </trkpt>
      <trkpt lat="47.80488" lon="6.5649">
        <ele>456.951</ele>
        <time>2015-06-13T14:11:44.205Z</time>
      </trkpt>
      <trkpt lat="47.80488" lon="6.56486">
        <ele>456.984</ele>
        <time>2015-06-13T14:11:45.213Z</time>
      </trkpt>
      <trkpt lat="47.80488" lon="6.56476">
        <ele>457.137</ele>
        <time>2015-06-13T14:11:48.212Z</time>
      </trkpt>
      <trkpt lat="47.80488" lon="6.56472">
        <ele>457.213</ele>
        <time>2015-06-13T14:11:49.15Z</time>
      </trkpt>
      <trkpt lat="47.80492" lon="6.56462">
        <ele>458.445</ele>
        <time>2015-06-13T14:11:53.197Z</time>
      </trkpt>
      <trkpt lat="47.80494" lon="6.56459">
        <ele>458.817</ele>
        <time>2015-06-13T14:11:54.195Z</time>
      </trkpt>
      <trkpt lat="47.80495" lon="6.56449">
        <ele>459.4</ele>
        <time>2015-06-13T14:11:57.221Z</time>
      </trkpt>
      <trkpt lat="47.80496" lon="6.56445">
        <ele>459.707</ele>
        <time>2015-06-13T14:11:58.218Z</time>
      </trkpt>
      <trkpt lat="47.80501" lon="6.56434">
        <ele>461.166</ele>
        <time>2015-06-13T14:12:03.193Z</time>
      </trkpt>
      <trkpt lat="47.80502" lon="6.56433">
        <ele>461.329</ele>
        <time>2015-06-13T14:12:04.198Z</time>
      </trkpt>
      <trkpt lat="47.80498" lon="6.56424">
        <ele>461.212</ele>
        <time>2015-06-13T14:12:07.197Z</time>
      </trkpt>
      <trkpt lat="47.80497" lon="6.5642">
        <ele>461.431</ele>
        <time>2015-06-13T14:12:08.201Z</time>
      </trkpt>
      <trkpt lat="47.80492" lon="6.56412">
        <ele>462.284</ele>
        <time>2015-06-13T14:12:10.221Z</time>
      </trkpt>
      <trkpt lat="47.80489" lon="6.56407">
        <ele>462.896</ele>
        <time>2015-06-13T14:12:11.213Z</time>
      </trkpt>
      <trkpt lat="47.80484" lon="6.56399">
        <ele>463.907</ele>
        <time>2015-06-13T14:12:13.228Z</time>
      </trkpt>
      <trkpt lat="47.80482" lon="6.56395">
        <ele>464.341</ele>
        <time>2015-06-13T14:12:14.228Z</time>
      </trkpt>
      <trkpt lat="47.80476" lon="6.56387">
        <ele>465.096</ele>
        <time>2015-06-13T14:12:17.142Z</time>
      </trkpt>
      <trkpt lat="47.80475" lon="6.56384">
        <ele>465.348</ele>
        <time>2015-06-13T14:12:18.198Z</time>
      </trkpt>
      <trkpt lat="47.80471" lon="6.56377">
        <ele>466.5</ele>
        <time>2015-06-13T14:12:21.203Z</time>
      </trkpt>
      <trkpt lat="47.80469" lon="6.56373">
        <ele>467.046</ele>
        <time>2015-06-13T14:12:22.198Z</time>
      </trkpt>
      <trkpt lat="47.80464" lon="6.56363">
        <ele>468.123</ele>
        <time>2015-06-13T14:12:24.202Z</time>
      </trkpt>
      <trkpt lat="47.80461" lon="6.56359">
        <ele>468.074</ele>
        <time>2015-06-13T14:12:25.197Z</time>
      </trkpt>
      <trkpt lat="47.80458" lon="6.56354">
        <ele>467.728</ele>
        <time>2015-06-13T14:12:26.201Z</time>
      </trkpt>
      <trkpt lat="47.80455" lon="6.56349">
        <ele>467.318</ele>
        <time>2015-06-13T14:12:27.196Z</time>
      </trkpt>
      <trkpt lat="47.80451" lon="6.56337">
        <ele>466.951</ele>
        <time>2015-06-13T14:12:29.199Z</time>
      </trkpt>
      <trkpt lat="47.8045" lon="6.56332">
        <ele>466.998</ele>
        <time>2015-06-13T14:12:30.194Z</time>
      </trkpt>
      <trkpt lat="47.80448" lon="6.56322">
        <ele>467.124</ele>
        <time>2015-06-13T14:12:32.216Z</time>
      </trkpt>
      <trkpt lat="47.80447" lon="6.56317">
        <ele>467.091</ele>
        <time>2015-06-13T14:12:33.212Z</time>
      </trkpt>
      <trkpt lat="47.80445" lon="6.56308">
        <ele>467.041</ele>
        <time>2015-06-13T14:12:35.187Z</time>
      </trkpt>
      <trkpt lat="47.80443" lon="6.56304">
        <ele>466.836</ele>
        <time>2015-06-13T14:12:36.204Z</time>
      </trkpt>
      <trkpt lat="47.80441" lon="6.56295">
        <ele>466.619</ele>
        <time>2015-06-13T14:12:38.223Z</time>
      </trkpt>
      <trkpt lat="47.8044" lon="6.5629">
        <ele>466.698</ele>
        <time>2015-06-13T14:12:39.196Z</time>
      </trkpt>
      <trkpt lat="47.80443" lon="6.56278">
        <ele>467.71</ele>
        <time>2015-06-13T14:12:44.198Z</time>
      </trkpt>
      <trkpt lat="47.80443" lon="6.56277">
        <ele>467.702</ele>
        <time>2015-06-13T14:12:45.158Z</time>
      </trkpt>
      <trkpt lat="47.80439" lon="6.56269">
        <ele>466.673</ele>
        <time>2015-06-13T14:12:49.168Z</time>
      </trkpt>
      <trkpt lat="47.80438" lon="6.56266">
        <ele>466.346</ele>
        <time>2015-06-13T14:12:50.176Z</time>
      </trkpt>
      <trkpt lat="47.80436" lon="6.56254">
        <ele>465.808</ele>
        <time>2015-06-13T14:12:53.195Z</time>
      </trkpt>
      <trkpt lat="47.80437" lon="6.56249">
        <ele>465.952</ele>
        <time>2015-06-13T14:12:54.193Z</time>
      </trkpt>
      <trkpt lat="47.80438" lon="6.56238">
        <ele>467.16</ele>
        <time>2015-06-13T14:12:56.157Z</time>
      </trkpt>
      <trkpt lat="47.80438" lon="6.56231">
        <ele>467.737</ele>
        <time>2015-06-13T14:12:57.216Z</time>
      </trkpt>
      <trkpt lat="47.80436" lon="6.56218">
        <ele>467.948</ele>
        <time>2015-06-13T14:12:59.195Z</time>
      </trkpt>
      <trkpt lat="47.80436" lon="6.56213">
        <ele>467.736</ele>
        <time>2015-06-13T14:13:00.16Z</time>
      </trkpt>
      <trkpt lat="47.80436" lon="6.56203">
        <ele>467.4</ele>
        <time>2015-06-13T14:13:02.217Z</time>
      </trkpt>
      <trkpt lat="47.80435" lon="6.56199">
        <ele>467.164</ele>
        <time>2015-06-13T14:13:03.194Z</time>
      </trkpt>
      <trkpt lat="47.80438" lon="6.56188">
        <ele>467.296</ele>
        <time>2015-06-13T14:13:08.199Z</time>
      </trkpt>
      <trkpt lat="47.80436" lon="6.56185">
        <ele>467.465</ele>
        <time>2015-06-13T14:13:09.197Z</time>
      </trkpt>
      <trkpt lat="47.80433" lon="6.56174">
        <ele>468.042</ele>
        <time>2015-06-13T14:13:12.199Z</time>
      </trkpt>
      <trkpt lat="47.80433" lon="6.5617">
        <ele>468.242</ele>
        <time>2015-06-13T14:13:13.209Z</time>
      </trkpt>
      <trkpt lat="47.8043" lon="6.56159">
        <ele>469.341</ele>
        <time>2015-06-13T14:13:16.199Z</time>
      </trkpt>
      <trkpt lat="47.8043" lon="6.56156">
        <ele>469.73</ele>
        <time>2015-06-13T14:13:17.226Z</time>
      </trkpt>
      <trkpt lat="47.80425" lon="6.56147">
        <ele>470.867</ele>
        <time>2015-06-13T14:13:21.199Z</time>
      </trkpt>
      <trkpt lat="47.80424" lon="6.56145">
        <ele>471.134</ele>
        <time>2015-06-13T14:13:22.199Z</time>
      </trkpt>
      <trkpt lat="47.80419" lon="6.56134">
        <ele>472.756</ele>
        <time>2015-06-13T14:13:25.192Z</time>
      </trkpt>
      <trkpt lat="47.80418" lon="6.5613">
        <ele>473.562</ele>
        <time>2015-06-13T14:13:26.2Z</time>
      </trkpt>
      <trkpt lat="47.80413" lon="6.56121">
        <ele>475.055</ele>
        <time>2015-06-13T14:13:29.196Z</time>
      </trkpt>
      <trkpt lat="47.80411" lon="6.56119">
        <ele>475.173</ele>
        <time>2015-06-13T14:13:30.203Z</time>
      </trkpt>
      <trkpt lat="47.80407" lon="6.56109">
        <ele>476.281</ele>
        <time>2015-06-13T14:13:34.211Z</time>
      </trkpt>
      <trkpt lat="47.80406" lon="6.56105">
        <ele>476.683</ele>
        <time>2015-06-13T14:13:35.236Z</time>
      </trkpt>
      <trkpt lat="47.80402" lon="6.56096">
        <ele>477.3</ele>
        <time>2015-06-13T14:13:38.198Z</time>
      </trkpt>
      <trkpt lat="47.804" lon="6.56094">
        <ele>477.194</ele>
        <time>2015-06-13T14:13:39.191Z</time>
      </trkpt>
      <trkpt lat="47.80394" lon="6.56089">
        <ele>476.477</ele>
        <time>2015-06-13T14:13:42.215Z</time>
      </trkpt>
      <trkpt lat="47.80392" lon="6.56087">
        <ele>476.377</ele>
        <time>2015-06-13T14:13:43.202Z</time>
      </trkpt>
      <trkpt lat="47.80388" lon="6.56078">
        <ele>476.588</ele>
        <time>2015-06-13T14:13:46.197Z</time>
      </trkpt>
      <trkpt lat="47.80387" lon="6.56074">
        <ele>477.017</ele>
        <time>2015-06-13T14:13:47.199Z</time>
      </trkpt>
      <trkpt lat="47.80385" lon="6.56065">
        <ele>477.953</ele>
        <time>2015-06-13T14:13:49.198Z</time>
      </trkpt>
      <trkpt lat="47.80384" lon="6.56058">
        <ele>478.643</ele>
        <time>2015-06-13T14:13:50.197Z</time>
      </trkpt>
      <trkpt lat="47.80383" lon="6.56051">
        <ele>479.048</ele>
        <time>2015-06-13T14:13:51.199Z</time>
      </trkpt>
      <trkpt lat="47.80382" lon="6.56044">
        <ele>479.156</ele>
        <time>2015-06-13T14:13:52.196Z</time>
      </trkpt>
      <trkpt lat="47.8038" lon="6.56037">
        <ele>479.169</ele>
        <time>2015-06-13T14:13:53.199Z</time>
      </trkpt>
      <trkpt lat="47.80377" lon="6.56031">
        <ele>479.151</ele>
        <time>2015-06-13T14:13:54.199Z</time>
      </trkpt>
      <trkpt lat="47.80372" lon="6.56021">
        <ele>479.45</ele>
        <time>2015-06-13T14:13:56.489Z</time>
      </trkpt>
      <trkpt lat="47.80371" lon="6.56017">
        <ele>479.855</ele>
        <time>2015-06-13T14:13:57.498Z</time>
      </trkpt>
      <trkpt lat="47.80378" lon="6.5601">
        <ele>480.952</ele>
        <time>2015-06-13T14:14:01.559Z</time>
      </trkpt>
      <trkpt lat="47.80379" lon="6.56007">
        <ele>481.157</ele>
        <time>2015-06-13T14:14:02.538Z</time>
      </trkpt>
      <trkpt lat="47.80377" lon="6.55996">
        <ele>483.302</ele>
        <time>2015-06-13T14:14:07.557Z</time>
      </trkpt>
      <trkpt lat="47.80376" lon="6.55993">
        <ele>484.585</ele>
        <time>2015-06-13T14:14:08.498Z</time>
      </trkpt>
      <trkpt lat="47.80375" lon="6.55983">
        <ele>488.862</ele>
        <time>2015-06-13T14:14:11.505Z</time>
      </trkpt>
      <trkpt lat="47.80374" lon="6.55979">
        <ele>490.457</ele>
        <time>2015-06-13T14:14:12.573Z</time>
      </trkpt>
      <trkpt lat="47.80373" lon="6.5597">
        <ele>493.444</ele>
        <time>2015-06-13T14:14:14.562Z</time>
      </trkpt>
      <trkpt lat="47.80371" lon="6.55964">
        <ele>493.894</ele>
        <time>2015-06-13T14:14:15.561Z</time>
      </trkpt>
      <trkpt lat="47.80365" lon="6.55953">
        <ele>495.074</ele>
        <time>2015-06-13T14:14:17.559Z</time>
      </trkpt>
      <trkpt lat="47.80361" lon="6.55948">
        <ele>495.873</ele>
        <time>2015-06-13T14:14:18.559Z</time>
      </trkpt>
      <trkpt lat="47.80356" lon="6.55944">
        <ele>494.709</ele>
        <time>2015-06-13T14:14:19.802Z</time>
      </trkpt>
      <trkpt lat="47.80351" lon="6.5594">
        <ele>493.81</ele>
        <time>2015-06-13T14:14:20.493Z</time>
      </trkpt>
      <trkpt lat="47.80346" lon="6.55936">
        <ele>493.23</ele>
        <time>2015-06-13T14:14:21.57Z</time>
      </trkpt>
      <trkpt lat="47.80343" lon="6.55932">
        <ele>493.015</ele>
        <time>2015-06-13T14:14:22.578Z</time>
      </trkpt>
      <trkpt lat="47.80339" lon="6.55924">
        <ele>493.493</ele>
        <time>2015-06-13T14:14:24.595Z</time>
      </trkpt>
      <trkpt lat="47.80337" lon="6.5592">
        <ele>493.818</ele>
        <time>2015-06-13T14:14:25.536Z</time>
      </trkpt>
      <trkpt lat="47.80335" lon="6.55908">
        <ele>494.731</ele>
        <time>2015-06-13T14:14:29.557Z</time>
      </trkpt>
      <trkpt lat="47.80336" lon="6.55906">
        <ele>494.919</ele>
        <time>2015-06-13T14:14:30.558Z</time>
      </trkpt>
      <trkpt lat="47.80336" lon="6.55896">
        <ele>495.595</ele>
        <time>2015-06-13T14:14:34.496Z</time>
      </trkpt>
      <trkpt lat="47.80335" lon="6.55892">
        <ele>495.788</ele>
        <time>2015-06-13T14:14:35.482Z</time>
      </trkpt>
      <trkpt lat="47.80333" lon="6.55881">
        <ele>496.792</ele>
        <time>2015-06-13T14:14:38.587Z</time>
      </trkpt>
      <trkpt lat="47.80333" lon="6.55877">
        <ele>497.224</ele>
        <time>2015-06-13T14:14:39.625Z</time>
      </trkpt>
      <trkpt lat="47.80335" lon="6.55868">
        <ele>498.148</ele>
        <time>2015-06-13T14:14:41.487Z</time>
      </trkpt>
      <trkpt lat="47.80337" lon="6.55863">
        <ele>498.248</ele>
        <time>2015-06-13T14:14:42.501Z</time>
      </trkpt>
      <trkpt lat="47.80339" lon="6.55854">
        <ele>497.383</ele>
        <time>2015-06-13T14:14:44.568Z</time>
      </trkpt>
      <trkpt lat="47.80337" lon="6.55849">
        <ele>497.361</ele>
        <time>2015-06-13T14:14:45.549Z</time>
      </trkpt>
      <trkpt lat="47.80334" lon="6.55838">
        <ele>497.263</ele>
        <time>2015-06-13T14:14:47.562Z</time>
      </trkpt>
      <trkpt lat="47.80332" lon="6.55833">
        <ele>497.113</ele>
        <time>2015-06-13T14:14:48.774Z</time>
      </trkpt>
      <trkpt lat="47.8033" lon="6.55825">
        <ele>497.588</ele>
        <time>2015-06-13T14:14:50.562Z</time>
      </trkpt>
      <trkpt lat="47.80328" lon="6.5582">
        <ele>497.864</ele>
        <time>2015-06-13T14:14:51.562Z</time>
      </trkpt>
      <trkpt lat="47.80324" lon="6.5581">
        <ele>499.198</ele>
        <time>2015-06-13T14:14:53.557Z</time>
      </trkpt>
      <trkpt lat="47.80322" lon="6.55804">
        <ele>499.958</ele>
        <time>2015-06-13T14:14:54.56Z</time>
      </trkpt>
      <trkpt lat="47.80319" lon="6.55796">
        <ele>500.84</ele>
        <time>2015-06-13T14:14:55.558Z</time>
      </trkpt>
      <trkpt lat="47.80315" lon="6.55789">
        <ele>501.959</ele>
        <time>2015-06-13T14:14:56.569Z</time>
      </trkpt>
      <trkpt lat="47.80312" lon="6.55783">
        <ele>502.921</ele>
        <time>2015-06-13T14:14:57.757Z</time>
      </trkpt>
      <trkpt lat="47.8031" lon="6.55776">
        <ele>503.528</ele>
        <time>2015-06-13T14:14:58.56Z</time>
      </trkpt>
      <trkpt lat="47.80307" lon="6.55764">
        <ele>504.105</ele>
        <time>2015-06-13T14:15:00.552Z</time>
      </trkpt>
      <trkpt lat="47.80305" lon="6.55759">
        <ele>504.341</ele>
        <time>2015-06-13T14:15:01.581Z</time>
      </trkpt>
      <trkpt lat="47.80302" lon="6.55751">
        <ele>504.471</ele>
        <time>2015-06-13T14:15:03.553Z</time>
      </trkpt>
      <trkpt lat="47.803" lon="6.55746">
        <ele>504.372</ele>
        <time>2015-06-13T14:15:04.551Z</time>
      </trkpt>
      <trkpt lat="47.80296" lon="6.55737">
        <ele>504.078</ele>
        <time>2015-06-13T14:15:06.572Z</time>
      </trkpt>
      <trkpt lat="47.80294" lon="6.55731">
        <ele>503.934</ele>
        <time>2015-06-13T14:15:07.562Z</time>
      </trkpt>
      <trkpt lat="47.80295" lon="6.55719">
        <ele>502.874</ele>
        <time>2015-06-13T14:15:09.561Z</time>
      </trkpt>
      <trkpt lat="47.80294" lon="6.55714">
        <ele>502.831</ele>
        <time>2015-06-13T14:15:10.578Z</time>
      </trkpt>
      <trkpt lat="47.8029" lon="6.55705">
        <ele>503.176</ele>
        <time>2015-06-13T14:15:12.573Z</time>
      </trkpt>
      <trkpt lat="47.80287" lon="6.55701">
        <ele>503.533</ele>
        <time>2015-06-13T14:15:13.558Z</time>
      </trkpt>
      <trkpt lat="47.80283" lon="6.55694">
        <ele>504.018</ele>
        <time>2015-06-13T14:15:15.562Z</time>
      </trkpt>
      <trkpt lat="47.80281" lon="6.5569">
        <ele>503.869</ele>
        <time>2015-06-13T14:15:16.568Z</time>
      </trkpt>
      <trkpt lat="47.80277" lon="6.55683">
        <ele>503.885</ele>
        <time>2015-06-13T14:15:18.575Z</time>
      </trkpt>
      <trkpt lat="47.80275" lon="6.5568">
        <ele>503.98</ele>
        <time>2015-06-13T14:15:19.562Z</time>
      </trkpt>
      <trkpt lat="47.80273" lon="6.55673">
        <ele>503.908</ele>
        <time>2015-06-13T14:15:21.555Z</time>
      </trkpt>
      <trkpt lat="47.80271" lon="6.55667">
        <ele>504.031</ele>
        <time>2015-06-13T14:15:22.568Z</time>
      </trkpt>
      <trkpt lat="47.80266" lon="6.55658">
        <ele>504.408</ele>
        <time>2015-06-13T14:15:24.552Z</time>
      </trkpt>
      <trkpt lat="47.80262" lon="6.55654">
        <ele>504.895</ele>
        <time>2015-06-13T14:15:25.554Z</time>
      </trkpt>
      <trkpt lat="47.80259" lon="6.55649">
        <ele>505</ele>
        <time>2015-06-13T14:15:26.589Z</time>
      </trkpt>
      <trkpt lat="47.80255" lon="6.55643">
        <ele>504.78</ele>
        <time>2015-06-13T14:15:27.561Z</time>
      </trkpt>
      <trkpt lat="47.80253" lon="6.55636">
        <ele>504.169</ele>
        <time>2015-06-13T14:15:28.56Z</time>
      </trkpt>
      <trkpt lat="47.80251" lon="6.55631">
        <ele>503.725</ele>
        <time>2015-06-13T14:15:29.554Z</time>
      </trkpt>
      <trkpt lat="47.80248" lon="6.55624">
        <ele>502.9</ele>
        <time>2015-06-13T14:15:30.555Z</time>
      </trkpt>
      <trkpt lat="47.80236" lon="6.55615">
        <ele>502.041</ele>
        <time>2015-06-13T14:15:31.56Z</time>
      </trkpt>
      <trkpt lat="47.80242" lon="6.55607">
        <ele>501.421</ele>
        <time>2015-06-13T14:15:33.554Z</time>
      </trkpt>
      <trkpt lat="47.80239" lon="6.55596">
        <ele>501.722</ele>
        <time>2015-06-13T14:15:34.586Z</time>
      </trkpt>
      <trkpt lat="47.80239" lon="6.55585">
        <ele>501.967</ele>
        <time>2015-06-13T14:15:36.588Z</time>
      </trkpt>
      <trkpt lat="47.80239" lon="6.55576">
        <ele>502</ele>
        <time>2015-06-13T14:15:37.55Z</time>
      </trkpt>
      <trkpt lat="47.80236" lon="6.55569">
        <ele>502</ele>
        <time>2015-06-13T14:15:38.584Z</time>
      </trkpt>
      <trkpt lat="47.80236" lon="6.55563">
        <ele>502</ele>
        <time>2015-06-13T14:15:39.566Z</time>
      </trkpt>
      <trkpt lat="47.80239" lon="6.5555">
        <ele>502.257</ele>
        <time>2015-06-13T14:15:43.561Z</time>
      </trkpt>
      <trkpt lat="47.80241" lon="6.55544">
        <ele>502.424</ele>
        <time>2015-06-13T14:15:44.549Z</time>
      </trkpt>
      <trkpt lat="47.80245" lon="6.55534">
        <ele>502.408</ele>
        <time>2015-06-13T14:15:46.626Z</time>
      </trkpt>
      <trkpt lat="47.80248" lon="6.55528">
        <ele>502.227</ele>
        <time>2015-06-13T14:15:47.554Z</time>
      </trkpt>
      <trkpt lat="47.80251" lon="6.55522">
        <ele>501.189</ele>
        <time>2015-06-13T14:15:48.556Z</time>
      </trkpt>
      <trkpt lat="47.80255" lon="6.55514">
        <ele>499.749</ele>
        <time>2015-06-13T14:15:49.553Z</time>
      </trkpt>
      <trkpt lat="47.80269" lon="6.55502">
        <ele>496.44</ele>
        <time>2015-06-13T14:15:50.589Z</time>
      </trkpt>
      <trkpt lat="47.80268" lon="6.55493">
        <ele>495.485</ele>
        <time>2015-06-13T14:15:51.563Z</time>
      </trkpt>
      <trkpt lat="47.80273" lon="6.55485">
        <ele>494.072</ele>
        <time>2015-06-13T14:15:52.579Z</time>
      </trkpt>
      <trkpt lat="47.80273" lon="6.55478">
        <ele>493.222</ele>
        <time>2015-06-13T14:15:53.552Z</time>
      </trkpt>
      <trkpt lat="47.80269" lon="6.55473">
        <ele>492.95</ele>
        <time>2015-06-13T14:15:54.553Z</time>
      </trkpt>
      <trkpt lat="47.80266" lon="6.5546">
        <ele>491.133</ele>
        <time>2015-06-13T14:15:56.554Z</time>
      </trkpt>
      <trkpt lat="47.80262" lon="6.55454">
        <ele>490.298</ele>
        <time>2015-06-13T14:15:57.678Z</time>
      </trkpt>
      <trkpt lat="47.80266" lon="6.55449">
        <ele>489.304</ele>
        <time>2015-06-13T14:15:58.578Z</time>
      </trkpt>
      <trkpt lat="47.80271" lon="6.55438">
        <ele>487.771</ele>
        <time>2015-06-13T14:16:00.562Z</time>
      </trkpt>
      <trkpt lat="47.80274" lon="6.55433">
        <ele>487.482</ele>
        <time>2015-06-13T14:16:01.502Z</time>
      </trkpt>
      <trkpt lat="47.80275" lon="6.55426">
        <ele>487.127</ele>
        <time>2015-06-13T14:16:02.511Z</time>
      </trkpt>
      <trkpt lat="47.80279" lon="6.5542">
        <ele>487.242</ele>
        <time>2015-06-13T14:16:03.554Z</time>
      </trkpt>
      <trkpt lat="47.80281" lon="6.55414">
        <ele>487.215</ele>
        <time>2015-06-13T14:16:04.689Z</time>
      </trkpt>
      <trkpt lat="47.80278" lon="6.55406">
        <ele>485.472</ele>
        <time>2015-06-13T14:16:06.553Z</time>
      </trkpt>
      <trkpt lat="47.80272" lon="6.55405">
        <ele>484.4</ele>
        <time>2015-06-13T14:16:07.555Z</time>
      </trkpt>
      <trkpt lat="47.8028" lon="6.554">
        <ele>485.14</ele>
        <time>2015-06-13T14:16:09.549Z</time>
      </trkpt>
      <trkpt lat="47.80281" lon="6.55392">
        <ele>484.381</ele>
        <time>2015-06-13T14:16:10.553Z</time>
      </trkpt>
      <trkpt lat="47.80273" lon="6.55387">
        <ele>482.081</ele>
        <time>2015-06-13T14:16:11.552Z</time>
      </trkpt>
      <trkpt lat="47.80273" lon="6.55381">
        <ele>481.751</ele>
        <time>2015-06-13T14:16:12.489Z</time>
      </trkpt>
      <trkpt lat="47.80267" lon="6.55374">
        <ele>480.572</ele>
        <time>2015-06-13T14:16:14.562Z</time>
      </trkpt>
      <trkpt lat="47.80258" lon="6.55377">
        <ele>479.54</ele>
        <time>2015-06-13T14:16:15.576Z</time>
      </trkpt>
      <trkpt lat="47.80253" lon="6.55372">
        <ele>478.891</ele>
        <time>2015-06-13T14:16:17.539Z</time>
      </trkpt>
      <trkpt lat="47.80248" lon="6.5537">
        <ele>478.962</ele>
        <time>2015-06-13T14:16:18.56Z</time>
      </trkpt>
      <trkpt lat="47.8024" lon="6.55371">
        <ele>480.133</ele>
        <time>2015-06-13T14:16:20.575Z</time>
      </trkpt>
      <trkpt lat="47.80236" lon="6.55372">
        <ele>480.549</ele>
        <time>2015-06-13T14:16:21.568Z</time>
      </trkpt>
      <trkpt lat="47.80229" lon="6.55374">
        <ele>481.363</ele>
        <time>2015-06-13T14:16:23.562Z</time>
      </trkpt>
      <trkpt lat="47.80225" lon="6.55373">
        <ele>482.088</ele>
        <time>2015-06-13T14:16:24.577Z</time>
      </trkpt>
      <trkpt lat="47.80221" lon="6.55373">
        <ele>482.995</ele>
        <time>2015-06-13T14:16:25.561Z</time>
      </trkpt>
      <trkpt lat="47.80216" lon="6.55372">
        <ele>485.163</ele>
        <time>2015-06-13T14:16:26.572Z</time>
      </trkpt>
      <trkpt lat="47.80209" lon="6.55368">
        <ele>488.473</ele>
        <time>2015-06-13T14:16:27.568Z</time>
      </trkpt>
      <trkpt lat="47.80205" lon="6.55362">
        <ele>491.693</ele>
        <time>2015-06-13T14:16:28.561Z</time>
      </trkpt>
      <trkpt lat="47.80199" lon="6.55355">
        <ele>492.93</ele>
        <time>2015-06-13T14:16:29.586Z</time>
      </trkpt>
      <trkpt lat="47.80198" lon="6.55345">
        <ele>491.002</ele>
        <time>2015-06-13T14:16:30.544Z</time>
      </trkpt>
      <trkpt lat="47.80194" lon="6.55337">
        <ele>489.907</ele>
        <time>2015-06-13T14:16:31.551Z</time>
      </trkpt>
      <trkpt lat="47.8019" lon="6.55328">
        <ele>488.845</ele>
        <time>2015-06-13T14:16:32.551Z</time>
      </trkpt>
      <trkpt lat="47.80184" lon="6.55323">
        <ele>488.886</ele>
        <time>2015-06-13T14:16:34.651Z</time>
      </trkpt>
      <trkpt lat="47.80178" lon="6.5532">
        <ele>489.381</ele>
        <time>2015-06-13T14:16:35.624Z</time>
      </trkpt>
      <trkpt lat="47.80171" lon="6.55313">
        <ele>488.91</ele>
        <time>2015-06-13T14:16:37.561Z</time>
      </trkpt>
      <trkpt lat="47.80167" lon="6.55307">
        <ele>488.141</ele>
        <time>2015-06-13T14:16:38.519Z</time>
      </trkpt>
      <trkpt lat="47.80165" lon="6.55301">
        <ele>488.424</ele>
        <time>2015-06-13T14:16:39.553Z</time>
      </trkpt>
      <trkpt lat="47.80158" lon="6.55297">
        <ele>490.777</ele>
        <time>2015-06-13T14:16:40.574Z</time>
      </trkpt>
      <trkpt lat="47.80156" lon="6.55292">
        <ele>491.081</ele>
        <time>2015-06-13T14:16:41.553Z</time>
      </trkpt>
      <trkpt lat="47.8015" lon="6.55288">
        <ele>492.657</ele>
        <time>2015-06-13T14:16:42.547Z</time>
      </trkpt>
      <trkpt lat="47.80148" lon="6.55285">
        <ele>492.86</ele>
        <time>2015-06-13T14:16:43.555Z</time>
      </trkpt>
      <trkpt lat="47.80141" lon="6.55279">
        <ele>494.509</ele>
        <time>2015-06-13T14:16:44.551Z</time>
      </trkpt>
      <trkpt lat="47.8014" lon="6.55267">
        <ele>492.852</ele>
        <time>2015-06-13T14:16:45.551Z</time>
      </trkpt>
      <trkpt lat="47.80141" lon="6.55259">
        <ele>491.286</ele>
        <time>2015-06-13T14:16:46.55Z</time>
      </trkpt>
      <trkpt lat="47.80139" lon="6.55251">
        <ele>490.168</ele>
        <time>2015-06-13T14:16:47.554Z</time>
      </trkpt>
      <trkpt lat="47.80139" lon="6.55243">
        <ele>488.69</ele>
        <time>2015-06-13T14:16:48.561Z</time>
      </trkpt>
      <trkpt lat="47.80138" lon="6.55235">
        <ele>487.321</ele>
        <time>2015-06-13T14:16:49.554Z</time>
      </trkpt>
      <trkpt lat="47.80136" lon="6.55226">
        <ele>485.906</ele>
        <time>2015-06-13T14:16:50.583Z</time>
      </trkpt>
      <trkpt lat="47.80136" lon="6.55216">
        <ele>484.678</ele>
        <time>2015-06-13T14:16:51.56Z</time>
      </trkpt>
      <trkpt lat="47.80136" lon="6.5521">
        <ele>484.016</ele>
        <time>2015-06-13T14:16:52.549Z</time>
      </trkpt>
      <trkpt lat="47.80141" lon="6.552">
        <ele>482.389</ele>
        <time>2015-06-13T14:16:53.554Z</time>
      </trkpt>
      <trkpt lat="47.80146" lon="6.55197">
        <ele>481.499</ele>
        <time>2015-06-13T14:16:54.555Z</time>
      </trkpt>
      <trkpt lat="47.80151" lon="6.55192">
        <ele>480.88</ele>
        <time>2015-06-13T14:16:55.553Z</time>
      </trkpt>
      <trkpt lat="47.80154" lon="6.55185">
        <ele>481.11</ele>
        <time>2015-06-13T14:16:56.551Z</time>
      </trkpt>
      <trkpt lat="47.80156" lon="6.55173">
        <ele>482.045</ele>
        <time>2015-06-13T14:16:58.554Z</time>
      </trkpt>
      <trkpt lat="47.80158" lon="6.55168">
        <ele>482.518</ele>
        <time>2015-06-13T14:16:59.552Z</time>
      </trkpt>
      <trkpt lat="47.8016" lon="6.55162">
        <ele>482.674</ele>
        <time>2015-06-13T14:17:00.552Z</time>
      </trkpt>
      <trkpt lat="47.80165" lon="6.55155">
        <ele>482.002</ele>
        <time>2015-06-13T14:17:01.553Z</time>
      </trkpt>
      <trkpt lat="47.80168" lon="6.55151">
        <ele>481.142</ele>
        <time>2015-06-13T14:17:02.547Z</time>
      </trkpt>
      <trkpt lat="47.80171" lon="6.55146">
        <ele>480.246</ele>
        <time>2015-06-13T14:17:03.552Z</time>
      </trkpt>
      <trkpt lat="47.80179" lon="6.55146">
        <ele>479.447</ele>
        <time>2015-06-13T14:17:04.547Z</time>
      </trkpt>
      <trkpt lat="47.80181" lon="6.55146">
        <ele>479.231</ele>
        <time>2015-06-13T14:17:05.542Z</time>
      </trkpt>
      <trkpt lat="47.80187" lon="6.55143">
        <ele>478.259</ele>
        <time>2015-06-13T14:17:06.56Z</time>
      </trkpt>
      <trkpt lat="47.80194" lon="6.5514">
        <ele>477.103</ele>
        <time>2015-06-13T14:17:07.553Z</time>
      </trkpt>
      <trkpt lat="47.80202" lon="6.55137">
        <ele>476.002</ele>
        <time>2015-06-13T14:17:09.551Z</time>
      </trkpt>
      <trkpt lat="47.80205" lon="6.55137">
        <ele>475.726</ele>
        <time>2015-06-13T14:17:10.551Z</time>
      </trkpt>
      <trkpt lat="47.80212" lon="6.55133">
        <ele>474.527</ele>
        <time>2015-06-13T14:17:12.554Z</time>
      </trkpt>
      <trkpt lat="47.80215" lon="6.55129">
        <ele>473.79</ele>
        <time>2015-06-13T14:17:13.554Z</time>
      </trkpt>
      <trkpt lat="47.80223" lon="6.55124">
        <ele>472.55</ele>
        <time>2015-06-13T14:17:15.525Z</time>
      </trkpt>
      <trkpt lat="47.80227" lon="6.5512">
        <ele>473.506</ele>
        <time>2015-06-13T14:17:16.553Z</time>
      </trkpt>
      <trkpt lat="47.8023" lon="6.55114">
        <ele>474.382</ele>
        <time>2015-06-13T14:17:17.554Z</time>
      </trkpt>
      <trkpt lat="47.80234" lon="6.55111">
        <ele>475.579</ele>
        <time>2015-06-13T14:17:18.552Z</time>
      </trkpt>
      <trkpt lat="47.80238" lon="6.55104">
        <ele>476.968</ele>
        <time>2015-06-13T14:17:19.567Z</time>
      </trkpt>
      <trkpt lat="47.80241" lon="6.55098">
        <ele>477.589</ele>
        <time>2015-06-13T14:17:20.539Z</time>
      </trkpt>
      <trkpt lat="47.80243" lon="6.55089">
        <ele>477.891</ele>
        <time>2015-06-13T14:17:21.553Z</time>
      </trkpt>
      <trkpt lat="47.80244" lon="6.55078">
        <ele>477.761</ele>
        <time>2015-06-13T14:17:22.552Z</time>
      </trkpt>
      <trkpt lat="47.80248" lon="6.55071">
        <ele>478.799</ele>
        <time>2015-06-13T14:17:23.554Z</time>
      </trkpt>
      <trkpt lat="47.8025" lon="6.55066">
        <ele>479.38</ele>
        <time>2015-06-13T14:17:24.552Z</time>
      </trkpt>
      <trkpt lat="47.80254" lon="6.55059">
        <ele>480.521</ele>
        <time>2015-06-13T14:17:25.581Z</time>
      </trkpt>
      <trkpt lat="47.80259" lon="6.55053">
        <ele>481.725</ele>
        <time>2015-06-13T14:17:26.554Z</time>
      </trkpt>
      <trkpt lat="47.8026" lon="6.55045">
        <ele>482.058</ele>
        <time>2015-06-13T14:17:27.577Z</time>
      </trkpt>
      <trkpt lat="47.80257" lon="6.55035">
        <ele>480.864</ele>
        <time>2015-06-13T14:17:28.554Z</time>
      </trkpt>
      <trkpt lat="47.80253" lon="6.55026">
        <ele>479.713</ele>
        <time>2015-06-13T14:17:29.56Z</time>
      </trkpt>
      <trkpt lat="47.80252" lon="6.55018">
        <ele>479.825</ele>
        <time>2015-06-13T14:17:30.554Z</time>
      </trkpt>
      <trkpt lat="47.80251" lon="6.55009">
        <ele>479.977</ele>
        <time>2015-06-13T14:17:32.62Z</time>
      </trkpt>
      <trkpt lat="47.80254" lon="6.55">
        <ele>480.649</ele>
        <time>2015-06-13T14:17:33.562Z</time>
      </trkpt>
      <trkpt lat="47.80255" lon="6.54988">
        <ele>481.638</ele>
        <time>2015-06-13T14:17:34.554Z</time>
      </trkpt>
      <trkpt lat="47.80255" lon="6.54976">
        <ele>482.34</ele>
        <time>2015-06-13T14:17:35.562Z</time>
      </trkpt>
      <trkpt lat="47.80253" lon="6.54965">
        <ele>483.31</ele>
        <time>2015-06-13T14:17:36.56Z</time>
      </trkpt>
      <trkpt lat="47.8025" lon="6.54956">
        <ele>484.43</ele>
        <time>2015-06-13T14:17:37.562Z</time>
      </trkpt>
      <trkpt lat="47.80249" lon="6.54942">
        <ele>485.53</ele>
        <time>2015-06-13T14:17:39.552Z</time>
      </trkpt>
      <trkpt lat="47.80245" lon="6.54939">
        <ele>484.145</ele>
        <time>2015-06-13T14:17:40.553Z</time>
      </trkpt>
      <trkpt lat="47.80246" lon="6.54928">
        <ele>484.026</ele>
        <time>2015-06-13T14:17:41.568Z</time>
      </trkpt>
      <trkpt lat="47.80247" lon="6.54918">
        <ele>484.032</ele>
        <time>2015-06-13T14:17:42.516Z</time>
      </trkpt>
      <trkpt lat="47.80237" lon="6.5491">
        <ele>480.423</ele>
        <time>2015-06-13T14:17:43.553Z</time>
      </trkpt>
      <trkpt lat="47.80235" lon="6.549">
        <ele>478.969</ele>
        <time>2015-06-13T14:17:44.716Z</time>
      </trkpt>
      <trkpt lat="47.80234" lon="6.54887">
        <ele>477.621</ele>
        <time>2015-06-13T14:17:45.561Z</time>
      </trkpt>
      <trkpt lat="47.80235" lon="6.54873">
        <ele>476.581</ele>
        <time>2015-06-13T14:17:46.554Z</time>
      </trkpt>
      <trkpt lat="47.80241" lon="6.54863">
        <ele>476.509</ele>
        <time>2015-06-13T14:17:47.554Z</time>
      </trkpt>
      <trkpt lat="47.80246" lon="6.54851">
        <ele>476.602</ele>
        <time>2015-06-13T14:17:48.577Z</time>
      </trkpt>
      <trkpt lat="47.80243" lon="6.54843">
        <ele>475.454</ele>
        <time>2015-06-13T14:17:49.555Z</time>
      </trkpt>
      <trkpt lat="47.80251" lon="6.54833">
        <ele>476.301</ele>
        <time>2015-06-13T14:17:50.553Z</time>
      </trkpt>
      <trkpt lat="47.8025" lon="6.54824">
        <ele>475.632</ele>
        <time>2015-06-13T14:17:51.553Z</time>
      </trkpt>
      <trkpt lat="47.80253" lon="6.54814">
        <ele>476.331</ele>
        <time>2015-06-13T14:17:52.555Z</time>
      </trkpt>
      <trkpt lat="47.80244" lon="6.54805">
        <ele>473.894</ele>
        <time>2015-06-13T14:17:53.553Z</time>
      </trkpt>
      <trkpt lat="47.80246" lon="6.54794">
        <ele>474.238</ele>
        <time>2015-06-13T14:17:54.554Z</time>
      </trkpt>
      <trkpt lat="47.80249" lon="6.54787">
        <ele>474.775</ele>
        <time>2015-06-13T14:17:55.555Z</time>
      </trkpt>
      <trkpt lat="47.80248" lon="6.54778">
        <ele>474.461</ele>
        <time>2015-06-13T14:17:56.554Z</time>
      </trkpt>
      <trkpt lat="47.80249" lon="6.54768">
        <ele>474.031</ele>
        <time>2015-06-13T14:17:57.581Z</time>
      </trkpt>
      <trkpt lat="47.80246" lon="6.54761">
        <ele>472.995</ele>
        <time>2015-06-13T14:17:58.556Z</time>
      </trkpt>
      <trkpt lat="47.80247" lon="6.54752">
        <ele>472.64</ele>
        <time>2015-06-13T14:17:59.559Z</time>
      </trkpt>
      <trkpt lat="47.8025" lon="6.54745">
        <ele>472.615</ele>
        <time>2015-06-13T14:18:00.554Z</time>
      </trkpt>
      <trkpt lat="47.80251" lon="6.54736">
        <ele>472.041</ele>
        <time>2015-06-13T14:18:01.553Z</time>
      </trkpt>
      <trkpt lat="47.80252" lon="6.54727">
        <ele>471.433</ele>
        <time>2015-06-13T14:18:02.546Z</time>
      </trkpt>
      <trkpt lat="47.80255" lon="6.54718">
        <ele>470.694</ele>
        <time>2015-06-13T14:18:03.547Z</time>
      </trkpt>
      <trkpt lat="47.80262" lon="6.5471">
        <ele>469.862</ele>
        <time>2015-06-13T14:18:04.571Z</time>
      </trkpt>
      <trkpt lat="47.80263" lon="6.54702">
        <ele>468.929</ele>
        <time>2015-06-13T14:18:05.552Z</time>
      </trkpt>
      <trkpt lat="47.80262" lon="6.54693">
        <ele>468.063</ele>
        <time>2015-06-13T14:18:06.551Z</time>
      </trkpt>
      <trkpt lat="47.80263" lon="6.54684">
        <ele>468.295</ele>
        <time>2015-06-13T14:18:07.553Z</time>
      </trkpt>
      <trkpt lat="47.80261" lon="6.54675">
        <ele>468.908</ele>
        <time>2015-06-13T14:18:08.553Z</time>
      </trkpt>
      <trkpt lat="47.80257" lon="6.54668">
        <ele>470.137</ele>
        <time>2015-06-13T14:18:09.481Z</time>
      </trkpt>
      <trkpt lat="47.80257" lon="6.54659">
        <ele>470.638</ele>
        <time>2015-06-13T14:18:10.555Z</time>
      </trkpt>
      <trkpt lat="47.80258" lon="6.54651">
        <ele>470.912</ele>
        <time>2015-06-13T14:18:11.555Z</time>
      </trkpt>
      <trkpt lat="47.8026" lon="6.54644">
        <ele>470.591</ele>
        <time>2015-06-13T14:18:12.511Z</time>
      </trkpt>
      <trkpt lat="47.8026" lon="6.54637">
        <ele>470.953</ele>
        <time>2015-06-13T14:18:13.583Z</time>
      </trkpt>
      <trkpt lat="47.80258" lon="6.54629">
        <ele>472.01</ele>
        <time>2015-06-13T14:18:14.552Z</time>
      </trkpt>
      <trkpt lat="47.80257" lon="6.54623">
        <ele>472.614</ele>
        <time>2015-06-13T14:18:15.573Z</time>
      </trkpt>
      <trkpt lat="47.80257" lon="6.54614">
        <ele>473.063</ele>
        <time>2015-06-13T14:18:16.553Z</time>
      </trkpt>
      <trkpt lat="47.80255" lon="6.54607">
        <ele>474.148</ele>
        <time>2015-06-13T14:18:17.554Z</time>
      </trkpt>
      <trkpt lat="47.80258" lon="6.54601">
        <ele>474.362</ele>
        <time>2015-06-13T14:18:18.561Z</time>
      </trkpt>
      <trkpt lat="47.80269" lon="6.5461">
        <ele>470.355</ele>
        <time>2015-06-13T14:18:19.563Z</time>
      </trkpt>
      <trkpt lat="47.80272" lon="6.54602">
        <ele>470.441</ele>
        <time>2015-06-13T14:18:20.513Z</time>
      </trkpt>
      <trkpt lat="47.80266" lon="6.54587">
        <ele>473.972</ele>
        <time>2015-06-13T14:18:21.552Z</time>
      </trkpt>
      <trkpt lat="47.80254" lon="6.54582">
        <ele>477.915</ele>
        <time>2015-06-13T14:18:22.555Z</time>
      </trkpt>
      <trkpt lat="47.80263" lon="6.54586">
        <ele>474.971</ele>
        <time>2015-06-13T14:18:23.554Z</time>
      </trkpt>
      <trkpt lat="47.80264" lon="6.54579">
        <ele>475.319</ele>
        <time>2015-06-13T14:18:24.554Z</time>
      </trkpt>
      <trkpt lat="47.80263" lon="6.54572">
        <ele>475.807</ele>
        <time>2015-06-13T14:18:25.554Z</time>
      </trkpt>
      <trkpt lat="47.80264" lon="6.54564">
        <ele>476.004</ele>
        <time>2015-06-13T14:18:26.572Z</time>
      </trkpt>
      <trkpt lat="47.8026" lon="6.54554">
        <ele>478.025</ele>
        <time>2015-06-13T14:18:27.56Z</time>
      </trkpt>
      <trkpt lat="47.80252" lon="6.54549">
        <ele>480.93</ele>
        <time>2015-06-13T14:18:28.553Z</time>
      </trkpt>
      <trkpt lat="47.80252" lon="6.5454">
        <ele>482.086</ele>
        <time>2015-06-13T14:18:29.554Z</time>
      </trkpt>
      <trkpt lat="47.80242" lon="6.54529">
        <ele>484.19</ele>
        <time>2015-06-13T14:18:30.553Z</time>
      </trkpt>
      <trkpt lat="47.80241" lon="6.54522">
        <ele>483.513</ele>
        <time>2015-06-13T14:18:31.552Z</time>
      </trkpt>
      <trkpt lat="47.80233" lon="6.54509">
        <ele>482.984</ele>
        <time>2015-06-13T14:18:32.554Z</time>
      </trkpt>
      <trkpt lat="47.80239" lon="6.545">
        <ele>480.904</ele>
        <time>2015-06-13T14:18:36.561Z</time>
      </trkpt>
      <trkpt lat="47.80233" lon="6.54491">
        <ele>482.903</ele>
        <time>2015-06-13T14:18:37.586Z</time>
      </trkpt>
      <trkpt lat="47.80226" lon="6.54484">
        <ele>484.074</ele>
        <time>2015-06-13T14:18:38.581Z</time>
      </trkpt>
      <trkpt lat="47.80224" lon="6.54476">
        <ele>484.081</ele>
        <time>2015-06-13T14:18:39.559Z</time>
      </trkpt>
      <trkpt lat="47.80222" lon="6.54464">
        <ele>483.541</ele>
        <time>2015-06-13T14:18:41.546Z</time>
      </trkpt>
      <trkpt lat="47.80221" lon="6.54456">
        <ele>483.087</ele>
        <time>2015-06-13T14:18:42.543Z</time>
      </trkpt>
      <trkpt lat="47.8022" lon="6.5445">
        <ele>482.706</ele>
        <time>2015-06-13T14:18:43.574Z</time>
      </trkpt>
      <trkpt lat="47.80225" lon="6.54444">
        <ele>482.323</ele>
        <time>2015-06-13T14:18:44.559Z</time>
      </trkpt>
      <trkpt lat="47.80222" lon="6.54432">
        <ele>482.479</ele>
        <time>2015-06-13T14:18:46.551Z</time>
      </trkpt>
      <trkpt lat="47.80214" lon="6.5442">
        <ele>483.508</ele>
        <time>2015-06-13T14:18:47.551Z</time>
      </trkpt>
      <trkpt lat="47.80215" lon="6.54409">
        <ele>483.148</ele>
        <time>2015-06-13T14:18:49.555Z</time>
      </trkpt>
      <trkpt lat="47.80212" lon="6.54401">
        <ele>483.009</ele>
        <time>2015-06-13T14:18:50.546Z</time>
      </trkpt>
      <trkpt lat="47.80213" lon="6.54392">
        <ele>482.483</ele>
        <time>2015-06-13T14:18:51.553Z</time>
      </trkpt>
      <trkpt lat="47.80216" lon="6.54386">
        <ele>481.757</ele>
        <time>2015-06-13T14:18:52.635Z</time>
      </trkpt>
      <trkpt lat="47.80215" lon="6.54377">
        <ele>481.268</ele>
        <time>2015-06-13T14:18:53.552Z</time>
      </trkpt>
      <trkpt lat="47.80215" lon="6.54368">
        <ele>480.708</ele>
        <time>2015-06-13T14:18:54.554Z</time>
      </trkpt>
      <trkpt lat="47.80211" lon="6.54362">
        <ele>480.483</ele>
        <time>2015-06-13T14:18:55.525Z</time>
      </trkpt>
      <trkpt lat="47.80211" lon="6.54353">
        <ele>479.68</ele>
        <time>2015-06-13T14:18:56.554Z</time>
      </trkpt>
      <trkpt lat="47.8021" lon="6.54344">
        <ele>478.951</ele>
        <time>2015-06-13T14:18:57.554Z</time>
      </trkpt>
      <trkpt lat="47.8021" lon="6.54334">
        <ele>478.023</ele>
        <time>2015-06-13T14:18:58.518Z</time>
      </trkpt>
      <trkpt lat="47.80204" lon="6.54325">
        <ele>477.475</ele>
        <time>2015-06-13T14:18:59.561Z</time>
      </trkpt>
      <trkpt lat="47.80211" lon="6.54319">
        <ele>477.261</ele>
        <time>2015-06-13T14:19:00.539Z</time>
      </trkpt>
      <trkpt lat="47.80209" lon="6.54307">
        <ele>476.592</ele>
        <time>2015-06-13T14:19:01.56Z</time>
      </trkpt>
      <trkpt lat="47.80208" lon="6.54301">
        <ele>476.154</ele>
        <time>2015-06-13T14:19:02.547Z</time>
      </trkpt>
      <trkpt lat="47.80205" lon="6.54292">
        <ele>475.521</ele>
        <time>2015-06-13T14:19:03.545Z</time>
      </trkpt>
      <trkpt lat="47.80203" lon="6.54281">
        <ele>474.879</ele>
        <time>2015-06-13T14:19:04.552Z</time>
      </trkpt>
      <trkpt lat="47.80201" lon="6.54272">
        <ele>474.625</ele>
        <time>2015-06-13T14:19:06.557Z</time>
      </trkpt>
      <trkpt lat="47.80208" lon="6.54265">
        <ele>473.868</ele>
        <time>2015-06-13T14:19:07.557Z</time>
      </trkpt>
      <trkpt lat="47.80208" lon="6.54261">
        <ele>473.633</ele>
        <time>2015-06-13T14:19:08.577Z</time>
      </trkpt>
      <trkpt lat="47.80211" lon="6.54249">
        <ele>472.738</ele>
        <time>2015-06-13T14:19:09.553Z</time>
      </trkpt>
      <trkpt lat="47.80203" lon="6.54242">
        <ele>474.005</ele>
        <time>2015-06-13T14:19:10.554Z</time>
      </trkpt>
      <trkpt lat="47.802" lon="6.54234">
        <ele>474.447</ele>
        <time>2015-06-13T14:19:11.553Z</time>
      </trkpt>
      <trkpt lat="47.80196" lon="6.54225">
        <ele>474.871</ele>
        <time>2015-06-13T14:19:12.554Z</time>
      </trkpt>
      <trkpt lat="47.8019" lon="6.54216">
        <ele>475.606</ele>
        <time>2015-06-13T14:19:13.553Z</time>
      </trkpt>
      <trkpt lat="47.80187" lon="6.54205">
        <ele>476.111</ele>
        <time>2015-06-13T14:19:14.555Z</time>
      </trkpt>
      <trkpt lat="47.80184" lon="6.54196">
        <ele>476.229</ele>
        <time>2015-06-13T14:19:15.553Z</time>
      </trkpt>
      <trkpt lat="47.80187" lon="6.54189">
        <ele>475.83</ele>
        <time>2015-06-13T14:19:16.554Z</time>
      </trkpt>
      <trkpt lat="47.80175" lon="6.5418">
        <ele>474.614</ele>
        <time>2015-06-13T14:19:17.554Z</time>
      </trkpt>
      <trkpt lat="47.80175" lon="6.54171">
        <ele>474.022</ele>
        <time>2015-06-13T14:19:18.553Z</time>
      </trkpt>
      <trkpt lat="47.80175" lon="6.54162">
        <ele>473.935</ele>
        <time>2015-06-13T14:19:19.552Z</time>
      </trkpt>
      <trkpt lat="47.80172" lon="6.54154">
        <ele>474.513</ele>
        <time>2015-06-13T14:19:20.552Z</time>
      </trkpt>
      <trkpt lat="47.80173" lon="6.54148">
        <ele>474.852</ele>
        <time>2015-06-13T14:19:21.554Z</time>
      </trkpt>
      <trkpt lat="47.8017" lon="6.54138">
        <ele>475.654</ele>
        <time>2015-06-13T14:19:22.556Z</time>
      </trkpt>
      <trkpt lat="47.80173" lon="6.54131">
        <ele>475.568</ele>
        <time>2015-06-13T14:19:23.555Z</time>
      </trkpt>
      <trkpt lat="47.80176" lon="6.54125">
        <ele>475.449</ele>
        <time>2015-06-13T14:19:24.576Z</time>
      </trkpt>
      <trkpt lat="47.80178" lon="6.54118">
        <ele>475.514</ele>
        <time>2015-06-13T14:19:25.554Z</time>
      </trkpt>
      <trkpt lat="47.80176" lon="6.5411">
        <ele>476.012</ele>
        <time>2015-06-13T14:19:26.554Z</time>
      </trkpt>
      <trkpt lat="47.80176" lon="6.54102">
        <ele>475.721</ele>
        <time>2015-06-13T14:19:27.553Z</time>
      </trkpt>
      <trkpt lat="47.80179" lon="6.54094">
        <ele>475.17</ele>
        <time>2015-06-13T14:19:28.554Z</time>
      </trkpt>
      <trkpt lat="47.80177" lon="6.54084">
        <ele>475.119</ele>
        <time>2015-06-13T14:19:29.554Z</time>
      </trkpt>
      <trkpt lat="47.80177" lon="6.54073">
        <ele>474.267</ele>
        <time>2015-06-13T14:19:30.554Z</time>
      </trkpt>
      <trkpt lat="47.80171" lon="6.54063">
        <ele>474.087</ele>
        <time>2015-06-13T14:19:31.552Z</time>
      </trkpt>
      <trkpt lat="47.80168" lon="6.54056">
        <ele>473.848</ele>
        <time>2015-06-13T14:19:32.555Z</time>
      </trkpt>
      <trkpt lat="47.8016" lon="6.54047">
        <ele>473.033</ele>
        <time>2015-06-13T14:19:33.555Z</time>
      </trkpt>
      <trkpt lat="47.80154" lon="6.54036">
        <ele>472.545</ele>
        <time>2015-06-13T14:19:34.553Z</time>
      </trkpt>
      <trkpt lat="47.80159" lon="6.54021">
        <ele>470.199</ele>
        <time>2015-06-13T14:19:35.554Z</time>
      </trkpt>
      <trkpt lat="47.80152" lon="6.54023">
        <ele>471.914</ele>
        <time>2015-06-13T14:19:36.554Z</time>
      </trkpt>
      <trkpt lat="47.80147" lon="6.54029">
        <ele>473.307</ele>
        <time>2015-06-13T14:19:37.554Z</time>
      </trkpt>
      <trkpt lat="47.80144" lon="6.54033">
        <ele>474.079</ele>
        <time>2015-06-13T14:19:38.554Z</time>
      </trkpt>
      <trkpt lat="47.80136" lon="6.5404">
        <ele>475.202</ele>
        <time>2015-06-13T14:19:39.724Z</time>
      </trkpt>
      <trkpt lat="47.8013" lon="6.54049">
        <ele>475.782</ele>
        <time>2015-06-13T14:19:41.554Z</time>
      </trkpt>
      <trkpt lat="47.80126" lon="6.5405">
        <ele>476.248</ele>
        <time>2015-06-13T14:19:42.553Z</time>
      </trkpt>
      <trkpt lat="47.80122" lon="6.54058">
        <ele>477.001</ele>
        <time>2015-06-13T14:19:43.567Z</time>
      </trkpt>
      <trkpt lat="47.80116" lon="6.54065">
        <ele>477.9</ele>
        <time>2015-06-13T14:19:44.552Z</time>
      </trkpt>
      <trkpt lat="47.80111" lon="6.54067">
        <ele>478.407</ele>
        <time>2015-06-13T14:19:45.644Z</time>
      </trkpt>
      <trkpt lat="47.80107" lon="6.5407">
        <ele>477.954</ele>
        <time>2015-06-13T14:19:46.553Z</time>
      </trkpt>
      <trkpt lat="47.80102" lon="6.54075">
        <ele>477.515</ele>
        <time>2015-06-13T14:19:47.553Z</time>
      </trkpt>
      <trkpt lat="47.80096" lon="6.54081">
        <ele>476.801</ele>
        <time>2015-06-13T14:19:48.561Z</time>
      </trkpt>
      <trkpt lat="47.8009" lon="6.5409">
        <ele>476.512</ele>
        <time>2015-06-13T14:19:49.556Z</time>
      </trkpt>
      <trkpt lat="47.80086" lon="6.54096">
        <ele>476.26</ele>
        <time>2015-06-13T14:19:50.512Z</time>
      </trkpt>
      <trkpt lat="47.80081" lon="6.54103">
        <ele>476.17</ele>
        <time>2015-06-13T14:19:51.534Z</time>
      </trkpt>
      <trkpt lat="47.80075" lon="6.54108">
        <ele>476.088</ele>
        <time>2015-06-13T14:19:52.554Z</time>
      </trkpt>
      <trkpt lat="47.8007" lon="6.54115">
        <ele>476.994</ele>
        <time>2015-06-13T14:19:53.554Z</time>
      </trkpt>
      <trkpt lat="47.80067" lon="6.54119">
        <ele>477.882</ele>
        <time>2015-06-13T14:19:54.571Z</time>
      </trkpt>
      <trkpt lat="47.80061" lon="6.54125">
        <ele>479.412</ele>
        <time>2015-06-13T14:19:57.518Z</time>
      </trkpt>
      <trkpt lat="47.80059" lon="6.54128">
        <ele>480.412</ele>
        <time>2015-06-13T14:19:58.567Z</time>
      </trkpt>
      <trkpt lat="47.80054" lon="6.54139">
        <ele>483.728</ele>
        <time>2015-06-13T14:20:05.132Z</time>
      </trkpt>
    </trkseg>
  </trk>
</gpx>